<?xml version="1.0" encoding="UTF-8" standalone="no" ?>
<gpx xmlns="http://www.topografix.com/GPX/1/1" xmlns:xsi="http://www.w3.org/2001/XMLSchema-instance" xsi:schemaLocation="http://www.topografix.com/GPX/1/1 http://www.topografix.com/GPX/1/1/gpx.xsd" version="1.1" creator="VisuGPX - https://www.visugpx.com">
  <metadata>
    <name>Solo Benquet-Assat</name>
    <desc><![CDATA[Solo Benquet-Assat par Saint-Sever, Samadet]]></desc>
  </metadata>
  <trk>
    <name><![CDATA[Solo Benquet-Assat_1]]></name>
    <trkseg>
      <trkpt lat="43.83094" lon="-0.50009">
        <ele>80.1</ele>
        <time>2010-12-12T07:58:08Z</time>
      </trkpt>
      <trkpt lat="43.83092" lon="-0.50012">
        <ele>74.3</ele>
        <time>2010-12-12T07:58:33Z</time>
      </trkpt>
      <trkpt lat="43.83094" lon="-0.50038">
        <ele>42.9</ele>
        <time>2010-12-12T07:59:42Z</time>
      </trkpt>
      <trkpt lat="43.83095" lon="-0.50035">
        <ele>42</ele>
        <time>2010-12-12T07:59:46Z</time>
      </trkpt>
      <trkpt lat="43.83092" lon="-0.50037">
        <ele>48.7</ele>
        <time>2010-12-12T07:59:52Z</time>
      </trkpt>
      <trkpt lat="43.8309" lon="-0.50049">
        <ele>53.1</ele>
        <time>2010-12-12T08:00:12Z</time>
      </trkpt>
      <trkpt lat="43.83091" lon="-0.50059">
        <ele>53.5</ele>
        <time>2010-12-12T08:00:43Z</time>
      </trkpt>
      <trkpt lat="43.83089" lon="-0.50052">
        <ele>64.2</ele>
        <time>2010-12-12T08:01:22Z</time>
      </trkpt>
      <trkpt lat="43.83083" lon="-0.50068">
        <ele>68.9</ele>
        <time>2010-12-12T08:01:34Z</time>
      </trkpt>
      <trkpt lat="43.83063" lon="-0.50084">
        <ele>69</ele>
        <time>2010-12-12T08:01:41Z</time>
      </trkpt>
      <trkpt lat="43.8304" lon="-0.501">
        <ele>65.3</ele>
        <time>2010-12-12T08:01:49Z</time>
      </trkpt>
      <trkpt lat="43.83013" lon="-0.5011">
        <ele>64.8</ele>
        <time>2010-12-12T08:01:58Z</time>
      </trkpt>
      <trkpt lat="43.82988" lon="-0.50114">
        <ele>64.7</ele>
        <time>2010-12-12T08:02:05Z</time>
      </trkpt>
      <trkpt lat="43.82961" lon="-0.50123">
        <ele>66.2</ele>
        <time>2010-12-12T08:02:14Z</time>
      </trkpt>
      <trkpt lat="43.82938" lon="-0.50128">
        <ele>66.8</ele>
        <time>2010-12-12T08:02:19Z</time>
      </trkpt>
      <trkpt lat="43.82921" lon="-0.50144">
        <ele>67.2</ele>
        <time>2010-12-12T08:02:24Z</time>
      </trkpt>
      <trkpt lat="43.82912" lon="-0.50169">
        <ele>68.9</ele>
        <time>2010-12-12T08:02:28Z</time>
      </trkpt>
      <trkpt lat="43.82911" lon="-0.50201">
        <ele>70</ele>
        <time>2010-12-12T08:02:32Z</time>
      </trkpt>
      <trkpt lat="43.82915" lon="-0.50234">
        <ele>69.9</ele>
        <time>2010-12-12T08:02:36Z</time>
      </trkpt>
      <trkpt lat="43.82919" lon="-0.50261">
        <ele>70.6</ele>
        <time>2010-12-12T08:02:40Z</time>
      </trkpt>
      <trkpt lat="43.82923" lon="-0.5029">
        <ele>71.3</ele>
        <time>2010-12-12T08:02:44Z</time>
      </trkpt>
      <trkpt lat="43.82925" lon="-0.50322">
        <ele>71.6</ele>
        <time>2010-12-12T08:02:48Z</time>
      </trkpt>
      <trkpt lat="43.82928" lon="-0.50357">
        <ele>71.7</ele>
        <time>2010-12-12T08:02:52Z</time>
      </trkpt>
      <trkpt lat="43.8293" lon="-0.50393">
        <ele>71.9</ele>
        <time>2010-12-12T08:02:56Z</time>
      </trkpt>
      <trkpt lat="43.82932" lon="-0.50425">
        <ele>71.8</ele>
        <time>2010-12-12T08:03:00Z</time>
      </trkpt>
      <trkpt lat="43.82934" lon="-0.50459">
        <ele>71.7</ele>
        <time>2010-12-12T08:03:04Z</time>
      </trkpt>
      <trkpt lat="43.82935" lon="-0.50492">
        <ele>72.3</ele>
        <time>2010-12-12T08:03:08Z</time>
      </trkpt>
      <trkpt lat="43.82936" lon="-0.50522">
        <ele>72.3</ele>
        <time>2010-12-12T08:03:12Z</time>
      </trkpt>
      <trkpt lat="43.82937" lon="-0.50555">
        <ele>72.9</ele>
        <time>2010-12-12T08:03:16Z</time>
      </trkpt>
      <trkpt lat="43.82944" lon="-0.50589">
        <ele>73.6</ele>
        <time>2010-12-12T08:03:20Z</time>
      </trkpt>
      <trkpt lat="43.82946" lon="-0.50621">
        <ele>73.8</ele>
        <time>2010-12-12T08:03:24Z</time>
      </trkpt>
      <trkpt lat="43.8295" lon="-0.50654">
        <ele>73.6</ele>
        <time>2010-12-12T08:03:28Z</time>
      </trkpt>
      <trkpt lat="43.82953" lon="-0.50689">
        <ele>73.3</ele>
        <time>2010-12-12T08:03:32Z</time>
      </trkpt>
      <trkpt lat="43.82954" lon="-0.50721">
        <ele>72.7</ele>
        <time>2010-12-12T08:03:36Z</time>
      </trkpt>
      <trkpt lat="43.82957" lon="-0.50752">
        <ele>75.5</ele>
        <time>2010-12-12T08:03:40Z</time>
      </trkpt>
      <trkpt lat="43.82961" lon="-0.50782">
        <ele>78.4</ele>
        <time>2010-12-12T08:03:44Z</time>
      </trkpt>
      <trkpt lat="43.82964" lon="-0.50812">
        <ele>78.2</ele>
        <time>2010-12-12T08:03:48Z</time>
      </trkpt>
      <trkpt lat="43.82967" lon="-0.50847">
        <ele>78.4</ele>
        <time>2010-12-12T08:03:52Z</time>
      </trkpt>
      <trkpt lat="43.82969" lon="-0.5088">
        <ele>78.8</ele>
        <time>2010-12-12T08:03:56Z</time>
      </trkpt>
      <trkpt lat="43.82971" lon="-0.50912">
        <ele>79.2</ele>
        <time>2010-12-12T08:04:00Z</time>
      </trkpt>
      <trkpt lat="43.82972" lon="-0.50942">
        <ele>79.4</ele>
        <time>2010-12-12T08:04:04Z</time>
      </trkpt>
      <trkpt lat="43.8297" lon="-0.50972">
        <ele>79.3</ele>
        <time>2010-12-12T08:04:08Z</time>
      </trkpt>
      <trkpt lat="43.8296" lon="-0.50997">
        <ele>79.2</ele>
        <time>2010-12-12T08:04:12Z</time>
      </trkpt>
      <trkpt lat="43.82947" lon="-0.5102">
        <ele>79.1</ele>
        <time>2010-12-12T08:04:16Z</time>
      </trkpt>
      <trkpt lat="43.8293" lon="-0.51043">
        <ele>78.9</ele>
        <time>2010-12-12T08:04:20Z</time>
      </trkpt>
      <trkpt lat="43.8291" lon="-0.51066">
        <ele>79.3</ele>
        <time>2010-12-12T08:04:24Z</time>
      </trkpt>
      <trkpt lat="43.82891" lon="-0.51091">
        <ele>80</ele>
        <time>2010-12-12T08:04:28Z</time>
      </trkpt>
      <trkpt lat="43.82877" lon="-0.5112">
        <ele>79.9</ele>
        <time>2010-12-12T08:04:32Z</time>
      </trkpt>
      <trkpt lat="43.82871" lon="-0.51151">
        <ele>77.7</ele>
        <time>2010-12-12T08:04:36Z</time>
      </trkpt>
      <trkpt lat="43.82873" lon="-0.5118">
        <ele>77.2</ele>
        <time>2010-12-12T08:04:40Z</time>
      </trkpt>
      <trkpt lat="43.82875" lon="-0.51208">
        <ele>76.6</ele>
        <time>2010-12-12T08:04:44Z</time>
      </trkpt>
      <trkpt lat="43.82877" lon="-0.51239">
        <ele>75.5</ele>
        <time>2010-12-12T08:04:48Z</time>
      </trkpt>
      <trkpt lat="43.82879" lon="-0.51272">
        <ele>75</ele>
        <time>2010-12-12T08:04:52Z</time>
      </trkpt>
      <trkpt lat="43.8288" lon="-0.51302">
        <ele>74.5</ele>
        <time>2010-12-12T08:04:56Z</time>
      </trkpt>
      <trkpt lat="43.82881" lon="-0.51332">
        <ele>74.9</ele>
        <time>2010-12-12T08:05:00Z</time>
      </trkpt>
      <trkpt lat="43.82881" lon="-0.51363">
        <ele>75.9</ele>
        <time>2010-12-12T08:05:04Z</time>
      </trkpt>
      <trkpt lat="43.82883" lon="-0.51387">
        <ele>77.3</ele>
        <time>2010-12-12T08:05:08Z</time>
      </trkpt>
      <trkpt lat="43.82886" lon="-0.51412">
        <ele>79.4</ele>
        <time>2010-12-12T08:05:12Z</time>
      </trkpt>
      <trkpt lat="43.82887" lon="-0.51445">
        <ele>79.9</ele>
        <time>2010-12-12T08:05:16Z</time>
      </trkpt>
      <trkpt lat="43.82887" lon="-0.51475">
        <ele>80.8</ele>
        <time>2010-12-12T08:05:20Z</time>
      </trkpt>
      <trkpt lat="43.82887" lon="-0.51506">
        <ele>82.7</ele>
        <time>2010-12-12T08:05:24Z</time>
      </trkpt>
      <trkpt lat="43.82891" lon="-0.51536">
        <ele>82.8</ele>
        <time>2010-12-12T08:05:28Z</time>
      </trkpt>
      <trkpt lat="43.82893" lon="-0.51567">
        <ele>83.8</ele>
        <time>2010-12-12T08:05:32Z</time>
      </trkpt>
      <trkpt lat="43.82896" lon="-0.51601">
        <ele>84.6</ele>
        <time>2010-12-12T08:05:36Z</time>
      </trkpt>
      <trkpt lat="43.82898" lon="-0.51635">
        <ele>84.8</ele>
        <time>2010-12-12T08:05:40Z</time>
      </trkpt>
      <trkpt lat="43.829" lon="-0.51665">
        <ele>84.3</ele>
        <time>2010-12-12T08:05:44Z</time>
      </trkpt>
      <trkpt lat="43.82902" lon="-0.51697">
        <ele>86</ele>
        <time>2010-12-12T08:05:48Z</time>
      </trkpt>
      <trkpt lat="43.82901" lon="-0.51733">
        <ele>86.9</ele>
        <time>2010-12-12T08:05:52Z</time>
      </trkpt>
      <trkpt lat="43.82895" lon="-0.51767">
        <ele>85.4</ele>
        <time>2010-12-12T08:05:56Z</time>
      </trkpt>
      <trkpt lat="43.82884" lon="-0.51801">
        <ele>85</ele>
        <time>2010-12-12T08:06:00Z</time>
      </trkpt>
      <trkpt lat="43.82872" lon="-0.51833">
        <ele>85.3</ele>
        <time>2010-12-12T08:06:04Z</time>
      </trkpt>
      <trkpt lat="43.8286" lon="-0.51864">
        <ele>85.2</ele>
        <time>2010-12-12T08:06:08Z</time>
      </trkpt>
      <trkpt lat="43.82845" lon="-0.51898">
        <ele>85.1</ele>
        <time>2010-12-12T08:06:12Z</time>
      </trkpt>
      <trkpt lat="43.82831" lon="-0.51931">
        <ele>84.8</ele>
        <time>2010-12-12T08:06:16Z</time>
      </trkpt>
      <trkpt lat="43.8282" lon="-0.51965">
        <ele>84.2</ele>
        <time>2010-12-12T08:06:20Z</time>
      </trkpt>
      <trkpt lat="43.82809" lon="-0.51998">
        <ele>82.6</ele>
        <time>2010-12-12T08:06:24Z</time>
      </trkpt>
      <trkpt lat="43.82799" lon="-0.52034">
        <ele>81.2</ele>
        <time>2010-12-12T08:06:28Z</time>
      </trkpt>
      <trkpt lat="43.82792" lon="-0.5207">
        <ele>80.4</ele>
        <time>2010-12-12T08:06:32Z</time>
      </trkpt>
      <trkpt lat="43.82783" lon="-0.52106">
        <ele>79.3</ele>
        <time>2010-12-12T08:06:36Z</time>
      </trkpt>
      <trkpt lat="43.82777" lon="-0.52139">
        <ele>79</ele>
        <time>2010-12-12T08:06:40Z</time>
      </trkpt>
      <trkpt lat="43.82769" lon="-0.52174">
        <ele>79.3</ele>
        <time>2010-12-12T08:06:44Z</time>
      </trkpt>
      <trkpt lat="43.8276" lon="-0.52212">
        <ele>78.6</ele>
        <time>2010-12-12T08:06:48Z</time>
      </trkpt>
      <trkpt lat="43.82752" lon="-0.52246">
        <ele>76.8</ele>
        <time>2010-12-12T08:06:52Z</time>
      </trkpt>
      <trkpt lat="43.82746" lon="-0.5228">
        <ele>76.4</ele>
        <time>2010-12-12T08:06:56Z</time>
      </trkpt>
      <trkpt lat="43.8274" lon="-0.52314">
        <ele>76.9</ele>
        <time>2010-12-12T08:07:00Z</time>
      </trkpt>
      <trkpt lat="43.82733" lon="-0.52347">
        <ele>77.1</ele>
        <time>2010-12-12T08:07:04Z</time>
      </trkpt>
      <trkpt lat="43.82724" lon="-0.52379">
        <ele>76.3</ele>
        <time>2010-12-12T08:07:08Z</time>
      </trkpt>
      <trkpt lat="43.82717" lon="-0.52412">
        <ele>76.1</ele>
        <time>2010-12-12T08:07:12Z</time>
      </trkpt>
      <trkpt lat="43.82707" lon="-0.52446">
        <ele>75.9</ele>
        <time>2010-12-12T08:07:16Z</time>
      </trkpt>
      <trkpt lat="43.827" lon="-0.52481">
        <ele>76.4</ele>
        <time>2010-12-12T08:07:20Z</time>
      </trkpt>
      <trkpt lat="43.82696" lon="-0.52516">
        <ele>76.6</ele>
        <time>2010-12-12T08:07:24Z</time>
      </trkpt>
      <trkpt lat="43.82691" lon="-0.52549">
        <ele>77.2</ele>
        <time>2010-12-12T08:07:28Z</time>
      </trkpt>
      <trkpt lat="43.82686" lon="-0.52583">
        <ele>77.3</ele>
        <time>2010-12-12T08:07:32Z</time>
      </trkpt>
      <trkpt lat="43.82682" lon="-0.52618">
        <ele>77.3</ele>
        <time>2010-12-12T08:07:36Z</time>
      </trkpt>
      <trkpt lat="43.82675" lon="-0.52654">
        <ele>77.5</ele>
        <time>2010-12-12T08:07:40Z</time>
      </trkpt>
      <trkpt lat="43.82667" lon="-0.52693">
        <ele>77.8</ele>
        <time>2010-12-12T08:07:44Z</time>
      </trkpt>
      <trkpt lat="43.82659" lon="-0.52729">
        <ele>78.3</ele>
        <time>2010-12-12T08:07:48Z</time>
      </trkpt>
      <trkpt lat="43.82651" lon="-0.52762">
        <ele>77.1</ele>
        <time>2010-12-12T08:07:52Z</time>
      </trkpt>
      <trkpt lat="43.82646" lon="-0.52796">
        <ele>77.1</ele>
        <time>2010-12-12T08:07:56Z</time>
      </trkpt>
      <trkpt lat="43.82642" lon="-0.52832">
        <ele>77.3</ele>
        <time>2010-12-12T08:08:00Z</time>
      </trkpt>
      <trkpt lat="43.82636" lon="-0.52863">
        <ele>77.8</ele>
        <time>2010-12-12T08:08:04Z</time>
      </trkpt>
      <trkpt lat="43.82633" lon="-0.52901">
        <ele>78.8</ele>
        <time>2010-12-12T08:08:08Z</time>
      </trkpt>
      <trkpt lat="43.82631" lon="-0.52943">
        <ele>78.2</ele>
        <time>2010-12-12T08:08:12Z</time>
      </trkpt>
      <trkpt lat="43.82628" lon="-0.52984">
        <ele>77</ele>
        <time>2010-12-12T08:08:16Z</time>
      </trkpt>
      <trkpt lat="43.82619" lon="-0.53026">
        <ele>75.3</ele>
        <time>2010-12-12T08:08:20Z</time>
      </trkpt>
      <trkpt lat="43.82605" lon="-0.53061">
        <ele>74.8</ele>
        <time>2010-12-12T08:08:24Z</time>
      </trkpt>
      <trkpt lat="43.82595" lon="-0.53094">
        <ele>74.8</ele>
        <time>2010-12-12T08:08:28Z</time>
      </trkpt>
      <trkpt lat="43.82585" lon="-0.53125">
        <ele>73.9</ele>
        <time>2010-12-12T08:08:32Z</time>
      </trkpt>
      <trkpt lat="43.82575" lon="-0.53158">
        <ele>74.2</ele>
        <time>2010-12-12T08:08:36Z</time>
      </trkpt>
      <trkpt lat="43.82565" lon="-0.53193">
        <ele>74.4</ele>
        <time>2010-12-12T08:08:40Z</time>
      </trkpt>
      <trkpt lat="43.82554" lon="-0.53226">
        <ele>75.2</ele>
        <time>2010-12-12T08:08:44Z</time>
      </trkpt>
      <trkpt lat="43.82544" lon="-0.53259">
        <ele>75.2</ele>
        <time>2010-12-12T08:08:48Z</time>
      </trkpt>
      <trkpt lat="43.82534" lon="-0.53295">
        <ele>75.1</ele>
        <time>2010-12-12T08:08:52Z</time>
      </trkpt>
      <trkpt lat="43.82522" lon="-0.53329">
        <ele>73.9</ele>
        <time>2010-12-12T08:08:56Z</time>
      </trkpt>
      <trkpt lat="43.8251" lon="-0.53364">
        <ele>73.6</ele>
        <time>2010-12-12T08:09:00Z</time>
      </trkpt>
      <trkpt lat="43.82498" lon="-0.534">
        <ele>72.9</ele>
        <time>2010-12-12T08:09:04Z</time>
      </trkpt>
      <trkpt lat="43.82486" lon="-0.53435">
        <ele>72.3</ele>
        <time>2010-12-12T08:09:08Z</time>
      </trkpt>
      <trkpt lat="43.82472" lon="-0.53467">
        <ele>72.8</ele>
        <time>2010-12-12T08:09:12Z</time>
      </trkpt>
      <trkpt lat="43.82461" lon="-0.53491">
        <ele>74.5</ele>
        <time>2010-12-12T08:09:16Z</time>
      </trkpt>
      <trkpt lat="43.8245" lon="-0.53522">
        <ele>75.4</ele>
        <time>2010-12-12T08:09:20Z</time>
      </trkpt>
      <trkpt lat="43.82441" lon="-0.53554">
        <ele>76.1</ele>
        <time>2010-12-12T08:09:24Z</time>
      </trkpt>
      <trkpt lat="43.82429" lon="-0.53583">
        <ele>76.3</ele>
        <time>2010-12-12T08:09:28Z</time>
      </trkpt>
      <trkpt lat="43.82411" lon="-0.53611">
        <ele>76.9</ele>
        <time>2010-12-12T08:09:32Z</time>
      </trkpt>
      <trkpt lat="43.82404" lon="-0.53642">
        <ele>77.2</ele>
        <time>2010-12-12T08:09:38Z</time>
      </trkpt>
      <trkpt lat="43.82412" lon="-0.53672">
        <ele>79.7</ele>
        <time>2010-12-12T08:09:42Z</time>
      </trkpt>
      <trkpt lat="43.82427" lon="-0.537">
        <ele>81.7</ele>
        <time>2010-12-12T08:09:46Z</time>
      </trkpt>
      <trkpt lat="43.82446" lon="-0.53711">
        <ele>82.5</ele>
        <time>2010-12-12T08:09:50Z</time>
      </trkpt>
      <trkpt lat="43.82468" lon="-0.53723">
        <ele>83.3</ele>
        <time>2010-12-12T08:09:54Z</time>
      </trkpt>
      <trkpt lat="43.82479" lon="-0.53755">
        <ele>79.8</ele>
        <time>2010-12-12T08:09:58Z</time>
      </trkpt>
      <trkpt lat="43.82472" lon="-0.53797">
        <ele>77.1</ele>
        <time>2010-12-12T08:10:02Z</time>
      </trkpt>
      <trkpt lat="43.82466" lon="-0.53836">
        <ele>75.7</ele>
        <time>2010-12-12T08:10:06Z</time>
      </trkpt>
      <trkpt lat="43.82469" lon="-0.53872">
        <ele>74.8</ele>
        <time>2010-12-12T08:10:10Z</time>
      </trkpt>
      <trkpt lat="43.82476" lon="-0.53906">
        <ele>75.1</ele>
        <time>2010-12-12T08:10:14Z</time>
      </trkpt>
      <trkpt lat="43.82484" lon="-0.53936">
        <ele>75.9</ele>
        <time>2010-12-12T08:10:18Z</time>
      </trkpt>
      <trkpt lat="43.82492" lon="-0.53967">
        <ele>75.6</ele>
        <time>2010-12-12T08:10:22Z</time>
      </trkpt>
      <trkpt lat="43.82497" lon="-0.53996">
        <ele>76.8</ele>
        <time>2010-12-12T08:10:26Z</time>
      </trkpt>
      <trkpt lat="43.82503" lon="-0.5403">
        <ele>77.3</ele>
        <time>2010-12-12T08:10:30Z</time>
      </trkpt>
      <trkpt lat="43.82511" lon="-0.54065">
        <ele>77.6</ele>
        <time>2010-12-12T08:10:34Z</time>
      </trkpt>
      <trkpt lat="43.82517" lon="-0.54095">
        <ele>77.7</ele>
        <time>2010-12-12T08:10:38Z</time>
      </trkpt>
      <trkpt lat="43.82522" lon="-0.54131">
        <ele>78.1</ele>
        <time>2010-12-12T08:10:42Z</time>
      </trkpt>
      <trkpt lat="43.82517" lon="-0.5417">
        <ele>77.5</ele>
        <time>2010-12-12T08:10:46Z</time>
      </trkpt>
      <trkpt lat="43.82501" lon="-0.54196">
        <ele>76.6</ele>
        <time>2010-12-12T08:10:50Z</time>
      </trkpt>
      <trkpt lat="43.82481" lon="-0.54217">
        <ele>76.7</ele>
        <time>2010-12-12T08:10:54Z</time>
      </trkpt>
      <trkpt lat="43.8246" lon="-0.54238">
        <ele>77.5</ele>
        <time>2010-12-12T08:10:58Z</time>
      </trkpt>
      <trkpt lat="43.82439" lon="-0.54262">
        <ele>77.3</ele>
        <time>2010-12-12T08:11:02Z</time>
      </trkpt>
      <trkpt lat="43.82416" lon="-0.54284">
        <ele>77.7</ele>
        <time>2010-12-12T08:11:06Z</time>
      </trkpt>
      <trkpt lat="43.82396" lon="-0.54311">
        <ele>78.2</ele>
        <time>2010-12-12T08:11:10Z</time>
      </trkpt>
      <trkpt lat="43.82384" lon="-0.5435">
        <ele>76.9</ele>
        <time>2010-12-12T08:11:14Z</time>
      </trkpt>
      <trkpt lat="43.82377" lon="-0.54395">
        <ele>76.3</ele>
        <time>2010-12-12T08:11:18Z</time>
      </trkpt>
      <trkpt lat="43.82371" lon="-0.54442">
        <ele>75</ele>
        <time>2010-12-12T08:11:22Z</time>
      </trkpt>
      <trkpt lat="43.82376" lon="-0.54485">
        <ele>75.4</ele>
        <time>2010-12-12T08:11:26Z</time>
      </trkpt>
      <trkpt lat="43.82384" lon="-0.54524">
        <ele>75.6</ele>
        <time>2010-12-12T08:11:30Z</time>
      </trkpt>
      <trkpt lat="43.82393" lon="-0.54559">
        <ele>75.7</ele>
        <time>2010-12-12T08:11:34Z</time>
      </trkpt>
      <trkpt lat="43.82401" lon="-0.54593">
        <ele>75.6</ele>
        <time>2010-12-12T08:11:38Z</time>
      </trkpt>
      <trkpt lat="43.82409" lon="-0.54627">
        <ele>74.4</ele>
        <time>2010-12-12T08:11:42Z</time>
      </trkpt>
      <trkpt lat="43.82418" lon="-0.54663">
        <ele>73.3</ele>
        <time>2010-12-12T08:11:46Z</time>
      </trkpt>
      <trkpt lat="43.82424" lon="-0.54698">
        <ele>73.3</ele>
        <time>2010-12-12T08:11:50Z</time>
      </trkpt>
      <trkpt lat="43.82433" lon="-0.54731">
        <ele>74.2</ele>
        <time>2010-12-12T08:11:54Z</time>
      </trkpt>
      <trkpt lat="43.82442" lon="-0.54766">
        <ele>74.8</ele>
        <time>2010-12-12T08:11:58Z</time>
      </trkpt>
      <trkpt lat="43.82449" lon="-0.54803">
        <ele>74.8</ele>
        <time>2010-12-12T08:12:02Z</time>
      </trkpt>
      <trkpt lat="43.82457" lon="-0.54839">
        <ele>74.7</ele>
        <time>2010-12-12T08:12:06Z</time>
      </trkpt>
      <trkpt lat="43.82466" lon="-0.54876">
        <ele>74.6</ele>
        <time>2010-12-12T08:12:10Z</time>
      </trkpt>
      <trkpt lat="43.82474" lon="-0.54913">
        <ele>74.2</ele>
        <time>2010-12-12T08:12:14Z</time>
      </trkpt>
      <trkpt lat="43.82481" lon="-0.54948">
        <ele>73.7</ele>
        <time>2010-12-12T08:12:18Z</time>
      </trkpt>
      <trkpt lat="43.82487" lon="-0.54979">
        <ele>73.7</ele>
        <time>2010-12-12T08:12:22Z</time>
      </trkpt>
      <trkpt lat="43.82497" lon="-0.55015">
        <ele>73.7</ele>
        <time>2010-12-12T08:12:26Z</time>
      </trkpt>
      <trkpt lat="43.82503" lon="-0.55052">
        <ele>74.3</ele>
        <time>2010-12-12T08:12:30Z</time>
      </trkpt>
      <trkpt lat="43.8251" lon="-0.55086">
        <ele>74.9</ele>
        <time>2010-12-12T08:12:34Z</time>
      </trkpt>
      <trkpt lat="43.82517" lon="-0.55119">
        <ele>75.1</ele>
        <time>2010-12-12T08:12:38Z</time>
      </trkpt>
      <trkpt lat="43.82524" lon="-0.5515">
        <ele>75.6</ele>
        <time>2010-12-12T08:12:42Z</time>
      </trkpt>
      <trkpt lat="43.82532" lon="-0.55181">
        <ele>76.7</ele>
        <time>2010-12-12T08:12:46Z</time>
      </trkpt>
      <trkpt lat="43.8254" lon="-0.55217">
        <ele>77</ele>
        <time>2010-12-12T08:12:50Z</time>
      </trkpt>
      <trkpt lat="43.82549" lon="-0.55252">
        <ele>78</ele>
        <time>2010-12-12T08:12:54Z</time>
      </trkpt>
      <trkpt lat="43.82553" lon="-0.55286">
        <ele>79.3</ele>
        <time>2010-12-12T08:12:58Z</time>
      </trkpt>
      <trkpt lat="43.82558" lon="-0.55325">
        <ele>79.6</ele>
        <time>2010-12-12T08:13:02Z</time>
      </trkpt>
      <trkpt lat="43.82558" lon="-0.55361">
        <ele>79.8</ele>
        <time>2010-12-12T08:13:06Z</time>
      </trkpt>
      <trkpt lat="43.82559" lon="-0.55392">
        <ele>80.3</ele>
        <time>2010-12-12T08:13:10Z</time>
      </trkpt>
      <trkpt lat="43.82553" lon="-0.55418">
        <ele>80.5</ele>
        <time>2010-12-12T08:13:15Z</time>
      </trkpt>
      <trkpt lat="43.82529" lon="-0.55419">
        <ele>79.7</ele>
        <time>2010-12-12T08:13:20Z</time>
      </trkpt>
      <trkpt lat="43.82501" lon="-0.55407">
        <ele>80.3</ele>
        <time>2010-12-12T08:13:24Z</time>
      </trkpt>
      <trkpt lat="43.82474" lon="-0.55393">
        <ele>81.2</ele>
        <time>2010-12-12T08:13:28Z</time>
      </trkpt>
      <trkpt lat="43.82446" lon="-0.55383">
        <ele>81.7</ele>
        <time>2010-12-12T08:13:32Z</time>
      </trkpt>
      <trkpt lat="43.82417" lon="-0.55375">
        <ele>81.8</ele>
        <time>2010-12-12T08:13:36Z</time>
      </trkpt>
      <trkpt lat="43.82387" lon="-0.55364">
        <ele>82.2</ele>
        <time>2010-12-12T08:13:40Z</time>
      </trkpt>
      <trkpt lat="43.82357" lon="-0.55357">
        <ele>81.4</ele>
        <time>2010-12-12T08:13:44Z</time>
      </trkpt>
      <trkpt lat="43.82331" lon="-0.55362">
        <ele>79.6</ele>
        <time>2010-12-12T08:13:48Z</time>
      </trkpt>
      <trkpt lat="43.82308" lon="-0.5538">
        <ele>79.7</ele>
        <time>2010-12-12T08:13:52Z</time>
      </trkpt>
      <trkpt lat="43.82284" lon="-0.55399">
        <ele>78.3</ele>
        <time>2010-12-12T08:13:56Z</time>
      </trkpt>
      <trkpt lat="43.82262" lon="-0.55418">
        <ele>77.7</ele>
        <time>2010-12-12T08:14:00Z</time>
      </trkpt>
      <trkpt lat="43.82238" lon="-0.55439">
        <ele>76.7</ele>
        <time>2010-12-12T08:14:04Z</time>
      </trkpt>
      <trkpt lat="43.82212" lon="-0.55458">
        <ele>76</ele>
        <time>2010-12-12T08:14:08Z</time>
      </trkpt>
      <trkpt lat="43.82188" lon="-0.55473">
        <ele>75.9</ele>
        <time>2010-12-12T08:14:12Z</time>
      </trkpt>
      <trkpt lat="43.82164" lon="-0.55488">
        <ele>75.8</ele>
        <time>2010-12-12T08:14:16Z</time>
      </trkpt>
      <trkpt lat="43.8214" lon="-0.55503">
        <ele>75.4</ele>
        <time>2010-12-12T08:14:20Z</time>
      </trkpt>
      <trkpt lat="43.82111" lon="-0.55518">
        <ele>75.3</ele>
        <time>2010-12-12T08:14:24Z</time>
      </trkpt>
      <trkpt lat="43.82083" lon="-0.55533">
        <ele>75</ele>
        <time>2010-12-12T08:14:28Z</time>
      </trkpt>
      <trkpt lat="43.82058" lon="-0.55549">
        <ele>75.1</ele>
        <time>2010-12-12T08:14:32Z</time>
      </trkpt>
      <trkpt lat="43.82029" lon="-0.5556">
        <ele>75.9</ele>
        <time>2010-12-12T08:14:36Z</time>
      </trkpt>
      <trkpt lat="43.82001" lon="-0.55562">
        <ele>76.7</ele>
        <time>2010-12-12T08:14:40Z</time>
      </trkpt>
      <trkpt lat="43.81969" lon="-0.55558">
        <ele>76.6</ele>
        <time>2010-12-12T08:14:44Z</time>
      </trkpt>
      <trkpt lat="43.81936" lon="-0.5555">
        <ele>76.2</ele>
        <time>2010-12-12T08:14:48Z</time>
      </trkpt>
      <trkpt lat="43.81907" lon="-0.55534">
        <ele>75.4</ele>
        <time>2010-12-12T08:14:52Z</time>
      </trkpt>
      <trkpt lat="43.81859" lon="-0.5551">
        <ele>73.5</ele>
        <time>2010-12-12T08:14:59Z</time>
      </trkpt>
      <trkpt lat="43.81773" lon="-0.55484">
        <ele>72.7</ele>
        <time>2010-12-12T08:15:11Z</time>
      </trkpt>
      <trkpt lat="43.81748" lon="-0.5548">
        <ele>74.6</ele>
        <time>2010-12-12T08:15:15Z</time>
      </trkpt>
      <trkpt lat="43.81723" lon="-0.55477">
        <ele>76.8</ele>
        <time>2010-12-12T08:15:19Z</time>
      </trkpt>
      <trkpt lat="43.81693" lon="-0.5547">
        <ele>78.1</ele>
        <time>2010-12-12T08:15:23Z</time>
      </trkpt>
      <trkpt lat="43.81658" lon="-0.55464">
        <ele>79.3</ele>
        <time>2010-12-12T08:15:27Z</time>
      </trkpt>
      <trkpt lat="43.81623" lon="-0.55459">
        <ele>80.4</ele>
        <time>2010-12-12T08:15:31Z</time>
      </trkpt>
      <trkpt lat="43.81592" lon="-0.55452">
        <ele>80.1</ele>
        <time>2010-12-12T08:15:35Z</time>
      </trkpt>
      <trkpt lat="43.81562" lon="-0.55448">
        <ele>80.3</ele>
        <time>2010-12-12T08:15:39Z</time>
      </trkpt>
      <trkpt lat="43.81531" lon="-0.55439">
        <ele>78.4</ele>
        <time>2010-12-12T08:15:43Z</time>
      </trkpt>
      <trkpt lat="43.81502" lon="-0.55433">
        <ele>76.6</ele>
        <time>2010-12-12T08:15:47Z</time>
      </trkpt>
      <trkpt lat="43.81472" lon="-0.55429">
        <ele>75.5</ele>
        <time>2010-12-12T08:15:51Z</time>
      </trkpt>
      <trkpt lat="43.81444" lon="-0.55424">
        <ele>75.9</ele>
        <time>2010-12-12T08:15:55Z</time>
      </trkpt>
      <trkpt lat="43.81417" lon="-0.55419">
        <ele>75.2</ele>
        <time>2010-12-12T08:15:59Z</time>
      </trkpt>
      <trkpt lat="43.81389" lon="-0.55413">
        <ele>74.5</ele>
        <time>2010-12-12T08:16:03Z</time>
      </trkpt>
      <trkpt lat="43.81361" lon="-0.55409">
        <ele>74.2</ele>
        <time>2010-12-12T08:16:07Z</time>
      </trkpt>
      <trkpt lat="43.81334" lon="-0.55404">
        <ele>74.4</ele>
        <time>2010-12-12T08:16:11Z</time>
      </trkpt>
      <trkpt lat="43.81309" lon="-0.55398">
        <ele>74.9</ele>
        <time>2010-12-12T08:16:15Z</time>
      </trkpt>
      <trkpt lat="43.81287" lon="-0.55396">
        <ele>76</ele>
        <time>2010-12-12T08:16:19Z</time>
      </trkpt>
      <trkpt lat="43.8126" lon="-0.5539">
        <ele>77.1</ele>
        <time>2010-12-12T08:16:23Z</time>
      </trkpt>
      <trkpt lat="43.81233" lon="-0.5538">
        <ele>76.6</ele>
        <time>2010-12-12T08:16:27Z</time>
      </trkpt>
      <trkpt lat="43.81208" lon="-0.5537">
        <ele>76.3</ele>
        <time>2010-12-12T08:16:31Z</time>
      </trkpt>
      <trkpt lat="43.81181" lon="-0.55358">
        <ele>76</ele>
        <time>2010-12-12T08:16:35Z</time>
      </trkpt>
      <trkpt lat="43.81155" lon="-0.55346">
        <ele>75.2</ele>
        <time>2010-12-12T08:16:39Z</time>
      </trkpt>
      <trkpt lat="43.81127" lon="-0.55335">
        <ele>75.1</ele>
        <time>2010-12-12T08:16:43Z</time>
      </trkpt>
      <trkpt lat="43.81096" lon="-0.55325">
        <ele>74.3</ele>
        <time>2010-12-12T08:16:47Z</time>
      </trkpt>
      <trkpt lat="43.81063" lon="-0.55314">
        <ele>73.5</ele>
        <time>2010-12-12T08:16:51Z</time>
      </trkpt>
      <trkpt lat="43.81032" lon="-0.55301">
        <ele>72.5</ele>
        <time>2010-12-12T08:16:55Z</time>
      </trkpt>
      <trkpt lat="43.81004" lon="-0.5529">
        <ele>71.9</ele>
        <time>2010-12-12T08:16:59Z</time>
      </trkpt>
      <trkpt lat="43.80975" lon="-0.5528">
        <ele>72.3</ele>
        <time>2010-12-12T08:17:03Z</time>
      </trkpt>
      <trkpt lat="43.80944" lon="-0.55266">
        <ele>72.3</ele>
        <time>2010-12-12T08:17:07Z</time>
      </trkpt>
      <trkpt lat="43.80914" lon="-0.55253">
        <ele>72.6</ele>
        <time>2010-12-12T08:17:11Z</time>
      </trkpt>
      <trkpt lat="43.80883" lon="-0.55237">
        <ele>72.1</ele>
        <time>2010-12-12T08:17:15Z</time>
      </trkpt>
      <trkpt lat="43.80855" lon="-0.55219">
        <ele>71.5</ele>
        <time>2010-12-12T08:17:19Z</time>
      </trkpt>
      <trkpt lat="43.80828" lon="-0.55206">
        <ele>72</ele>
        <time>2010-12-12T08:17:23Z</time>
      </trkpt>
      <trkpt lat="43.80803" lon="-0.55204">
        <ele>72</ele>
        <time>2010-12-12T08:17:27Z</time>
      </trkpt>
      <trkpt lat="43.80774" lon="-0.5521">
        <ele>72.6</ele>
        <time>2010-12-12T08:17:34Z</time>
      </trkpt>
      <trkpt lat="43.80749" lon="-0.55215">
        <ele>72.8</ele>
        <time>2010-12-12T08:17:39Z</time>
      </trkpt>
      <trkpt lat="43.80717" lon="-0.55221">
        <ele>71.9</ele>
        <time>2010-12-12T08:17:43Z</time>
      </trkpt>
      <trkpt lat="43.80682" lon="-0.55225">
        <ele>70.8</ele>
        <time>2010-12-12T08:17:47Z</time>
      </trkpt>
      <trkpt lat="43.80651" lon="-0.55228">
        <ele>70.3</ele>
        <time>2010-12-12T08:17:51Z</time>
      </trkpt>
      <trkpt lat="43.80623" lon="-0.55235">
        <ele>69.2</ele>
        <time>2010-12-12T08:17:57Z</time>
      </trkpt>
      <trkpt lat="43.80596" lon="-0.55242">
        <ele>67.9</ele>
        <time>2010-12-12T08:18:04Z</time>
      </trkpt>
      <trkpt lat="43.80567" lon="-0.55246">
        <ele>68.2</ele>
        <time>2010-12-12T08:18:09Z</time>
      </trkpt>
      <trkpt lat="43.80538" lon="-0.55247">
        <ele>68.4</ele>
        <time>2010-12-12T08:18:13Z</time>
      </trkpt>
      <trkpt lat="43.80503" lon="-0.55251">
        <ele>68.7</ele>
        <time>2010-12-12T08:18:17Z</time>
      </trkpt>
      <trkpt lat="43.80469" lon="-0.55252">
        <ele>69.2</ele>
        <time>2010-12-12T08:18:21Z</time>
      </trkpt>
      <trkpt lat="43.80433" lon="-0.55246">
        <ele>69.9</ele>
        <time>2010-12-12T08:18:25Z</time>
      </trkpt>
      <trkpt lat="43.804" lon="-0.5523">
        <ele>71.7</ele>
        <time>2010-12-12T08:18:29Z</time>
      </trkpt>
      <trkpt lat="43.80375" lon="-0.55211">
        <ele>72.8</ele>
        <time>2010-12-12T08:18:33Z</time>
      </trkpt>
      <trkpt lat="43.80351" lon="-0.55198">
        <ele>72.6</ele>
        <time>2010-12-12T08:18:37Z</time>
      </trkpt>
      <trkpt lat="43.80328" lon="-0.55186">
        <ele>72.4</ele>
        <time>2010-12-12T08:18:41Z</time>
      </trkpt>
      <trkpt lat="43.80303" lon="-0.55176">
        <ele>72.5</ele>
        <time>2010-12-12T08:18:45Z</time>
      </trkpt>
      <trkpt lat="43.80274" lon="-0.55165">
        <ele>72.4</ele>
        <time>2010-12-12T08:18:49Z</time>
      </trkpt>
      <trkpt lat="43.80245" lon="-0.55156">
        <ele>72.4</ele>
        <time>2010-12-12T08:18:53Z</time>
      </trkpt>
      <trkpt lat="43.80217" lon="-0.55154">
        <ele>71.6</ele>
        <time>2010-12-12T08:18:57Z</time>
      </trkpt>
      <trkpt lat="43.80192" lon="-0.55164">
        <ele>69.6</ele>
        <time>2010-12-12T08:19:01Z</time>
      </trkpt>
      <trkpt lat="43.80168" lon="-0.55177">
        <ele>69.1</ele>
        <time>2010-12-12T08:19:05Z</time>
      </trkpt>
      <trkpt lat="43.8014" lon="-0.55193">
        <ele>69.2</ele>
        <time>2010-12-12T08:19:09Z</time>
      </trkpt>
      <trkpt lat="43.80112" lon="-0.55207">
        <ele>68.1</ele>
        <time>2010-12-12T08:19:13Z</time>
      </trkpt>
      <trkpt lat="43.80084" lon="-0.55223">
        <ele>66.6</ele>
        <time>2010-12-12T08:19:17Z</time>
      </trkpt>
      <trkpt lat="43.80057" lon="-0.55239">
        <ele>65.9</ele>
        <time>2010-12-12T08:19:21Z</time>
      </trkpt>
      <trkpt lat="43.80032" lon="-0.55253">
        <ele>66.4</ele>
        <time>2010-12-12T08:19:25Z</time>
      </trkpt>
      <trkpt lat="43.8001" lon="-0.55265">
        <ele>66.8</ele>
        <time>2010-12-12T08:19:29Z</time>
      </trkpt>
      <trkpt lat="43.79987" lon="-0.55277">
        <ele>67.1</ele>
        <time>2010-12-12T08:19:33Z</time>
      </trkpt>
      <trkpt lat="43.79967" lon="-0.55291">
        <ele>67.8</ele>
        <time>2010-12-12T08:19:37Z</time>
      </trkpt>
      <trkpt lat="43.7994" lon="-0.55307">
        <ele>68.8</ele>
        <time>2010-12-12T08:19:41Z</time>
      </trkpt>
      <trkpt lat="43.79917" lon="-0.55321">
        <ele>70.6</ele>
        <time>2010-12-12T08:19:45Z</time>
      </trkpt>
      <trkpt lat="43.79891" lon="-0.55338">
        <ele>71.1</ele>
        <time>2010-12-12T08:19:49Z</time>
      </trkpt>
      <trkpt lat="43.79865" lon="-0.55354">
        <ele>71.2</ele>
        <time>2010-12-12T08:19:53Z</time>
      </trkpt>
      <trkpt lat="43.79834" lon="-0.55365">
        <ele>70.6</ele>
        <time>2010-12-12T08:19:57Z</time>
      </trkpt>
      <trkpt lat="43.79801" lon="-0.55366">
        <ele>69.1</ele>
        <time>2010-12-12T08:20:01Z</time>
      </trkpt>
      <trkpt lat="43.7977" lon="-0.55356">
        <ele>67.5</ele>
        <time>2010-12-12T08:20:05Z</time>
      </trkpt>
      <trkpt lat="43.79745" lon="-0.55352">
        <ele>63.9</ele>
        <time>2010-12-12T08:20:09Z</time>
      </trkpt>
      <trkpt lat="43.79724" lon="-0.55378">
        <ele>63.1</ele>
        <time>2010-12-12T08:20:13Z</time>
      </trkpt>
      <trkpt lat="43.79703" lon="-0.55407">
        <ele>61.4</ele>
        <time>2010-12-12T08:20:17Z</time>
      </trkpt>
      <trkpt lat="43.79681" lon="-0.55432">
        <ele>59.5</ele>
        <time>2010-12-12T08:20:21Z</time>
      </trkpt>
      <trkpt lat="43.7966" lon="-0.55457">
        <ele>59.4</ele>
        <time>2010-12-12T08:20:25Z</time>
      </trkpt>
      <trkpt lat="43.79634" lon="-0.5548">
        <ele>58.7</ele>
        <time>2010-12-12T08:20:29Z</time>
      </trkpt>
      <trkpt lat="43.79607" lon="-0.55499">
        <ele>58.4</ele>
        <time>2010-12-12T08:20:33Z</time>
      </trkpt>
      <trkpt lat="43.79579" lon="-0.55516">
        <ele>58.1</ele>
        <time>2010-12-12T08:20:37Z</time>
      </trkpt>
      <trkpt lat="43.79553" lon="-0.55535">
        <ele>56.6</ele>
        <time>2010-12-12T08:20:41Z</time>
      </trkpt>
      <trkpt lat="43.79528" lon="-0.55554">
        <ele>56.2</ele>
        <time>2010-12-12T08:20:45Z</time>
      </trkpt>
      <trkpt lat="43.79497" lon="-0.55571">
        <ele>55.5</ele>
        <time>2010-12-12T08:20:49Z</time>
      </trkpt>
      <trkpt lat="43.79468" lon="-0.55588">
        <ele>55.3</ele>
        <time>2010-12-12T08:20:53Z</time>
      </trkpt>
      <trkpt lat="43.79441" lon="-0.55604">
        <ele>56.4</ele>
        <time>2010-12-12T08:20:57Z</time>
      </trkpt>
      <trkpt lat="43.79415" lon="-0.5562">
        <ele>56.5</ele>
        <time>2010-12-12T08:21:01Z</time>
      </trkpt>
      <trkpt lat="43.79383" lon="-0.55639">
        <ele>56.2</ele>
        <time>2010-12-12T08:21:05Z</time>
      </trkpt>
      <trkpt lat="43.79348" lon="-0.55659">
        <ele>54.5</ele>
        <time>2010-12-12T08:21:09Z</time>
      </trkpt>
      <trkpt lat="43.79314" lon="-0.55677">
        <ele>53.2</ele>
        <time>2010-12-12T08:21:13Z</time>
      </trkpt>
      <trkpt lat="43.7928" lon="-0.55696">
        <ele>51.3</ele>
        <time>2010-12-12T08:21:17Z</time>
      </trkpt>
      <trkpt lat="43.79247" lon="-0.55713">
        <ele>49.7</ele>
        <time>2010-12-12T08:21:21Z</time>
      </trkpt>
      <trkpt lat="43.79216" lon="-0.55731">
        <ele>49.2</ele>
        <time>2010-12-12T08:21:25Z</time>
      </trkpt>
      <trkpt lat="43.79189" lon="-0.55751">
        <ele>52.4</ele>
        <time>2010-12-12T08:21:29Z</time>
      </trkpt>
      <trkpt lat="43.79163" lon="-0.55772">
        <ele>55.5</ele>
        <time>2010-12-12T08:21:33Z</time>
      </trkpt>
      <trkpt lat="43.79133" lon="-0.55789">
        <ele>57.2</ele>
        <time>2010-12-12T08:21:37Z</time>
      </trkpt>
      <trkpt lat="43.79104" lon="-0.55806">
        <ele>57</ele>
        <time>2010-12-12T08:21:41Z</time>
      </trkpt>
      <trkpt lat="43.79074" lon="-0.55824">
        <ele>57.2</ele>
        <time>2010-12-12T08:21:45Z</time>
      </trkpt>
      <trkpt lat="43.79046" lon="-0.55842">
        <ele>55.7</ele>
        <time>2010-12-12T08:21:49Z</time>
      </trkpt>
      <trkpt lat="43.79015" lon="-0.55859">
        <ele>54.1</ele>
        <time>2010-12-12T08:21:53Z</time>
      </trkpt>
      <trkpt lat="43.78985" lon="-0.55877">
        <ele>53.1</ele>
        <time>2010-12-12T08:21:57Z</time>
      </trkpt>
      <trkpt lat="43.78954" lon="-0.55894">
        <ele>51.6</ele>
        <time>2010-12-12T08:22:01Z</time>
      </trkpt>
      <trkpt lat="43.78923" lon="-0.55913">
        <ele>50.5</ele>
        <time>2010-12-12T08:22:05Z</time>
      </trkpt>
      <trkpt lat="43.78894" lon="-0.55931">
        <ele>49.3</ele>
        <time>2010-12-12T08:22:09Z</time>
      </trkpt>
      <trkpt lat="43.78865" lon="-0.55948">
        <ele>47.9</ele>
        <time>2010-12-12T08:22:13Z</time>
      </trkpt>
      <trkpt lat="43.78833" lon="-0.55964">
        <ele>46.8</ele>
        <time>2010-12-12T08:22:17Z</time>
      </trkpt>
      <trkpt lat="43.78806" lon="-0.55981">
        <ele>45.6</ele>
        <time>2010-12-12T08:22:21Z</time>
      </trkpt>
      <trkpt lat="43.78781" lon="-0.55999">
        <ele>45.1</ele>
        <time>2010-12-12T08:22:25Z</time>
      </trkpt>
      <trkpt lat="43.7875" lon="-0.56018">
        <ele>44.4</ele>
        <time>2010-12-12T08:22:29Z</time>
      </trkpt>
      <trkpt lat="43.78717" lon="-0.56035">
        <ele>44.3</ele>
        <time>2010-12-12T08:22:33Z</time>
      </trkpt>
      <trkpt lat="43.78689" lon="-0.56054">
        <ele>43.9</ele>
        <time>2010-12-12T08:22:37Z</time>
      </trkpt>
      <trkpt lat="43.78657" lon="-0.56071">
        <ele>43.7</ele>
        <time>2010-12-12T08:22:41Z</time>
      </trkpt>
      <trkpt lat="43.78626" lon="-0.5609">
        <ele>42.5</ele>
        <time>2010-12-12T08:22:45Z</time>
      </trkpt>
      <trkpt lat="43.78596" lon="-0.56109">
        <ele>42.7</ele>
        <time>2010-12-12T08:22:49Z</time>
      </trkpt>
      <trkpt lat="43.78566" lon="-0.56125">
        <ele>40.9</ele>
        <time>2010-12-12T08:22:53Z</time>
      </trkpt>
      <trkpt lat="43.78533" lon="-0.56143">
        <ele>40.3</ele>
        <time>2010-12-12T08:22:57Z</time>
      </trkpt>
      <trkpt lat="43.78504" lon="-0.5616">
        <ele>40.4</ele>
        <time>2010-12-12T08:23:01Z</time>
      </trkpt>
      <trkpt lat="43.78477" lon="-0.56178">
        <ele>40.8</ele>
        <time>2010-12-12T08:23:05Z</time>
      </trkpt>
      <trkpt lat="43.78448" lon="-0.56195">
        <ele>40.3</ele>
        <time>2010-12-12T08:23:09Z</time>
      </trkpt>
      <trkpt lat="43.78425" lon="-0.56209">
        <ele>40.2</ele>
        <time>2010-12-12T08:23:13Z</time>
      </trkpt>
      <trkpt lat="43.784" lon="-0.56225">
        <ele>39.5</ele>
        <time>2010-12-12T08:23:17Z</time>
      </trkpt>
      <trkpt lat="43.78374" lon="-0.56242">
        <ele>39.5</ele>
        <time>2010-12-12T08:23:21Z</time>
      </trkpt>
      <trkpt lat="43.78347" lon="-0.56258">
        <ele>39.2</ele>
        <time>2010-12-12T08:23:25Z</time>
      </trkpt>
      <trkpt lat="43.7832" lon="-0.56276">
        <ele>39.3</ele>
        <time>2010-12-12T08:23:29Z</time>
      </trkpt>
      <trkpt lat="43.7829" lon="-0.56293">
        <ele>37.5</ele>
        <time>2010-12-12T08:23:33Z</time>
      </trkpt>
      <trkpt lat="43.78261" lon="-0.5631">
        <ele>37.2</ele>
        <time>2010-12-12T08:23:37Z</time>
      </trkpt>
      <trkpt lat="43.78234" lon="-0.56327">
        <ele>38.4</ele>
        <time>2010-12-12T08:23:41Z</time>
      </trkpt>
      <trkpt lat="43.78206" lon="-0.56344">
        <ele>37.9</ele>
        <time>2010-12-12T08:23:45Z</time>
      </trkpt>
      <trkpt lat="43.78176" lon="-0.56361">
        <ele>37.4</ele>
        <time>2010-12-12T08:23:49Z</time>
      </trkpt>
      <trkpt lat="43.78147" lon="-0.56378">
        <ele>36.8</ele>
        <time>2010-12-12T08:23:53Z</time>
      </trkpt>
      <trkpt lat="43.78118" lon="-0.56397">
        <ele>38.4</ele>
        <time>2010-12-12T08:23:57Z</time>
      </trkpt>
      <trkpt lat="43.78089" lon="-0.56413">
        <ele>38.4</ele>
        <time>2010-12-12T08:24:01Z</time>
      </trkpt>
      <trkpt lat="43.78064" lon="-0.56428">
        <ele>37.3</ele>
        <time>2010-12-12T08:24:05Z</time>
      </trkpt>
      <trkpt lat="43.78037" lon="-0.56445">
        <ele>36.6</ele>
        <time>2010-12-12T08:24:09Z</time>
      </trkpt>
      <trkpt lat="43.78006" lon="-0.56461">
        <ele>36.1</ele>
        <time>2010-12-12T08:24:13Z</time>
      </trkpt>
      <trkpt lat="43.7798" lon="-0.56478">
        <ele>34.5</ele>
        <time>2010-12-12T08:24:17Z</time>
      </trkpt>
      <trkpt lat="43.77951" lon="-0.56495">
        <ele>34</ele>
        <time>2010-12-12T08:24:21Z</time>
      </trkpt>
      <trkpt lat="43.77924" lon="-0.56512">
        <ele>34</ele>
        <time>2010-12-12T08:24:25Z</time>
      </trkpt>
      <trkpt lat="43.77895" lon="-0.56528">
        <ele>34.7</ele>
        <time>2010-12-12T08:24:29Z</time>
      </trkpt>
      <trkpt lat="43.77867" lon="-0.56543">
        <ele>35.5</ele>
        <time>2010-12-12T08:24:33Z</time>
      </trkpt>
      <trkpt lat="43.7784" lon="-0.56561">
        <ele>36.2</ele>
        <time>2010-12-12T08:24:37Z</time>
      </trkpt>
      <trkpt lat="43.77814" lon="-0.56576">
        <ele>36.6</ele>
        <time>2010-12-12T08:24:41Z</time>
      </trkpt>
      <trkpt lat="43.77787" lon="-0.56592">
        <ele>36.8</ele>
        <time>2010-12-12T08:24:45Z</time>
      </trkpt>
      <trkpt lat="43.77761" lon="-0.56609">
        <ele>36.3</ele>
        <time>2010-12-12T08:24:49Z</time>
      </trkpt>
      <trkpt lat="43.77733" lon="-0.56626">
        <ele>36.4</ele>
        <time>2010-12-12T08:24:53Z</time>
      </trkpt>
      <trkpt lat="43.77705" lon="-0.56644">
        <ele>36.8</ele>
        <time>2010-12-12T08:24:57Z</time>
      </trkpt>
      <trkpt lat="43.77679" lon="-0.56661">
        <ele>36.6</ele>
        <time>2010-12-12T08:25:01Z</time>
      </trkpt>
      <trkpt lat="43.77651" lon="-0.56677">
        <ele>35</ele>
        <time>2010-12-12T08:25:05Z</time>
      </trkpt>
      <trkpt lat="43.77623" lon="-0.56693">
        <ele>35.9</ele>
        <time>2010-12-12T08:25:09Z</time>
      </trkpt>
      <trkpt lat="43.77594" lon="-0.56711">
        <ele>36.5</ele>
        <time>2010-12-12T08:25:13Z</time>
      </trkpt>
      <trkpt lat="43.77567" lon="-0.56727">
        <ele>37.5</ele>
        <time>2010-12-12T08:25:17Z</time>
      </trkpt>
      <trkpt lat="43.77541" lon="-0.56745">
        <ele>38.3</ele>
        <time>2010-12-12T08:25:21Z</time>
      </trkpt>
      <trkpt lat="43.77512" lon="-0.56762">
        <ele>37.6</ele>
        <time>2010-12-12T08:25:25Z</time>
      </trkpt>
      <trkpt lat="43.77483" lon="-0.56778">
        <ele>36.8</ele>
        <time>2010-12-12T08:25:29Z</time>
      </trkpt>
      <trkpt lat="43.77457" lon="-0.56795">
        <ele>36</ele>
        <time>2010-12-12T08:25:33Z</time>
      </trkpt>
      <trkpt lat="43.77429" lon="-0.5681">
        <ele>35.8</ele>
        <time>2010-12-12T08:25:37Z</time>
      </trkpt>
      <trkpt lat="43.77402" lon="-0.56825">
        <ele>35.2</ele>
        <time>2010-12-12T08:25:41Z</time>
      </trkpt>
      <trkpt lat="43.77375" lon="-0.56842">
        <ele>35.3</ele>
        <time>2010-12-12T08:25:45Z</time>
      </trkpt>
      <trkpt lat="43.77351" lon="-0.5686">
        <ele>36.3</ele>
        <time>2010-12-12T08:25:49Z</time>
      </trkpt>
      <trkpt lat="43.77327" lon="-0.56876">
        <ele>36.3</ele>
        <time>2010-12-12T08:25:53Z</time>
      </trkpt>
      <trkpt lat="43.77302" lon="-0.56892">
        <ele>36.1</ele>
        <time>2010-12-12T08:25:57Z</time>
      </trkpt>
      <trkpt lat="43.77279" lon="-0.56905">
        <ele>36.6</ele>
        <time>2010-12-12T08:26:01Z</time>
      </trkpt>
      <trkpt lat="43.77254" lon="-0.56921">
        <ele>36.7</ele>
        <time>2010-12-12T08:26:05Z</time>
      </trkpt>
      <trkpt lat="43.77229" lon="-0.5694">
        <ele>37.8</ele>
        <time>2010-12-12T08:26:09Z</time>
      </trkpt>
      <trkpt lat="43.77201" lon="-0.56954">
        <ele>38.1</ele>
        <time>2010-12-12T08:26:13Z</time>
      </trkpt>
      <trkpt lat="43.77173" lon="-0.56967">
        <ele>37.7</ele>
        <time>2010-12-12T08:26:17Z</time>
      </trkpt>
      <trkpt lat="43.77148" lon="-0.5698">
        <ele>38.6</ele>
        <time>2010-12-12T08:26:21Z</time>
      </trkpt>
      <trkpt lat="43.77127" lon="-0.56992">
        <ele>39.2</ele>
        <time>2010-12-12T08:26:25Z</time>
      </trkpt>
      <trkpt lat="43.77107" lon="-0.56999">
        <ele>38.6</ele>
        <time>2010-12-12T08:26:29Z</time>
      </trkpt>
      <trkpt lat="43.77082" lon="-0.56998">
        <ele>38.2</ele>
        <time>2010-12-12T08:26:33Z</time>
      </trkpt>
      <trkpt lat="43.77055" lon="-0.56997">
        <ele>38.4</ele>
        <time>2010-12-12T08:26:37Z</time>
      </trkpt>
      <trkpt lat="43.7703" lon="-0.56994">
        <ele>39.1</ele>
        <time>2010-12-12T08:26:41Z</time>
      </trkpt>
      <trkpt lat="43.77001" lon="-0.56993">
        <ele>39.6</ele>
        <time>2010-12-12T08:26:45Z</time>
      </trkpt>
      <trkpt lat="43.76973" lon="-0.56991">
        <ele>40.1</ele>
        <time>2010-12-12T08:26:49Z</time>
      </trkpt>
      <trkpt lat="43.76947" lon="-0.56989">
        <ele>41.1</ele>
        <time>2010-12-12T08:26:53Z</time>
      </trkpt>
      <trkpt lat="43.7692" lon="-0.56984">
        <ele>42.2</ele>
        <time>2010-12-12T08:26:57Z</time>
      </trkpt>
      <trkpt lat="43.76891" lon="-0.56983">
        <ele>42</ele>
        <time>2010-12-12T08:27:01Z</time>
      </trkpt>
      <trkpt lat="43.76864" lon="-0.56982">
        <ele>43</ele>
        <time>2010-12-12T08:27:05Z</time>
      </trkpt>
      <trkpt lat="43.76835" lon="-0.56981">
        <ele>43</ele>
        <time>2010-12-12T08:27:09Z</time>
      </trkpt>
      <trkpt lat="43.7681" lon="-0.56979">
        <ele>43.3</ele>
        <time>2010-12-12T08:27:13Z</time>
      </trkpt>
      <trkpt lat="43.76784" lon="-0.56979">
        <ele>42.3</ele>
        <time>2010-12-12T08:27:17Z</time>
      </trkpt>
      <trkpt lat="43.7676" lon="-0.56978">
        <ele>41.7</ele>
        <time>2010-12-12T08:27:21Z</time>
      </trkpt>
      <trkpt lat="43.76733" lon="-0.56975">
        <ele>42.3</ele>
        <time>2010-12-12T08:27:25Z</time>
      </trkpt>
      <trkpt lat="43.76706" lon="-0.56973">
        <ele>41.4</ele>
        <time>2010-12-12T08:27:29Z</time>
      </trkpt>
      <trkpt lat="43.7668" lon="-0.56971">
        <ele>41.4</ele>
        <time>2010-12-12T08:27:33Z</time>
      </trkpt>
      <trkpt lat="43.76651" lon="-0.56968">
        <ele>41.5</ele>
        <time>2010-12-12T08:27:41Z</time>
      </trkpt>
      <trkpt lat="43.76646" lon="-0.56965">
        <ele>39.6</ele>
        <time>2010-12-12T08:31:11Z</time>
      </trkpt>
      <trkpt lat="43.76635" lon="-0.56972">
        <ele>44.2</ele>
        <time>2010-12-12T08:31:40Z</time>
      </trkpt>
      <trkpt lat="43.76613" lon="-0.56976">
        <ele>45.7</ele>
        <time>2010-12-12T08:31:48Z</time>
      </trkpt>
      <trkpt lat="43.7659" lon="-0.56974">
        <ele>45</ele>
        <time>2010-12-12T08:31:52Z</time>
      </trkpt>
      <trkpt lat="43.76561" lon="-0.56969">
        <ele>44</ele>
        <time>2010-12-12T08:31:56Z</time>
      </trkpt>
      <trkpt lat="43.76528" lon="-0.56966">
        <ele>44.3</ele>
        <time>2010-12-12T08:32:00Z</time>
      </trkpt>
      <trkpt lat="43.76498" lon="-0.56962">
        <ele>43.3</ele>
        <time>2010-12-12T08:32:04Z</time>
      </trkpt>
      <trkpt lat="43.76471" lon="-0.56959">
        <ele>42.1</ele>
        <time>2010-12-12T08:32:08Z</time>
      </trkpt>
      <trkpt lat="43.76449" lon="-0.56956">
        <ele>42.7</ele>
        <time>2010-12-12T08:32:13Z</time>
      </trkpt>
      <trkpt lat="43.76422" lon="-0.56949">
        <ele>45.5</ele>
        <time>2010-12-12T08:32:19Z</time>
      </trkpt>
      <trkpt lat="43.76394" lon="-0.56955">
        <ele>45.5</ele>
        <time>2010-12-12T08:32:25Z</time>
      </trkpt>
      <trkpt lat="43.76369" lon="-0.56964">
        <ele>47.5</ele>
        <time>2010-12-12T08:32:30Z</time>
      </trkpt>
      <trkpt lat="43.76351" lon="-0.5698">
        <ele>49.5</ele>
        <time>2010-12-12T08:32:35Z</time>
      </trkpt>
      <trkpt lat="43.76339" lon="-0.56998">
        <ele>51</ele>
        <time>2010-12-12T08:32:40Z</time>
      </trkpt>
      <trkpt lat="43.76333" lon="-0.5702">
        <ele>51.5</ele>
        <time>2010-12-12T08:32:44Z</time>
      </trkpt>
      <trkpt lat="43.76325" lon="-0.57048">
        <ele>52.2</ele>
        <time>2010-12-12T08:32:50Z</time>
      </trkpt>
      <trkpt lat="43.76323" lon="-0.57075">
        <ele>54.3</ele>
        <time>2010-12-12T08:32:58Z</time>
      </trkpt>
      <trkpt lat="43.76328" lon="-0.57097">
        <ele>58.9</ele>
        <time>2010-12-12T08:33:06Z</time>
      </trkpt>
      <trkpt lat="43.76333" lon="-0.57119">
        <ele>61.4</ele>
        <time>2010-12-12T08:33:11Z</time>
      </trkpt>
      <trkpt lat="43.76343" lon="-0.57145">
        <ele>62.2</ele>
        <time>2010-12-12T08:33:16Z</time>
      </trkpt>
      <trkpt lat="43.76354" lon="-0.57167">
        <ele>63</ele>
        <time>2010-12-12T08:33:22Z</time>
      </trkpt>
      <trkpt lat="43.76364" lon="-0.57189">
        <ele>66</ele>
        <time>2010-12-12T08:33:27Z</time>
      </trkpt>
      <trkpt lat="43.76375" lon="-0.57218">
        <ele>70.7</ele>
        <time>2010-12-12T08:33:33Z</time>
      </trkpt>
      <trkpt lat="43.76383" lon="-0.57242">
        <ele>75.1</ele>
        <time>2010-12-12T08:33:38Z</time>
      </trkpt>
      <trkpt lat="43.7639" lon="-0.57264">
        <ele>78.6</ele>
        <time>2010-12-12T08:33:43Z</time>
      </trkpt>
      <trkpt lat="43.76394" lon="-0.57288">
        <ele>82</ele>
        <time>2010-12-12T08:33:49Z</time>
      </trkpt>
      <trkpt lat="43.76401" lon="-0.5731">
        <ele>83.6</ele>
        <time>2010-12-12T08:33:53Z</time>
      </trkpt>
      <trkpt lat="43.76409" lon="-0.57339">
        <ele>86.8</ele>
        <time>2010-12-12T08:33:58Z</time>
      </trkpt>
      <trkpt lat="43.76409" lon="-0.57368">
        <ele>87.7</ele>
        <time>2010-12-12T08:34:02Z</time>
      </trkpt>
      <trkpt lat="43.76408" lon="-0.574">
        <ele>88.9</ele>
        <time>2010-12-12T08:34:06Z</time>
      </trkpt>
      <trkpt lat="43.76405" lon="-0.57425">
        <ele>90.6</ele>
        <time>2010-12-12T08:34:10Z</time>
      </trkpt>
      <trkpt lat="43.76396" lon="-0.57449">
        <ele>94.6</ele>
        <time>2010-12-12T08:34:17Z</time>
      </trkpt>
      <trkpt lat="43.76376" lon="-0.5747">
        <ele>98.3</ele>
        <time>2010-12-12T08:34:24Z</time>
      </trkpt>
      <trkpt lat="43.76356" lon="-0.57483">
        <ele>95.8</ele>
        <time>2010-12-12T08:34:30Z</time>
      </trkpt>
      <trkpt lat="43.76336" lon="-0.57486">
        <ele>91.3</ele>
        <time>2010-12-12T08:34:34Z</time>
      </trkpt>
      <trkpt lat="43.76313" lon="-0.57486">
        <ele>87.4</ele>
        <time>2010-12-12T08:34:38Z</time>
      </trkpt>
      <trkpt lat="43.76287" lon="-0.57481">
        <ele>86.7</ele>
        <time>2010-12-12T08:34:43Z</time>
      </trkpt>
      <trkpt lat="43.76263" lon="-0.57473">
        <ele>89.8</ele>
        <time>2010-12-12T08:34:48Z</time>
      </trkpt>
      <trkpt lat="43.76243" lon="-0.57457">
        <ele>91.3</ele>
        <time>2010-12-12T08:34:53Z</time>
      </trkpt>
      <trkpt lat="43.76224" lon="-0.57438">
        <ele>93.1</ele>
        <time>2010-12-12T08:34:59Z</time>
      </trkpt>
      <trkpt lat="43.76209" lon="-0.57422">
        <ele>95.9</ele>
        <time>2010-12-12T08:35:04Z</time>
      </trkpt>
      <trkpt lat="43.76192" lon="-0.57403">
        <ele>98.8</ele>
        <time>2010-12-12T08:35:10Z</time>
      </trkpt>
      <trkpt lat="43.76176" lon="-0.57381">
        <ele>98.3</ele>
        <time>2010-12-12T08:35:16Z</time>
      </trkpt>
      <trkpt lat="43.76163" lon="-0.57356">
        <ele>97.2</ele>
        <time>2010-12-12T08:35:22Z</time>
      </trkpt>
      <trkpt lat="43.76147" lon="-0.5734">
        <ele>98.3</ele>
        <time>2010-12-12T08:35:27Z</time>
      </trkpt>
      <trkpt lat="43.76126" lon="-0.57334">
        <ele>100.1</ele>
        <time>2010-12-12T08:35:31Z</time>
      </trkpt>
      <trkpt lat="43.76108" lon="-0.57322">
        <ele>105.5</ele>
        <time>2010-12-12T08:35:37Z</time>
      </trkpt>
      <trkpt lat="43.76096" lon="-0.57298">
        <ele>108.3</ele>
        <time>2010-12-12T08:35:42Z</time>
      </trkpt>
      <trkpt lat="43.76083" lon="-0.5728">
        <ele>108.8</ele>
        <time>2010-12-12T08:35:46Z</time>
      </trkpt>
      <trkpt lat="43.76059" lon="-0.5727">
        <ele>110.2</ele>
        <time>2010-12-12T08:35:50Z</time>
      </trkpt>
      <trkpt lat="43.76039" lon="-0.57267">
        <ele>114.8</ele>
        <time>2010-12-12T08:35:54Z</time>
      </trkpt>
      <trkpt lat="43.76022" lon="-0.57256">
        <ele>117.4</ele>
        <time>2010-12-12T08:35:59Z</time>
      </trkpt>
      <trkpt lat="43.76005" lon="-0.5724">
        <ele>118.9</ele>
        <time>2010-12-12T08:36:03Z</time>
      </trkpt>
      <trkpt lat="43.7599" lon="-0.57223">
        <ele>119</ele>
        <time>2010-12-12T08:36:08Z</time>
      </trkpt>
      <trkpt lat="43.75976" lon="-0.57203">
        <ele>117.8</ele>
        <time>2010-12-12T08:36:12Z</time>
      </trkpt>
      <trkpt lat="43.75958" lon="-0.57181">
        <ele>116.5</ele>
        <time>2010-12-12T08:36:17Z</time>
      </trkpt>
      <trkpt lat="43.75941" lon="-0.57167">
        <ele>117</ele>
        <time>2010-12-12T08:36:22Z</time>
      </trkpt>
      <trkpt lat="43.75925" lon="-0.57148">
        <ele>114.2</ele>
        <time>2010-12-12T08:36:27Z</time>
      </trkpt>
      <trkpt lat="43.75911" lon="-0.57129">
        <ele>109.3</ele>
        <time>2010-12-12T08:36:31Z</time>
      </trkpt>
      <trkpt lat="43.75892" lon="-0.57121">
        <ele>108.7</ele>
        <time>2010-12-12T08:36:36Z</time>
      </trkpt>
      <trkpt lat="43.75871" lon="-0.57114">
        <ele>109.9</ele>
        <time>2010-12-12T08:36:40Z</time>
      </trkpt>
      <trkpt lat="43.75848" lon="-0.57108">
        <ele>110.9</ele>
        <time>2010-12-12T08:36:44Z</time>
      </trkpt>
      <trkpt lat="43.75822" lon="-0.57102">
        <ele>110.3</ele>
        <time>2010-12-12T08:36:48Z</time>
      </trkpt>
      <trkpt lat="43.75799" lon="-0.57092">
        <ele>110.1</ele>
        <time>2010-12-12T08:36:52Z</time>
      </trkpt>
      <trkpt lat="43.75776" lon="-0.57081">
        <ele>109.7</ele>
        <time>2010-12-12T08:36:56Z</time>
      </trkpt>
      <trkpt lat="43.75753" lon="-0.57066">
        <ele>109.6</ele>
        <time>2010-12-12T08:37:00Z</time>
      </trkpt>
      <trkpt lat="43.75731" lon="-0.57054">
        <ele>109.3</ele>
        <time>2010-12-12T08:37:04Z</time>
      </trkpt>
      <trkpt lat="43.75707" lon="-0.57044">
        <ele>108.9</ele>
        <time>2010-12-12T08:37:08Z</time>
      </trkpt>
      <trkpt lat="43.75684" lon="-0.57036">
        <ele>110.2</ele>
        <time>2010-12-12T08:37:12Z</time>
      </trkpt>
      <trkpt lat="43.7566" lon="-0.57029">
        <ele>110.3</ele>
        <time>2010-12-12T08:37:16Z</time>
      </trkpt>
      <trkpt lat="43.75633" lon="-0.57025">
        <ele>111.1</ele>
        <time>2010-12-12T08:37:21Z</time>
      </trkpt>
      <trkpt lat="43.75605" lon="-0.57029">
        <ele>110.5</ele>
        <time>2010-12-12T08:37:25Z</time>
      </trkpt>
      <trkpt lat="43.7558" lon="-0.57036">
        <ele>109.5</ele>
        <time>2010-12-12T08:37:29Z</time>
      </trkpt>
      <trkpt lat="43.75559" lon="-0.5705">
        <ele>110</ele>
        <time>2010-12-12T08:37:33Z</time>
      </trkpt>
      <trkpt lat="43.75536" lon="-0.57063">
        <ele>110.3</ele>
        <time>2010-12-12T08:37:37Z</time>
      </trkpt>
      <trkpt lat="43.75512" lon="-0.57072">
        <ele>108.7</ele>
        <time>2010-12-12T08:37:41Z</time>
      </trkpt>
      <trkpt lat="43.75486" lon="-0.57071">
        <ele>108.9</ele>
        <time>2010-12-12T08:37:45Z</time>
      </trkpt>
      <trkpt lat="43.7546" lon="-0.57071">
        <ele>108.4</ele>
        <time>2010-12-12T08:37:49Z</time>
      </trkpt>
      <trkpt lat="43.75431" lon="-0.5707">
        <ele>108.4</ele>
        <time>2010-12-12T08:37:53Z</time>
      </trkpt>
      <trkpt lat="43.754" lon="-0.57073">
        <ele>107.5</ele>
        <time>2010-12-12T08:37:57Z</time>
      </trkpt>
      <trkpt lat="43.75373" lon="-0.57073">
        <ele>106.9</ele>
        <time>2010-12-12T08:38:01Z</time>
      </trkpt>
      <trkpt lat="43.75346" lon="-0.5707">
        <ele>107.1</ele>
        <time>2010-12-12T08:38:05Z</time>
      </trkpt>
      <trkpt lat="43.75318" lon="-0.57068">
        <ele>106.9</ele>
        <time>2010-12-12T08:38:09Z</time>
      </trkpt>
      <trkpt lat="43.7529" lon="-0.57068">
        <ele>106.8</ele>
        <time>2010-12-12T08:38:13Z</time>
      </trkpt>
      <trkpt lat="43.75259" lon="-0.57068">
        <ele>106.7</ele>
        <time>2010-12-12T08:38:17Z</time>
      </trkpt>
      <trkpt lat="43.7523" lon="-0.57066">
        <ele>106.8</ele>
        <time>2010-12-12T08:38:21Z</time>
      </trkpt>
      <trkpt lat="43.75203" lon="-0.57056">
        <ele>107.7</ele>
        <time>2010-12-12T08:38:25Z</time>
      </trkpt>
      <trkpt lat="43.75181" lon="-0.57031">
        <ele>109.2</ele>
        <time>2010-12-12T08:38:29Z</time>
      </trkpt>
      <trkpt lat="43.75161" lon="-0.57003">
        <ele>110.5</ele>
        <time>2010-12-12T08:38:33Z</time>
      </trkpt>
      <trkpt lat="43.75144" lon="-0.56969">
        <ele>108.8</ele>
        <time>2010-12-12T08:38:37Z</time>
      </trkpt>
      <trkpt lat="43.75123" lon="-0.5694">
        <ele>109.9</ele>
        <time>2010-12-12T08:38:41Z</time>
      </trkpt>
      <trkpt lat="43.75104" lon="-0.56906">
        <ele>111.4</ele>
        <time>2010-12-12T08:38:45Z</time>
      </trkpt>
      <trkpt lat="43.75087" lon="-0.56869">
        <ele>112.9</ele>
        <time>2010-12-12T08:38:49Z</time>
      </trkpt>
      <trkpt lat="43.75072" lon="-0.56839">
        <ele>112.6</ele>
        <time>2010-12-12T08:38:53Z</time>
      </trkpt>
      <trkpt lat="43.75058" lon="-0.56812">
        <ele>112.1</ele>
        <time>2010-12-12T08:38:57Z</time>
      </trkpt>
      <trkpt lat="43.75044" lon="-0.5678">
        <ele>112.4</ele>
        <time>2010-12-12T08:39:01Z</time>
      </trkpt>
      <trkpt lat="43.75026" lon="-0.56749">
        <ele>112.2</ele>
        <time>2010-12-12T08:39:05Z</time>
      </trkpt>
      <trkpt lat="43.75011" lon="-0.56719">
        <ele>112.2</ele>
        <time>2010-12-12T08:39:09Z</time>
      </trkpt>
      <trkpt lat="43.74997" lon="-0.56689">
        <ele>111.5</ele>
        <time>2010-12-12T08:39:13Z</time>
      </trkpt>
      <trkpt lat="43.74981" lon="-0.56659">
        <ele>110.8</ele>
        <time>2010-12-12T08:39:17Z</time>
      </trkpt>
      <trkpt lat="43.74964" lon="-0.56633">
        <ele>110.1</ele>
        <time>2010-12-12T08:39:21Z</time>
      </trkpt>
      <trkpt lat="43.74943" lon="-0.56613">
        <ele>110</ele>
        <time>2010-12-12T08:39:25Z</time>
      </trkpt>
      <trkpt lat="43.7492" lon="-0.56589">
        <ele>111.2</ele>
        <time>2010-12-12T08:39:29Z</time>
      </trkpt>
      <trkpt lat="43.74897" lon="-0.56562">
        <ele>111.4</ele>
        <time>2010-12-12T08:39:33Z</time>
      </trkpt>
      <trkpt lat="43.74877" lon="-0.56534">
        <ele>110.2</ele>
        <time>2010-12-12T08:39:37Z</time>
      </trkpt>
      <trkpt lat="43.74856" lon="-0.56506">
        <ele>108.4</ele>
        <time>2010-12-12T08:39:41Z</time>
      </trkpt>
      <trkpt lat="43.74835" lon="-0.56482">
        <ele>108.6</ele>
        <time>2010-12-12T08:39:45Z</time>
      </trkpt>
      <trkpt lat="43.74815" lon="-0.56458">
        <ele>108.3</ele>
        <time>2010-12-12T08:39:49Z</time>
      </trkpt>
      <trkpt lat="43.74797" lon="-0.56432">
        <ele>107.7</ele>
        <time>2010-12-12T08:39:53Z</time>
      </trkpt>
      <trkpt lat="43.74777" lon="-0.56405">
        <ele>107.5</ele>
        <time>2010-12-12T08:39:57Z</time>
      </trkpt>
      <trkpt lat="43.74759" lon="-0.56378">
        <ele>106.3</ele>
        <time>2010-12-12T08:40:01Z</time>
      </trkpt>
      <trkpt lat="43.74749" lon="-0.56345">
        <ele>105.8</ele>
        <time>2010-12-12T08:40:05Z</time>
      </trkpt>
      <trkpt lat="43.74743" lon="-0.56308">
        <ele>106.3</ele>
        <time>2010-12-12T08:40:09Z</time>
      </trkpt>
      <trkpt lat="43.74732" lon="-0.56273">
        <ele>106.1</ele>
        <time>2010-12-12T08:40:13Z</time>
      </trkpt>
      <trkpt lat="43.74714" lon="-0.5624">
        <ele>104.3</ele>
        <time>2010-12-12T08:40:17Z</time>
      </trkpt>
      <trkpt lat="43.74691" lon="-0.56216">
        <ele>103.9</ele>
        <time>2010-12-12T08:40:21Z</time>
      </trkpt>
      <trkpt lat="43.74671" lon="-0.56192">
        <ele>102.4</ele>
        <time>2010-12-12T08:40:26Z</time>
      </trkpt>
      <trkpt lat="43.74646" lon="-0.56191">
        <ele>101.3</ele>
        <time>2010-12-12T08:40:30Z</time>
      </trkpt>
      <trkpt lat="43.74628" lon="-0.56214">
        <ele>101.4</ele>
        <time>2010-12-12T08:40:34Z</time>
      </trkpt>
      <trkpt lat="43.74609" lon="-0.56233">
        <ele>101.1</ele>
        <time>2010-12-12T08:40:38Z</time>
      </trkpt>
      <trkpt lat="43.74585" lon="-0.56235">
        <ele>102.5</ele>
        <time>2010-12-12T08:40:43Z</time>
      </trkpt>
      <trkpt lat="43.74564" lon="-0.56223">
        <ele>104.6</ele>
        <time>2010-12-12T08:40:47Z</time>
      </trkpt>
      <trkpt lat="43.74542" lon="-0.56208">
        <ele>105.9</ele>
        <time>2010-12-12T08:40:51Z</time>
      </trkpt>
      <trkpt lat="43.74518" lon="-0.56189">
        <ele>107.5</ele>
        <time>2010-12-12T08:40:55Z</time>
      </trkpt>
      <trkpt lat="43.74494" lon="-0.5617">
        <ele>107.8</ele>
        <time>2010-12-12T08:40:59Z</time>
      </trkpt>
      <trkpt lat="43.74469" lon="-0.56152">
        <ele>108.1</ele>
        <time>2010-12-12T08:41:03Z</time>
      </trkpt>
      <trkpt lat="43.74446" lon="-0.56135">
        <ele>107.6</ele>
        <time>2010-12-12T08:41:07Z</time>
      </trkpt>
      <trkpt lat="43.74422" lon="-0.56117">
        <ele>107.3</ele>
        <time>2010-12-12T08:41:11Z</time>
      </trkpt>
      <trkpt lat="43.74398" lon="-0.56098">
        <ele>107.6</ele>
        <time>2010-12-12T08:41:15Z</time>
      </trkpt>
      <trkpt lat="43.74373" lon="-0.56079">
        <ele>107.2</ele>
        <time>2010-12-12T08:41:19Z</time>
      </trkpt>
      <trkpt lat="43.74349" lon="-0.56061">
        <ele>106.6</ele>
        <time>2010-12-12T08:41:23Z</time>
      </trkpt>
      <trkpt lat="43.74325" lon="-0.56043">
        <ele>106.9</ele>
        <time>2010-12-12T08:41:27Z</time>
      </trkpt>
      <trkpt lat="43.74304" lon="-0.56028">
        <ele>107.7</ele>
        <time>2010-12-12T08:41:31Z</time>
      </trkpt>
      <trkpt lat="43.7428" lon="-0.56009">
        <ele>107.8</ele>
        <time>2010-12-12T08:41:35Z</time>
      </trkpt>
      <trkpt lat="43.74258" lon="-0.55992">
        <ele>106.7</ele>
        <time>2010-12-12T08:41:39Z</time>
      </trkpt>
      <trkpt lat="43.74235" lon="-0.55975">
        <ele>107</ele>
        <time>2010-12-12T08:41:43Z</time>
      </trkpt>
      <trkpt lat="43.74213" lon="-0.55959">
        <ele>107.3</ele>
        <time>2010-12-12T08:41:47Z</time>
      </trkpt>
      <trkpt lat="43.74191" lon="-0.55941">
        <ele>107.6</ele>
        <time>2010-12-12T08:41:51Z</time>
      </trkpt>
      <trkpt lat="43.74167" lon="-0.55927">
        <ele>107.8</ele>
        <time>2010-12-12T08:41:55Z</time>
      </trkpt>
      <trkpt lat="43.74143" lon="-0.55923">
        <ele>106.8</ele>
        <time>2010-12-12T08:41:59Z</time>
      </trkpt>
      <trkpt lat="43.74119" lon="-0.55928">
        <ele>106</ele>
        <time>2010-12-12T08:42:03Z</time>
      </trkpt>
      <trkpt lat="43.74098" lon="-0.55942">
        <ele>106.2</ele>
        <time>2010-12-12T08:42:07Z</time>
      </trkpt>
      <trkpt lat="43.74078" lon="-0.55956">
        <ele>105.8</ele>
        <time>2010-12-12T08:42:11Z</time>
      </trkpt>
      <trkpt lat="43.74054" lon="-0.55972">
        <ele>107</ele>
        <time>2010-12-12T08:42:15Z</time>
      </trkpt>
      <trkpt lat="43.74021" lon="-0.55986">
        <ele>107.7</ele>
        <time>2010-12-12T08:42:19Z</time>
      </trkpt>
      <trkpt lat="43.73985" lon="-0.56004">
        <ele>106.7</ele>
        <time>2010-12-12T08:42:23Z</time>
      </trkpt>
      <trkpt lat="43.73949" lon="-0.56025">
        <ele>104.1</ele>
        <time>2010-12-12T08:42:27Z</time>
      </trkpt>
      <trkpt lat="43.73916" lon="-0.56042">
        <ele>102.6</ele>
        <time>2010-12-12T08:42:31Z</time>
      </trkpt>
      <trkpt lat="43.73874" lon="-0.56044">
        <ele>100.9</ele>
        <time>2010-12-12T08:42:35Z</time>
      </trkpt>
      <trkpt lat="43.73835" lon="-0.56038">
        <ele>99.7</ele>
        <time>2010-12-12T08:42:39Z</time>
      </trkpt>
      <trkpt lat="43.73803" lon="-0.56063">
        <ele>98.9</ele>
        <time>2010-12-12T08:42:43Z</time>
      </trkpt>
      <trkpt lat="43.73782" lon="-0.56106">
        <ele>96.4</ele>
        <time>2010-12-12T08:42:47Z</time>
      </trkpt>
      <trkpt lat="43.73752" lon="-0.56144">
        <ele>92.8</ele>
        <time>2010-12-12T08:42:51Z</time>
      </trkpt>
      <trkpt lat="43.7371" lon="-0.56159">
        <ele>90.1</ele>
        <time>2010-12-12T08:42:55Z</time>
      </trkpt>
      <trkpt lat="43.73664" lon="-0.56157">
        <ele>87.5</ele>
        <time>2010-12-12T08:42:59Z</time>
      </trkpt>
      <trkpt lat="43.73615" lon="-0.56147">
        <ele>84.3</ele>
        <time>2010-12-12T08:43:03Z</time>
      </trkpt>
      <trkpt lat="43.73567" lon="-0.56137">
        <ele>80.8</ele>
        <time>2010-12-12T08:43:07Z</time>
      </trkpt>
      <trkpt lat="43.73519" lon="-0.56127">
        <ele>78.2</ele>
        <time>2010-12-12T08:43:11Z</time>
      </trkpt>
      <trkpt lat="43.73471" lon="-0.56117">
        <ele>75.6</ele>
        <time>2010-12-12T08:43:15Z</time>
      </trkpt>
      <trkpt lat="43.73425" lon="-0.56107">
        <ele>72.6</ele>
        <time>2010-12-12T08:43:19Z</time>
      </trkpt>
      <trkpt lat="43.73377" lon="-0.56097">
        <ele>70.5</ele>
        <time>2010-12-12T08:43:23Z</time>
      </trkpt>
      <trkpt lat="43.7333" lon="-0.56088">
        <ele>68.1</ele>
        <time>2010-12-12T08:43:27Z</time>
      </trkpt>
      <trkpt lat="43.73283" lon="-0.56078">
        <ele>65.9</ele>
        <time>2010-12-12T08:43:31Z</time>
      </trkpt>
      <trkpt lat="43.73237" lon="-0.56067">
        <ele>63.4</ele>
        <time>2010-12-12T08:43:35Z</time>
      </trkpt>
      <trkpt lat="43.73193" lon="-0.56055">
        <ele>60.5</ele>
        <time>2010-12-12T08:43:39Z</time>
      </trkpt>
      <trkpt lat="43.73152" lon="-0.56043">
        <ele>55.4</ele>
        <time>2010-12-12T08:43:43Z</time>
      </trkpt>
      <trkpt lat="43.73113" lon="-0.56034">
        <ele>53</ele>
        <time>2010-12-12T08:43:47Z</time>
      </trkpt>
      <trkpt lat="43.73078" lon="-0.56026">
        <ele>51.8</ele>
        <time>2010-12-12T08:43:51Z</time>
      </trkpt>
      <trkpt lat="43.73046" lon="-0.5601">
        <ele>50.7</ele>
        <time>2010-12-12T08:43:55Z</time>
      </trkpt>
      <trkpt lat="43.73017" lon="-0.55994">
        <ele>50.8</ele>
        <time>2010-12-12T08:43:59Z</time>
      </trkpt>
      <trkpt lat="43.7299" lon="-0.55977">
        <ele>49.9</ele>
        <time>2010-12-12T08:44:03Z</time>
      </trkpt>
      <trkpt lat="43.72964" lon="-0.55961">
        <ele>48.4</ele>
        <time>2010-12-12T08:44:07Z</time>
      </trkpt>
      <trkpt lat="43.7294" lon="-0.55948">
        <ele>48.1</ele>
        <time>2010-12-12T08:44:11Z</time>
      </trkpt>
      <trkpt lat="43.72916" lon="-0.55938">
        <ele>48.4</ele>
        <time>2010-12-12T08:44:15Z</time>
      </trkpt>
      <trkpt lat="43.72889" lon="-0.55928">
        <ele>48</ele>
        <time>2010-12-12T08:44:19Z</time>
      </trkpt>
      <trkpt lat="43.72861" lon="-0.55918">
        <ele>47.7</ele>
        <time>2010-12-12T08:44:23Z</time>
      </trkpt>
      <trkpt lat="43.72834" lon="-0.55908">
        <ele>47.4</ele>
        <time>2010-12-12T08:44:27Z</time>
      </trkpt>
      <trkpt lat="43.72805" lon="-0.55898">
        <ele>47.3</ele>
        <time>2010-12-12T08:44:31Z</time>
      </trkpt>
      <trkpt lat="43.72777" lon="-0.55887">
        <ele>47.6</ele>
        <time>2010-12-12T08:44:35Z</time>
      </trkpt>
      <trkpt lat="43.7275" lon="-0.55874">
        <ele>47.8</ele>
        <time>2010-12-12T08:44:39Z</time>
      </trkpt>
      <trkpt lat="43.72721" lon="-0.55861">
        <ele>48.8</ele>
        <time>2010-12-12T08:44:43Z</time>
      </trkpt>
      <trkpt lat="43.72695" lon="-0.55844">
        <ele>49.3</ele>
        <time>2010-12-12T08:44:47Z</time>
      </trkpt>
      <trkpt lat="43.72671" lon="-0.55827">
        <ele>49.3</ele>
        <time>2010-12-12T08:44:51Z</time>
      </trkpt>
      <trkpt lat="43.72646" lon="-0.5581">
        <ele>49.3</ele>
        <time>2010-12-12T08:44:55Z</time>
      </trkpt>
      <trkpt lat="43.72622" lon="-0.55791">
        <ele>49</ele>
        <time>2010-12-12T08:44:59Z</time>
      </trkpt>
      <trkpt lat="43.72598" lon="-0.55773">
        <ele>48.6</ele>
        <time>2010-12-12T08:45:03Z</time>
      </trkpt>
      <trkpt lat="43.72572" lon="-0.55753">
        <ele>47.9</ele>
        <time>2010-12-12T08:45:07Z</time>
      </trkpt>
      <trkpt lat="43.72546" lon="-0.55731">
        <ele>47.5</ele>
        <time>2010-12-12T08:45:11Z</time>
      </trkpt>
      <trkpt lat="43.72519" lon="-0.55708">
        <ele>47.6</ele>
        <time>2010-12-12T08:45:15Z</time>
      </trkpt>
      <trkpt lat="43.72494" lon="-0.55683">
        <ele>47.3</ele>
        <time>2010-12-12T08:45:19Z</time>
      </trkpt>
      <trkpt lat="43.72466" lon="-0.55655">
        <ele>47.4</ele>
        <time>2010-12-12T08:45:23Z</time>
      </trkpt>
      <trkpt lat="43.72447" lon="-0.55626">
        <ele>47.2</ele>
        <time>2010-12-12T08:45:27Z</time>
      </trkpt>
      <trkpt lat="43.72427" lon="-0.55599">
        <ele>47.3</ele>
        <time>2010-12-12T08:45:31Z</time>
      </trkpt>
      <trkpt lat="43.72405" lon="-0.55571">
        <ele>47.7</ele>
        <time>2010-12-12T08:45:35Z</time>
      </trkpt>
      <trkpt lat="43.72384" lon="-0.55544">
        <ele>48.2</ele>
        <time>2010-12-12T08:45:39Z</time>
      </trkpt>
      <trkpt lat="43.72364" lon="-0.55516">
        <ele>48.7</ele>
        <time>2010-12-12T08:45:43Z</time>
      </trkpt>
      <trkpt lat="43.72345" lon="-0.55488">
        <ele>49.7</ele>
        <time>2010-12-12T08:45:47Z</time>
      </trkpt>
      <trkpt lat="43.72327" lon="-0.5546">
        <ele>49.5</ele>
        <time>2010-12-12T08:45:51Z</time>
      </trkpt>
      <trkpt lat="43.72308" lon="-0.55434">
        <ele>50</ele>
        <time>2010-12-12T08:45:55Z</time>
      </trkpt>
      <trkpt lat="43.72289" lon="-0.55409">
        <ele>51</ele>
        <time>2010-12-12T08:45:59Z</time>
      </trkpt>
      <trkpt lat="43.72269" lon="-0.55382">
        <ele>50.1</ele>
        <time>2010-12-12T08:46:03Z</time>
      </trkpt>
      <trkpt lat="43.72249" lon="-0.55354">
        <ele>49.4</ele>
        <time>2010-12-12T08:46:07Z</time>
      </trkpt>
      <trkpt lat="43.72231" lon="-0.55325">
        <ele>49.6</ele>
        <time>2010-12-12T08:46:11Z</time>
      </trkpt>
      <trkpt lat="43.72212" lon="-0.55298">
        <ele>49.5</ele>
        <time>2010-12-12T08:46:15Z</time>
      </trkpt>
      <trkpt lat="43.72195" lon="-0.55269">
        <ele>48.9</ele>
        <time>2010-12-12T08:46:19Z</time>
      </trkpt>
      <trkpt lat="43.72171" lon="-0.55239">
        <ele>48.8</ele>
        <time>2010-12-12T08:46:23Z</time>
      </trkpt>
      <trkpt lat="43.72148" lon="-0.55212">
        <ele>51.3</ele>
        <time>2010-12-12T08:46:27Z</time>
      </trkpt>
      <trkpt lat="43.72128" lon="-0.55187">
        <ele>53.3</ele>
        <time>2010-12-12T08:46:31Z</time>
      </trkpt>
      <trkpt lat="43.72107" lon="-0.55161">
        <ele>54</ele>
        <time>2010-12-12T08:46:35Z</time>
      </trkpt>
      <trkpt lat="43.72084" lon="-0.55135">
        <ele>55.2</ele>
        <time>2010-12-12T08:46:39Z</time>
      </trkpt>
      <trkpt lat="43.7206" lon="-0.55111">
        <ele>55.9</ele>
        <time>2010-12-12T08:46:43Z</time>
      </trkpt>
      <trkpt lat="43.72034" lon="-0.55093">
        <ele>56.3</ele>
        <time>2010-12-12T08:46:47Z</time>
      </trkpt>
      <trkpt lat="43.7201" lon="-0.55076">
        <ele>55.8</ele>
        <time>2010-12-12T08:46:51Z</time>
      </trkpt>
      <trkpt lat="43.71985" lon="-0.55054">
        <ele>53.6</ele>
        <time>2010-12-12T08:46:55Z</time>
      </trkpt>
      <trkpt lat="43.71961" lon="-0.55037">
        <ele>52.5</ele>
        <time>2010-12-12T08:46:59Z</time>
      </trkpt>
      <trkpt lat="43.71938" lon="-0.55022">
        <ele>52.3</ele>
        <time>2010-12-12T08:47:03Z</time>
      </trkpt>
      <trkpt lat="43.71916" lon="-0.55008">
        <ele>51.7</ele>
        <time>2010-12-12T08:47:07Z</time>
      </trkpt>
      <trkpt lat="43.71889" lon="-0.54995">
        <ele>51.2</ele>
        <time>2010-12-12T08:47:12Z</time>
      </trkpt>
      <trkpt lat="43.71862" lon="-0.54984">
        <ele>53</ele>
        <time>2010-12-12T08:47:16Z</time>
      </trkpt>
      <trkpt lat="43.71835" lon="-0.54972">
        <ele>55</ele>
        <time>2010-12-12T08:47:20Z</time>
      </trkpt>
      <trkpt lat="43.71808" lon="-0.54951">
        <ele>56.7</ele>
        <time>2010-12-12T08:47:24Z</time>
      </trkpt>
      <trkpt lat="43.71778" lon="-0.54931">
        <ele>57.6</ele>
        <time>2010-12-12T08:47:28Z</time>
      </trkpt>
      <trkpt lat="43.71755" lon="-0.54907">
        <ele>55.3</ele>
        <time>2010-12-12T08:47:32Z</time>
      </trkpt>
      <trkpt lat="43.71732" lon="-0.54886">
        <ele>53.5</ele>
        <time>2010-12-12T08:47:36Z</time>
      </trkpt>
      <trkpt lat="43.71708" lon="-0.54869">
        <ele>53.2</ele>
        <time>2010-12-12T08:47:40Z</time>
      </trkpt>
      <trkpt lat="43.71685" lon="-0.54853">
        <ele>52.1</ele>
        <time>2010-12-12T08:47:44Z</time>
      </trkpt>
      <trkpt lat="43.71663" lon="-0.54838">
        <ele>51.8</ele>
        <time>2010-12-12T08:47:48Z</time>
      </trkpt>
      <trkpt lat="43.71641" lon="-0.54824">
        <ele>51.7</ele>
        <time>2010-12-12T08:47:52Z</time>
      </trkpt>
      <trkpt lat="43.71618" lon="-0.54809">
        <ele>51.9</ele>
        <time>2010-12-12T08:47:56Z</time>
      </trkpt>
      <trkpt lat="43.71595" lon="-0.54794">
        <ele>52.2</ele>
        <time>2010-12-12T08:48:00Z</time>
      </trkpt>
      <trkpt lat="43.71571" lon="-0.54778">
        <ele>52.7</ele>
        <time>2010-12-12T08:48:04Z</time>
      </trkpt>
      <trkpt lat="43.71548" lon="-0.5476">
        <ele>52.6</ele>
        <time>2010-12-12T08:48:08Z</time>
      </trkpt>
      <trkpt lat="43.71522" lon="-0.54743">
        <ele>52.8</ele>
        <time>2010-12-12T08:48:12Z</time>
      </trkpt>
      <trkpt lat="43.71499" lon="-0.54726">
        <ele>53.1</ele>
        <time>2010-12-12T08:48:16Z</time>
      </trkpt>
      <trkpt lat="43.71474" lon="-0.5471">
        <ele>52.5</ele>
        <time>2010-12-12T08:48:20Z</time>
      </trkpt>
      <trkpt lat="43.71449" lon="-0.54695">
        <ele>52.4</ele>
        <time>2010-12-12T08:48:24Z</time>
      </trkpt>
      <trkpt lat="43.71424" lon="-0.54678">
        <ele>53</ele>
        <time>2010-12-12T08:48:28Z</time>
      </trkpt>
      <trkpt lat="43.71399" lon="-0.54659">
        <ele>53.5</ele>
        <time>2010-12-12T08:48:32Z</time>
      </trkpt>
      <trkpt lat="43.71374" lon="-0.54641">
        <ele>54.1</ele>
        <time>2010-12-12T08:48:36Z</time>
      </trkpt>
      <trkpt lat="43.71352" lon="-0.54625">
        <ele>53.7</ele>
        <time>2010-12-12T08:48:40Z</time>
      </trkpt>
      <trkpt lat="43.71327" lon="-0.54608">
        <ele>52.9</ele>
        <time>2010-12-12T08:48:44Z</time>
      </trkpt>
      <trkpt lat="43.71299" lon="-0.54592">
        <ele>52.8</ele>
        <time>2010-12-12T08:48:48Z</time>
      </trkpt>
      <trkpt lat="43.71273" lon="-0.54576">
        <ele>52.2</ele>
        <time>2010-12-12T08:48:52Z</time>
      </trkpt>
      <trkpt lat="43.71248" lon="-0.54559">
        <ele>51.8</ele>
        <time>2010-12-12T08:48:56Z</time>
      </trkpt>
      <trkpt lat="43.71222" lon="-0.54543">
        <ele>52.3</ele>
        <time>2010-12-12T08:49:00Z</time>
      </trkpt>
      <trkpt lat="43.71197" lon="-0.54524">
        <ele>51.9</ele>
        <time>2010-12-12T08:49:04Z</time>
      </trkpt>
      <trkpt lat="43.71171" lon="-0.54504">
        <ele>52.8</ele>
        <time>2010-12-12T08:49:08Z</time>
      </trkpt>
      <trkpt lat="43.71142" lon="-0.54485">
        <ele>54.2</ele>
        <time>2010-12-12T08:49:12Z</time>
      </trkpt>
      <trkpt lat="43.71119" lon="-0.54465">
        <ele>54.2</ele>
        <time>2010-12-12T08:49:16Z</time>
      </trkpt>
      <trkpt lat="43.711" lon="-0.54444">
        <ele>53.8</ele>
        <time>2010-12-12T08:49:20Z</time>
      </trkpt>
      <trkpt lat="43.71077" lon="-0.54423">
        <ele>54.5</ele>
        <time>2010-12-12T08:49:24Z</time>
      </trkpt>
      <trkpt lat="43.7105" lon="-0.54403">
        <ele>54.2</ele>
        <time>2010-12-12T08:49:28Z</time>
      </trkpt>
      <trkpt lat="43.71026" lon="-0.54381">
        <ele>55</ele>
        <time>2010-12-12T08:49:32Z</time>
      </trkpt>
      <trkpt lat="43.71002" lon="-0.54358">
        <ele>55.2</ele>
        <time>2010-12-12T08:49:36Z</time>
      </trkpt>
      <trkpt lat="43.7098" lon="-0.54331">
        <ele>55.1</ele>
        <time>2010-12-12T08:49:40Z</time>
      </trkpt>
      <trkpt lat="43.70962" lon="-0.54302">
        <ele>56.3</ele>
        <time>2010-12-12T08:49:44Z</time>
      </trkpt>
      <trkpt lat="43.70943" lon="-0.54275">
        <ele>56.1</ele>
        <time>2010-12-12T08:49:48Z</time>
      </trkpt>
      <trkpt lat="43.70924" lon="-0.54245">
        <ele>55.2</ele>
        <time>2010-12-12T08:49:52Z</time>
      </trkpt>
      <trkpt lat="43.70903" lon="-0.54217">
        <ele>55.4</ele>
        <time>2010-12-12T08:49:56Z</time>
      </trkpt>
      <trkpt lat="43.70885" lon="-0.54187">
        <ele>54.1</ele>
        <time>2010-12-12T08:50:00Z</time>
      </trkpt>
      <trkpt lat="43.70865" lon="-0.54159">
        <ele>54.1</ele>
        <time>2010-12-12T08:50:04Z</time>
      </trkpt>
      <trkpt lat="43.70845" lon="-0.54131">
        <ele>52.7</ele>
        <time>2010-12-12T08:50:08Z</time>
      </trkpt>
      <trkpt lat="43.70823" lon="-0.54107">
        <ele>52.4</ele>
        <time>2010-12-12T08:50:12Z</time>
      </trkpt>
      <trkpt lat="43.708" lon="-0.54087">
        <ele>51.9</ele>
        <time>2010-12-12T08:50:16Z</time>
      </trkpt>
      <trkpt lat="43.70775" lon="-0.54067">
        <ele>51.3</ele>
        <time>2010-12-12T08:50:20Z</time>
      </trkpt>
      <trkpt lat="43.7075" lon="-0.54045">
        <ele>51</ele>
        <time>2010-12-12T08:50:24Z</time>
      </trkpt>
      <trkpt lat="43.70724" lon="-0.54022">
        <ele>51.4</ele>
        <time>2010-12-12T08:50:28Z</time>
      </trkpt>
      <trkpt lat="43.707" lon="-0.53996">
        <ele>50.6</ele>
        <time>2010-12-12T08:50:32Z</time>
      </trkpt>
      <trkpt lat="43.70677" lon="-0.53971">
        <ele>51</ele>
        <time>2010-12-12T08:50:36Z</time>
      </trkpt>
      <trkpt lat="43.70653" lon="-0.53949">
        <ele>51.4</ele>
        <time>2010-12-12T08:50:40Z</time>
      </trkpt>
      <trkpt lat="43.70626" lon="-0.5393">
        <ele>52</ele>
        <time>2010-12-12T08:50:44Z</time>
      </trkpt>
      <trkpt lat="43.70599" lon="-0.53911">
        <ele>52.5</ele>
        <time>2010-12-12T08:50:48Z</time>
      </trkpt>
      <trkpt lat="43.70574" lon="-0.53892">
        <ele>52.5</ele>
        <time>2010-12-12T08:50:52Z</time>
      </trkpt>
      <trkpt lat="43.7055" lon="-0.53873">
        <ele>53.3</ele>
        <time>2010-12-12T08:50:56Z</time>
      </trkpt>
      <trkpt lat="43.70524" lon="-0.53858">
        <ele>53.4</ele>
        <time>2010-12-12T08:51:00Z</time>
      </trkpt>
      <trkpt lat="43.70498" lon="-0.53846">
        <ele>53.7</ele>
        <time>2010-12-12T08:51:04Z</time>
      </trkpt>
      <trkpt lat="43.70471" lon="-0.53839">
        <ele>54.3</ele>
        <time>2010-12-12T08:51:08Z</time>
      </trkpt>
      <trkpt lat="43.70444" lon="-0.53833">
        <ele>54.5</ele>
        <time>2010-12-12T08:51:12Z</time>
      </trkpt>
      <trkpt lat="43.70421" lon="-0.53823">
        <ele>53.4</ele>
        <time>2010-12-12T08:51:17Z</time>
      </trkpt>
      <trkpt lat="43.70395" lon="-0.53816">
        <ele>54.7</ele>
        <time>2010-12-12T08:51:21Z</time>
      </trkpt>
      <trkpt lat="43.70369" lon="-0.53801">
        <ele>54.7</ele>
        <time>2010-12-12T08:51:25Z</time>
      </trkpt>
      <trkpt lat="43.70352" lon="-0.5378">
        <ele>54.5</ele>
        <time>2010-12-12T08:51:29Z</time>
      </trkpt>
      <trkpt lat="43.70334" lon="-0.53758">
        <ele>56</ele>
        <time>2010-12-12T08:51:33Z</time>
      </trkpt>
      <trkpt lat="43.70314" lon="-0.53727">
        <ele>58.7</ele>
        <time>2010-12-12T08:51:37Z</time>
      </trkpt>
      <trkpt lat="43.703" lon="-0.53691">
        <ele>62.1</ele>
        <time>2010-12-12T08:51:41Z</time>
      </trkpt>
      <trkpt lat="43.70283" lon="-0.53654">
        <ele>68.5</ele>
        <time>2010-12-12T08:51:45Z</time>
      </trkpt>
      <trkpt lat="43.70269" lon="-0.53619">
        <ele>72.8</ele>
        <time>2010-12-12T08:51:49Z</time>
      </trkpt>
      <trkpt lat="43.70256" lon="-0.53576">
        <ele>76.1</ele>
        <time>2010-12-12T08:51:53Z</time>
      </trkpt>
      <trkpt lat="43.70245" lon="-0.53538">
        <ele>78.6</ele>
        <time>2010-12-12T08:51:57Z</time>
      </trkpt>
      <trkpt lat="43.70237" lon="-0.535">
        <ele>78.8</ele>
        <time>2010-12-12T08:52:01Z</time>
      </trkpt>
      <trkpt lat="43.70228" lon="-0.53464">
        <ele>78.8</ele>
        <time>2010-12-12T08:52:05Z</time>
      </trkpt>
      <trkpt lat="43.70218" lon="-0.53427">
        <ele>77.5</ele>
        <time>2010-12-12T08:52:09Z</time>
      </trkpt>
      <trkpt lat="43.70203" lon="-0.53397">
        <ele>74.8</ele>
        <time>2010-12-12T08:52:13Z</time>
      </trkpt>
      <trkpt lat="43.70183" lon="-0.53379">
        <ele>71.6</ele>
        <time>2010-12-12T08:52:18Z</time>
      </trkpt>
      <trkpt lat="43.70162" lon="-0.53369">
        <ele>71.8</ele>
        <time>2010-12-12T08:52:22Z</time>
      </trkpt>
      <trkpt lat="43.70137" lon="-0.53357">
        <ele>70.3</ele>
        <time>2010-12-12T08:52:26Z</time>
      </trkpt>
      <trkpt lat="43.70106" lon="-0.53346">
        <ele>70.3</ele>
        <time>2010-12-12T08:52:30Z</time>
      </trkpt>
      <trkpt lat="43.70075" lon="-0.53332">
        <ele>70.6</ele>
        <time>2010-12-12T08:52:34Z</time>
      </trkpt>
      <trkpt lat="43.70046" lon="-0.53317">
        <ele>69.9</ele>
        <time>2010-12-12T08:52:38Z</time>
      </trkpt>
      <trkpt lat="43.7002" lon="-0.53301">
        <ele>68.2</ele>
        <time>2010-12-12T08:52:42Z</time>
      </trkpt>
      <trkpt lat="43.69992" lon="-0.53283">
        <ele>65.6</ele>
        <time>2010-12-12T08:52:46Z</time>
      </trkpt>
      <trkpt lat="43.69964" lon="-0.53267">
        <ele>63.4</ele>
        <time>2010-12-12T08:52:50Z</time>
      </trkpt>
      <trkpt lat="43.69936" lon="-0.53254">
        <ele>63.2</ele>
        <time>2010-12-12T08:52:54Z</time>
      </trkpt>
      <trkpt lat="43.69909" lon="-0.53238">
        <ele>61.8</ele>
        <time>2010-12-12T08:52:58Z</time>
      </trkpt>
      <trkpt lat="43.69885" lon="-0.53225">
        <ele>61</ele>
        <time>2010-12-12T08:53:02Z</time>
      </trkpt>
      <trkpt lat="43.6986" lon="-0.53214">
        <ele>60.8</ele>
        <time>2010-12-12T08:53:06Z</time>
      </trkpt>
      <trkpt lat="43.69837" lon="-0.532">
        <ele>60.2</ele>
        <time>2010-12-12T08:53:10Z</time>
      </trkpt>
      <trkpt lat="43.69814" lon="-0.53183">
        <ele>59.6</ele>
        <time>2010-12-12T08:53:14Z</time>
      </trkpt>
      <trkpt lat="43.69791" lon="-0.53166">
        <ele>59.6</ele>
        <time>2010-12-12T08:53:18Z</time>
      </trkpt>
      <trkpt lat="43.69766" lon="-0.53147">
        <ele>59.1</ele>
        <time>2010-12-12T08:53:22Z</time>
      </trkpt>
      <trkpt lat="43.69741" lon="-0.53124">
        <ele>58.7</ele>
        <time>2010-12-12T08:53:26Z</time>
      </trkpt>
      <trkpt lat="43.69721" lon="-0.531">
        <ele>58.2</ele>
        <time>2010-12-12T08:53:30Z</time>
      </trkpt>
      <trkpt lat="43.69703" lon="-0.53073">
        <ele>57.9</ele>
        <time>2010-12-12T08:53:34Z</time>
      </trkpt>
      <trkpt lat="43.69685" lon="-0.53046">
        <ele>57.7</ele>
        <time>2010-12-12T08:53:38Z</time>
      </trkpt>
      <trkpt lat="43.69667" lon="-0.53018">
        <ele>57.7</ele>
        <time>2010-12-12T08:53:43Z</time>
      </trkpt>
      <trkpt lat="43.69651" lon="-0.52995">
        <ele>58.2</ele>
        <time>2010-12-12T08:53:48Z</time>
      </trkpt>
      <trkpt lat="43.69639" lon="-0.52978">
        <ele>58.7</ele>
        <time>2010-12-12T08:53:52Z</time>
      </trkpt>
      <trkpt lat="43.69629" lon="-0.52958">
        <ele>58.8</ele>
        <time>2010-12-12T08:53:56Z</time>
      </trkpt>
      <trkpt lat="43.69615" lon="-0.52937">
        <ele>59.5</ele>
        <time>2010-12-12T08:54:01Z</time>
      </trkpt>
      <trkpt lat="43.69598" lon="-0.5291">
        <ele>60.1</ele>
        <time>2010-12-12T08:54:08Z</time>
      </trkpt>
      <trkpt lat="43.69588" lon="-0.52889">
        <ele>60.4</ele>
        <time>2010-12-12T08:54:12Z</time>
      </trkpt>
      <trkpt lat="43.69578" lon="-0.52871">
        <ele>60.8</ele>
        <time>2010-12-12T08:54:16Z</time>
      </trkpt>
      <trkpt lat="43.6957" lon="-0.52849">
        <ele>61.2</ele>
        <time>2010-12-12T08:54:20Z</time>
      </trkpt>
      <trkpt lat="43.6956" lon="-0.52827">
        <ele>62.3</ele>
        <time>2010-12-12T08:54:24Z</time>
      </trkpt>
      <trkpt lat="43.69547" lon="-0.52805">
        <ele>64.7</ele>
        <time>2010-12-12T08:54:29Z</time>
      </trkpt>
      <trkpt lat="43.69536" lon="-0.52788">
        <ele>65.4</ele>
        <time>2010-12-12T08:54:33Z</time>
      </trkpt>
      <trkpt lat="43.69525" lon="-0.52765">
        <ele>64.6</ele>
        <time>2010-12-12T08:54:37Z</time>
      </trkpt>
      <trkpt lat="43.69511" lon="-0.52744">
        <ele>66.2</ele>
        <time>2010-12-12T08:54:42Z</time>
      </trkpt>
      <trkpt lat="43.695" lon="-0.52722">
        <ele>67.3</ele>
        <time>2010-12-12T08:54:46Z</time>
      </trkpt>
      <trkpt lat="43.69486" lon="-0.52695">
        <ele>68.7</ele>
        <time>2010-12-12T08:54:51Z</time>
      </trkpt>
      <trkpt lat="43.69474" lon="-0.52673">
        <ele>70.3</ele>
        <time>2010-12-12T08:54:56Z</time>
      </trkpt>
      <trkpt lat="43.69464" lon="-0.52652">
        <ele>72.4</ele>
        <time>2010-12-12T08:55:00Z</time>
      </trkpt>
      <trkpt lat="43.69454" lon="-0.52629">
        <ele>74.6</ele>
        <time>2010-12-12T08:55:04Z</time>
      </trkpt>
      <trkpt lat="43.69442" lon="-0.52605">
        <ele>75.9</ele>
        <time>2010-12-12T08:55:08Z</time>
      </trkpt>
      <trkpt lat="43.69426" lon="-0.52585">
        <ele>78.2</ele>
        <time>2010-12-12T08:55:12Z</time>
      </trkpt>
      <trkpt lat="43.69414" lon="-0.52562">
        <ele>78.6</ele>
        <time>2010-12-12T08:55:16Z</time>
      </trkpt>
      <trkpt lat="43.69405" lon="-0.5254">
        <ele>78.8</ele>
        <time>2010-12-12T08:55:20Z</time>
      </trkpt>
      <trkpt lat="43.69394" lon="-0.52514">
        <ele>78.9</ele>
        <time>2010-12-12T08:55:24Z</time>
      </trkpt>
      <trkpt lat="43.6938" lon="-0.5249">
        <ele>79.3</ele>
        <time>2010-12-12T08:55:29Z</time>
      </trkpt>
      <trkpt lat="43.69368" lon="-0.52467">
        <ele>81.7</ele>
        <time>2010-12-12T08:55:35Z</time>
      </trkpt>
      <trkpt lat="43.69353" lon="-0.52443">
        <ele>87.8</ele>
        <time>2010-12-12T08:55:42Z</time>
      </trkpt>
      <trkpt lat="43.69341" lon="-0.52418">
        <ele>94.2</ele>
        <time>2010-12-12T08:55:51Z</time>
      </trkpt>
      <trkpt lat="43.69331" lon="-0.52393">
        <ele>93.2</ele>
        <time>2010-12-12T08:55:58Z</time>
      </trkpt>
      <trkpt lat="43.69318" lon="-0.52371">
        <ele>94</ele>
        <time>2010-12-12T08:56:06Z</time>
      </trkpt>
      <trkpt lat="43.69306" lon="-0.52346">
        <ele>94.6</ele>
        <time>2010-12-12T08:56:14Z</time>
      </trkpt>
      <trkpt lat="43.69297" lon="-0.52325">
        <ele>93.7</ele>
        <time>2010-12-12T08:56:20Z</time>
      </trkpt>
      <trkpt lat="43.69284" lon="-0.523">
        <ele>92.7</ele>
        <time>2010-12-12T08:56:28Z</time>
      </trkpt>
      <trkpt lat="43.69271" lon="-0.52279">
        <ele>95.3</ele>
        <time>2010-12-12T08:56:36Z</time>
      </trkpt>
      <trkpt lat="43.69262" lon="-0.52259">
        <ele>96</ele>
        <time>2010-12-12T08:56:45Z</time>
      </trkpt>
      <trkpt lat="43.69257" lon="-0.52242">
        <ele>92.6</ele>
        <time>2010-12-12T08:56:55Z</time>
      </trkpt>
      <trkpt lat="43.69242" lon="-0.52223">
        <ele>91.4</ele>
        <time>2010-12-12T08:57:08Z</time>
      </trkpt>
      <trkpt lat="43.69235" lon="-0.52214">
        <ele>92.8</ele>
        <time>2010-12-12T08:57:28Z</time>
      </trkpt>
      <trkpt lat="43.69225" lon="-0.52199">
        <ele>94.9</ele>
        <time>2010-12-12T08:57:38Z</time>
      </trkpt>
      <trkpt lat="43.69211" lon="-0.52181">
        <ele>96.5</ele>
        <time>2010-12-12T08:57:47Z</time>
      </trkpt>
      <trkpt lat="43.69194" lon="-0.52161">
        <ele>100.3</ele>
        <time>2010-12-12T08:57:55Z</time>
      </trkpt>
      <trkpt lat="43.69178" lon="-0.5214">
        <ele>101.6</ele>
        <time>2010-12-12T08:58:02Z</time>
      </trkpt>
      <trkpt lat="43.69169" lon="-0.52117">
        <ele>103.1</ele>
        <time>2010-12-12T08:58:11Z</time>
      </trkpt>
      <trkpt lat="43.69157" lon="-0.52097">
        <ele>104.1</ele>
        <time>2010-12-12T08:58:21Z</time>
      </trkpt>
      <trkpt lat="43.69144" lon="-0.52079">
        <ele>105.1</ele>
        <time>2010-12-12T08:58:28Z</time>
      </trkpt>
      <trkpt lat="43.69124" lon="-0.52062">
        <ele>109.2</ele>
        <time>2010-12-12T08:58:36Z</time>
      </trkpt>
      <trkpt lat="43.69111" lon="-0.52042">
        <ele>111.2</ele>
        <time>2010-12-12T08:58:45Z</time>
      </trkpt>
      <trkpt lat="43.69098" lon="-0.52023">
        <ele>114</ele>
        <time>2010-12-12T08:58:52Z</time>
      </trkpt>
      <trkpt lat="43.69085" lon="-0.52001">
        <ele>115.4</ele>
        <time>2010-12-12T08:59:01Z</time>
      </trkpt>
      <trkpt lat="43.69072" lon="-0.51976">
        <ele>114.2</ele>
        <time>2010-12-12T08:59:08Z</time>
      </trkpt>
      <trkpt lat="43.69058" lon="-0.51957">
        <ele>111.2</ele>
        <time>2010-12-12T08:59:17Z</time>
      </trkpt>
      <trkpt lat="43.69044" lon="-0.51932">
        <ele>114.7</ele>
        <time>2010-12-12T08:59:25Z</time>
      </trkpt>
      <trkpt lat="43.69047" lon="-0.51907">
        <ele>116.6</ele>
        <time>2010-12-12T08:59:32Z</time>
      </trkpt>
      <trkpt lat="43.69058" lon="-0.51884">
        <ele>115.4</ele>
        <time>2010-12-12T08:59:38Z</time>
      </trkpt>
      <trkpt lat="43.69062" lon="-0.51863">
        <ele>115.8</ele>
        <time>2010-12-12T08:59:42Z</time>
      </trkpt>
      <trkpt lat="43.69065" lon="-0.51838">
        <ele>115.8</ele>
        <time>2010-12-12T08:59:46Z</time>
      </trkpt>
      <trkpt lat="43.69067" lon="-0.51813">
        <ele>115.6</ele>
        <time>2010-12-12T08:59:50Z</time>
      </trkpt>
      <trkpt lat="43.69067" lon="-0.51788">
        <ele>115.8</ele>
        <time>2010-12-12T08:59:54Z</time>
      </trkpt>
      <trkpt lat="43.69068" lon="-0.51761">
        <ele>114.3</ele>
        <time>2010-12-12T08:59:58Z</time>
      </trkpt>
      <trkpt lat="43.69066" lon="-0.51737">
        <ele>114.3</ele>
        <time>2010-12-12T09:00:02Z</time>
      </trkpt>
      <trkpt lat="43.69062" lon="-0.51713">
        <ele>113.8</ele>
        <time>2010-12-12T09:00:06Z</time>
      </trkpt>
      <trkpt lat="43.69057" lon="-0.51693">
        <ele>114.5</ele>
        <time>2010-12-12T09:00:10Z</time>
      </trkpt>
      <trkpt lat="43.69054" lon="-0.5167">
        <ele>115.8</ele>
        <time>2010-12-12T09:00:14Z</time>
      </trkpt>
      <trkpt lat="43.69051" lon="-0.51642">
        <ele>116.9</ele>
        <time>2010-12-12T09:00:19Z</time>
      </trkpt>
      <trkpt lat="43.6905" lon="-0.51619">
        <ele>117.7</ele>
        <time>2010-12-12T09:00:23Z</time>
      </trkpt>
      <trkpt lat="43.69047" lon="-0.51593">
        <ele>118.2</ele>
        <time>2010-12-12T09:00:28Z</time>
      </trkpt>
      <trkpt lat="43.69043" lon="-0.51571">
        <ele>120.1</ele>
        <time>2010-12-12T09:00:32Z</time>
      </trkpt>
      <trkpt lat="43.69041" lon="-0.51545">
        <ele>121.7</ele>
        <time>2010-12-12T09:00:37Z</time>
      </trkpt>
      <trkpt lat="43.69037" lon="-0.51523">
        <ele>123</ele>
        <time>2010-12-12T09:00:41Z</time>
      </trkpt>
      <trkpt lat="43.69035" lon="-0.51501">
        <ele>123.9</ele>
        <time>2010-12-12T09:00:45Z</time>
      </trkpt>
      <trkpt lat="43.69032" lon="-0.51476">
        <ele>124.3</ele>
        <time>2010-12-12T09:00:50Z</time>
      </trkpt>
      <trkpt lat="43.69028" lon="-0.51449">
        <ele>124.9</ele>
        <time>2010-12-12T09:00:56Z</time>
      </trkpt>
      <trkpt lat="43.69023" lon="-0.51429">
        <ele>125.8</ele>
        <time>2010-12-12T09:01:00Z</time>
      </trkpt>
      <trkpt lat="43.69017" lon="-0.51405">
        <ele>128.2</ele>
        <time>2010-12-12T09:01:05Z</time>
      </trkpt>
      <trkpt lat="43.69014" lon="-0.51378">
        <ele>128.9</ele>
        <time>2010-12-12T09:01:10Z</time>
      </trkpt>
      <trkpt lat="43.69012" lon="-0.51353">
        <ele>127.6</ele>
        <time>2010-12-12T09:01:14Z</time>
      </trkpt>
      <trkpt lat="43.69008" lon="-0.51328">
        <ele>128.4</ele>
        <time>2010-12-12T09:01:18Z</time>
      </trkpt>
      <trkpt lat="43.69003" lon="-0.51304">
        <ele>127.8</ele>
        <time>2010-12-12T09:01:22Z</time>
      </trkpt>
      <trkpt lat="43.68996" lon="-0.51279">
        <ele>127.4</ele>
        <time>2010-12-12T09:01:26Z</time>
      </trkpt>
      <trkpt lat="43.68987" lon="-0.51254">
        <ele>126.2</ele>
        <time>2010-12-12T09:01:30Z</time>
      </trkpt>
      <trkpt lat="43.68975" lon="-0.51231">
        <ele>125</ele>
        <time>2010-12-12T09:01:34Z</time>
      </trkpt>
      <trkpt lat="43.68963" lon="-0.51208">
        <ele>124</ele>
        <time>2010-12-12T09:01:38Z</time>
      </trkpt>
      <trkpt lat="43.68946" lon="-0.5119">
        <ele>123.9</ele>
        <time>2010-12-12T09:01:42Z</time>
      </trkpt>
      <trkpt lat="43.68929" lon="-0.51172">
        <ele>123.7</ele>
        <time>2010-12-12T09:01:46Z</time>
      </trkpt>
      <trkpt lat="43.68911" lon="-0.51151">
        <ele>119.7</ele>
        <time>2010-12-12T09:01:50Z</time>
      </trkpt>
      <trkpt lat="43.68891" lon="-0.51133">
        <ele>118.8</ele>
        <time>2010-12-12T09:01:54Z</time>
      </trkpt>
      <trkpt lat="43.68871" lon="-0.51117">
        <ele>118.8</ele>
        <time>2010-12-12T09:01:58Z</time>
      </trkpt>
      <trkpt lat="43.68851" lon="-0.51099">
        <ele>119.7</ele>
        <time>2010-12-12T09:02:02Z</time>
      </trkpt>
      <trkpt lat="43.68834" lon="-0.51079">
        <ele>119.4</ele>
        <time>2010-12-12T09:02:06Z</time>
      </trkpt>
      <trkpt lat="43.68819" lon="-0.51059">
        <ele>119.3</ele>
        <time>2010-12-12T09:02:10Z</time>
      </trkpt>
      <trkpt lat="43.68802" lon="-0.51032">
        <ele>119.6</ele>
        <time>2010-12-12T09:02:14Z</time>
      </trkpt>
      <trkpt lat="43.68785" lon="-0.51008">
        <ele>120.1</ele>
        <time>2010-12-12T09:02:18Z</time>
      </trkpt>
      <trkpt lat="43.68766" lon="-0.50985">
        <ele>120</ele>
        <time>2010-12-12T09:02:22Z</time>
      </trkpt>
      <trkpt lat="43.68748" lon="-0.50965">
        <ele>119.9</ele>
        <time>2010-12-12T09:02:26Z</time>
      </trkpt>
      <trkpt lat="43.68729" lon="-0.50943">
        <ele>120.5</ele>
        <time>2010-12-12T09:02:30Z</time>
      </trkpt>
      <trkpt lat="43.68711" lon="-0.5092">
        <ele>120.9</ele>
        <time>2010-12-12T09:02:34Z</time>
      </trkpt>
      <trkpt lat="43.68692" lon="-0.50897">
        <ele>120.8</ele>
        <time>2010-12-12T09:02:38Z</time>
      </trkpt>
      <trkpt lat="43.68675" lon="-0.50873">
        <ele>120</ele>
        <time>2010-12-12T09:02:42Z</time>
      </trkpt>
      <trkpt lat="43.68657" lon="-0.50849">
        <ele>120.4</ele>
        <time>2010-12-12T09:02:46Z</time>
      </trkpt>
      <trkpt lat="43.68637" lon="-0.50825">
        <ele>121.4</ele>
        <time>2010-12-12T09:02:50Z</time>
      </trkpt>
      <trkpt lat="43.68616" lon="-0.50801">
        <ele>121.6</ele>
        <time>2010-12-12T09:02:54Z</time>
      </trkpt>
      <trkpt lat="43.68597" lon="-0.50776">
        <ele>122.7</ele>
        <time>2010-12-12T09:02:58Z</time>
      </trkpt>
      <trkpt lat="43.68578" lon="-0.50751">
        <ele>122.1</ele>
        <time>2010-12-12T09:03:02Z</time>
      </trkpt>
      <trkpt lat="43.68558" lon="-0.50726">
        <ele>122.1</ele>
        <time>2010-12-12T09:03:06Z</time>
      </trkpt>
      <trkpt lat="43.68538" lon="-0.50702">
        <ele>122.4</ele>
        <time>2010-12-12T09:03:10Z</time>
      </trkpt>
      <trkpt lat="43.68519" lon="-0.50678">
        <ele>123</ele>
        <time>2010-12-12T09:03:14Z</time>
      </trkpt>
      <trkpt lat="43.685" lon="-0.50652">
        <ele>124.3</ele>
        <time>2010-12-12T09:03:18Z</time>
      </trkpt>
      <trkpt lat="43.68478" lon="-0.50626">
        <ele>124</ele>
        <time>2010-12-12T09:03:22Z</time>
      </trkpt>
      <trkpt lat="43.68454" lon="-0.506">
        <ele>123.2</ele>
        <time>2010-12-12T09:03:26Z</time>
      </trkpt>
      <trkpt lat="43.68431" lon="-0.50575">
        <ele>122.6</ele>
        <time>2010-12-12T09:03:30Z</time>
      </trkpt>
      <trkpt lat="43.68409" lon="-0.50548">
        <ele>123.4</ele>
        <time>2010-12-12T09:03:34Z</time>
      </trkpt>
      <trkpt lat="43.68385" lon="-0.50522">
        <ele>123.6</ele>
        <time>2010-12-12T09:03:38Z</time>
      </trkpt>
      <trkpt lat="43.68363" lon="-0.50497">
        <ele>124.4</ele>
        <time>2010-12-12T09:03:42Z</time>
      </trkpt>
      <trkpt lat="43.6834" lon="-0.50474">
        <ele>124.1</ele>
        <time>2010-12-12T09:03:46Z</time>
      </trkpt>
      <trkpt lat="43.68316" lon="-0.50449">
        <ele>124.3</ele>
        <time>2010-12-12T09:03:50Z</time>
      </trkpt>
      <trkpt lat="43.68293" lon="-0.50425">
        <ele>124.2</ele>
        <time>2010-12-12T09:03:54Z</time>
      </trkpt>
      <trkpt lat="43.68269" lon="-0.50399">
        <ele>123.4</ele>
        <time>2010-12-12T09:03:58Z</time>
      </trkpt>
      <trkpt lat="43.68246" lon="-0.50372">
        <ele>122.6</ele>
        <time>2010-12-12T09:04:02Z</time>
      </trkpt>
      <trkpt lat="43.68226" lon="-0.50344">
        <ele>122</ele>
        <time>2010-12-12T09:04:06Z</time>
      </trkpt>
      <trkpt lat="43.68204" lon="-0.50318">
        <ele>122</ele>
        <time>2010-12-12T09:04:10Z</time>
      </trkpt>
      <trkpt lat="43.68182" lon="-0.50295">
        <ele>122.3</ele>
        <time>2010-12-12T09:04:14Z</time>
      </trkpt>
      <trkpt lat="43.6816" lon="-0.5027">
        <ele>122.9</ele>
        <time>2010-12-12T09:04:18Z</time>
      </trkpt>
      <trkpt lat="43.68137" lon="-0.50245">
        <ele>123.3</ele>
        <time>2010-12-12T09:04:22Z</time>
      </trkpt>
      <trkpt lat="43.68116" lon="-0.5022">
        <ele>123.6</ele>
        <time>2010-12-12T09:04:26Z</time>
      </trkpt>
      <trkpt lat="43.68092" lon="-0.50196">
        <ele>123.1</ele>
        <time>2010-12-12T09:04:30Z</time>
      </trkpt>
      <trkpt lat="43.68069" lon="-0.5017">
        <ele>123.6</ele>
        <time>2010-12-12T09:04:34Z</time>
      </trkpt>
      <trkpt lat="43.68045" lon="-0.50145">
        <ele>124.2</ele>
        <time>2010-12-12T09:04:38Z</time>
      </trkpt>
      <trkpt lat="43.68021" lon="-0.50121">
        <ele>124.4</ele>
        <time>2010-12-12T09:04:42Z</time>
      </trkpt>
      <trkpt lat="43.67999" lon="-0.50096">
        <ele>123.9</ele>
        <time>2010-12-12T09:04:46Z</time>
      </trkpt>
      <trkpt lat="43.67976" lon="-0.50067">
        <ele>123.4</ele>
        <time>2010-12-12T09:04:50Z</time>
      </trkpt>
      <trkpt lat="43.67953" lon="-0.50041">
        <ele>123.3</ele>
        <time>2010-12-12T09:04:54Z</time>
      </trkpt>
      <trkpt lat="43.67929" lon="-0.50015">
        <ele>123.3</ele>
        <time>2010-12-12T09:04:58Z</time>
      </trkpt>
      <trkpt lat="43.67907" lon="-0.4999">
        <ele>122.8</ele>
        <time>2010-12-12T09:05:02Z</time>
      </trkpt>
      <trkpt lat="43.67885" lon="-0.49965">
        <ele>123.3</ele>
        <time>2010-12-12T09:05:06Z</time>
      </trkpt>
      <trkpt lat="43.67865" lon="-0.49942">
        <ele>123.4</ele>
        <time>2010-12-12T09:05:10Z</time>
      </trkpt>
      <trkpt lat="43.67843" lon="-0.49919">
        <ele>123.7</ele>
        <time>2010-12-12T09:05:14Z</time>
      </trkpt>
      <trkpt lat="43.67819" lon="-0.49895">
        <ele>124.8</ele>
        <time>2010-12-12T09:05:18Z</time>
      </trkpt>
      <trkpt lat="43.67798" lon="-0.4987">
        <ele>126.8</ele>
        <time>2010-12-12T09:05:22Z</time>
      </trkpt>
      <trkpt lat="43.67773" lon="-0.49843">
        <ele>128.4</ele>
        <time>2010-12-12T09:05:26Z</time>
      </trkpt>
      <trkpt lat="43.67752" lon="-0.49819">
        <ele>129.1</ele>
        <time>2010-12-12T09:05:30Z</time>
      </trkpt>
      <trkpt lat="43.67732" lon="-0.49796">
        <ele>129.6</ele>
        <time>2010-12-12T09:05:34Z</time>
      </trkpt>
      <trkpt lat="43.67707" lon="-0.4977">
        <ele>129.6</ele>
        <time>2010-12-12T09:05:38Z</time>
      </trkpt>
      <trkpt lat="43.67684" lon="-0.49742">
        <ele>128.6</ele>
        <time>2010-12-12T09:05:42Z</time>
      </trkpt>
      <trkpt lat="43.67659" lon="-0.49715">
        <ele>127.8</ele>
        <time>2010-12-12T09:05:46Z</time>
      </trkpt>
      <trkpt lat="43.67635" lon="-0.49689">
        <ele>126</ele>
        <time>2010-12-12T09:05:50Z</time>
      </trkpt>
      <trkpt lat="43.67613" lon="-0.49665">
        <ele>124.9</ele>
        <time>2010-12-12T09:05:54Z</time>
      </trkpt>
      <trkpt lat="43.67591" lon="-0.49641">
        <ele>124.8</ele>
        <time>2010-12-12T09:05:58Z</time>
      </trkpt>
      <trkpt lat="43.67569" lon="-0.49616">
        <ele>124.4</ele>
        <time>2010-12-12T09:06:02Z</time>
      </trkpt>
      <trkpt lat="43.67547" lon="-0.49591">
        <ele>124.7</ele>
        <time>2010-12-12T09:06:06Z</time>
      </trkpt>
      <trkpt lat="43.67523" lon="-0.49564">
        <ele>124.9</ele>
        <time>2010-12-12T09:06:10Z</time>
      </trkpt>
      <trkpt lat="43.67499" lon="-0.49539">
        <ele>125.6</ele>
        <time>2010-12-12T09:06:14Z</time>
      </trkpt>
      <trkpt lat="43.67476" lon="-0.49515">
        <ele>126.1</ele>
        <time>2010-12-12T09:06:18Z</time>
      </trkpt>
      <trkpt lat="43.67453" lon="-0.49489">
        <ele>126.1</ele>
        <time>2010-12-12T09:06:22Z</time>
      </trkpt>
      <trkpt lat="43.67433" lon="-0.49463">
        <ele>127.5</ele>
        <time>2010-12-12T09:06:26Z</time>
      </trkpt>
      <trkpt lat="43.67412" lon="-0.49437">
        <ele>128</ele>
        <time>2010-12-12T09:06:30Z</time>
      </trkpt>
      <trkpt lat="43.6739" lon="-0.49411">
        <ele>128.2</ele>
        <time>2010-12-12T09:06:34Z</time>
      </trkpt>
      <trkpt lat="43.67368" lon="-0.49386">
        <ele>128.6</ele>
        <time>2010-12-12T09:06:38Z</time>
      </trkpt>
      <trkpt lat="43.67343" lon="-0.49358">
        <ele>127.3</ele>
        <time>2010-12-12T09:06:42Z</time>
      </trkpt>
      <trkpt lat="43.67318" lon="-0.49331">
        <ele>126.5</ele>
        <time>2010-12-12T09:06:46Z</time>
      </trkpt>
      <trkpt lat="43.67296" lon="-0.49303">
        <ele>126.6</ele>
        <time>2010-12-12T09:06:50Z</time>
      </trkpt>
      <trkpt lat="43.67276" lon="-0.49275">
        <ele>126.2</ele>
        <time>2010-12-12T09:06:54Z</time>
      </trkpt>
      <trkpt lat="43.67256" lon="-0.49246">
        <ele>125.9</ele>
        <time>2010-12-12T09:06:58Z</time>
      </trkpt>
      <trkpt lat="43.67236" lon="-0.49219">
        <ele>126.6</ele>
        <time>2010-12-12T09:07:02Z</time>
      </trkpt>
      <trkpt lat="43.67216" lon="-0.49192">
        <ele>126.9</ele>
        <time>2010-12-12T09:07:06Z</time>
      </trkpt>
      <trkpt lat="43.67196" lon="-0.49167">
        <ele>127.1</ele>
        <time>2010-12-12T09:07:10Z</time>
      </trkpt>
      <trkpt lat="43.67173" lon="-0.49143">
        <ele>127.5</ele>
        <time>2010-12-12T09:07:14Z</time>
      </trkpt>
      <trkpt lat="43.67148" lon="-0.49125">
        <ele>128.1</ele>
        <time>2010-12-12T09:07:18Z</time>
      </trkpt>
      <trkpt lat="43.67122" lon="-0.49109">
        <ele>128.2</ele>
        <time>2010-12-12T09:07:22Z</time>
      </trkpt>
      <trkpt lat="43.67096" lon="-0.49091">
        <ele>127.5</ele>
        <time>2010-12-12T09:07:26Z</time>
      </trkpt>
      <trkpt lat="43.67074" lon="-0.49071">
        <ele>127.8</ele>
        <time>2010-12-12T09:07:30Z</time>
      </trkpt>
      <trkpt lat="43.67049" lon="-0.49054">
        <ele>129.7</ele>
        <time>2010-12-12T09:07:34Z</time>
      </trkpt>
      <trkpt lat="43.67018" lon="-0.49031">
        <ele>131.5</ele>
        <time>2010-12-12T09:07:38Z</time>
      </trkpt>
      <trkpt lat="43.66989" lon="-0.49007">
        <ele>132.5</ele>
        <time>2010-12-12T09:07:42Z</time>
      </trkpt>
      <trkpt lat="43.66963" lon="-0.48988">
        <ele>131.3</ele>
        <time>2010-12-12T09:07:46Z</time>
      </trkpt>
      <trkpt lat="43.66936" lon="-0.48977">
        <ele>130</ele>
        <time>2010-12-12T09:07:52Z</time>
      </trkpt>
      <trkpt lat="43.66905" lon="-0.48966">
        <ele>130.5</ele>
        <time>2010-12-12T09:07:56Z</time>
      </trkpt>
      <trkpt lat="43.66879" lon="-0.48958">
        <ele>130.6</ele>
        <time>2010-12-12T09:08:00Z</time>
      </trkpt>
      <trkpt lat="43.66853" lon="-0.48946">
        <ele>130.9</ele>
        <time>2010-12-12T09:08:04Z</time>
      </trkpt>
      <trkpt lat="43.66824" lon="-0.48934">
        <ele>131.6</ele>
        <time>2010-12-12T09:08:08Z</time>
      </trkpt>
      <trkpt lat="43.66802" lon="-0.48926">
        <ele>131.3</ele>
        <time>2010-12-12T09:08:12Z</time>
      </trkpt>
      <trkpt lat="43.66781" lon="-0.48918">
        <ele>132.4</ele>
        <time>2010-12-12T09:08:16Z</time>
      </trkpt>
      <trkpt lat="43.6676" lon="-0.48911">
        <ele>131.3</ele>
        <time>2010-12-12T09:08:21Z</time>
      </trkpt>
      <trkpt lat="43.66738" lon="-0.48915">
        <ele>131.1</ele>
        <time>2010-12-12T09:08:25Z</time>
      </trkpt>
      <trkpt lat="43.66715" lon="-0.4893">
        <ele>130.6</ele>
        <time>2010-12-12T09:08:29Z</time>
      </trkpt>
      <trkpt lat="43.66694" lon="-0.48953">
        <ele>131.2</ele>
        <time>2010-12-12T09:08:33Z</time>
      </trkpt>
      <trkpt lat="43.6667" lon="-0.48979">
        <ele>131.6</ele>
        <time>2010-12-12T09:08:37Z</time>
      </trkpt>
      <trkpt lat="43.66649" lon="-0.49005">
        <ele>131.2</ele>
        <time>2010-12-12T09:08:41Z</time>
      </trkpt>
      <trkpt lat="43.66633" lon="-0.49032">
        <ele>131.1</ele>
        <time>2010-12-12T09:08:45Z</time>
      </trkpt>
      <trkpt lat="43.66617" lon="-0.49059">
        <ele>131.1</ele>
        <time>2010-12-12T09:08:49Z</time>
      </trkpt>
      <trkpt lat="43.66604" lon="-0.49087">
        <ele>131.3</ele>
        <time>2010-12-12T09:08:53Z</time>
      </trkpt>
      <trkpt lat="43.66582" lon="-0.49115">
        <ele>131.2</ele>
        <time>2010-12-12T09:08:57Z</time>
      </trkpt>
      <trkpt lat="43.66562" lon="-0.49142">
        <ele>131.5</ele>
        <time>2010-12-12T09:09:01Z</time>
      </trkpt>
      <trkpt lat="43.66539" lon="-0.49172">
        <ele>131.7</ele>
        <time>2010-12-12T09:09:05Z</time>
      </trkpt>
      <trkpt lat="43.66515" lon="-0.49202">
        <ele>131.1</ele>
        <time>2010-12-12T09:09:09Z</time>
      </trkpt>
      <trkpt lat="43.66498" lon="-0.49229">
        <ele>131.4</ele>
        <time>2010-12-12T09:09:13Z</time>
      </trkpt>
      <trkpt lat="43.66481" lon="-0.49257">
        <ele>131.7</ele>
        <time>2010-12-12T09:09:17Z</time>
      </trkpt>
      <trkpt lat="43.66465" lon="-0.49285">
        <ele>130.7</ele>
        <time>2010-12-12T09:09:21Z</time>
      </trkpt>
      <trkpt lat="43.66443" lon="-0.49315">
        <ele>130.3</ele>
        <time>2010-12-12T09:09:25Z</time>
      </trkpt>
      <trkpt lat="43.66421" lon="-0.49344">
        <ele>130.3</ele>
        <time>2010-12-12T09:09:29Z</time>
      </trkpt>
      <trkpt lat="43.66403" lon="-0.49372">
        <ele>129.6</ele>
        <time>2010-12-12T09:09:33Z</time>
      </trkpt>
      <trkpt lat="43.66387" lon="-0.49401">
        <ele>128.9</ele>
        <time>2010-12-12T09:09:37Z</time>
      </trkpt>
      <trkpt lat="43.66368" lon="-0.49424">
        <ele>128.4</ele>
        <time>2010-12-12T09:09:41Z</time>
      </trkpt>
      <trkpt lat="43.6634" lon="-0.49441">
        <ele>127.7</ele>
        <time>2010-12-12T09:09:45Z</time>
      </trkpt>
      <trkpt lat="43.66308" lon="-0.49447">
        <ele>126.9</ele>
        <time>2010-12-12T09:09:49Z</time>
      </trkpt>
      <trkpt lat="43.66276" lon="-0.49438">
        <ele>126.3</ele>
        <time>2010-12-12T09:09:53Z</time>
      </trkpt>
      <trkpt lat="43.6624" lon="-0.49414">
        <ele>127.3</ele>
        <time>2010-12-12T09:09:57Z</time>
      </trkpt>
      <trkpt lat="43.66204" lon="-0.49383">
        <ele>128.3</ele>
        <time>2010-12-12T09:10:01Z</time>
      </trkpt>
      <trkpt lat="43.66162" lon="-0.49349">
        <ele>130.3</ele>
        <time>2010-12-12T09:10:05Z</time>
      </trkpt>
      <trkpt lat="43.66122" lon="-0.49317">
        <ele>129.2</ele>
        <time>2010-12-12T09:10:09Z</time>
      </trkpt>
      <trkpt lat="43.66075" lon="-0.49296">
        <ele>126.8</ele>
        <time>2010-12-12T09:10:13Z</time>
      </trkpt>
      <trkpt lat="43.66032" lon="-0.49284">
        <ele>126.9</ele>
        <time>2010-12-12T09:10:17Z</time>
      </trkpt>
      <trkpt lat="43.6599" lon="-0.49272">
        <ele>127.1</ele>
        <time>2010-12-12T09:10:21Z</time>
      </trkpt>
      <trkpt lat="43.65956" lon="-0.49245">
        <ele>125.4</ele>
        <time>2010-12-12T09:10:25Z</time>
      </trkpt>
      <trkpt lat="43.65934" lon="-0.4921">
        <ele>124.3</ele>
        <time>2010-12-12T09:10:29Z</time>
      </trkpt>
      <trkpt lat="43.6591" lon="-0.49176">
        <ele>119.1</ele>
        <time>2010-12-12T09:10:33Z</time>
      </trkpt>
      <trkpt lat="43.65877" lon="-0.49152">
        <ele>114.2</ele>
        <time>2010-12-12T09:10:37Z</time>
      </trkpt>
      <trkpt lat="43.65836" lon="-0.49139">
        <ele>110.6</ele>
        <time>2010-12-12T09:10:41Z</time>
      </trkpt>
      <trkpt lat="43.6579" lon="-0.49127">
        <ele>107.4</ele>
        <time>2010-12-12T09:10:45Z</time>
      </trkpt>
      <trkpt lat="43.65743" lon="-0.49116">
        <ele>105.9</ele>
        <time>2010-12-12T09:10:49Z</time>
      </trkpt>
      <trkpt lat="43.65697" lon="-0.49108">
        <ele>104.3</ele>
        <time>2010-12-12T09:10:53Z</time>
      </trkpt>
      <trkpt lat="43.65655" lon="-0.49097">
        <ele>100.9</ele>
        <time>2010-12-12T09:10:57Z</time>
      </trkpt>
      <trkpt lat="43.65613" lon="-0.49084">
        <ele>95.4</ele>
        <time>2010-12-12T09:11:01Z</time>
      </trkpt>
      <trkpt lat="43.65574" lon="-0.49073">
        <ele>89.4</ele>
        <time>2010-12-12T09:11:05Z</time>
      </trkpt>
      <trkpt lat="43.65535" lon="-0.49063">
        <ele>86.6</ele>
        <time>2010-12-12T09:11:09Z</time>
      </trkpt>
      <trkpt lat="43.65505" lon="-0.49056">
        <ele>84.2</ele>
        <time>2010-12-12T09:11:13Z</time>
      </trkpt>
      <trkpt lat="43.65475" lon="-0.49051">
        <ele>82</ele>
        <time>2010-12-12T09:11:18Z</time>
      </trkpt>
      <trkpt lat="43.65448" lon="-0.49049">
        <ele>81.5</ele>
        <time>2010-12-12T09:11:22Z</time>
      </trkpt>
      <trkpt lat="43.65418" lon="-0.49043">
        <ele>80.3</ele>
        <time>2010-12-12T09:11:26Z</time>
      </trkpt>
      <trkpt lat="43.65384" lon="-0.49037">
        <ele>78.6</ele>
        <time>2010-12-12T09:11:31Z</time>
      </trkpt>
      <trkpt lat="43.65354" lon="-0.4903">
        <ele>77.4</ele>
        <time>2010-12-12T09:11:36Z</time>
      </trkpt>
      <trkpt lat="43.65332" lon="-0.49022">
        <ele>78</ele>
        <time>2010-12-12T09:11:40Z</time>
      </trkpt>
      <trkpt lat="43.65306" lon="-0.4901">
        <ele>76.6</ele>
        <time>2010-12-12T09:11:45Z</time>
      </trkpt>
      <trkpt lat="43.65274" lon="-0.49001">
        <ele>76.8</ele>
        <time>2010-12-12T09:11:49Z</time>
      </trkpt>
      <trkpt lat="43.65241" lon="-0.48993">
        <ele>76.7</ele>
        <time>2010-12-12T09:11:53Z</time>
      </trkpt>
      <trkpt lat="43.65208" lon="-0.48983">
        <ele>76.4</ele>
        <time>2010-12-12T09:11:57Z</time>
      </trkpt>
      <trkpt lat="43.65175" lon="-0.48975">
        <ele>75.8</ele>
        <time>2010-12-12T09:12:01Z</time>
      </trkpt>
      <trkpt lat="43.65143" lon="-0.48968">
        <ele>75.2</ele>
        <time>2010-12-12T09:12:05Z</time>
      </trkpt>
      <trkpt lat="43.65112" lon="-0.48961">
        <ele>74.3</ele>
        <time>2010-12-12T09:12:09Z</time>
      </trkpt>
      <trkpt lat="43.65082" lon="-0.48954">
        <ele>74.1</ele>
        <time>2010-12-12T09:12:13Z</time>
      </trkpt>
      <trkpt lat="43.65055" lon="-0.48946">
        <ele>73.4</ele>
        <time>2010-12-12T09:12:17Z</time>
      </trkpt>
      <trkpt lat="43.65027" lon="-0.48939">
        <ele>73.1</ele>
        <time>2010-12-12T09:12:21Z</time>
      </trkpt>
      <trkpt lat="43.65" lon="-0.48933">
        <ele>72.8</ele>
        <time>2010-12-12T09:12:25Z</time>
      </trkpt>
      <trkpt lat="43.64971" lon="-0.48927">
        <ele>72.5</ele>
        <time>2010-12-12T09:12:29Z</time>
      </trkpt>
      <trkpt lat="43.64941" lon="-0.48923">
        <ele>72.4</ele>
        <time>2010-12-12T09:12:33Z</time>
      </trkpt>
      <trkpt lat="43.64913" lon="-0.48916">
        <ele>72.6</ele>
        <time>2010-12-12T09:12:37Z</time>
      </trkpt>
      <trkpt lat="43.64884" lon="-0.48912">
        <ele>72.4</ele>
        <time>2010-12-12T09:12:41Z</time>
      </trkpt>
      <trkpt lat="43.64858" lon="-0.48905">
        <ele>71.8</ele>
        <time>2010-12-12T09:12:45Z</time>
      </trkpt>
      <trkpt lat="43.64829" lon="-0.48898">
        <ele>72.1</ele>
        <time>2010-12-12T09:12:49Z</time>
      </trkpt>
      <trkpt lat="43.648" lon="-0.48892">
        <ele>72.7</ele>
        <time>2010-12-12T09:12:54Z</time>
      </trkpt>
      <trkpt lat="43.64771" lon="-0.4889">
        <ele>74.1</ele>
        <time>2010-12-12T09:12:59Z</time>
      </trkpt>
      <trkpt lat="43.64746" lon="-0.48886">
        <ele>75.9</ele>
        <time>2010-12-12T09:13:04Z</time>
      </trkpt>
      <trkpt lat="43.6472" lon="-0.48877">
        <ele>76.2</ele>
        <time>2010-12-12T09:13:10Z</time>
      </trkpt>
      <trkpt lat="43.64686" lon="-0.48873">
        <ele>75.9</ele>
        <time>2010-12-12T09:13:14Z</time>
      </trkpt>
      <trkpt lat="43.64659" lon="-0.48867">
        <ele>78.2</ele>
        <time>2010-12-12T09:13:19Z</time>
      </trkpt>
      <trkpt lat="43.64637" lon="-0.48861">
        <ele>77.4</ele>
        <time>2010-12-12T09:13:23Z</time>
      </trkpt>
      <trkpt lat="43.64615" lon="-0.48854">
        <ele>77.1</ele>
        <time>2010-12-12T09:13:27Z</time>
      </trkpt>
      <trkpt lat="43.64594" lon="-0.48848">
        <ele>77.2</ele>
        <time>2010-12-12T09:13:31Z</time>
      </trkpt>
      <trkpt lat="43.64567" lon="-0.48841">
        <ele>78.3</ele>
        <time>2010-12-12T09:13:36Z</time>
      </trkpt>
      <trkpt lat="43.64542" lon="-0.48837">
        <ele>79.4</ele>
        <time>2010-12-12T09:13:40Z</time>
      </trkpt>
      <trkpt lat="43.64514" lon="-0.48833">
        <ele>82.9</ele>
        <time>2010-12-12T09:13:46Z</time>
      </trkpt>
      <trkpt lat="43.64504" lon="-0.48824">
        <ele>83.7</ele>
        <time>2010-12-12T09:13:56Z</time>
      </trkpt>
      <trkpt lat="43.64495" lon="-0.4882">
        <ele>84.2</ele>
        <time>2010-12-12T09:14:04Z</time>
      </trkpt>
      <trkpt lat="43.64475" lon="-0.48821">
        <ele>84.8</ele>
        <time>2010-12-12T09:14:09Z</time>
      </trkpt>
      <trkpt lat="43.64447" lon="-0.48828">
        <ele>85.6</ele>
        <time>2010-12-12T09:14:13Z</time>
      </trkpt>
      <trkpt lat="43.64423" lon="-0.48837">
        <ele>87.1</ele>
        <time>2010-12-12T09:14:17Z</time>
      </trkpt>
      <trkpt lat="43.64402" lon="-0.48851">
        <ele>87.3</ele>
        <time>2010-12-12T09:14:22Z</time>
      </trkpt>
      <trkpt lat="43.64383" lon="-0.48865">
        <ele>87.6</ele>
        <time>2010-12-12T09:14:26Z</time>
      </trkpt>
      <trkpt lat="43.64361" lon="-0.48883">
        <ele>89.8</ele>
        <time>2010-12-12T09:14:32Z</time>
      </trkpt>
      <trkpt lat="43.64347" lon="-0.48902">
        <ele>91.2</ele>
        <time>2010-12-12T09:14:38Z</time>
      </trkpt>
      <trkpt lat="43.64339" lon="-0.48923">
        <ele>91.3</ele>
        <time>2010-12-12T09:14:42Z</time>
      </trkpt>
      <trkpt lat="43.64322" lon="-0.48943">
        <ele>91.4</ele>
        <time>2010-12-12T09:14:47Z</time>
      </trkpt>
      <trkpt lat="43.64304" lon="-0.48962">
        <ele>96.7</ele>
        <time>2010-12-12T09:14:54Z</time>
      </trkpt>
      <trkpt lat="43.64286" lon="-0.48981">
        <ele>98.7</ele>
        <time>2010-12-12T09:15:00Z</time>
      </trkpt>
      <trkpt lat="43.64268" lon="-0.48997">
        <ele>100.6</ele>
        <time>2010-12-12T09:15:08Z</time>
      </trkpt>
      <trkpt lat="43.64259" lon="-0.49017">
        <ele>102.4</ele>
        <time>2010-12-12T09:15:16Z</time>
      </trkpt>
      <trkpt lat="43.64238" lon="-0.49027">
        <ele>104</ele>
        <time>2010-12-12T09:15:25Z</time>
      </trkpt>
      <trkpt lat="43.64207" lon="-0.49035">
        <ele>107.7</ele>
        <time>2010-12-12T09:15:33Z</time>
      </trkpt>
      <trkpt lat="43.64179" lon="-0.49042">
        <ele>111.1</ele>
        <time>2010-12-12T09:15:40Z</time>
      </trkpt>
      <trkpt lat="43.64152" lon="-0.49043">
        <ele>111.9</ele>
        <time>2010-12-12T09:15:45Z</time>
      </trkpt>
      <trkpt lat="43.64121" lon="-0.49038">
        <ele>112.4</ele>
        <time>2010-12-12T09:15:50Z</time>
      </trkpt>
      <trkpt lat="43.64091" lon="-0.49023">
        <ele>115.3</ele>
        <time>2010-12-12T09:15:56Z</time>
      </trkpt>
      <trkpt lat="43.64068" lon="-0.49002">
        <ele>116.1</ele>
        <time>2010-12-12T09:16:02Z</time>
      </trkpt>
      <trkpt lat="43.64038" lon="-0.48988">
        <ele>120.9</ele>
        <time>2010-12-12T09:16:06Z</time>
      </trkpt>
      <trkpt lat="43.64022" lon="-0.48973">
        <ele>125.4</ele>
        <time>2010-12-12T09:16:10Z</time>
      </trkpt>
      <trkpt lat="43.64012" lon="-0.48951">
        <ele>129.5</ele>
        <time>2010-12-12T09:16:15Z</time>
      </trkpt>
      <trkpt lat="43.64005" lon="-0.48927">
        <ele>131.4</ele>
        <time>2010-12-12T09:16:20Z</time>
      </trkpt>
      <trkpt lat="43.64002" lon="-0.48906">
        <ele>131.7</ele>
        <time>2010-12-12T09:16:24Z</time>
      </trkpt>
      <trkpt lat="43.64" lon="-0.48881">
        <ele>131.6</ele>
        <time>2010-12-12T09:16:28Z</time>
      </trkpt>
      <trkpt lat="43.63997" lon="-0.48859">
        <ele>132.4</ele>
        <time>2010-12-12T09:16:32Z</time>
      </trkpt>
      <trkpt lat="43.63989" lon="-0.48833">
        <ele>132.8</ele>
        <time>2010-12-12T09:16:37Z</time>
      </trkpt>
      <trkpt lat="43.63978" lon="-0.48807">
        <ele>133.9</ele>
        <time>2010-12-12T09:16:43Z</time>
      </trkpt>
      <trkpt lat="43.63963" lon="-0.48785">
        <ele>134.4</ele>
        <time>2010-12-12T09:16:49Z</time>
      </trkpt>
      <trkpt lat="43.63949" lon="-0.48764">
        <ele>134.3</ele>
        <time>2010-12-12T09:16:57Z</time>
      </trkpt>
      <trkpt lat="43.63935" lon="-0.4874">
        <ele>134.8</ele>
        <time>2010-12-12T09:17:04Z</time>
      </trkpt>
      <trkpt lat="43.63922" lon="-0.48717">
        <ele>135.5</ele>
        <time>2010-12-12T09:17:09Z</time>
      </trkpt>
      <trkpt lat="43.63906" lon="-0.48695">
        <ele>137.6</ele>
        <time>2010-12-12T09:17:14Z</time>
      </trkpt>
      <trkpt lat="43.63899" lon="-0.48671">
        <ele>139.1</ele>
        <time>2010-12-12T09:17:22Z</time>
      </trkpt>
      <trkpt lat="43.63879" lon="-0.48657">
        <ele>138.4</ele>
        <time>2010-12-12T09:17:31Z</time>
      </trkpt>
      <trkpt lat="43.6385" lon="-0.48658">
        <ele>139.7</ele>
        <time>2010-12-12T09:17:38Z</time>
      </trkpt>
      <trkpt lat="43.63818" lon="-0.48664">
        <ele>140.2</ele>
        <time>2010-12-12T09:17:44Z</time>
      </trkpt>
      <trkpt lat="43.63793" lon="-0.48666">
        <ele>139.8</ele>
        <time>2010-12-12T09:17:50Z</time>
      </trkpt>
      <trkpt lat="43.63768" lon="-0.48671">
        <ele>139.7</ele>
        <time>2010-12-12T09:17:56Z</time>
      </trkpt>
      <trkpt lat="43.63741" lon="-0.48676">
        <ele>138.7</ele>
        <time>2010-12-12T09:18:01Z</time>
      </trkpt>
      <trkpt lat="43.63712" lon="-0.48679">
        <ele>137.8</ele>
        <time>2010-12-12T09:18:09Z</time>
      </trkpt>
      <trkpt lat="43.63688" lon="-0.48683">
        <ele>138.3</ele>
        <time>2010-12-12T09:18:14Z</time>
      </trkpt>
      <trkpt lat="43.63663" lon="-0.4869">
        <ele>139.7</ele>
        <time>2010-12-12T09:18:18Z</time>
      </trkpt>
      <trkpt lat="43.63639" lon="-0.48704">
        <ele>139.8</ele>
        <time>2010-12-12T09:18:22Z</time>
      </trkpt>
      <trkpt lat="43.63617" lon="-0.48721">
        <ele>139</ele>
        <time>2010-12-12T09:18:26Z</time>
      </trkpt>
      <trkpt lat="43.63598" lon="-0.48737">
        <ele>137.4</ele>
        <time>2010-12-12T09:18:30Z</time>
      </trkpt>
      <trkpt lat="43.63578" lon="-0.48756">
        <ele>136.3</ele>
        <time>2010-12-12T09:18:34Z</time>
      </trkpt>
      <trkpt lat="43.63558" lon="-0.48779">
        <ele>136.6</ele>
        <time>2010-12-12T09:18:38Z</time>
      </trkpt>
      <trkpt lat="43.63538" lon="-0.48785">
        <ele>135.5</ele>
        <time>2010-12-12T09:18:42Z</time>
      </trkpt>
      <trkpt lat="43.63514" lon="-0.48764">
        <ele>136.5</ele>
        <time>2010-12-12T09:18:46Z</time>
      </trkpt>
      <trkpt lat="43.63495" lon="-0.48738">
        <ele>136.4</ele>
        <time>2010-12-12T09:18:50Z</time>
      </trkpt>
      <trkpt lat="43.63476" lon="-0.4872">
        <ele>135</ele>
        <time>2010-12-12T09:18:54Z</time>
      </trkpt>
      <trkpt lat="43.63454" lon="-0.48706">
        <ele>135.4</ele>
        <time>2010-12-12T09:18:58Z</time>
      </trkpt>
      <trkpt lat="43.6343" lon="-0.48691">
        <ele>136.1</ele>
        <time>2010-12-12T09:19:02Z</time>
      </trkpt>
      <trkpt lat="43.63408" lon="-0.48674">
        <ele>136.1</ele>
        <time>2010-12-12T09:19:06Z</time>
      </trkpt>
      <trkpt lat="43.63387" lon="-0.48654">
        <ele>135.2</ele>
        <time>2010-12-12T09:19:10Z</time>
      </trkpt>
      <trkpt lat="43.63365" lon="-0.48633">
        <ele>134.5</ele>
        <time>2010-12-12T09:19:14Z</time>
      </trkpt>
      <trkpt lat="43.63343" lon="-0.48614">
        <ele>135.4</ele>
        <time>2010-12-12T09:19:18Z</time>
      </trkpt>
      <trkpt lat="43.63321" lon="-0.48594">
        <ele>135.6</ele>
        <time>2010-12-12T09:19:22Z</time>
      </trkpt>
      <trkpt lat="43.63299" lon="-0.48575">
        <ele>135.8</ele>
        <time>2010-12-12T09:19:26Z</time>
      </trkpt>
      <trkpt lat="43.63279" lon="-0.48559">
        <ele>136.7</ele>
        <time>2010-12-12T09:19:30Z</time>
      </trkpt>
      <trkpt lat="43.63254" lon="-0.48546">
        <ele>136.9</ele>
        <time>2010-12-12T09:19:34Z</time>
      </trkpt>
      <trkpt lat="43.6323" lon="-0.48533">
        <ele>137.1</ele>
        <time>2010-12-12T09:19:38Z</time>
      </trkpt>
      <trkpt lat="43.63209" lon="-0.4852">
        <ele>136.6</ele>
        <time>2010-12-12T09:19:42Z</time>
      </trkpt>
      <trkpt lat="43.63187" lon="-0.48505">
        <ele>137.1</ele>
        <time>2010-12-12T09:19:46Z</time>
      </trkpt>
      <trkpt lat="43.63163" lon="-0.48495">
        <ele>137.4</ele>
        <time>2010-12-12T09:19:50Z</time>
      </trkpt>
      <trkpt lat="43.63138" lon="-0.48483">
        <ele>137.5</ele>
        <time>2010-12-12T09:19:54Z</time>
      </trkpt>
      <trkpt lat="43.63119" lon="-0.48462">
        <ele>137.8</ele>
        <time>2010-12-12T09:19:58Z</time>
      </trkpt>
      <trkpt lat="43.63105" lon="-0.48434">
        <ele>137.8</ele>
        <time>2010-12-12T09:20:02Z</time>
      </trkpt>
      <trkpt lat="43.63089" lon="-0.48404">
        <ele>137.9</ele>
        <time>2010-12-12T09:20:06Z</time>
      </trkpt>
      <trkpt lat="43.63075" lon="-0.48373">
        <ele>138</ele>
        <time>2010-12-12T09:20:10Z</time>
      </trkpt>
      <trkpt lat="43.6306" lon="-0.48344">
        <ele>138.8</ele>
        <time>2010-12-12T09:20:14Z</time>
      </trkpt>
      <trkpt lat="43.63046" lon="-0.48313">
        <ele>140.1</ele>
        <time>2010-12-12T09:20:18Z</time>
      </trkpt>
      <trkpt lat="43.63031" lon="-0.48279">
        <ele>141.9</ele>
        <time>2010-12-12T09:20:22Z</time>
      </trkpt>
      <trkpt lat="43.63013" lon="-0.48247">
        <ele>142.3</ele>
        <time>2010-12-12T09:20:26Z</time>
      </trkpt>
      <trkpt lat="43.62995" lon="-0.48212">
        <ele>140.9</ele>
        <time>2010-12-12T09:20:30Z</time>
      </trkpt>
      <trkpt lat="43.62978" lon="-0.48178">
        <ele>140.7</ele>
        <time>2010-12-12T09:20:34Z</time>
      </trkpt>
      <trkpt lat="43.6296" lon="-0.48146">
        <ele>140.8</ele>
        <time>2010-12-12T09:20:38Z</time>
      </trkpt>
      <trkpt lat="43.62938" lon="-0.48117">
        <ele>142.4</ele>
        <time>2010-12-12T09:20:42Z</time>
      </trkpt>
      <trkpt lat="43.62921" lon="-0.48086">
        <ele>142.7</ele>
        <time>2010-12-12T09:20:46Z</time>
      </trkpt>
      <trkpt lat="43.62905" lon="-0.48055">
        <ele>142.2</ele>
        <time>2010-12-12T09:20:50Z</time>
      </trkpt>
      <trkpt lat="43.62892" lon="-0.4803">
        <ele>142.9</ele>
        <time>2010-12-12T09:20:54Z</time>
      </trkpt>
      <trkpt lat="43.62878" lon="-0.48003">
        <ele>144.6</ele>
        <time>2010-12-12T09:20:58Z</time>
      </trkpt>
      <trkpt lat="43.62866" lon="-0.47968">
        <ele>146.5</ele>
        <time>2010-12-12T09:21:02Z</time>
      </trkpt>
      <trkpt lat="43.62856" lon="-0.4793">
        <ele>148.7</ele>
        <time>2010-12-12T09:21:06Z</time>
      </trkpt>
      <trkpt lat="43.62851" lon="-0.47891">
        <ele>149.2</ele>
        <time>2010-12-12T09:21:10Z</time>
      </trkpt>
      <trkpt lat="43.62848" lon="-0.47851">
        <ele>149.3</ele>
        <time>2010-12-12T09:21:14Z</time>
      </trkpt>
      <trkpt lat="43.62844" lon="-0.47809">
        <ele>148.1</ele>
        <time>2010-12-12T09:21:18Z</time>
      </trkpt>
      <trkpt lat="43.62841" lon="-0.47766">
        <ele>146.4</ele>
        <time>2010-12-12T09:21:22Z</time>
      </trkpt>
      <trkpt lat="43.62837" lon="-0.47723">
        <ele>144.8</ele>
        <time>2010-12-12T09:21:26Z</time>
      </trkpt>
      <trkpt lat="43.62833" lon="-0.47681">
        <ele>143.3</ele>
        <time>2010-12-12T09:21:30Z</time>
      </trkpt>
      <trkpt lat="43.62832" lon="-0.47639">
        <ele>141.9</ele>
        <time>2010-12-12T09:21:34Z</time>
      </trkpt>
      <trkpt lat="43.6283" lon="-0.47598">
        <ele>141.2</ele>
        <time>2010-12-12T09:21:38Z</time>
      </trkpt>
      <trkpt lat="43.62826" lon="-0.47557">
        <ele>140.2</ele>
        <time>2010-12-12T09:21:42Z</time>
      </trkpt>
      <trkpt lat="43.62819" lon="-0.47518">
        <ele>139.4</ele>
        <time>2010-12-12T09:21:46Z</time>
      </trkpt>
      <trkpt lat="43.62811" lon="-0.47481">
        <ele>138.8</ele>
        <time>2010-12-12T09:21:50Z</time>
      </trkpt>
      <trkpt lat="43.62804" lon="-0.47439">
        <ele>138.4</ele>
        <time>2010-12-12T09:21:54Z</time>
      </trkpt>
      <trkpt lat="43.62797" lon="-0.47398">
        <ele>137.7</ele>
        <time>2010-12-12T09:21:58Z</time>
      </trkpt>
      <trkpt lat="43.62789" lon="-0.47361">
        <ele>137.7</ele>
        <time>2010-12-12T09:22:02Z</time>
      </trkpt>
      <trkpt lat="43.62783" lon="-0.47324">
        <ele>137.9</ele>
        <time>2010-12-12T09:22:06Z</time>
      </trkpt>
      <trkpt lat="43.62777" lon="-0.47288">
        <ele>138.2</ele>
        <time>2010-12-12T09:22:10Z</time>
      </trkpt>
      <trkpt lat="43.62771" lon="-0.47253">
        <ele>139</ele>
        <time>2010-12-12T09:22:14Z</time>
      </trkpt>
      <trkpt lat="43.62761" lon="-0.47221">
        <ele>139.4</ele>
        <time>2010-12-12T09:22:18Z</time>
      </trkpt>
      <trkpt lat="43.62747" lon="-0.47191">
        <ele>139.5</ele>
        <time>2010-12-12T09:22:22Z</time>
      </trkpt>
      <trkpt lat="43.62731" lon="-0.47162">
        <ele>140.3</ele>
        <time>2010-12-12T09:22:26Z</time>
      </trkpt>
      <trkpt lat="43.62712" lon="-0.47137">
        <ele>141</ele>
        <time>2010-12-12T09:22:30Z</time>
      </trkpt>
      <trkpt lat="43.6269" lon="-0.47113">
        <ele>141.4</ele>
        <time>2010-12-12T09:22:34Z</time>
      </trkpt>
      <trkpt lat="43.62672" lon="-0.47087">
        <ele>142.1</ele>
        <time>2010-12-12T09:22:38Z</time>
      </trkpt>
      <trkpt lat="43.6265" lon="-0.47061">
        <ele>142.4</ele>
        <time>2010-12-12T09:22:42Z</time>
      </trkpt>
      <trkpt lat="43.62628" lon="-0.47035">
        <ele>142.1</ele>
        <time>2010-12-12T09:22:46Z</time>
      </trkpt>
      <trkpt lat="43.62608" lon="-0.47007">
        <ele>142.4</ele>
        <time>2010-12-12T09:22:50Z</time>
      </trkpt>
      <trkpt lat="43.62589" lon="-0.46978">
        <ele>142.4</ele>
        <time>2010-12-12T09:22:54Z</time>
      </trkpt>
      <trkpt lat="43.62572" lon="-0.46951">
        <ele>143</ele>
        <time>2010-12-12T09:22:58Z</time>
      </trkpt>
      <trkpt lat="43.6255" lon="-0.46926">
        <ele>143.6</ele>
        <time>2010-12-12T09:23:02Z</time>
      </trkpt>
      <trkpt lat="43.62528" lon="-0.46902">
        <ele>144.5</ele>
        <time>2010-12-12T09:23:06Z</time>
      </trkpt>
      <trkpt lat="43.62506" lon="-0.46878">
        <ele>145.9</ele>
        <time>2010-12-12T09:23:10Z</time>
      </trkpt>
      <trkpt lat="43.62485" lon="-0.46852">
        <ele>147.7</ele>
        <time>2010-12-12T09:23:14Z</time>
      </trkpt>
      <trkpt lat="43.62465" lon="-0.46822">
        <ele>148.4</ele>
        <time>2010-12-12T09:23:18Z</time>
      </trkpt>
      <trkpt lat="43.62446" lon="-0.46791">
        <ele>149</ele>
        <time>2010-12-12T09:23:22Z</time>
      </trkpt>
      <trkpt lat="43.62429" lon="-0.46758">
        <ele>148.8</ele>
        <time>2010-12-12T09:23:26Z</time>
      </trkpt>
      <trkpt lat="43.62413" lon="-0.46724">
        <ele>147.7</ele>
        <time>2010-12-12T09:23:30Z</time>
      </trkpt>
      <trkpt lat="43.62394" lon="-0.46693">
        <ele>147.7</ele>
        <time>2010-12-12T09:23:34Z</time>
      </trkpt>
      <trkpt lat="43.62375" lon="-0.46661">
        <ele>147.6</ele>
        <time>2010-12-12T09:23:38Z</time>
      </trkpt>
      <trkpt lat="43.62353" lon="-0.46628">
        <ele>147.1</ele>
        <time>2010-12-12T09:23:42Z</time>
      </trkpt>
      <trkpt lat="43.62331" lon="-0.46594">
        <ele>147.1</ele>
        <time>2010-12-12T09:23:46Z</time>
      </trkpt>
      <trkpt lat="43.62312" lon="-0.46566">
        <ele>147.1</ele>
        <time>2010-12-12T09:23:50Z</time>
      </trkpt>
      <trkpt lat="43.62292" lon="-0.46536">
        <ele>147</ele>
        <time>2010-12-12T09:23:54Z</time>
      </trkpt>
      <trkpt lat="43.62274" lon="-0.46502">
        <ele>146.9</ele>
        <time>2010-12-12T09:23:58Z</time>
      </trkpt>
      <trkpt lat="43.6225" lon="-0.46467">
        <ele>146.9</ele>
        <time>2010-12-12T09:24:02Z</time>
      </trkpt>
      <trkpt lat="43.62228" lon="-0.46434">
        <ele>146.7</ele>
        <time>2010-12-12T09:24:06Z</time>
      </trkpt>
      <trkpt lat="43.62208" lon="-0.46404">
        <ele>147.3</ele>
        <time>2010-12-12T09:24:11Z</time>
      </trkpt>
      <trkpt lat="43.62185" lon="-0.46374">
        <ele>147.6</ele>
        <time>2010-12-12T09:24:15Z</time>
      </trkpt>
      <trkpt lat="43.62167" lon="-0.46342">
        <ele>147.5</ele>
        <time>2010-12-12T09:24:19Z</time>
      </trkpt>
      <trkpt lat="43.62149" lon="-0.46314">
        <ele>147.6</ele>
        <time>2010-12-12T09:24:23Z</time>
      </trkpt>
      <trkpt lat="43.62134" lon="-0.46282">
        <ele>146.3</ele>
        <time>2010-12-12T09:24:27Z</time>
      </trkpt>
      <trkpt lat="43.62117" lon="-0.4625">
        <ele>145.9</ele>
        <time>2010-12-12T09:24:31Z</time>
      </trkpt>
      <trkpt lat="43.62103" lon="-0.46215">
        <ele>146</ele>
        <time>2010-12-12T09:24:35Z</time>
      </trkpt>
      <trkpt lat="43.62084" lon="-0.46182">
        <ele>146.1</ele>
        <time>2010-12-12T09:24:39Z</time>
      </trkpt>
      <trkpt lat="43.62063" lon="-0.46149">
        <ele>146.2</ele>
        <time>2010-12-12T09:24:43Z</time>
      </trkpt>
      <trkpt lat="43.62045" lon="-0.46116">
        <ele>146.8</ele>
        <time>2010-12-12T09:24:47Z</time>
      </trkpt>
      <trkpt lat="43.62031" lon="-0.46079">
        <ele>145.8</ele>
        <time>2010-12-12T09:24:51Z</time>
      </trkpt>
      <trkpt lat="43.6201" lon="-0.46048">
        <ele>146.2</ele>
        <time>2010-12-12T09:24:55Z</time>
      </trkpt>
      <trkpt lat="43.61988" lon="-0.46017">
        <ele>145.9</ele>
        <time>2010-12-12T09:24:59Z</time>
      </trkpt>
      <trkpt lat="43.61967" lon="-0.45986">
        <ele>146.3</ele>
        <time>2010-12-12T09:25:03Z</time>
      </trkpt>
      <trkpt lat="43.61948" lon="-0.45955">
        <ele>146.1</ele>
        <time>2010-12-12T09:25:07Z</time>
      </trkpt>
      <trkpt lat="43.61928" lon="-0.45925">
        <ele>146.8</ele>
        <time>2010-12-12T09:25:11Z</time>
      </trkpt>
      <trkpt lat="43.61907" lon="-0.45896">
        <ele>148.3</ele>
        <time>2010-12-12T09:25:15Z</time>
      </trkpt>
      <trkpt lat="43.61887" lon="-0.45867">
        <ele>149.4</ele>
        <time>2010-12-12T09:25:19Z</time>
      </trkpt>
      <trkpt lat="43.61866" lon="-0.45838">
        <ele>148.2</ele>
        <time>2010-12-12T09:25:23Z</time>
      </trkpt>
      <trkpt lat="43.61842" lon="-0.45811">
        <ele>148.5</ele>
        <time>2010-12-12T09:25:27Z</time>
      </trkpt>
      <trkpt lat="43.61818" lon="-0.45784">
        <ele>149</ele>
        <time>2010-12-12T09:25:31Z</time>
      </trkpt>
      <trkpt lat="43.61797" lon="-0.45757">
        <ele>149.3</ele>
        <time>2010-12-12T09:25:35Z</time>
      </trkpt>
      <trkpt lat="43.61777" lon="-0.45731">
        <ele>149.3</ele>
        <time>2010-12-12T09:25:39Z</time>
      </trkpt>
      <trkpt lat="43.61755" lon="-0.45704">
        <ele>149.1</ele>
        <time>2010-12-12T09:25:43Z</time>
      </trkpt>
      <trkpt lat="43.61733" lon="-0.45679">
        <ele>149.8</ele>
        <time>2010-12-12T09:25:47Z</time>
      </trkpt>
      <trkpt lat="43.61715" lon="-0.45659">
        <ele>150.6</ele>
        <time>2010-12-12T09:25:55Z</time>
      </trkpt>
      <trkpt lat="43.61711" lon="-0.45655">
        <ele>149.3</ele>
        <time>2010-12-12T09:36:59Z</time>
      </trkpt>
      <trkpt lat="43.61714" lon="-0.45654">
        <ele>148.6</ele>
        <time>2010-12-12T09:38:54Z</time>
      </trkpt>
      <trkpt lat="43.61711" lon="-0.45656">
        <ele>150.1</ele>
        <time>2010-12-12T09:39:57Z</time>
      </trkpt>
      <trkpt lat="43.61705" lon="-0.45644">
        <ele>148.1</ele>
        <time>2010-12-12T09:40:21Z</time>
      </trkpt>
      <trkpt lat="43.61689" lon="-0.45622">
        <ele>148.1</ele>
        <time>2010-12-12T09:40:28Z</time>
      </trkpt>
      <trkpt lat="43.61673" lon="-0.45604">
        <ele>148.5</ele>
        <time>2010-12-12T09:40:32Z</time>
      </trkpt>
      <trkpt lat="43.61651" lon="-0.45587">
        <ele>148.3</ele>
        <time>2010-12-12T09:40:36Z</time>
      </trkpt>
      <trkpt lat="43.6163" lon="-0.45567">
        <ele>148.1</ele>
        <time>2010-12-12T09:40:40Z</time>
      </trkpt>
      <trkpt lat="43.61606" lon="-0.45546">
        <ele>148.6</ele>
        <time>2010-12-12T09:40:44Z</time>
      </trkpt>
      <trkpt lat="43.61586" lon="-0.45526">
        <ele>148.5</ele>
        <time>2010-12-12T09:40:48Z</time>
      </trkpt>
      <trkpt lat="43.61561" lon="-0.45504">
        <ele>149.1</ele>
        <time>2010-12-12T09:40:52Z</time>
      </trkpt>
      <trkpt lat="43.6154" lon="-0.45481">
        <ele>148.4</ele>
        <time>2010-12-12T09:40:56Z</time>
      </trkpt>
      <trkpt lat="43.61519" lon="-0.45459">
        <ele>147.8</ele>
        <time>2010-12-12T09:41:00Z</time>
      </trkpt>
      <trkpt lat="43.61496" lon="-0.45437">
        <ele>147.5</ele>
        <time>2010-12-12T09:41:04Z</time>
      </trkpt>
      <trkpt lat="43.61476" lon="-0.45416">
        <ele>147.9</ele>
        <time>2010-12-12T09:41:08Z</time>
      </trkpt>
      <trkpt lat="43.61456" lon="-0.45395">
        <ele>147.8</ele>
        <time>2010-12-12T09:41:12Z</time>
      </trkpt>
      <trkpt lat="43.61436" lon="-0.45378">
        <ele>148.3</ele>
        <time>2010-12-12T09:41:16Z</time>
      </trkpt>
      <trkpt lat="43.61415" lon="-0.45359">
        <ele>148.6</ele>
        <time>2010-12-12T09:41:20Z</time>
      </trkpt>
      <trkpt lat="43.61398" lon="-0.45338">
        <ele>149.4</ele>
        <time>2010-12-12T09:41:24Z</time>
      </trkpt>
      <trkpt lat="43.6138" lon="-0.45312">
        <ele>150</ele>
        <time>2010-12-12T09:41:28Z</time>
      </trkpt>
      <trkpt lat="43.61361" lon="-0.45284">
        <ele>149.8</ele>
        <time>2010-12-12T09:41:32Z</time>
      </trkpt>
      <trkpt lat="43.6134" lon="-0.45258">
        <ele>149.1</ele>
        <time>2010-12-12T09:41:36Z</time>
      </trkpt>
      <trkpt lat="43.61321" lon="-0.45231">
        <ele>148.9</ele>
        <time>2010-12-12T09:41:40Z</time>
      </trkpt>
      <trkpt lat="43.61305" lon="-0.45201">
        <ele>148.9</ele>
        <time>2010-12-12T09:41:44Z</time>
      </trkpt>
      <trkpt lat="43.61286" lon="-0.45174">
        <ele>148.7</ele>
        <time>2010-12-12T09:41:48Z</time>
      </trkpt>
      <trkpt lat="43.61266" lon="-0.45146">
        <ele>148.6</ele>
        <time>2010-12-12T09:41:52Z</time>
      </trkpt>
      <trkpt lat="43.61247" lon="-0.45116">
        <ele>148.2</ele>
        <time>2010-12-12T09:41:56Z</time>
      </trkpt>
      <trkpt lat="43.61225" lon="-0.45091">
        <ele>148.1</ele>
        <time>2010-12-12T09:42:00Z</time>
      </trkpt>
      <trkpt lat="43.61202" lon="-0.45067">
        <ele>148.4</ele>
        <time>2010-12-12T09:42:04Z</time>
      </trkpt>
      <trkpt lat="43.6118" lon="-0.45044">
        <ele>149.1</ele>
        <time>2010-12-12T09:42:08Z</time>
      </trkpt>
      <trkpt lat="43.61156" lon="-0.4502">
        <ele>150.6</ele>
        <time>2010-12-12T09:42:12Z</time>
      </trkpt>
      <trkpt lat="43.61135" lon="-0.44996">
        <ele>150.3</ele>
        <time>2010-12-12T09:42:16Z</time>
      </trkpt>
      <trkpt lat="43.61114" lon="-0.44973">
        <ele>149.1</ele>
        <time>2010-12-12T09:42:20Z</time>
      </trkpt>
      <trkpt lat="43.61092" lon="-0.44951">
        <ele>148.8</ele>
        <time>2010-12-12T09:42:24Z</time>
      </trkpt>
      <trkpt lat="43.61064" lon="-0.4493">
        <ele>150.3</ele>
        <time>2010-12-12T09:42:28Z</time>
      </trkpt>
      <trkpt lat="43.6104" lon="-0.44909">
        <ele>150.2</ele>
        <time>2010-12-12T09:42:32Z</time>
      </trkpt>
      <trkpt lat="43.61019" lon="-0.44889">
        <ele>150.8</ele>
        <time>2010-12-12T09:42:36Z</time>
      </trkpt>
      <trkpt lat="43.60996" lon="-0.4487">
        <ele>150.7</ele>
        <time>2010-12-12T09:42:40Z</time>
      </trkpt>
      <trkpt lat="43.60971" lon="-0.44851">
        <ele>150.5</ele>
        <time>2010-12-12T09:42:44Z</time>
      </trkpt>
      <trkpt lat="43.6095" lon="-0.44833">
        <ele>150.6</ele>
        <time>2010-12-12T09:42:48Z</time>
      </trkpt>
      <trkpt lat="43.60925" lon="-0.44814">
        <ele>151.6</ele>
        <time>2010-12-12T09:42:52Z</time>
      </trkpt>
      <trkpt lat="43.609" lon="-0.44796">
        <ele>152.1</ele>
        <time>2010-12-12T09:42:56Z</time>
      </trkpt>
      <trkpt lat="43.60879" lon="-0.44777">
        <ele>152.1</ele>
        <time>2010-12-12T09:43:00Z</time>
      </trkpt>
      <trkpt lat="43.60854" lon="-0.44757">
        <ele>151.9</ele>
        <time>2010-12-12T09:43:04Z</time>
      </trkpt>
      <trkpt lat="43.60832" lon="-0.44739">
        <ele>151.8</ele>
        <time>2010-12-12T09:43:08Z</time>
      </trkpt>
      <trkpt lat="43.60811" lon="-0.44721">
        <ele>153.9</ele>
        <time>2010-12-12T09:43:12Z</time>
      </trkpt>
      <trkpt lat="43.60785" lon="-0.44702">
        <ele>153.5</ele>
        <time>2010-12-12T09:43:16Z</time>
      </trkpt>
      <trkpt lat="43.60762" lon="-0.44683">
        <ele>152</ele>
        <time>2010-12-12T09:43:20Z</time>
      </trkpt>
      <trkpt lat="43.60734" lon="-0.44662">
        <ele>152.4</ele>
        <time>2010-12-12T09:43:24Z</time>
      </trkpt>
      <trkpt lat="43.60709" lon="-0.44643">
        <ele>152</ele>
        <time>2010-12-12T09:43:28Z</time>
      </trkpt>
      <trkpt lat="43.60685" lon="-0.44624">
        <ele>150.7</ele>
        <time>2010-12-12T09:43:32Z</time>
      </trkpt>
      <trkpt lat="43.60659" lon="-0.44605">
        <ele>150.3</ele>
        <time>2010-12-12T09:43:36Z</time>
      </trkpt>
      <trkpt lat="43.60634" lon="-0.44586">
        <ele>152.7</ele>
        <time>2010-12-12T09:43:40Z</time>
      </trkpt>
      <trkpt lat="43.60614" lon="-0.44567">
        <ele>153.3</ele>
        <time>2010-12-12T09:43:44Z</time>
      </trkpt>
      <trkpt lat="43.60589" lon="-0.44548">
        <ele>153</ele>
        <time>2010-12-12T09:43:48Z</time>
      </trkpt>
      <trkpt lat="43.60564" lon="-0.4453">
        <ele>153.6</ele>
        <time>2010-12-12T09:43:52Z</time>
      </trkpt>
      <trkpt lat="43.60544" lon="-0.44511">
        <ele>153.3</ele>
        <time>2010-12-12T09:43:56Z</time>
      </trkpt>
      <trkpt lat="43.60522" lon="-0.44493">
        <ele>153</ele>
        <time>2010-12-12T09:44:00Z</time>
      </trkpt>
      <trkpt lat="43.60502" lon="-0.44474">
        <ele>153.6</ele>
        <time>2010-12-12T09:44:04Z</time>
      </trkpt>
      <trkpt lat="43.60476" lon="-0.44454">
        <ele>154.6</ele>
        <time>2010-12-12T09:44:08Z</time>
      </trkpt>
      <trkpt lat="43.60448" lon="-0.44435">
        <ele>155.3</ele>
        <time>2010-12-12T09:44:12Z</time>
      </trkpt>
      <trkpt lat="43.60425" lon="-0.44418">
        <ele>153.9</ele>
        <time>2010-12-12T09:44:16Z</time>
      </trkpt>
      <trkpt lat="43.60402" lon="-0.444">
        <ele>153.2</ele>
        <time>2010-12-12T09:44:20Z</time>
      </trkpt>
      <trkpt lat="43.60378" lon="-0.44382">
        <ele>152.6</ele>
        <time>2010-12-12T09:44:24Z</time>
      </trkpt>
      <trkpt lat="43.60354" lon="-0.44363">
        <ele>152.7</ele>
        <time>2010-12-12T09:44:28Z</time>
      </trkpt>
      <trkpt lat="43.60328" lon="-0.44344">
        <ele>154.4</ele>
        <time>2010-12-12T09:44:32Z</time>
      </trkpt>
      <trkpt lat="43.60303" lon="-0.44325">
        <ele>155.6</ele>
        <time>2010-12-12T09:44:36Z</time>
      </trkpt>
      <trkpt lat="43.60275" lon="-0.44307">
        <ele>155.4</ele>
        <time>2010-12-12T09:44:40Z</time>
      </trkpt>
      <trkpt lat="43.60253" lon="-0.44288">
        <ele>155.2</ele>
        <time>2010-12-12T09:44:44Z</time>
      </trkpt>
      <trkpt lat="43.60229" lon="-0.44271">
        <ele>154.8</ele>
        <time>2010-12-12T09:44:48Z</time>
      </trkpt>
      <trkpt lat="43.60206" lon="-0.44254">
        <ele>154.7</ele>
        <time>2010-12-12T09:44:52Z</time>
      </trkpt>
      <trkpt lat="43.60184" lon="-0.44235">
        <ele>154.7</ele>
        <time>2010-12-12T09:44:56Z</time>
      </trkpt>
      <trkpt lat="43.6016" lon="-0.44217">
        <ele>154.2</ele>
        <time>2010-12-12T09:45:00Z</time>
      </trkpt>
      <trkpt lat="43.60135" lon="-0.44198">
        <ele>154.2</ele>
        <time>2010-12-12T09:45:04Z</time>
      </trkpt>
      <trkpt lat="43.60109" lon="-0.44179">
        <ele>154.7</ele>
        <time>2010-12-12T09:45:08Z</time>
      </trkpt>
      <trkpt lat="43.60086" lon="-0.44161">
        <ele>154.7</ele>
        <time>2010-12-12T09:45:12Z</time>
      </trkpt>
      <trkpt lat="43.60058" lon="-0.44141">
        <ele>154.5</ele>
        <time>2010-12-12T09:45:16Z</time>
      </trkpt>
      <trkpt lat="43.60031" lon="-0.4412">
        <ele>154.1</ele>
        <time>2010-12-12T09:45:20Z</time>
      </trkpt>
      <trkpt lat="43.6001" lon="-0.44099">
        <ele>154.8</ele>
        <time>2010-12-12T09:45:24Z</time>
      </trkpt>
      <trkpt lat="43.59987" lon="-0.44077">
        <ele>155</ele>
        <time>2010-12-12T09:45:28Z</time>
      </trkpt>
      <trkpt lat="43.59967" lon="-0.44055">
        <ele>154.9</ele>
        <time>2010-12-12T09:45:32Z</time>
      </trkpt>
      <trkpt lat="43.59945" lon="-0.44031">
        <ele>154.8</ele>
        <time>2010-12-12T09:45:36Z</time>
      </trkpt>
      <trkpt lat="43.59923" lon="-0.44007">
        <ele>155.3</ele>
        <time>2010-12-12T09:45:40Z</time>
      </trkpt>
      <trkpt lat="43.59899" lon="-0.43982">
        <ele>154.7</ele>
        <time>2010-12-12T09:45:44Z</time>
      </trkpt>
      <trkpt lat="43.59875" lon="-0.43956">
        <ele>154.4</ele>
        <time>2010-12-12T09:45:48Z</time>
      </trkpt>
      <trkpt lat="43.59851" lon="-0.4393">
        <ele>154.6</ele>
        <time>2010-12-12T09:45:52Z</time>
      </trkpt>
      <trkpt lat="43.59826" lon="-0.43906">
        <ele>154.2</ele>
        <time>2010-12-12T09:45:56Z</time>
      </trkpt>
      <trkpt lat="43.59802" lon="-0.43882">
        <ele>154.8</ele>
        <time>2010-12-12T09:46:00Z</time>
      </trkpt>
      <trkpt lat="43.59786" lon="-0.43858">
        <ele>154.9</ele>
        <time>2010-12-12T09:46:04Z</time>
      </trkpt>
      <trkpt lat="43.59762" lon="-0.43834">
        <ele>155.2</ele>
        <time>2010-12-12T09:46:08Z</time>
      </trkpt>
      <trkpt lat="43.5974" lon="-0.43811">
        <ele>154.9</ele>
        <time>2010-12-12T09:46:12Z</time>
      </trkpt>
      <trkpt lat="43.5972" lon="-0.43788">
        <ele>155.2</ele>
        <time>2010-12-12T09:46:16Z</time>
      </trkpt>
      <trkpt lat="43.59696" lon="-0.43764">
        <ele>155.4</ele>
        <time>2010-12-12T09:46:20Z</time>
      </trkpt>
      <trkpt lat="43.59674" lon="-0.43739">
        <ele>155.6</ele>
        <time>2010-12-12T09:46:24Z</time>
      </trkpt>
      <trkpt lat="43.5965" lon="-0.43714">
        <ele>156.2</ele>
        <time>2010-12-12T09:46:28Z</time>
      </trkpt>
      <trkpt lat="43.59626" lon="-0.43689">
        <ele>157.3</ele>
        <time>2010-12-12T09:46:32Z</time>
      </trkpt>
      <trkpt lat="43.59605" lon="-0.43665">
        <ele>157.1</ele>
        <time>2010-12-12T09:46:36Z</time>
      </trkpt>
      <trkpt lat="43.59583" lon="-0.43639">
        <ele>156.8</ele>
        <time>2010-12-12T09:46:40Z</time>
      </trkpt>
      <trkpt lat="43.59561" lon="-0.4361">
        <ele>156.9</ele>
        <time>2010-12-12T09:46:44Z</time>
      </trkpt>
      <trkpt lat="43.59542" lon="-0.43581">
        <ele>158.1</ele>
        <time>2010-12-12T09:46:48Z</time>
      </trkpt>
      <trkpt lat="43.59527" lon="-0.43552">
        <ele>158.3</ele>
        <time>2010-12-12T09:46:52Z</time>
      </trkpt>
      <trkpt lat="43.59508" lon="-0.43522">
        <ele>159</ele>
        <time>2010-12-12T09:46:56Z</time>
      </trkpt>
      <trkpt lat="43.59487" lon="-0.43492">
        <ele>159.2</ele>
        <time>2010-12-12T09:47:00Z</time>
      </trkpt>
      <trkpt lat="43.59473" lon="-0.43463">
        <ele>159.2</ele>
        <time>2010-12-12T09:47:04Z</time>
      </trkpt>
      <trkpt lat="43.59453" lon="-0.43435">
        <ele>158.9</ele>
        <time>2010-12-12T09:47:08Z</time>
      </trkpt>
      <trkpt lat="43.59435" lon="-0.43407">
        <ele>159.4</ele>
        <time>2010-12-12T09:47:12Z</time>
      </trkpt>
      <trkpt lat="43.59419" lon="-0.43379">
        <ele>160.1</ele>
        <time>2010-12-12T09:47:16Z</time>
      </trkpt>
      <trkpt lat="43.59401" lon="-0.43351">
        <ele>159.5</ele>
        <time>2010-12-12T09:47:20Z</time>
      </trkpt>
      <trkpt lat="43.59382" lon="-0.4332">
        <ele>158.4</ele>
        <time>2010-12-12T09:47:24Z</time>
      </trkpt>
      <trkpt lat="43.59359" lon="-0.43291">
        <ele>158.1</ele>
        <time>2010-12-12T09:47:28Z</time>
      </trkpt>
      <trkpt lat="43.59344" lon="-0.43262">
        <ele>157.8</ele>
        <time>2010-12-12T09:47:32Z</time>
      </trkpt>
      <trkpt lat="43.59327" lon="-0.43233">
        <ele>157.6</ele>
        <time>2010-12-12T09:47:36Z</time>
      </trkpt>
      <trkpt lat="43.59308" lon="-0.43203">
        <ele>158.7</ele>
        <time>2010-12-12T09:47:40Z</time>
      </trkpt>
      <trkpt lat="43.59285" lon="-0.43174">
        <ele>159.4</ele>
        <time>2010-12-12T09:47:44Z</time>
      </trkpt>
      <trkpt lat="43.59266" lon="-0.43148">
        <ele>158.7</ele>
        <time>2010-12-12T09:47:48Z</time>
      </trkpt>
      <trkpt lat="43.59239" lon="-0.43122">
        <ele>159.1</ele>
        <time>2010-12-12T09:47:52Z</time>
      </trkpt>
      <trkpt lat="43.59221" lon="-0.43098">
        <ele>158.7</ele>
        <time>2010-12-12T09:47:56Z</time>
      </trkpt>
      <trkpt lat="43.59201" lon="-0.43073">
        <ele>158.8</ele>
        <time>2010-12-12T09:48:00Z</time>
      </trkpt>
      <trkpt lat="43.59181" lon="-0.43049">
        <ele>158.3</ele>
        <time>2010-12-12T09:48:04Z</time>
      </trkpt>
      <trkpt lat="43.59159" lon="-0.43025">
        <ele>159.2</ele>
        <time>2010-12-12T09:48:08Z</time>
      </trkpt>
      <trkpt lat="43.59136" lon="-0.43001">
        <ele>159.6</ele>
        <time>2010-12-12T09:48:12Z</time>
      </trkpt>
      <trkpt lat="43.59115" lon="-0.42976">
        <ele>159.4</ele>
        <time>2010-12-12T09:48:16Z</time>
      </trkpt>
      <trkpt lat="43.59092" lon="-0.42952">
        <ele>158.9</ele>
        <time>2010-12-12T09:48:20Z</time>
      </trkpt>
      <trkpt lat="43.59071" lon="-0.42927">
        <ele>159.3</ele>
        <time>2010-12-12T09:48:24Z</time>
      </trkpt>
      <trkpt lat="43.59048" lon="-0.42903">
        <ele>159.1</ele>
        <time>2010-12-12T09:48:28Z</time>
      </trkpt>
      <trkpt lat="43.59025" lon="-0.42877">
        <ele>159.1</ele>
        <time>2010-12-12T09:48:32Z</time>
      </trkpt>
      <trkpt lat="43.59003" lon="-0.42851">
        <ele>159.8</ele>
        <time>2010-12-12T09:48:36Z</time>
      </trkpt>
      <trkpt lat="43.58982" lon="-0.42826">
        <ele>160.1</ele>
        <time>2010-12-12T09:48:40Z</time>
      </trkpt>
      <trkpt lat="43.5896" lon="-0.42801">
        <ele>160.4</ele>
        <time>2010-12-12T09:48:44Z</time>
      </trkpt>
      <trkpt lat="43.5894" lon="-0.42778">
        <ele>160.9</ele>
        <time>2010-12-12T09:48:48Z</time>
      </trkpt>
      <trkpt lat="43.58917" lon="-0.42752">
        <ele>160.4</ele>
        <time>2010-12-12T09:48:52Z</time>
      </trkpt>
      <trkpt lat="43.58896" lon="-0.42727">
        <ele>160.4</ele>
        <time>2010-12-12T09:48:56Z</time>
      </trkpt>
      <trkpt lat="43.5887" lon="-0.42702">
        <ele>160</ele>
        <time>2010-12-12T09:49:00Z</time>
      </trkpt>
      <trkpt lat="43.58854" lon="-0.42678">
        <ele>160.6</ele>
        <time>2010-12-12T09:49:04Z</time>
      </trkpt>
      <trkpt lat="43.58833" lon="-0.42654">
        <ele>161.3</ele>
        <time>2010-12-12T09:49:08Z</time>
      </trkpt>
      <trkpt lat="43.58811" lon="-0.42631">
        <ele>160.9</ele>
        <time>2010-12-12T09:49:12Z</time>
      </trkpt>
      <trkpt lat="43.58791" lon="-0.42607">
        <ele>160.3</ele>
        <time>2010-12-12T09:49:16Z</time>
      </trkpt>
      <trkpt lat="43.58769" lon="-0.42583">
        <ele>159.3</ele>
        <time>2010-12-12T09:49:20Z</time>
      </trkpt>
      <trkpt lat="43.58749" lon="-0.42559">
        <ele>159.8</ele>
        <time>2010-12-12T09:49:24Z</time>
      </trkpt>
      <trkpt lat="43.58724" lon="-0.42536">
        <ele>160.1</ele>
        <time>2010-12-12T09:49:28Z</time>
      </trkpt>
      <trkpt lat="43.58704" lon="-0.42515">
        <ele>161.7</ele>
        <time>2010-12-12T09:49:32Z</time>
      </trkpt>
      <trkpt lat="43.58684" lon="-0.42497">
        <ele>161.9</ele>
        <time>2010-12-12T09:49:36Z</time>
      </trkpt>
      <trkpt lat="43.5866" lon="-0.4248">
        <ele>161.2</ele>
        <time>2010-12-12T09:49:40Z</time>
      </trkpt>
      <trkpt lat="43.58632" lon="-0.42466">
        <ele>161.4</ele>
        <time>2010-12-12T09:49:44Z</time>
      </trkpt>
      <trkpt lat="43.58604" lon="-0.42451">
        <ele>161.6</ele>
        <time>2010-12-12T09:49:48Z</time>
      </trkpt>
      <trkpt lat="43.58578" lon="-0.42436">
        <ele>162.1</ele>
        <time>2010-12-12T09:49:52Z</time>
      </trkpt>
      <trkpt lat="43.58553" lon="-0.42421">
        <ele>161.6</ele>
        <time>2010-12-12T09:49:56Z</time>
      </trkpt>
      <trkpt lat="43.58525" lon="-0.42405">
        <ele>162.1</ele>
        <time>2010-12-12T09:50:00Z</time>
      </trkpt>
      <trkpt lat="43.58499" lon="-0.4239">
        <ele>162.6</ele>
        <time>2010-12-12T09:50:04Z</time>
      </trkpt>
      <trkpt lat="43.58477" lon="-0.42375">
        <ele>164.1</ele>
        <time>2010-12-12T09:50:08Z</time>
      </trkpt>
      <trkpt lat="43.58453" lon="-0.4236">
        <ele>164</ele>
        <time>2010-12-12T09:50:12Z</time>
      </trkpt>
      <trkpt lat="43.58425" lon="-0.42345">
        <ele>163.9</ele>
        <time>2010-12-12T09:50:16Z</time>
      </trkpt>
      <trkpt lat="43.584" lon="-0.4233">
        <ele>164</ele>
        <time>2010-12-12T09:50:20Z</time>
      </trkpt>
      <trkpt lat="43.58373" lon="-0.42314">
        <ele>164.3</ele>
        <time>2010-12-12T09:50:24Z</time>
      </trkpt>
      <trkpt lat="43.58345" lon="-0.42299">
        <ele>164.1</ele>
        <time>2010-12-12T09:50:28Z</time>
      </trkpt>
      <trkpt lat="43.58318" lon="-0.42284">
        <ele>164.3</ele>
        <time>2010-12-12T09:50:32Z</time>
      </trkpt>
      <trkpt lat="43.58293" lon="-0.42268">
        <ele>164.3</ele>
        <time>2010-12-12T09:50:36Z</time>
      </trkpt>
      <trkpt lat="43.58268" lon="-0.42252">
        <ele>164.3</ele>
        <time>2010-12-12T09:50:40Z</time>
      </trkpt>
      <trkpt lat="43.58239" lon="-0.42237">
        <ele>164.3</ele>
        <time>2010-12-12T09:50:44Z</time>
      </trkpt>
      <trkpt lat="43.58213" lon="-0.42222">
        <ele>163.8</ele>
        <time>2010-12-12T09:50:48Z</time>
      </trkpt>
      <trkpt lat="43.58189" lon="-0.42207">
        <ele>163.8</ele>
        <time>2010-12-12T09:50:52Z</time>
      </trkpt>
      <trkpt lat="43.58165" lon="-0.42195">
        <ele>164.5</ele>
        <time>2010-12-12T09:50:56Z</time>
      </trkpt>
      <trkpt lat="43.5814" lon="-0.42183">
        <ele>164.6</ele>
        <time>2010-12-12T09:51:00Z</time>
      </trkpt>
      <trkpt lat="43.58113" lon="-0.42171">
        <ele>164.8</ele>
        <time>2010-12-12T09:51:04Z</time>
      </trkpt>
      <trkpt lat="43.58087" lon="-0.42156">
        <ele>164.5</ele>
        <time>2010-12-12T09:51:08Z</time>
      </trkpt>
      <trkpt lat="43.5806" lon="-0.4214">
        <ele>165.2</ele>
        <time>2010-12-12T09:51:12Z</time>
      </trkpt>
      <trkpt lat="43.58035" lon="-0.42121">
        <ele>164.9</ele>
        <time>2010-12-12T09:51:16Z</time>
      </trkpt>
      <trkpt lat="43.58011" lon="-0.42101">
        <ele>165.6</ele>
        <time>2010-12-12T09:51:20Z</time>
      </trkpt>
      <trkpt lat="43.57992" lon="-0.42079">
        <ele>166.4</ele>
        <time>2010-12-12T09:51:24Z</time>
      </trkpt>
      <trkpt lat="43.57971" lon="-0.42055">
        <ele>166</ele>
        <time>2010-12-12T09:51:28Z</time>
      </trkpt>
      <trkpt lat="43.57946" lon="-0.4203">
        <ele>165.3</ele>
        <time>2010-12-12T09:51:32Z</time>
      </trkpt>
      <trkpt lat="43.57923" lon="-0.42004">
        <ele>165.1</ele>
        <time>2010-12-12T09:51:36Z</time>
      </trkpt>
      <trkpt lat="43.57904" lon="-0.4198">
        <ele>165.6</ele>
        <time>2010-12-12T09:51:40Z</time>
      </trkpt>
      <trkpt lat="43.57882" lon="-0.41956">
        <ele>165.2</ele>
        <time>2010-12-12T09:51:44Z</time>
      </trkpt>
      <trkpt lat="43.57861" lon="-0.41933">
        <ele>165.4</ele>
        <time>2010-12-12T09:51:48Z</time>
      </trkpt>
      <trkpt lat="43.57837" lon="-0.41908">
        <ele>165.8</ele>
        <time>2010-12-12T09:51:52Z</time>
      </trkpt>
      <trkpt lat="43.57819" lon="-0.41887">
        <ele>166.6</ele>
        <time>2010-12-12T09:51:56Z</time>
      </trkpt>
      <trkpt lat="43.578" lon="-0.41866">
        <ele>166.5</ele>
        <time>2010-12-12T09:52:00Z</time>
      </trkpt>
      <trkpt lat="43.57781" lon="-0.41845">
        <ele>167.1</ele>
        <time>2010-12-12T09:52:04Z</time>
      </trkpt>
      <trkpt lat="43.5776" lon="-0.41825">
        <ele>167</ele>
        <time>2010-12-12T09:52:08Z</time>
      </trkpt>
      <trkpt lat="43.57737" lon="-0.41807">
        <ele>167</ele>
        <time>2010-12-12T09:52:12Z</time>
      </trkpt>
      <trkpt lat="43.57714" lon="-0.41789">
        <ele>167.1</ele>
        <time>2010-12-12T09:52:16Z</time>
      </trkpt>
      <trkpt lat="43.5769" lon="-0.41773">
        <ele>167.5</ele>
        <time>2010-12-12T09:52:20Z</time>
      </trkpt>
      <trkpt lat="43.57664" lon="-0.41758">
        <ele>167.6</ele>
        <time>2010-12-12T09:52:24Z</time>
      </trkpt>
      <trkpt lat="43.57637" lon="-0.41744">
        <ele>167.6</ele>
        <time>2010-12-12T09:52:28Z</time>
      </trkpt>
      <trkpt lat="43.5761" lon="-0.41731">
        <ele>167.2</ele>
        <time>2010-12-12T09:52:32Z</time>
      </trkpt>
      <trkpt lat="43.57584" lon="-0.41717">
        <ele>167.5</ele>
        <time>2010-12-12T09:52:36Z</time>
      </trkpt>
      <trkpt lat="43.57556" lon="-0.41703">
        <ele>167.6</ele>
        <time>2010-12-12T09:52:40Z</time>
      </trkpt>
      <trkpt lat="43.57528" lon="-0.41689">
        <ele>167.8</ele>
        <time>2010-12-12T09:52:44Z</time>
      </trkpt>
      <trkpt lat="43.57498" lon="-0.41677">
        <ele>167.9</ele>
        <time>2010-12-12T09:52:48Z</time>
      </trkpt>
      <trkpt lat="43.5747" lon="-0.41666">
        <ele>166.9</ele>
        <time>2010-12-12T09:52:52Z</time>
      </trkpt>
      <trkpt lat="43.57444" lon="-0.41657">
        <ele>167.2</ele>
        <time>2010-12-12T09:52:56Z</time>
      </trkpt>
      <trkpt lat="43.57419" lon="-0.41649">
        <ele>167.7</ele>
        <time>2010-12-12T09:53:00Z</time>
      </trkpt>
      <trkpt lat="43.57394" lon="-0.4164">
        <ele>167.7</ele>
        <time>2010-12-12T09:53:04Z</time>
      </trkpt>
      <trkpt lat="43.57365" lon="-0.41629">
        <ele>167.5</ele>
        <time>2010-12-12T09:53:08Z</time>
      </trkpt>
      <trkpt lat="43.57339" lon="-0.4162">
        <ele>167.4</ele>
        <time>2010-12-12T09:53:12Z</time>
      </trkpt>
      <trkpt lat="43.57314" lon="-0.41611">
        <ele>167.9</ele>
        <time>2010-12-12T09:53:16Z</time>
      </trkpt>
      <trkpt lat="43.57286" lon="-0.41596">
        <ele>167.6</ele>
        <time>2010-12-12T09:53:21Z</time>
      </trkpt>
      <trkpt lat="43.5726" lon="-0.41582">
        <ele>167.3</ele>
        <time>2010-12-12T09:53:25Z</time>
      </trkpt>
      <trkpt lat="43.57231" lon="-0.41567">
        <ele>167.2</ele>
        <time>2010-12-12T09:53:29Z</time>
      </trkpt>
      <trkpt lat="43.57206" lon="-0.41553">
        <ele>166.5</ele>
        <time>2010-12-12T09:53:33Z</time>
      </trkpt>
      <trkpt lat="43.57181" lon="-0.41538">
        <ele>166.6</ele>
        <time>2010-12-12T09:53:37Z</time>
      </trkpt>
      <trkpt lat="43.57154" lon="-0.41523">
        <ele>166.8</ele>
        <time>2010-12-12T09:53:41Z</time>
      </trkpt>
      <trkpt lat="43.57128" lon="-0.41508">
        <ele>167.1</ele>
        <time>2010-12-12T09:53:45Z</time>
      </trkpt>
      <trkpt lat="43.571" lon="-0.41494">
        <ele>166.9</ele>
        <time>2010-12-12T09:53:49Z</time>
      </trkpt>
      <trkpt lat="43.57075" lon="-0.41487">
        <ele>167.6</ele>
        <time>2010-12-12T09:53:53Z</time>
      </trkpt>
      <trkpt lat="43.5705" lon="-0.41494">
        <ele>167.2</ele>
        <time>2010-12-12T09:53:57Z</time>
      </trkpt>
      <trkpt lat="43.57023" lon="-0.41509">
        <ele>166.9</ele>
        <time>2010-12-12T09:54:01Z</time>
      </trkpt>
      <trkpt lat="43.56993" lon="-0.41531">
        <ele>165.3</ele>
        <time>2010-12-12T09:54:05Z</time>
      </trkpt>
      <trkpt lat="43.56961" lon="-0.41555">
        <ele>163.9</ele>
        <time>2010-12-12T09:54:09Z</time>
      </trkpt>
      <trkpt lat="43.56927" lon="-0.4158">
        <ele>162.6</ele>
        <time>2010-12-12T09:54:13Z</time>
      </trkpt>
      <trkpt lat="43.56895" lon="-0.41604">
        <ele>161.6</ele>
        <time>2010-12-12T09:54:17Z</time>
      </trkpt>
      <trkpt lat="43.56863" lon="-0.41628">
        <ele>162.7</ele>
        <time>2010-12-12T09:54:21Z</time>
      </trkpt>
      <trkpt lat="43.56833" lon="-0.4165">
        <ele>164.3</ele>
        <time>2010-12-12T09:54:25Z</time>
      </trkpt>
      <trkpt lat="43.56807" lon="-0.41669">
        <ele>163.8</ele>
        <time>2010-12-12T09:54:29Z</time>
      </trkpt>
      <trkpt lat="43.56777" lon="-0.41684">
        <ele>163</ele>
        <time>2010-12-12T09:54:33Z</time>
      </trkpt>
      <trkpt lat="43.56748" lon="-0.41688">
        <ele>163.3</ele>
        <time>2010-12-12T09:54:37Z</time>
      </trkpt>
      <trkpt lat="43.56725" lon="-0.41685">
        <ele>163.9</ele>
        <time>2010-12-12T09:54:41Z</time>
      </trkpt>
      <trkpt lat="43.56699" lon="-0.41681">
        <ele>164.1</ele>
        <time>2010-12-12T09:54:46Z</time>
      </trkpt>
      <trkpt lat="43.56677" lon="-0.41678">
        <ele>164.6</ele>
        <time>2010-12-12T09:54:50Z</time>
      </trkpt>
      <trkpt lat="43.56655" lon="-0.41671">
        <ele>165.3</ele>
        <time>2010-12-12T09:54:54Z</time>
      </trkpt>
      <trkpt lat="43.56631" lon="-0.41661">
        <ele>165.6</ele>
        <time>2010-12-12T09:54:58Z</time>
      </trkpt>
      <trkpt lat="43.56608" lon="-0.4165">
        <ele>166.3</ele>
        <time>2010-12-12T09:55:02Z</time>
      </trkpt>
      <trkpt lat="43.56583" lon="-0.41637">
        <ele>167.4</ele>
        <time>2010-12-12T09:55:06Z</time>
      </trkpt>
      <trkpt lat="43.56557" lon="-0.41619">
        <ele>168.2</ele>
        <time>2010-12-12T09:55:11Z</time>
      </trkpt>
      <trkpt lat="43.56532" lon="-0.41604">
        <ele>168.8</ele>
        <time>2010-12-12T09:55:16Z</time>
      </trkpt>
      <trkpt lat="43.56504" lon="-0.41587">
        <ele>168.5</ele>
        <time>2010-12-12T09:55:20Z</time>
      </trkpt>
      <trkpt lat="43.56478" lon="-0.41574">
        <ele>168.4</ele>
        <time>2010-12-12T09:55:24Z</time>
      </trkpt>
      <trkpt lat="43.56453" lon="-0.4156">
        <ele>168.8</ele>
        <time>2010-12-12T09:55:28Z</time>
      </trkpt>
      <trkpt lat="43.5643" lon="-0.41546">
        <ele>168.5</ele>
        <time>2010-12-12T09:55:32Z</time>
      </trkpt>
      <trkpt lat="43.56406" lon="-0.41532">
        <ele>168.5</ele>
        <time>2010-12-12T09:55:36Z</time>
      </trkpt>
      <trkpt lat="43.56381" lon="-0.41517">
        <ele>169.1</ele>
        <time>2010-12-12T09:55:40Z</time>
      </trkpt>
      <trkpt lat="43.56358" lon="-0.41504">
        <ele>169.4</ele>
        <time>2010-12-12T09:55:44Z</time>
      </trkpt>
      <trkpt lat="43.56332" lon="-0.41492">
        <ele>169.6</ele>
        <time>2010-12-12T09:55:48Z</time>
      </trkpt>
      <trkpt lat="43.56305" lon="-0.41478">
        <ele>169.6</ele>
        <time>2010-12-12T09:55:52Z</time>
      </trkpt>
      <trkpt lat="43.56281" lon="-0.41465">
        <ele>169.6</ele>
        <time>2010-12-12T09:55:56Z</time>
      </trkpt>
      <trkpt lat="43.56254" lon="-0.41451">
        <ele>170</ele>
        <time>2010-12-12T09:56:00Z</time>
      </trkpt>
      <trkpt lat="43.56228" lon="-0.41439">
        <ele>169.9</ele>
        <time>2010-12-12T09:56:04Z</time>
      </trkpt>
      <trkpt lat="43.56206" lon="-0.41426">
        <ele>169.8</ele>
        <time>2010-12-12T09:56:08Z</time>
      </trkpt>
      <trkpt lat="43.56181" lon="-0.41414">
        <ele>170.1</ele>
        <time>2010-12-12T09:56:12Z</time>
      </trkpt>
      <trkpt lat="43.56153" lon="-0.414">
        <ele>169.8</ele>
        <time>2010-12-12T09:56:16Z</time>
      </trkpt>
      <trkpt lat="43.56125" lon="-0.41389">
        <ele>169.9</ele>
        <time>2010-12-12T09:56:21Z</time>
      </trkpt>
      <trkpt lat="43.56098" lon="-0.41379">
        <ele>170</ele>
        <time>2010-12-12T09:56:25Z</time>
      </trkpt>
      <trkpt lat="43.56071" lon="-0.4137">
        <ele>170.4</ele>
        <time>2010-12-12T09:56:30Z</time>
      </trkpt>
      <trkpt lat="43.56044" lon="-0.41364">
        <ele>171.3</ele>
        <time>2010-12-12T09:56:34Z</time>
      </trkpt>
      <trkpt lat="43.56016" lon="-0.41355">
        <ele>171.4</ele>
        <time>2010-12-12T09:56:38Z</time>
      </trkpt>
      <trkpt lat="43.55989" lon="-0.41347">
        <ele>172.2</ele>
        <time>2010-12-12T09:56:42Z</time>
      </trkpt>
      <trkpt lat="43.55962" lon="-0.41339">
        <ele>171.8</ele>
        <time>2010-12-12T09:56:46Z</time>
      </trkpt>
      <trkpt lat="43.55935" lon="-0.4133">
        <ele>170.7</ele>
        <time>2010-12-12T09:56:50Z</time>
      </trkpt>
      <trkpt lat="43.55907" lon="-0.41322">
        <ele>171.3</ele>
        <time>2010-12-12T09:56:54Z</time>
      </trkpt>
      <trkpt lat="43.5588" lon="-0.41312">
        <ele>171</ele>
        <time>2010-12-12T09:56:58Z</time>
      </trkpt>
      <trkpt lat="43.55854" lon="-0.41306">
        <ele>171.1</ele>
        <time>2010-12-12T09:57:02Z</time>
      </trkpt>
      <trkpt lat="43.55829" lon="-0.41301">
        <ele>171.3</ele>
        <time>2010-12-12T09:57:06Z</time>
      </trkpt>
      <trkpt lat="43.55801" lon="-0.41299">
        <ele>171.6</ele>
        <time>2010-12-12T09:57:10Z</time>
      </trkpt>
      <trkpt lat="43.55773" lon="-0.41298">
        <ele>171.9</ele>
        <time>2010-12-12T09:57:14Z</time>
      </trkpt>
      <trkpt lat="43.55747" lon="-0.41297">
        <ele>172</ele>
        <time>2010-12-12T09:57:18Z</time>
      </trkpt>
      <trkpt lat="43.55721" lon="-0.41297">
        <ele>172.4</ele>
        <time>2010-12-12T09:57:22Z</time>
      </trkpt>
      <trkpt lat="43.55696" lon="-0.41297">
        <ele>173.2</ele>
        <time>2010-12-12T09:57:26Z</time>
      </trkpt>
      <trkpt lat="43.5567" lon="-0.41297">
        <ele>173.2</ele>
        <time>2010-12-12T09:57:30Z</time>
      </trkpt>
      <trkpt lat="43.55643" lon="-0.41296">
        <ele>173.4</ele>
        <time>2010-12-12T09:57:34Z</time>
      </trkpt>
      <trkpt lat="43.55616" lon="-0.41297">
        <ele>172.9</ele>
        <time>2010-12-12T09:57:38Z</time>
      </trkpt>
      <trkpt lat="43.55592" lon="-0.41297">
        <ele>173</ele>
        <time>2010-12-12T09:57:42Z</time>
      </trkpt>
      <trkpt lat="43.55567" lon="-0.41299">
        <ele>172.5</ele>
        <time>2010-12-12T09:58:25Z</time>
      </trkpt>
      <trkpt lat="43.55546" lon="-0.41301">
        <ele>171.6</ele>
        <time>2010-12-12T10:00:17Z</time>
      </trkpt>
      <trkpt lat="43.55521" lon="-0.41304">
        <ele>172.1</ele>
        <time>2010-12-12T10:00:22Z</time>
      </trkpt>
      <trkpt lat="43.55499" lon="-0.41309">
        <ele>172.2</ele>
        <time>2010-12-12T10:00:26Z</time>
      </trkpt>
      <trkpt lat="43.55475" lon="-0.41312">
        <ele>171.8</ele>
        <time>2010-12-12T10:00:30Z</time>
      </trkpt>
      <trkpt lat="43.55451" lon="-0.41314">
        <ele>171.3</ele>
        <time>2010-12-12T10:00:34Z</time>
      </trkpt>
      <trkpt lat="43.55425" lon="-0.41318">
        <ele>171.2</ele>
        <time>2010-12-12T10:00:38Z</time>
      </trkpt>
      <trkpt lat="43.55401" lon="-0.41321">
        <ele>171.4</ele>
        <time>2010-12-12T10:00:42Z</time>
      </trkpt>
      <trkpt lat="43.55376" lon="-0.41324">
        <ele>171.6</ele>
        <time>2010-12-12T10:00:46Z</time>
      </trkpt>
      <trkpt lat="43.55351" lon="-0.41328">
        <ele>171.7</ele>
        <time>2010-12-12T10:00:50Z</time>
      </trkpt>
      <trkpt lat="43.55326" lon="-0.41333">
        <ele>172.8</ele>
        <time>2010-12-12T10:00:54Z</time>
      </trkpt>
      <trkpt lat="43.55301" lon="-0.41337">
        <ele>173.9</ele>
        <time>2010-12-12T10:00:58Z</time>
      </trkpt>
      <trkpt lat="43.55276" lon="-0.4134">
        <ele>173.6</ele>
        <time>2010-12-12T10:01:02Z</time>
      </trkpt>
      <trkpt lat="43.55251" lon="-0.41344">
        <ele>173.8</ele>
        <time>2010-12-12T10:01:06Z</time>
      </trkpt>
      <trkpt lat="43.55225" lon="-0.41348">
        <ele>173.5</ele>
        <time>2010-12-12T10:01:10Z</time>
      </trkpt>
      <trkpt lat="43.552" lon="-0.41351">
        <ele>173.5</ele>
        <time>2010-12-12T10:01:14Z</time>
      </trkpt>
      <trkpt lat="43.55175" lon="-0.41354">
        <ele>174</ele>
        <time>2010-12-12T10:01:18Z</time>
      </trkpt>
      <trkpt lat="43.55151" lon="-0.41358">
        <ele>175.5</ele>
        <time>2010-12-12T10:01:22Z</time>
      </trkpt>
      <trkpt lat="43.55128" lon="-0.41361">
        <ele>176.3</ele>
        <time>2010-12-12T10:01:26Z</time>
      </trkpt>
      <trkpt lat="43.55104" lon="-0.41365">
        <ele>176.3</ele>
        <time>2010-12-12T10:01:30Z</time>
      </trkpt>
      <trkpt lat="43.55083" lon="-0.41367">
        <ele>177.2</ele>
        <time>2010-12-12T10:01:34Z</time>
      </trkpt>
      <trkpt lat="43.55061" lon="-0.4137">
        <ele>176.7</ele>
        <time>2010-12-12T10:01:38Z</time>
      </trkpt>
      <trkpt lat="43.5504" lon="-0.41371">
        <ele>176.1</ele>
        <time>2010-12-12T10:01:42Z</time>
      </trkpt>
      <trkpt lat="43.55018" lon="-0.4137">
        <ele>176.3</ele>
        <time>2010-12-12T10:01:46Z</time>
      </trkpt>
      <trkpt lat="43.54995" lon="-0.4137">
        <ele>176.4</ele>
        <time>2010-12-12T10:01:50Z</time>
      </trkpt>
      <trkpt lat="43.54965" lon="-0.4137">
        <ele>177.8</ele>
        <time>2010-12-12T10:01:57Z</time>
      </trkpt>
      <trkpt lat="43.54936" lon="-0.41375">
        <ele>178.9</ele>
        <time>2010-12-12T10:02:03Z</time>
      </trkpt>
      <trkpt lat="43.54911" lon="-0.41384">
        <ele>179.3</ele>
        <time>2010-12-12T10:02:09Z</time>
      </trkpt>
      <trkpt lat="43.54888" lon="-0.41394">
        <ele>180</ele>
        <time>2010-12-12T10:02:15Z</time>
      </trkpt>
      <trkpt lat="43.54865" lon="-0.41409">
        <ele>181.4</ele>
        <time>2010-12-12T10:02:22Z</time>
      </trkpt>
      <trkpt lat="43.54842" lon="-0.41429">
        <ele>184.8</ele>
        <time>2010-12-12T10:02:30Z</time>
      </trkpt>
      <trkpt lat="43.54826" lon="-0.41447">
        <ele>186.4</ele>
        <time>2010-12-12T10:02:36Z</time>
      </trkpt>
      <trkpt lat="43.54805" lon="-0.41467">
        <ele>188.6</ele>
        <time>2010-12-12T10:02:43Z</time>
      </trkpt>
      <trkpt lat="43.54791" lon="-0.41481">
        <ele>189.6</ele>
        <time>2010-12-12T10:02:49Z</time>
      </trkpt>
      <trkpt lat="43.54772" lon="-0.41499">
        <ele>191.1</ele>
        <time>2010-12-12T10:02:55Z</time>
      </trkpt>
      <trkpt lat="43.54752" lon="-0.41517">
        <ele>192.4</ele>
        <time>2010-12-12T10:03:00Z</time>
      </trkpt>
      <trkpt lat="43.54726" lon="-0.41537">
        <ele>193.6</ele>
        <time>2010-12-12T10:03:07Z</time>
      </trkpt>
      <trkpt lat="43.54698" lon="-0.41543">
        <ele>195.3</ele>
        <time>2010-12-12T10:03:14Z</time>
      </trkpt>
      <trkpt lat="43.5467" lon="-0.41537">
        <ele>196</ele>
        <time>2010-12-12T10:03:21Z</time>
      </trkpt>
      <trkpt lat="43.54642" lon="-0.41524">
        <ele>196.6</ele>
        <time>2010-12-12T10:03:29Z</time>
      </trkpt>
      <trkpt lat="43.54617" lon="-0.41512">
        <ele>197.4</ele>
        <time>2010-12-12T10:03:36Z</time>
      </trkpt>
      <trkpt lat="43.54592" lon="-0.41498">
        <ele>200.3</ele>
        <time>2010-12-12T10:03:44Z</time>
      </trkpt>
      <trkpt lat="43.54568" lon="-0.41479">
        <ele>201.9</ele>
        <time>2010-12-12T10:03:52Z</time>
      </trkpt>
      <trkpt lat="43.54543" lon="-0.41457">
        <ele>203.4</ele>
        <time>2010-12-12T10:03:59Z</time>
      </trkpt>
      <trkpt lat="43.54525" lon="-0.4144">
        <ele>206.9</ele>
        <time>2010-12-12T10:04:06Z</time>
      </trkpt>
      <trkpt lat="43.54507" lon="-0.41421">
        <ele>208.9</ele>
        <time>2010-12-12T10:04:13Z</time>
      </trkpt>
      <trkpt lat="43.54493" lon="-0.414">
        <ele>211.3</ele>
        <time>2010-12-12T10:04:20Z</time>
      </trkpt>
      <trkpt lat="43.54478" lon="-0.41373">
        <ele>212.9</ele>
        <time>2010-12-12T10:04:27Z</time>
      </trkpt>
      <trkpt lat="43.54472" lon="-0.41353">
        <ele>213.4</ele>
        <time>2010-12-12T10:04:31Z</time>
      </trkpt>
      <trkpt lat="43.54468" lon="-0.41327">
        <ele>215</ele>
        <time>2010-12-12T10:04:36Z</time>
      </trkpt>
      <trkpt lat="43.54466" lon="-0.41302">
        <ele>215</ele>
        <time>2010-12-12T10:04:41Z</time>
      </trkpt>
      <trkpt lat="43.54464" lon="-0.41282">
        <ele>215.2</ele>
        <time>2010-12-12T10:04:45Z</time>
      </trkpt>
      <trkpt lat="43.5446" lon="-0.4126">
        <ele>216.2</ele>
        <time>2010-12-12T10:04:50Z</time>
      </trkpt>
      <trkpt lat="43.54444" lon="-0.41238">
        <ele>218.3</ele>
        <time>2010-12-12T10:04:56Z</time>
      </trkpt>
      <trkpt lat="43.54416" lon="-0.41226">
        <ele>219.2</ele>
        <time>2010-12-12T10:05:04Z</time>
      </trkpt>
      <trkpt lat="43.54389" lon="-0.41212">
        <ele>219</ele>
        <time>2010-12-12T10:05:10Z</time>
      </trkpt>
      <trkpt lat="43.54367" lon="-0.41201">
        <ele>218.8</ele>
        <time>2010-12-12T10:05:14Z</time>
      </trkpt>
      <trkpt lat="43.54348" lon="-0.41187">
        <ele>218.4</ele>
        <time>2010-12-12T10:05:19Z</time>
      </trkpt>
      <trkpt lat="43.54322" lon="-0.41169">
        <ele>219.9</ele>
        <time>2010-12-12T10:05:26Z</time>
      </trkpt>
      <trkpt lat="43.54303" lon="-0.41156">
        <ele>220.4</ele>
        <time>2010-12-12T10:05:30Z</time>
      </trkpt>
      <trkpt lat="43.54282" lon="-0.41139">
        <ele>220.8</ele>
        <time>2010-12-12T10:05:34Z</time>
      </trkpt>
      <trkpt lat="43.54268" lon="-0.4112">
        <ele>220.5</ele>
        <time>2010-12-12T10:05:38Z</time>
      </trkpt>
      <trkpt lat="43.54253" lon="-0.41102">
        <ele>219.6</ele>
        <time>2010-12-12T10:05:42Z</time>
      </trkpt>
      <trkpt lat="43.54234" lon="-0.41082">
        <ele>218.9</ele>
        <time>2010-12-12T10:05:46Z</time>
      </trkpt>
      <trkpt lat="43.54217" lon="-0.41062">
        <ele>218.6</ele>
        <time>2010-12-12T10:05:50Z</time>
      </trkpt>
      <trkpt lat="43.542" lon="-0.41042">
        <ele>218.5</ele>
        <time>2010-12-12T10:05:54Z</time>
      </trkpt>
      <trkpt lat="43.54177" lon="-0.41027">
        <ele>219.8</ele>
        <time>2010-12-12T10:06:00Z</time>
      </trkpt>
      <trkpt lat="43.54143" lon="-0.41018">
        <ele>219.5</ele>
        <time>2010-12-12T10:06:05Z</time>
      </trkpt>
      <trkpt lat="43.54113" lon="-0.41012">
        <ele>219.4</ele>
        <time>2010-12-12T10:06:09Z</time>
      </trkpt>
      <trkpt lat="43.54092" lon="-0.41001">
        <ele>220.2</ele>
        <time>2010-12-12T10:06:13Z</time>
      </trkpt>
      <trkpt lat="43.54071" lon="-0.40985">
        <ele>220.9</ele>
        <time>2010-12-12T10:06:17Z</time>
      </trkpt>
      <trkpt lat="43.54051" lon="-0.40965">
        <ele>220.4</ele>
        <time>2010-12-12T10:06:21Z</time>
      </trkpt>
      <trkpt lat="43.54033" lon="-0.40943">
        <ele>219.7</ele>
        <time>2010-12-12T10:06:25Z</time>
      </trkpt>
      <trkpt lat="43.54014" lon="-0.40919">
        <ele>219.7</ele>
        <time>2010-12-12T10:06:29Z</time>
      </trkpt>
      <trkpt lat="43.54004" lon="-0.40894">
        <ele>220.6</ele>
        <time>2010-12-12T10:06:33Z</time>
      </trkpt>
      <trkpt lat="43.53991" lon="-0.40867">
        <ele>222</ele>
        <time>2010-12-12T10:06:37Z</time>
      </trkpt>
      <trkpt lat="43.53973" lon="-0.40844">
        <ele>222.4</ele>
        <time>2010-12-12T10:06:41Z</time>
      </trkpt>
      <trkpt lat="43.53951" lon="-0.40828">
        <ele>222.7</ele>
        <time>2010-12-12T10:06:45Z</time>
      </trkpt>
      <trkpt lat="43.53926" lon="-0.40815">
        <ele>222.7</ele>
        <time>2010-12-12T10:06:49Z</time>
      </trkpt>
      <trkpt lat="43.53902" lon="-0.408">
        <ele>221.4</ele>
        <time>2010-12-12T10:06:53Z</time>
      </trkpt>
      <trkpt lat="43.53874" lon="-0.40792">
        <ele>221.3</ele>
        <time>2010-12-12T10:06:57Z</time>
      </trkpt>
      <trkpt lat="43.53851" lon="-0.40798">
        <ele>221.2</ele>
        <time>2010-12-12T10:07:01Z</time>
      </trkpt>
      <trkpt lat="43.53829" lon="-0.40815">
        <ele>221.7</ele>
        <time>2010-12-12T10:07:05Z</time>
      </trkpt>
      <trkpt lat="43.53807" lon="-0.40832">
        <ele>222.8</ele>
        <time>2010-12-12T10:07:09Z</time>
      </trkpt>
      <trkpt lat="43.53786" lon="-0.40848">
        <ele>223.6</ele>
        <time>2010-12-12T10:07:13Z</time>
      </trkpt>
      <trkpt lat="43.53767" lon="-0.40861">
        <ele>224.3</ele>
        <time>2010-12-12T10:07:17Z</time>
      </trkpt>
      <trkpt lat="43.53748" lon="-0.40875">
        <ele>225.6</ele>
        <time>2010-12-12T10:07:21Z</time>
      </trkpt>
      <trkpt lat="43.53729" lon="-0.40891">
        <ele>226.6</ele>
        <time>2010-12-12T10:07:25Z</time>
      </trkpt>
      <trkpt lat="43.5371" lon="-0.40906">
        <ele>226.1</ele>
        <time>2010-12-12T10:07:29Z</time>
      </trkpt>
      <trkpt lat="43.5369" lon="-0.4092">
        <ele>226.1</ele>
        <time>2010-12-12T10:07:33Z</time>
      </trkpt>
      <trkpt lat="43.53671" lon="-0.40934">
        <ele>225.3</ele>
        <time>2010-12-12T10:07:37Z</time>
      </trkpt>
      <trkpt lat="43.53653" lon="-0.40948">
        <ele>225.8</ele>
        <time>2010-12-12T10:07:41Z</time>
      </trkpt>
      <trkpt lat="43.53635" lon="-0.40965">
        <ele>226.1</ele>
        <time>2010-12-12T10:07:45Z</time>
      </trkpt>
      <trkpt lat="43.5362" lon="-0.40989">
        <ele>225.6</ele>
        <time>2010-12-12T10:07:49Z</time>
      </trkpt>
      <trkpt lat="43.5361" lon="-0.41018">
        <ele>226.4</ele>
        <time>2010-12-12T10:07:53Z</time>
      </trkpt>
      <trkpt lat="43.53601" lon="-0.41048">
        <ele>227.2</ele>
        <time>2010-12-12T10:07:57Z</time>
      </trkpt>
      <trkpt lat="43.53588" lon="-0.41081">
        <ele>227.3</ele>
        <time>2010-12-12T10:08:01Z</time>
      </trkpt>
      <trkpt lat="43.53577" lon="-0.4111">
        <ele>228</ele>
        <time>2010-12-12T10:08:05Z</time>
      </trkpt>
      <trkpt lat="43.53567" lon="-0.41139">
        <ele>228.7</ele>
        <time>2010-12-12T10:08:09Z</time>
      </trkpt>
      <trkpt lat="43.5356" lon="-0.41165">
        <ele>230.3</ele>
        <time>2010-12-12T10:08:14Z</time>
      </trkpt>
      <trkpt lat="43.5355" lon="-0.41168">
        <ele>231.9</ele>
        <time>2010-12-12T10:08:23Z</time>
      </trkpt>
      <trkpt lat="43.53537" lon="-0.41145">
        <ele>231.9</ele>
        <time>2010-12-12T10:08:27Z</time>
      </trkpt>
      <trkpt lat="43.53523" lon="-0.4112">
        <ele>232.1</ele>
        <time>2010-12-12T10:08:31Z</time>
      </trkpt>
      <trkpt lat="43.5351" lon="-0.41095">
        <ele>232.4</ele>
        <time>2010-12-12T10:08:35Z</time>
      </trkpt>
      <trkpt lat="43.53503" lon="-0.4107">
        <ele>231.9</ele>
        <time>2010-12-12T10:08:39Z</time>
      </trkpt>
      <trkpt lat="43.53498" lon="-0.41041">
        <ele>231</ele>
        <time>2010-12-12T10:08:43Z</time>
      </trkpt>
      <trkpt lat="43.5349" lon="-0.41018">
        <ele>231.2</ele>
        <time>2010-12-12T10:08:47Z</time>
      </trkpt>
      <trkpt lat="43.5349" lon="-0.40987">
        <ele>232.2</ele>
        <time>2010-12-12T10:08:51Z</time>
      </trkpt>
      <trkpt lat="43.53491" lon="-0.40952">
        <ele>231.5</ele>
        <time>2010-12-12T10:08:55Z</time>
      </trkpt>
      <trkpt lat="43.53492" lon="-0.40917">
        <ele>232</ele>
        <time>2010-12-12T10:08:59Z</time>
      </trkpt>
      <trkpt lat="43.53491" lon="-0.40883">
        <ele>231.8</ele>
        <time>2010-12-12T10:09:03Z</time>
      </trkpt>
      <trkpt lat="43.53486" lon="-0.40851">
        <ele>231.2</ele>
        <time>2010-12-12T10:09:07Z</time>
      </trkpt>
      <trkpt lat="43.53477" lon="-0.40819">
        <ele>231.1</ele>
        <time>2010-12-12T10:09:11Z</time>
      </trkpt>
      <trkpt lat="43.53464" lon="-0.40793">
        <ele>231</ele>
        <time>2010-12-12T10:09:15Z</time>
      </trkpt>
      <trkpt lat="43.53449" lon="-0.40767">
        <ele>231.8</ele>
        <time>2010-12-12T10:09:19Z</time>
      </trkpt>
      <trkpt lat="43.53434" lon="-0.40743">
        <ele>231.4</ele>
        <time>2010-12-12T10:09:23Z</time>
      </trkpt>
      <trkpt lat="43.53416" lon="-0.40717">
        <ele>231.5</ele>
        <time>2010-12-12T10:09:27Z</time>
      </trkpt>
      <trkpt lat="43.53399" lon="-0.40692">
        <ele>231.1</ele>
        <time>2010-12-12T10:09:31Z</time>
      </trkpt>
      <trkpt lat="43.53382" lon="-0.40666">
        <ele>231.3</ele>
        <time>2010-12-12T10:09:35Z</time>
      </trkpt>
      <trkpt lat="43.53363" lon="-0.40639">
        <ele>230.9</ele>
        <time>2010-12-12T10:09:39Z</time>
      </trkpt>
      <trkpt lat="43.53344" lon="-0.40611">
        <ele>230.8</ele>
        <time>2010-12-12T10:09:43Z</time>
      </trkpt>
      <trkpt lat="43.53328" lon="-0.40583">
        <ele>231.4</ele>
        <time>2010-12-12T10:09:47Z</time>
      </trkpt>
      <trkpt lat="43.53309" lon="-0.40555">
        <ele>231.5</ele>
        <time>2010-12-12T10:09:51Z</time>
      </trkpt>
      <trkpt lat="43.53291" lon="-0.40525">
        <ele>229.3</ele>
        <time>2010-12-12T10:09:55Z</time>
      </trkpt>
      <trkpt lat="43.53274" lon="-0.40496">
        <ele>228.5</ele>
        <time>2010-12-12T10:09:59Z</time>
      </trkpt>
      <trkpt lat="43.53253" lon="-0.40467">
        <ele>227.1</ele>
        <time>2010-12-12T10:10:03Z</time>
      </trkpt>
      <trkpt lat="43.53232" lon="-0.40439">
        <ele>226.5</ele>
        <time>2010-12-12T10:10:07Z</time>
      </trkpt>
      <trkpt lat="43.5321" lon="-0.40412">
        <ele>226.4</ele>
        <time>2010-12-12T10:10:11Z</time>
      </trkpt>
      <trkpt lat="43.53189" lon="-0.40386">
        <ele>227.4</ele>
        <time>2010-12-12T10:10:15Z</time>
      </trkpt>
      <trkpt lat="43.53167" lon="-0.4036">
        <ele>227.1</ele>
        <time>2010-12-12T10:10:19Z</time>
      </trkpt>
      <trkpt lat="43.53144" lon="-0.40333">
        <ele>226</ele>
        <time>2010-12-12T10:10:23Z</time>
      </trkpt>
      <trkpt lat="43.53122" lon="-0.40309">
        <ele>226.5</ele>
        <time>2010-12-12T10:10:27Z</time>
      </trkpt>
      <trkpt lat="43.531" lon="-0.40286">
        <ele>226.7</ele>
        <time>2010-12-12T10:10:31Z</time>
      </trkpt>
      <trkpt lat="43.53082" lon="-0.40265">
        <ele>226.4</ele>
        <time>2010-12-12T10:10:35Z</time>
      </trkpt>
      <trkpt lat="43.53063" lon="-0.40244">
        <ele>226.8</ele>
        <time>2010-12-12T10:10:39Z</time>
      </trkpt>
      <trkpt lat="43.53044" lon="-0.40224">
        <ele>227.7</ele>
        <time>2010-12-12T10:10:43Z</time>
      </trkpt>
      <trkpt lat="43.53025" lon="-0.40202">
        <ele>228.1</ele>
        <time>2010-12-12T10:10:47Z</time>
      </trkpt>
      <trkpt lat="43.53005" lon="-0.4018">
        <ele>227.7</ele>
        <time>2010-12-12T10:10:51Z</time>
      </trkpt>
      <trkpt lat="43.52986" lon="-0.40159">
        <ele>227.1</ele>
        <time>2010-12-12T10:10:55Z</time>
      </trkpt>
      <trkpt lat="43.52966" lon="-0.40136">
        <ele>228.1</ele>
        <time>2010-12-12T10:10:59Z</time>
      </trkpt>
      <trkpt lat="43.52944" lon="-0.40114">
        <ele>228.4</ele>
        <time>2010-12-12T10:11:03Z</time>
      </trkpt>
      <trkpt lat="43.52926" lon="-0.40091">
        <ele>228.4</ele>
        <time>2010-12-12T10:11:07Z</time>
      </trkpt>
      <trkpt lat="43.52906" lon="-0.40067">
        <ele>229.3</ele>
        <time>2010-12-12T10:11:11Z</time>
      </trkpt>
      <trkpt lat="43.52888" lon="-0.40043">
        <ele>229.6</ele>
        <time>2010-12-12T10:11:15Z</time>
      </trkpt>
      <trkpt lat="43.52868" lon="-0.40019">
        <ele>230.6</ele>
        <time>2010-12-12T10:11:19Z</time>
      </trkpt>
      <trkpt lat="43.52845" lon="-0.39996">
        <ele>231.2</ele>
        <time>2010-12-12T10:11:23Z</time>
      </trkpt>
      <trkpt lat="43.52822" lon="-0.39974">
        <ele>230.4</ele>
        <time>2010-12-12T10:11:27Z</time>
      </trkpt>
      <trkpt lat="43.52794" lon="-0.39953">
        <ele>229.4</ele>
        <time>2010-12-12T10:11:31Z</time>
      </trkpt>
      <trkpt lat="43.52771" lon="-0.39933">
        <ele>228.6</ele>
        <time>2010-12-12T10:11:35Z</time>
      </trkpt>
      <trkpt lat="43.52745" lon="-0.39914">
        <ele>228.3</ele>
        <time>2010-12-12T10:11:39Z</time>
      </trkpt>
      <trkpt lat="43.52722" lon="-0.39896">
        <ele>229.7</ele>
        <time>2010-12-12T10:11:44Z</time>
      </trkpt>
      <trkpt lat="43.52698" lon="-0.39879">
        <ele>230.1</ele>
        <time>2010-12-12T10:11:48Z</time>
      </trkpt>
      <trkpt lat="43.52675" lon="-0.39861">
        <ele>229.9</ele>
        <time>2010-12-12T10:11:52Z</time>
      </trkpt>
      <trkpt lat="43.52649" lon="-0.39842">
        <ele>229.2</ele>
        <time>2010-12-12T10:11:57Z</time>
      </trkpt>
      <trkpt lat="43.5262" lon="-0.39822">
        <ele>228.9</ele>
        <time>2010-12-12T10:12:01Z</time>
      </trkpt>
      <trkpt lat="43.52592" lon="-0.39803">
        <ele>229</ele>
        <time>2010-12-12T10:12:05Z</time>
      </trkpt>
      <trkpt lat="43.5257" lon="-0.39786">
        <ele>229.2</ele>
        <time>2010-12-12T10:12:09Z</time>
      </trkpt>
      <trkpt lat="43.52543" lon="-0.39773">
        <ele>228.8</ele>
        <time>2010-12-12T10:12:13Z</time>
      </trkpt>
      <trkpt lat="43.52515" lon="-0.39763">
        <ele>228.8</ele>
        <time>2010-12-12T10:12:17Z</time>
      </trkpt>
      <trkpt lat="43.52484" lon="-0.39752">
        <ele>229.5</ele>
        <time>2010-12-12T10:12:21Z</time>
      </trkpt>
      <trkpt lat="43.52457" lon="-0.3974">
        <ele>229.3</ele>
        <time>2010-12-12T10:12:25Z</time>
      </trkpt>
      <trkpt lat="43.52432" lon="-0.39727">
        <ele>229.3</ele>
        <time>2010-12-12T10:12:29Z</time>
      </trkpt>
      <trkpt lat="43.52409" lon="-0.39706">
        <ele>229.5</ele>
        <time>2010-12-12T10:12:33Z</time>
      </trkpt>
      <trkpt lat="43.52385" lon="-0.39681">
        <ele>228.9</ele>
        <time>2010-12-12T10:12:37Z</time>
      </trkpt>
      <trkpt lat="43.52363" lon="-0.39657">
        <ele>228.4</ele>
        <time>2010-12-12T10:12:41Z</time>
      </trkpt>
      <trkpt lat="43.52343" lon="-0.39634">
        <ele>227.5</ele>
        <time>2010-12-12T10:12:45Z</time>
      </trkpt>
      <trkpt lat="43.52323" lon="-0.39609">
        <ele>227.6</ele>
        <time>2010-12-12T10:12:49Z</time>
      </trkpt>
      <trkpt lat="43.52299" lon="-0.39582">
        <ele>227</ele>
        <time>2010-12-12T10:12:53Z</time>
      </trkpt>
      <trkpt lat="43.52275" lon="-0.39554">
        <ele>226.3</ele>
        <time>2010-12-12T10:12:57Z</time>
      </trkpt>
      <trkpt lat="43.52258" lon="-0.39525">
        <ele>226</ele>
        <time>2010-12-12T10:13:01Z</time>
      </trkpt>
      <trkpt lat="43.52245" lon="-0.39496">
        <ele>226.8</ele>
        <time>2010-12-12T10:13:05Z</time>
      </trkpt>
      <trkpt lat="43.52232" lon="-0.39466">
        <ele>227.4</ele>
        <time>2010-12-12T10:13:09Z</time>
      </trkpt>
      <trkpt lat="43.52217" lon="-0.39434">
        <ele>227.1</ele>
        <time>2010-12-12T10:13:13Z</time>
      </trkpt>
      <trkpt lat="43.52201" lon="-0.39401">
        <ele>224.9</ele>
        <time>2010-12-12T10:13:17Z</time>
      </trkpt>
      <trkpt lat="43.52185" lon="-0.39369">
        <ele>223.1</ele>
        <time>2010-12-12T10:13:21Z</time>
      </trkpt>
      <trkpt lat="43.5217" lon="-0.39339">
        <ele>221.4</ele>
        <time>2010-12-12T10:13:25Z</time>
      </trkpt>
      <trkpt lat="43.52154" lon="-0.39309">
        <ele>221.6</ele>
        <time>2010-12-12T10:13:29Z</time>
      </trkpt>
      <trkpt lat="43.52139" lon="-0.3928">
        <ele>222.1</ele>
        <time>2010-12-12T10:13:33Z</time>
      </trkpt>
      <trkpt lat="43.52123" lon="-0.39253">
        <ele>222.7</ele>
        <time>2010-12-12T10:13:37Z</time>
      </trkpt>
      <trkpt lat="43.52108" lon="-0.39226">
        <ele>223.8</ele>
        <time>2010-12-12T10:13:41Z</time>
      </trkpt>
      <trkpt lat="43.52093" lon="-0.39199">
        <ele>224.9</ele>
        <time>2010-12-12T10:13:45Z</time>
      </trkpt>
      <trkpt lat="43.52074" lon="-0.39175">
        <ele>225.8</ele>
        <time>2010-12-12T10:13:49Z</time>
      </trkpt>
      <trkpt lat="43.52054" lon="-0.39151">
        <ele>226.7</ele>
        <time>2010-12-12T10:13:53Z</time>
      </trkpt>
      <trkpt lat="43.5203" lon="-0.39128">
        <ele>226.6</ele>
        <time>2010-12-12T10:13:57Z</time>
      </trkpt>
      <trkpt lat="43.52004" lon="-0.39103">
        <ele>224.9</ele>
        <time>2010-12-12T10:14:01Z</time>
      </trkpt>
      <trkpt lat="43.5198" lon="-0.39078">
        <ele>225.6</ele>
        <time>2010-12-12T10:14:05Z</time>
      </trkpt>
      <trkpt lat="43.51958" lon="-0.39059">
        <ele>226.3</ele>
        <time>2010-12-12T10:14:09Z</time>
      </trkpt>
      <trkpt lat="43.51937" lon="-0.39045">
        <ele>227.1</ele>
        <time>2010-12-12T10:14:13Z</time>
      </trkpt>
      <trkpt lat="43.51914" lon="-0.39034">
        <ele>228.6</ele>
        <time>2010-12-12T10:14:17Z</time>
      </trkpt>
      <trkpt lat="43.51892" lon="-0.39024">
        <ele>229</ele>
        <time>2010-12-12T10:14:21Z</time>
      </trkpt>
      <trkpt lat="43.51864" lon="-0.39011">
        <ele>228.8</ele>
        <time>2010-12-12T10:14:25Z</time>
      </trkpt>
      <trkpt lat="43.51836" lon="-0.38994">
        <ele>228.5</ele>
        <time>2010-12-12T10:14:29Z</time>
      </trkpt>
      <trkpt lat="43.51811" lon="-0.38972">
        <ele>228.9</ele>
        <time>2010-12-12T10:14:33Z</time>
      </trkpt>
      <trkpt lat="43.5179" lon="-0.3895">
        <ele>228.3</ele>
        <time>2010-12-12T10:14:37Z</time>
      </trkpt>
      <trkpt lat="43.5177" lon="-0.38932">
        <ele>228.1</ele>
        <time>2010-12-12T10:14:41Z</time>
      </trkpt>
      <trkpt lat="43.51749" lon="-0.38913">
        <ele>228.3</ele>
        <time>2010-12-12T10:14:45Z</time>
      </trkpt>
      <trkpt lat="43.51728" lon="-0.38897">
        <ele>228.8</ele>
        <time>2010-12-12T10:14:49Z</time>
      </trkpt>
      <trkpt lat="43.51703" lon="-0.38886">
        <ele>230.2</ele>
        <time>2010-12-12T10:14:53Z</time>
      </trkpt>
      <trkpt lat="43.51675" lon="-0.38874">
        <ele>229.9</ele>
        <time>2010-12-12T10:14:57Z</time>
      </trkpt>
      <trkpt lat="43.51649" lon="-0.38864">
        <ele>229.3</ele>
        <time>2010-12-12T10:15:01Z</time>
      </trkpt>
      <trkpt lat="43.5162" lon="-0.38848">
        <ele>229</ele>
        <time>2010-12-12T10:15:05Z</time>
      </trkpt>
      <trkpt lat="43.51592" lon="-0.38829">
        <ele>228.7</ele>
        <time>2010-12-12T10:15:09Z</time>
      </trkpt>
      <trkpt lat="43.51566" lon="-0.3881">
        <ele>227.6</ele>
        <time>2010-12-12T10:15:13Z</time>
      </trkpt>
      <trkpt lat="43.51539" lon="-0.38791">
        <ele>226.1</ele>
        <time>2010-12-12T10:15:17Z</time>
      </trkpt>
      <trkpt lat="43.51515" lon="-0.38774">
        <ele>225.7</ele>
        <time>2010-12-12T10:15:21Z</time>
      </trkpt>
      <trkpt lat="43.51491" lon="-0.38756">
        <ele>224.6</ele>
        <time>2010-12-12T10:15:25Z</time>
      </trkpt>
      <trkpt lat="43.51466" lon="-0.3874">
        <ele>223.3</ele>
        <time>2010-12-12T10:15:29Z</time>
      </trkpt>
      <trkpt lat="43.5144" lon="-0.38728">
        <ele>223.4</ele>
        <time>2010-12-12T10:15:33Z</time>
      </trkpt>
      <trkpt lat="43.51412" lon="-0.38717">
        <ele>223.6</ele>
        <time>2010-12-12T10:15:37Z</time>
      </trkpt>
      <trkpt lat="43.51384" lon="-0.38708">
        <ele>224.6</ele>
        <time>2010-12-12T10:15:41Z</time>
      </trkpt>
      <trkpt lat="43.51356" lon="-0.38702">
        <ele>226.1</ele>
        <time>2010-12-12T10:15:45Z</time>
      </trkpt>
      <trkpt lat="43.51332" lon="-0.38699">
        <ele>226.9</ele>
        <time>2010-12-12T10:15:49Z</time>
      </trkpt>
      <trkpt lat="43.51307" lon="-0.387">
        <ele>227.1</ele>
        <time>2010-12-12T10:15:53Z</time>
      </trkpt>
      <trkpt lat="43.51285" lon="-0.38703">
        <ele>227.7</ele>
        <time>2010-12-12T10:15:57Z</time>
      </trkpt>
      <trkpt lat="43.51263" lon="-0.38707">
        <ele>228.5</ele>
        <time>2010-12-12T10:16:01Z</time>
      </trkpt>
      <trkpt lat="43.51242" lon="-0.3871">
        <ele>228.3</ele>
        <time>2010-12-12T10:16:05Z</time>
      </trkpt>
      <trkpt lat="43.5122" lon="-0.38713">
        <ele>228.9</ele>
        <time>2010-12-12T10:16:09Z</time>
      </trkpt>
      <trkpt lat="43.51195" lon="-0.38714">
        <ele>231.2</ele>
        <time>2010-12-12T10:16:15Z</time>
      </trkpt>
      <trkpt lat="43.51175" lon="-0.38713">
        <ele>231.7</ele>
        <time>2010-12-12T10:16:19Z</time>
      </trkpt>
      <trkpt lat="43.51152" lon="-0.38709">
        <ele>232.6</ele>
        <time>2010-12-12T10:16:23Z</time>
      </trkpt>
      <trkpt lat="43.51128" lon="-0.38704">
        <ele>232.3</ele>
        <time>2010-12-12T10:16:27Z</time>
      </trkpt>
      <trkpt lat="43.51102" lon="-0.38699">
        <ele>230.3</ele>
        <time>2010-12-12T10:16:31Z</time>
      </trkpt>
      <trkpt lat="43.51074" lon="-0.38694">
        <ele>228.2</ele>
        <time>2010-12-12T10:16:35Z</time>
      </trkpt>
      <trkpt lat="43.51048" lon="-0.38686">
        <ele>228.9</ele>
        <time>2010-12-12T10:16:39Z</time>
      </trkpt>
      <trkpt lat="43.51022" lon="-0.38672">
        <ele>230.6</ele>
        <time>2010-12-12T10:16:43Z</time>
      </trkpt>
      <trkpt lat="43.50999" lon="-0.38654">
        <ele>230.6</ele>
        <time>2010-12-12T10:16:47Z</time>
      </trkpt>
      <trkpt lat="43.50976" lon="-0.38635">
        <ele>230.4</ele>
        <time>2010-12-12T10:16:51Z</time>
      </trkpt>
      <trkpt lat="43.50958" lon="-0.38617">
        <ele>230.8</ele>
        <time>2010-12-12T10:16:55Z</time>
      </trkpt>
      <trkpt lat="43.50936" lon="-0.38598">
        <ele>231.9</ele>
        <time>2010-12-12T10:16:59Z</time>
      </trkpt>
      <trkpt lat="43.50911" lon="-0.38581">
        <ele>232.2</ele>
        <time>2010-12-12T10:17:03Z</time>
      </trkpt>
      <trkpt lat="43.50884" lon="-0.38563">
        <ele>231.7</ele>
        <time>2010-12-12T10:17:07Z</time>
      </trkpt>
      <trkpt lat="43.50856" lon="-0.38545">
        <ele>230.5</ele>
        <time>2010-12-12T10:17:11Z</time>
      </trkpt>
      <trkpt lat="43.50832" lon="-0.38521">
        <ele>230.3</ele>
        <time>2010-12-12T10:17:15Z</time>
      </trkpt>
      <trkpt lat="43.50815" lon="-0.38496">
        <ele>231.3</ele>
        <time>2010-12-12T10:17:19Z</time>
      </trkpt>
      <trkpt lat="43.50798" lon="-0.38471">
        <ele>231.8</ele>
        <time>2010-12-12T10:17:23Z</time>
      </trkpt>
      <trkpt lat="43.5079" lon="-0.38442">
        <ele>231.2</ele>
        <time>2010-12-12T10:17:27Z</time>
      </trkpt>
      <trkpt lat="43.50784" lon="-0.38413">
        <ele>231.4</ele>
        <time>2010-12-12T10:17:31Z</time>
      </trkpt>
      <trkpt lat="43.50779" lon="-0.38379">
        <ele>232.4</ele>
        <time>2010-12-12T10:17:35Z</time>
      </trkpt>
      <trkpt lat="43.50772" lon="-0.38347">
        <ele>233.3</ele>
        <time>2010-12-12T10:17:39Z</time>
      </trkpt>
      <trkpt lat="43.5076" lon="-0.38318">
        <ele>233</ele>
        <time>2010-12-12T10:17:43Z</time>
      </trkpt>
      <trkpt lat="43.50748" lon="-0.38292">
        <ele>233.6</ele>
        <time>2010-12-12T10:17:47Z</time>
      </trkpt>
      <trkpt lat="43.50733" lon="-0.38269">
        <ele>235.3</ele>
        <time>2010-12-12T10:17:51Z</time>
      </trkpt>
      <trkpt lat="43.50714" lon="-0.38248">
        <ele>236.4</ele>
        <time>2010-12-12T10:17:55Z</time>
      </trkpt>
      <trkpt lat="43.50694" lon="-0.38233">
        <ele>237.4</ele>
        <time>2010-12-12T10:17:59Z</time>
      </trkpt>
      <trkpt lat="43.50672" lon="-0.3822">
        <ele>238.5</ele>
        <time>2010-12-12T10:18:03Z</time>
      </trkpt>
      <trkpt lat="43.50647" lon="-0.38207">
        <ele>238.6</ele>
        <time>2010-12-12T10:18:07Z</time>
      </trkpt>
      <trkpt lat="43.50624" lon="-0.3819">
        <ele>237.4</ele>
        <time>2010-12-12T10:18:11Z</time>
      </trkpt>
      <trkpt lat="43.50602" lon="-0.38161">
        <ele>237.1</ele>
        <time>2010-12-12T10:18:15Z</time>
      </trkpt>
      <trkpt lat="43.50577" lon="-0.38129">
        <ele>234.9</ele>
        <time>2010-12-12T10:18:19Z</time>
      </trkpt>
      <trkpt lat="43.50551" lon="-0.3809">
        <ele>230.7</ele>
        <time>2010-12-12T10:18:23Z</time>
      </trkpt>
      <trkpt lat="43.50539" lon="-0.38041">
        <ele>228.4</ele>
        <time>2010-12-12T10:18:27Z</time>
      </trkpt>
      <trkpt lat="43.50535" lon="-0.37996">
        <ele>226.1</ele>
        <time>2010-12-12T10:18:31Z</time>
      </trkpt>
      <trkpt lat="43.50533" lon="-0.3796">
        <ele>225</ele>
        <time>2010-12-12T10:18:35Z</time>
      </trkpt>
      <trkpt lat="43.5053" lon="-0.37932">
        <ele>225.6</ele>
        <time>2010-12-12T10:18:39Z</time>
      </trkpt>
      <trkpt lat="43.50527" lon="-0.37907">
        <ele>227.3</ele>
        <time>2010-12-12T10:18:43Z</time>
      </trkpt>
      <trkpt lat="43.50527" lon="-0.3788">
        <ele>228.6</ele>
        <time>2010-12-12T10:18:47Z</time>
      </trkpt>
      <trkpt lat="43.50525" lon="-0.37855">
        <ele>229.4</ele>
        <time>2010-12-12T10:18:51Z</time>
      </trkpt>
      <trkpt lat="43.50522" lon="-0.37832">
        <ele>229.9</ele>
        <time>2010-12-12T10:18:55Z</time>
      </trkpt>
      <trkpt lat="43.50517" lon="-0.37811">
        <ele>231.2</ele>
        <time>2010-12-12T10:18:59Z</time>
      </trkpt>
      <trkpt lat="43.5051" lon="-0.3779">
        <ele>231.8</ele>
        <time>2010-12-12T10:19:03Z</time>
      </trkpt>
      <trkpt lat="43.50504" lon="-0.37767">
        <ele>233.6</ele>
        <time>2010-12-12T10:19:07Z</time>
      </trkpt>
      <trkpt lat="43.50498" lon="-0.37744">
        <ele>234.7</ele>
        <time>2010-12-12T10:19:11Z</time>
      </trkpt>
      <trkpt lat="43.50489" lon="-0.37723">
        <ele>235.7</ele>
        <time>2010-12-12T10:19:15Z</time>
      </trkpt>
      <trkpt lat="43.5048" lon="-0.37703">
        <ele>236.7</ele>
        <time>2010-12-12T10:19:19Z</time>
      </trkpt>
      <trkpt lat="43.50468" lon="-0.37682">
        <ele>237.2</ele>
        <time>2010-12-12T10:19:23Z</time>
      </trkpt>
      <trkpt lat="43.50454" lon="-0.37662">
        <ele>237.4</ele>
        <time>2010-12-12T10:19:27Z</time>
      </trkpt>
      <trkpt lat="43.50435" lon="-0.37642">
        <ele>237.3</ele>
        <time>2010-12-12T10:19:31Z</time>
      </trkpt>
      <trkpt lat="43.50412" lon="-0.37617">
        <ele>236.4</ele>
        <time>2010-12-12T10:19:35Z</time>
      </trkpt>
      <trkpt lat="43.50387" lon="-0.37587">
        <ele>234.4</ele>
        <time>2010-12-12T10:19:39Z</time>
      </trkpt>
      <trkpt lat="43.50354" lon="-0.37556">
        <ele>232.6</ele>
        <time>2010-12-12T10:19:43Z</time>
      </trkpt>
      <trkpt lat="43.50318" lon="-0.37524">
        <ele>231.3</ele>
        <time>2010-12-12T10:19:47Z</time>
      </trkpt>
      <trkpt lat="43.50286" lon="-0.375">
        <ele>230.1</ele>
        <time>2010-12-12T10:19:51Z</time>
      </trkpt>
      <trkpt lat="43.50261" lon="-0.37482">
        <ele>229</ele>
        <time>2010-12-12T10:19:55Z</time>
      </trkpt>
      <trkpt lat="43.50239" lon="-0.37466">
        <ele>228.7</ele>
        <time>2010-12-12T10:19:59Z</time>
      </trkpt>
      <trkpt lat="43.50222" lon="-0.37452">
        <ele>230.2</ele>
        <time>2010-12-12T10:20:03Z</time>
      </trkpt>
      <trkpt lat="43.50205" lon="-0.37438">
        <ele>229.9</ele>
        <time>2010-12-12T10:20:07Z</time>
      </trkpt>
      <trkpt lat="43.50184" lon="-0.37422">
        <ele>230.2</ele>
        <time>2010-12-12T10:20:12Z</time>
      </trkpt>
      <trkpt lat="43.50168" lon="-0.37407">
        <ele>231.9</ele>
        <time>2010-12-12T10:20:17Z</time>
      </trkpt>
      <trkpt lat="43.50149" lon="-0.37395">
        <ele>232.9</ele>
        <time>2010-12-12T10:20:21Z</time>
      </trkpt>
      <trkpt lat="43.50129" lon="-0.37379">
        <ele>235.1</ele>
        <time>2010-12-12T10:20:27Z</time>
      </trkpt>
      <trkpt lat="43.5011" lon="-0.37367">
        <ele>236</ele>
        <time>2010-12-12T10:20:31Z</time>
      </trkpt>
      <trkpt lat="43.50094" lon="-0.37355">
        <ele>236.1</ele>
        <time>2010-12-12T10:20:35Z</time>
      </trkpt>
      <trkpt lat="43.50077" lon="-0.37343">
        <ele>237</ele>
        <time>2010-12-12T10:20:39Z</time>
      </trkpt>
      <trkpt lat="43.50062" lon="-0.37329">
        <ele>237.4</ele>
        <time>2010-12-12T10:20:43Z</time>
      </trkpt>
      <trkpt lat="43.50045" lon="-0.37311">
        <ele>237.9</ele>
        <time>2010-12-12T10:20:47Z</time>
      </trkpt>
      <trkpt lat="43.50023" lon="-0.37291">
        <ele>238.2</ele>
        <time>2010-12-12T10:20:51Z</time>
      </trkpt>
      <trkpt lat="43.49999" lon="-0.37263">
        <ele>237.6</ele>
        <time>2010-12-12T10:20:55Z</time>
      </trkpt>
      <trkpt lat="43.49971" lon="-0.37231">
        <ele>237.4</ele>
        <time>2010-12-12T10:20:59Z</time>
      </trkpt>
      <trkpt lat="43.49944" lon="-0.37194">
        <ele>236.6</ele>
        <time>2010-12-12T10:21:03Z</time>
      </trkpt>
      <trkpt lat="43.4992" lon="-0.37157">
        <ele>234.9</ele>
        <time>2010-12-12T10:21:07Z</time>
      </trkpt>
      <trkpt lat="43.49899" lon="-0.37125">
        <ele>234.8</ele>
        <time>2010-12-12T10:21:11Z</time>
      </trkpt>
      <trkpt lat="43.49877" lon="-0.371">
        <ele>234.2</ele>
        <time>2010-12-12T10:21:15Z</time>
      </trkpt>
      <trkpt lat="43.49851" lon="-0.37082">
        <ele>232.4</ele>
        <time>2010-12-12T10:21:19Z</time>
      </trkpt>
      <trkpt lat="43.49818" lon="-0.37065">
        <ele>231</ele>
        <time>2010-12-12T10:21:23Z</time>
      </trkpt>
      <trkpt lat="43.49779" lon="-0.37044">
        <ele>229.6</ele>
        <time>2010-12-12T10:21:27Z</time>
      </trkpt>
      <trkpt lat="43.49741" lon="-0.37018">
        <ele>228.2</ele>
        <time>2010-12-12T10:21:31Z</time>
      </trkpt>
      <trkpt lat="43.49712" lon="-0.36988">
        <ele>227.5</ele>
        <time>2010-12-12T10:21:35Z</time>
      </trkpt>
      <trkpt lat="43.49693" lon="-0.36959">
        <ele>226.1</ele>
        <time>2010-12-12T10:21:39Z</time>
      </trkpt>
      <trkpt lat="43.4968" lon="-0.3693">
        <ele>226.4</ele>
        <time>2010-12-12T10:21:43Z</time>
      </trkpt>
      <trkpt lat="43.49668" lon="-0.36898">
        <ele>226.4</ele>
        <time>2010-12-12T10:21:47Z</time>
      </trkpt>
      <trkpt lat="43.49655" lon="-0.36866">
        <ele>225.7</ele>
        <time>2010-12-12T10:21:51Z</time>
      </trkpt>
      <trkpt lat="43.49641" lon="-0.36837">
        <ele>225.7</ele>
        <time>2010-12-12T10:21:55Z</time>
      </trkpt>
      <trkpt lat="43.4962" lon="-0.36812">
        <ele>226.4</ele>
        <time>2010-12-12T10:21:59Z</time>
      </trkpt>
      <trkpt lat="43.49593" lon="-0.36799">
        <ele>225.4</ele>
        <time>2010-12-12T10:22:03Z</time>
      </trkpt>
      <trkpt lat="43.49566" lon="-0.36807">
        <ele>225.3</ele>
        <time>2010-12-12T10:22:07Z</time>
      </trkpt>
      <trkpt lat="43.49543" lon="-0.36827">
        <ele>226.4</ele>
        <time>2010-12-12T10:22:11Z</time>
      </trkpt>
      <trkpt lat="43.49523" lon="-0.36846">
        <ele>226.8</ele>
        <time>2010-12-12T10:22:15Z</time>
      </trkpt>
      <trkpt lat="43.49502" lon="-0.36864">
        <ele>227.3</ele>
        <time>2010-12-12T10:22:19Z</time>
      </trkpt>
      <trkpt lat="43.49481" lon="-0.3688">
        <ele>227.5</ele>
        <time>2010-12-12T10:22:23Z</time>
      </trkpt>
      <trkpt lat="43.4946" lon="-0.36886">
        <ele>227.6</ele>
        <time>2010-12-12T10:22:27Z</time>
      </trkpt>
      <trkpt lat="43.49439" lon="-0.36885">
        <ele>227.7</ele>
        <time>2010-12-12T10:22:31Z</time>
      </trkpt>
      <trkpt lat="43.49419" lon="-0.36875">
        <ele>226.6</ele>
        <time>2010-12-12T10:22:35Z</time>
      </trkpt>
      <trkpt lat="43.49404" lon="-0.36853">
        <ele>227.4</ele>
        <time>2010-12-12T10:22:39Z</time>
      </trkpt>
      <trkpt lat="43.49392" lon="-0.36824">
        <ele>228.4</ele>
        <time>2010-12-12T10:22:43Z</time>
      </trkpt>
      <trkpt lat="43.49381" lon="-0.36792">
        <ele>228.2</ele>
        <time>2010-12-12T10:22:47Z</time>
      </trkpt>
      <trkpt lat="43.49366" lon="-0.36763">
        <ele>227.9</ele>
        <time>2010-12-12T10:22:51Z</time>
      </trkpt>
      <trkpt lat="43.49344" lon="-0.36747">
        <ele>228.3</ele>
        <time>2010-12-12T10:22:55Z</time>
      </trkpt>
      <trkpt lat="43.49322" lon="-0.36735">
        <ele>228.9</ele>
        <time>2010-12-12T10:23:00Z</time>
      </trkpt>
      <trkpt lat="43.49304" lon="-0.36721">
        <ele>229.2</ele>
        <time>2010-12-12T10:23:04Z</time>
      </trkpt>
      <trkpt lat="43.4929" lon="-0.36703">
        <ele>230.3</ele>
        <time>2010-12-12T10:23:08Z</time>
      </trkpt>
      <trkpt lat="43.49276" lon="-0.36683">
        <ele>231.8</ele>
        <time>2010-12-12T10:23:12Z</time>
      </trkpt>
      <trkpt lat="43.49263" lon="-0.36656">
        <ele>232.4</ele>
        <time>2010-12-12T10:23:16Z</time>
      </trkpt>
      <trkpt lat="43.49253" lon="-0.36625">
        <ele>232.3</ele>
        <time>2010-12-12T10:23:20Z</time>
      </trkpt>
      <trkpt lat="43.49239" lon="-0.36586">
        <ele>229.9</ele>
        <time>2010-12-12T10:23:24Z</time>
      </trkpt>
      <trkpt lat="43.49223" lon="-0.36543">
        <ele>229.8</ele>
        <time>2010-12-12T10:23:28Z</time>
      </trkpt>
      <trkpt lat="43.49206" lon="-0.36504">
        <ele>230.4</ele>
        <time>2010-12-12T10:23:32Z</time>
      </trkpt>
      <trkpt lat="43.49189" lon="-0.36471">
        <ele>230.1</ele>
        <time>2010-12-12T10:23:36Z</time>
      </trkpt>
      <trkpt lat="43.49175" lon="-0.36446">
        <ele>229.3</ele>
        <time>2010-12-12T10:23:40Z</time>
      </trkpt>
      <trkpt lat="43.49162" lon="-0.36423">
        <ele>229.3</ele>
        <time>2010-12-12T10:23:44Z</time>
      </trkpt>
      <trkpt lat="43.49152" lon="-0.364">
        <ele>230.1</ele>
        <time>2010-12-12T10:23:48Z</time>
      </trkpt>
      <trkpt lat="43.49139" lon="-0.36379">
        <ele>231.7</ele>
        <time>2010-12-12T10:23:52Z</time>
      </trkpt>
      <trkpt lat="43.49125" lon="-0.36359">
        <ele>232.9</ele>
        <time>2010-12-12T10:23:56Z</time>
      </trkpt>
      <trkpt lat="43.49111" lon="-0.36339">
        <ele>233.4</ele>
        <time>2010-12-12T10:24:00Z</time>
      </trkpt>
      <trkpt lat="43.49097" lon="-0.36318">
        <ele>234.2</ele>
        <time>2010-12-12T10:24:04Z</time>
      </trkpt>
      <trkpt lat="43.49083" lon="-0.36295">
        <ele>234.6</ele>
        <time>2010-12-12T10:24:08Z</time>
      </trkpt>
      <trkpt lat="43.49063" lon="-0.36271">
        <ele>234.2</ele>
        <time>2010-12-12T10:24:12Z</time>
      </trkpt>
      <trkpt lat="43.49037" lon="-0.36249">
        <ele>234.3</ele>
        <time>2010-12-12T10:24:16Z</time>
      </trkpt>
      <trkpt lat="43.49008" lon="-0.36235">
        <ele>232.6</ele>
        <time>2010-12-12T10:24:20Z</time>
      </trkpt>
      <trkpt lat="43.48976" lon="-0.36221">
        <ele>231.3</ele>
        <time>2010-12-12T10:24:24Z</time>
      </trkpt>
      <trkpt lat="43.48944" lon="-0.36205">
        <ele>230.8</ele>
        <time>2010-12-12T10:24:28Z</time>
      </trkpt>
      <trkpt lat="43.48915" lon="-0.36183">
        <ele>231.2</ele>
        <time>2010-12-12T10:24:32Z</time>
      </trkpt>
      <trkpt lat="43.48888" lon="-0.36159">
        <ele>231</ele>
        <time>2010-12-12T10:24:36Z</time>
      </trkpt>
      <trkpt lat="43.48864" lon="-0.36139">
        <ele>230.6</ele>
        <time>2010-12-12T10:24:40Z</time>
      </trkpt>
      <trkpt lat="43.48843" lon="-0.36118">
        <ele>231.7</ele>
        <time>2010-12-12T10:24:44Z</time>
      </trkpt>
      <trkpt lat="43.4882" lon="-0.36099">
        <ele>232.2</ele>
        <time>2010-12-12T10:24:48Z</time>
      </trkpt>
      <trkpt lat="43.488" lon="-0.3608">
        <ele>233</ele>
        <time>2010-12-12T10:24:52Z</time>
      </trkpt>
      <trkpt lat="43.48781" lon="-0.36059">
        <ele>234.3</ele>
        <time>2010-12-12T10:24:56Z</time>
      </trkpt>
      <trkpt lat="43.4876" lon="-0.36036">
        <ele>234.7</ele>
        <time>2010-12-12T10:25:00Z</time>
      </trkpt>
      <trkpt lat="43.48737" lon="-0.36006">
        <ele>235.2</ele>
        <time>2010-12-12T10:25:04Z</time>
      </trkpt>
      <trkpt lat="43.48708" lon="-0.35976">
        <ele>233.4</ele>
        <time>2010-12-12T10:25:08Z</time>
      </trkpt>
      <trkpt lat="43.48678" lon="-0.35944">
        <ele>231.2</ele>
        <time>2010-12-12T10:25:12Z</time>
      </trkpt>
      <trkpt lat="43.48646" lon="-0.35915">
        <ele>230.4</ele>
        <time>2010-12-12T10:25:16Z</time>
      </trkpt>
      <trkpt lat="43.48615" lon="-0.35889">
        <ele>229.4</ele>
        <time>2010-12-12T10:25:20Z</time>
      </trkpt>
      <trkpt lat="43.48587" lon="-0.35864">
        <ele>228.9</ele>
        <time>2010-12-12T10:25:24Z</time>
      </trkpt>
      <trkpt lat="43.48562" lon="-0.3584">
        <ele>228.4</ele>
        <time>2010-12-12T10:25:28Z</time>
      </trkpt>
      <trkpt lat="43.48542" lon="-0.35816">
        <ele>227.2</ele>
        <time>2010-12-12T10:25:32Z</time>
      </trkpt>
      <trkpt lat="43.48521" lon="-0.3579">
        <ele>225.9</ele>
        <time>2010-12-12T10:25:36Z</time>
      </trkpt>
      <trkpt lat="43.48505" lon="-0.35762">
        <ele>226.1</ele>
        <time>2010-12-12T10:25:40Z</time>
      </trkpt>
      <trkpt lat="43.48487" lon="-0.35735">
        <ele>226</ele>
        <time>2010-12-12T10:25:44Z</time>
      </trkpt>
      <trkpt lat="43.4847" lon="-0.35709">
        <ele>225.8</ele>
        <time>2010-12-12T10:25:48Z</time>
      </trkpt>
      <trkpt lat="43.48454" lon="-0.35684">
        <ele>226.1</ele>
        <time>2010-12-12T10:25:52Z</time>
      </trkpt>
      <trkpt lat="43.4844" lon="-0.3566">
        <ele>227.1</ele>
        <time>2010-12-12T10:25:56Z</time>
      </trkpt>
      <trkpt lat="43.48427" lon="-0.35638">
        <ele>228.4</ele>
        <time>2010-12-12T10:26:00Z</time>
      </trkpt>
      <trkpt lat="43.48412" lon="-0.35614">
        <ele>228.9</ele>
        <time>2010-12-12T10:26:04Z</time>
      </trkpt>
      <trkpt lat="43.48398" lon="-0.35593">
        <ele>230.9</ele>
        <time>2010-12-12T10:26:08Z</time>
      </trkpt>
      <trkpt lat="43.48384" lon="-0.35572">
        <ele>231.2</ele>
        <time>2010-12-12T10:26:12Z</time>
      </trkpt>
      <trkpt lat="43.48369" lon="-0.3555">
        <ele>231.4</ele>
        <time>2010-12-12T10:26:16Z</time>
      </trkpt>
      <trkpt lat="43.48354" lon="-0.35527">
        <ele>232.6</ele>
        <time>2010-12-12T10:26:20Z</time>
      </trkpt>
      <trkpt lat="43.48339" lon="-0.35506">
        <ele>233.9</ele>
        <time>2010-12-12T10:26:24Z</time>
      </trkpt>
      <trkpt lat="43.48324" lon="-0.35486">
        <ele>234.6</ele>
        <time>2010-12-12T10:26:28Z</time>
      </trkpt>
      <trkpt lat="43.48306" lon="-0.35466">
        <ele>234</ele>
        <time>2010-12-12T10:26:32Z</time>
      </trkpt>
      <trkpt lat="43.4829" lon="-0.35447">
        <ele>233.9</ele>
        <time>2010-12-12T10:26:36Z</time>
      </trkpt>
      <trkpt lat="43.48274" lon="-0.35429">
        <ele>233.5</ele>
        <time>2010-12-12T10:26:40Z</time>
      </trkpt>
      <trkpt lat="43.48259" lon="-0.35411">
        <ele>232.9</ele>
        <time>2010-12-12T10:26:44Z</time>
      </trkpt>
      <trkpt lat="43.48243" lon="-0.35393">
        <ele>234.1</ele>
        <time>2010-12-12T10:26:48Z</time>
      </trkpt>
      <trkpt lat="43.48229" lon="-0.35375">
        <ele>234.5</ele>
        <time>2010-12-12T10:26:52Z</time>
      </trkpt>
      <trkpt lat="43.48214" lon="-0.35357">
        <ele>234.4</ele>
        <time>2010-12-12T10:26:56Z</time>
      </trkpt>
      <trkpt lat="43.48197" lon="-0.35341">
        <ele>234.8</ele>
        <time>2010-12-12T10:27:00Z</time>
      </trkpt>
      <trkpt lat="43.48182" lon="-0.35324">
        <ele>237</ele>
        <time>2010-12-12T10:27:04Z</time>
      </trkpt>
      <trkpt lat="43.48164" lon="-0.35309">
        <ele>239.4</ele>
        <time>2010-12-12T10:27:08Z</time>
      </trkpt>
      <trkpt lat="43.48146" lon="-0.35295">
        <ele>240.1</ele>
        <time>2010-12-12T10:27:12Z</time>
      </trkpt>
      <trkpt lat="43.48129" lon="-0.3528">
        <ele>240.8</ele>
        <time>2010-12-12T10:27:16Z</time>
      </trkpt>
      <trkpt lat="43.48111" lon="-0.35265">
        <ele>241.6</ele>
        <time>2010-12-12T10:27:20Z</time>
      </trkpt>
      <trkpt lat="43.48092" lon="-0.35253">
        <ele>241.3</ele>
        <time>2010-12-12T10:27:24Z</time>
      </trkpt>
      <trkpt lat="43.48071" lon="-0.35242">
        <ele>242</ele>
        <time>2010-12-12T10:27:28Z</time>
      </trkpt>
      <trkpt lat="43.48051" lon="-0.35227">
        <ele>243.3</ele>
        <time>2010-12-12T10:27:32Z</time>
      </trkpt>
      <trkpt lat="43.4803" lon="-0.35204">
        <ele>243.4</ele>
        <time>2010-12-12T10:27:36Z</time>
      </trkpt>
      <trkpt lat="43.48006" lon="-0.35169">
        <ele>243.4</ele>
        <time>2010-12-12T10:27:40Z</time>
      </trkpt>
      <trkpt lat="43.47982" lon="-0.3513">
        <ele>242</ele>
        <time>2010-12-12T10:27:44Z</time>
      </trkpt>
      <trkpt lat="43.47963" lon="-0.35095">
        <ele>240.5</ele>
        <time>2010-12-12T10:27:48Z</time>
      </trkpt>
      <trkpt lat="43.47944" lon="-0.35068">
        <ele>239.4</ele>
        <time>2010-12-12T10:27:52Z</time>
      </trkpt>
      <trkpt lat="43.47922" lon="-0.35048">
        <ele>239.6</ele>
        <time>2010-12-12T10:27:56Z</time>
      </trkpt>
      <trkpt lat="43.47898" lon="-0.35033">
        <ele>239.1</ele>
        <time>2010-12-12T10:28:00Z</time>
      </trkpt>
      <trkpt lat="43.47878" lon="-0.35019">
        <ele>240</ele>
        <time>2010-12-12T10:28:04Z</time>
      </trkpt>
      <trkpt lat="43.47858" lon="-0.35007">
        <ele>240.2</ele>
        <time>2010-12-12T10:28:08Z</time>
      </trkpt>
      <trkpt lat="43.4784" lon="-0.34994">
        <ele>240.7</ele>
        <time>2010-12-12T10:28:12Z</time>
      </trkpt>
      <trkpt lat="43.47821" lon="-0.34985">
        <ele>241.3</ele>
        <time>2010-12-12T10:28:16Z</time>
      </trkpt>
      <trkpt lat="43.47799" lon="-0.34976">
        <ele>242.1</ele>
        <time>2010-12-12T10:28:20Z</time>
      </trkpt>
      <trkpt lat="43.47772" lon="-0.34965">
        <ele>243.3</ele>
        <time>2010-12-12T10:28:26Z</time>
      </trkpt>
      <trkpt lat="43.47751" lon="-0.34959">
        <ele>244.4</ele>
        <time>2010-12-12T10:28:30Z</time>
      </trkpt>
      <trkpt lat="43.47729" lon="-0.34956">
        <ele>245.8</ele>
        <time>2010-12-12T10:28:34Z</time>
      </trkpt>
      <trkpt lat="43.47705" lon="-0.34955">
        <ele>247.1</ele>
        <time>2010-12-12T10:28:39Z</time>
      </trkpt>
      <trkpt lat="43.47677" lon="-0.34948">
        <ele>252</ele>
        <time>2010-12-12T10:28:46Z</time>
      </trkpt>
      <trkpt lat="43.47662" lon="-0.34932">
        <ele>252.6</ele>
        <time>2010-12-12T10:28:51Z</time>
      </trkpt>
      <trkpt lat="43.47645" lon="-0.34912">
        <ele>253.7</ele>
        <time>2010-12-12T10:28:55Z</time>
      </trkpt>
      <trkpt lat="43.47628" lon="-0.34891">
        <ele>254</ele>
        <time>2010-12-12T10:28:59Z</time>
      </trkpt>
      <trkpt lat="43.47612" lon="-0.34867">
        <ele>253.5</ele>
        <time>2010-12-12T10:29:03Z</time>
      </trkpt>
      <trkpt lat="43.47592" lon="-0.34846">
        <ele>253.2</ele>
        <time>2010-12-12T10:29:07Z</time>
      </trkpt>
      <trkpt lat="43.47572" lon="-0.34829">
        <ele>252.3</ele>
        <time>2010-12-12T10:29:11Z</time>
      </trkpt>
      <trkpt lat="43.47552" lon="-0.34808">
        <ele>251.9</ele>
        <time>2010-12-12T10:29:15Z</time>
      </trkpt>
      <trkpt lat="43.47533" lon="-0.34788">
        <ele>250.6</ele>
        <time>2010-12-12T10:29:19Z</time>
      </trkpt>
      <trkpt lat="43.47514" lon="-0.34767">
        <ele>249.7</ele>
        <time>2010-12-12T10:29:23Z</time>
      </trkpt>
      <trkpt lat="43.47495" lon="-0.34745">
        <ele>249.9</ele>
        <time>2010-12-12T10:29:27Z</time>
      </trkpt>
      <trkpt lat="43.47474" lon="-0.34723">
        <ele>250.6</ele>
        <time>2010-12-12T10:29:31Z</time>
      </trkpt>
      <trkpt lat="43.47453" lon="-0.347">
        <ele>251.3</ele>
        <time>2010-12-12T10:29:35Z</time>
      </trkpt>
      <trkpt lat="43.47436" lon="-0.34676">
        <ele>251.7</ele>
        <time>2010-12-12T10:29:39Z</time>
      </trkpt>
      <trkpt lat="43.47415" lon="-0.34651">
        <ele>252.5</ele>
        <time>2010-12-12T10:29:43Z</time>
      </trkpt>
      <trkpt lat="43.47394" lon="-0.34626">
        <ele>251.8</ele>
        <time>2010-12-12T10:29:47Z</time>
      </trkpt>
      <trkpt lat="43.47375" lon="-0.34598">
        <ele>251.3</ele>
        <time>2010-12-12T10:29:51Z</time>
      </trkpt>
      <trkpt lat="43.47355" lon="-0.34565">
        <ele>250.1</ele>
        <time>2010-12-12T10:29:55Z</time>
      </trkpt>
      <trkpt lat="43.47332" lon="-0.3453">
        <ele>249.6</ele>
        <time>2010-12-12T10:29:59Z</time>
      </trkpt>
      <trkpt lat="43.47306" lon="-0.34497">
        <ele>248.6</ele>
        <time>2010-12-12T10:30:03Z</time>
      </trkpt>
      <trkpt lat="43.47279" lon="-0.34459">
        <ele>246.8</ele>
        <time>2010-12-12T10:30:07Z</time>
      </trkpt>
      <trkpt lat="43.47252" lon="-0.34421">
        <ele>244.7</ele>
        <time>2010-12-12T10:30:11Z</time>
      </trkpt>
      <trkpt lat="43.47225" lon="-0.34382">
        <ele>239.9</ele>
        <time>2010-12-12T10:30:15Z</time>
      </trkpt>
      <trkpt lat="43.47195" lon="-0.34342">
        <ele>238</ele>
        <time>2010-12-12T10:30:19Z</time>
      </trkpt>
      <trkpt lat="43.47167" lon="-0.34305">
        <ele>236.8</ele>
        <time>2010-12-12T10:30:23Z</time>
      </trkpt>
      <trkpt lat="43.47142" lon="-0.34268">
        <ele>234.9</ele>
        <time>2010-12-12T10:30:27Z</time>
      </trkpt>
      <trkpt lat="43.47116" lon="-0.34231">
        <ele>233.1</ele>
        <time>2010-12-12T10:30:31Z</time>
      </trkpt>
      <trkpt lat="43.47092" lon="-0.34193">
        <ele>231.4</ele>
        <time>2010-12-12T10:30:35Z</time>
      </trkpt>
      <trkpt lat="43.47063" lon="-0.34155">
        <ele>230.2</ele>
        <time>2010-12-12T10:30:39Z</time>
      </trkpt>
      <trkpt lat="43.47035" lon="-0.34116">
        <ele>229.1</ele>
        <time>2010-12-12T10:30:43Z</time>
      </trkpt>
      <trkpt lat="43.47008" lon="-0.34077">
        <ele>228.1</ele>
        <time>2010-12-12T10:30:47Z</time>
      </trkpt>
      <trkpt lat="43.46979" lon="-0.34038">
        <ele>226.6</ele>
        <time>2010-12-12T10:30:51Z</time>
      </trkpt>
      <trkpt lat="43.4695" lon="-0.33998">
        <ele>226</ele>
        <time>2010-12-12T10:30:55Z</time>
      </trkpt>
      <trkpt lat="43.46922" lon="-0.33959">
        <ele>226.3</ele>
        <time>2010-12-12T10:30:59Z</time>
      </trkpt>
      <trkpt lat="43.46895" lon="-0.33924">
        <ele>225.1</ele>
        <time>2010-12-12T10:31:03Z</time>
      </trkpt>
      <trkpt lat="43.46869" lon="-0.33889">
        <ele>224.6</ele>
        <time>2010-12-12T10:31:07Z</time>
      </trkpt>
      <trkpt lat="43.46845" lon="-0.33856">
        <ele>223.9</ele>
        <time>2010-12-12T10:31:11Z</time>
      </trkpt>
      <trkpt lat="43.4682" lon="-0.33828">
        <ele>222.2</ele>
        <time>2010-12-12T10:31:15Z</time>
      </trkpt>
      <trkpt lat="43.46795" lon="-0.33802">
        <ele>221</ele>
        <time>2010-12-12T10:31:19Z</time>
      </trkpt>
      <trkpt lat="43.46771" lon="-0.33774">
        <ele>219.6</ele>
        <time>2010-12-12T10:31:23Z</time>
      </trkpt>
      <trkpt lat="43.46747" lon="-0.33742">
        <ele>219.8</ele>
        <time>2010-12-12T10:31:27Z</time>
      </trkpt>
      <trkpt lat="43.46728" lon="-0.337">
        <ele>218.8</ele>
        <time>2010-12-12T10:31:31Z</time>
      </trkpt>
      <trkpt lat="43.46708" lon="-0.33657">
        <ele>217.4</ele>
        <time>2010-12-12T10:31:35Z</time>
      </trkpt>
      <trkpt lat="43.46688" lon="-0.33617">
        <ele>216.8</ele>
        <time>2010-12-12T10:31:39Z</time>
      </trkpt>
      <trkpt lat="43.46666" lon="-0.33584">
        <ele>217.1</ele>
        <time>2010-12-12T10:31:43Z</time>
      </trkpt>
      <trkpt lat="43.46646" lon="-0.33558">
        <ele>216.7</ele>
        <time>2010-12-12T10:31:47Z</time>
      </trkpt>
      <trkpt lat="43.46627" lon="-0.33534">
        <ele>215.5</ele>
        <time>2010-12-12T10:31:51Z</time>
      </trkpt>
      <trkpt lat="43.46611" lon="-0.33508">
        <ele>215.6</ele>
        <time>2010-12-12T10:31:55Z</time>
      </trkpt>
      <trkpt lat="43.466" lon="-0.3348">
        <ele>216.2</ele>
        <time>2010-12-12T10:31:59Z</time>
      </trkpt>
      <trkpt lat="43.46594" lon="-0.3345">
        <ele>216.9</ele>
        <time>2010-12-12T10:32:03Z</time>
      </trkpt>
      <trkpt lat="43.46586" lon="-0.33422">
        <ele>218.1</ele>
        <time>2010-12-12T10:32:07Z</time>
      </trkpt>
      <trkpt lat="43.46581" lon="-0.33391">
        <ele>218.3</ele>
        <time>2010-12-12T10:32:11Z</time>
      </trkpt>
      <trkpt lat="43.46573" lon="-0.33361">
        <ele>219.1</ele>
        <time>2010-12-12T10:32:15Z</time>
      </trkpt>
      <trkpt lat="43.46565" lon="-0.3333">
        <ele>219.7</ele>
        <time>2010-12-12T10:32:19Z</time>
      </trkpt>
      <trkpt lat="43.46556" lon="-0.33298">
        <ele>220.8</ele>
        <time>2010-12-12T10:32:23Z</time>
      </trkpt>
      <trkpt lat="43.46548" lon="-0.33266">
        <ele>221.6</ele>
        <time>2010-12-12T10:32:27Z</time>
      </trkpt>
      <trkpt lat="43.46538" lon="-0.33233">
        <ele>222.8</ele>
        <time>2010-12-12T10:32:31Z</time>
      </trkpt>
      <trkpt lat="43.46527" lon="-0.33202">
        <ele>223.3</ele>
        <time>2010-12-12T10:32:35Z</time>
      </trkpt>
      <trkpt lat="43.46516" lon="-0.33172">
        <ele>223.1</ele>
        <time>2010-12-12T10:32:39Z</time>
      </trkpt>
      <trkpt lat="43.46506" lon="-0.33139">
        <ele>222.5</ele>
        <time>2010-12-12T10:32:43Z</time>
      </trkpt>
      <trkpt lat="43.46496" lon="-0.33106">
        <ele>222.4</ele>
        <time>2010-12-12T10:32:47Z</time>
      </trkpt>
      <trkpt lat="43.46487" lon="-0.33075">
        <ele>222.4</ele>
        <time>2010-12-12T10:32:51Z</time>
      </trkpt>
      <trkpt lat="43.46478" lon="-0.3304">
        <ele>223.1</ele>
        <time>2010-12-12T10:32:55Z</time>
      </trkpt>
      <trkpt lat="43.4647" lon="-0.33008">
        <ele>223.9</ele>
        <time>2010-12-12T10:32:59Z</time>
      </trkpt>
      <trkpt lat="43.4646" lon="-0.32978">
        <ele>223.7</ele>
        <time>2010-12-12T10:33:03Z</time>
      </trkpt>
      <trkpt lat="43.4645" lon="-0.32948">
        <ele>224.1</ele>
        <time>2010-12-12T10:33:07Z</time>
      </trkpt>
      <trkpt lat="43.46438" lon="-0.32918">
        <ele>224.3</ele>
        <time>2010-12-12T10:33:11Z</time>
      </trkpt>
      <trkpt lat="43.46419" lon="-0.32894">
        <ele>225</ele>
        <time>2010-12-12T10:33:15Z</time>
      </trkpt>
      <trkpt lat="43.46399" lon="-0.32873">
        <ele>225.4</ele>
        <time>2010-12-12T10:33:19Z</time>
      </trkpt>
      <trkpt lat="43.46377" lon="-0.32854">
        <ele>225.1</ele>
        <time>2010-12-12T10:33:23Z</time>
      </trkpt>
      <trkpt lat="43.4636" lon="-0.32839">
        <ele>224.8</ele>
        <time>2010-12-12T10:33:26Z</time>
      </trkpt>
      <trkpt lat="43.46346" lon="-0.3283">
        <ele>225.6</ele>
        <time>2010-12-12T10:33:28Z</time>
      </trkpt>
      <trkpt lat="43.46336" lon="-0.32821">
        <ele>225.8</ele>
        <time>2010-12-12T10:33:30Z</time>
      </trkpt>
      <trkpt lat="43.46326" lon="-0.32812">
        <ele>225.9</ele>
        <time>2010-12-12T10:33:32Z</time>
      </trkpt>
      <trkpt lat="43.46315" lon="-0.32801">
        <ele>225.9</ele>
        <time>2010-12-12T10:33:34Z</time>
      </trkpt>
      <trkpt lat="43.46305" lon="-0.3279">
        <ele>226.1</ele>
        <time>2010-12-12T10:33:36Z</time>
      </trkpt>
      <trkpt lat="43.46298" lon="-0.32778">
        <ele>226.8</ele>
        <time>2010-12-12T10:33:38Z</time>
      </trkpt>
      <trkpt lat="43.4629" lon="-0.32765">
        <ele>226.3</ele>
        <time>2010-12-12T10:33:40Z</time>
      </trkpt>
      <trkpt lat="43.46284" lon="-0.32749">
        <ele>226.6</ele>
        <time>2010-12-12T10:33:42Z</time>
      </trkpt>
      <trkpt lat="43.46279" lon="-0.32734">
        <ele>226</ele>
        <time>2010-12-12T10:33:44Z</time>
      </trkpt>
      <trkpt lat="43.46273" lon="-0.32719">
        <ele>226</ele>
        <time>2010-12-12T10:33:46Z</time>
      </trkpt>
      <trkpt lat="43.4627" lon="-0.32701">
        <ele>226.1</ele>
        <time>2010-12-12T10:33:48Z</time>
      </trkpt>
      <trkpt lat="43.46266" lon="-0.32682">
        <ele>227</ele>
        <time>2010-12-12T10:33:50Z</time>
      </trkpt>
      <trkpt lat="43.46262" lon="-0.32665">
        <ele>227.2</ele>
        <time>2010-12-12T10:33:52Z</time>
      </trkpt>
      <trkpt lat="43.46257" lon="-0.32647">
        <ele>227.3</ele>
        <time>2010-12-12T10:33:54Z</time>
      </trkpt>
      <trkpt lat="43.4625" lon="-0.32631">
        <ele>227.2</ele>
        <time>2010-12-12T10:33:56Z</time>
      </trkpt>
      <trkpt lat="43.46242" lon="-0.32616">
        <ele>226.6</ele>
        <time>2010-12-12T10:33:58Z</time>
      </trkpt>
      <trkpt lat="43.46233" lon="-0.32604">
        <ele>226.7</ele>
        <time>2010-12-12T10:34:00Z</time>
      </trkpt>
      <trkpt lat="43.46226" lon="-0.3259">
        <ele>226.5</ele>
        <time>2010-12-12T10:34:02Z</time>
      </trkpt>
      <trkpt lat="43.46217" lon="-0.32577">
        <ele>227.1</ele>
        <time>2010-12-12T10:34:04Z</time>
      </trkpt>
      <trkpt lat="43.46208" lon="-0.32565">
        <ele>228.1</ele>
        <time>2010-12-12T10:34:06Z</time>
      </trkpt>
      <trkpt lat="43.46199" lon="-0.32553">
        <ele>228.3</ele>
        <time>2010-12-12T10:34:08Z</time>
      </trkpt>
      <trkpt lat="43.46191" lon="-0.3254">
        <ele>227.9</ele>
        <time>2010-12-12T10:34:10Z</time>
      </trkpt>
      <trkpt lat="43.46181" lon="-0.32528">
        <ele>227.9</ele>
        <time>2010-12-12T10:34:12Z</time>
      </trkpt>
      <trkpt lat="43.46173" lon="-0.32516">
        <ele>227.8</ele>
        <time>2010-12-12T10:34:14Z</time>
      </trkpt>
      <trkpt lat="43.46164" lon="-0.32504">
        <ele>228.2</ele>
        <time>2010-12-12T10:34:16Z</time>
      </trkpt>
      <trkpt lat="43.46154" lon="-0.32491">
        <ele>228.8</ele>
        <time>2010-12-12T10:34:18Z</time>
      </trkpt>
      <trkpt lat="43.46145" lon="-0.3248">
        <ele>228.9</ele>
        <time>2010-12-12T10:34:20Z</time>
      </trkpt>
      <trkpt lat="43.46136" lon="-0.32467">
        <ele>228.9</ele>
        <time>2010-12-12T10:34:22Z</time>
      </trkpt>
      <trkpt lat="43.46127" lon="-0.32455">
        <ele>228.9</ele>
        <time>2010-12-12T10:34:24Z</time>
      </trkpt>
      <trkpt lat="43.46118" lon="-0.32443">
        <ele>229.4</ele>
        <time>2010-12-12T10:34:26Z</time>
      </trkpt>
      <trkpt lat="43.46109" lon="-0.3243">
        <ele>229.3</ele>
        <time>2010-12-12T10:34:28Z</time>
      </trkpt>
      <trkpt lat="43.46102" lon="-0.32418">
        <ele>230.3</ele>
        <time>2010-12-12T10:34:30Z</time>
      </trkpt>
      <trkpt lat="43.46094" lon="-0.32407">
        <ele>231.5</ele>
        <time>2010-12-12T10:34:32Z</time>
      </trkpt>
      <trkpt lat="43.46085" lon="-0.32395">
        <ele>231.5</ele>
        <time>2010-12-12T10:34:34Z</time>
      </trkpt>
      <trkpt lat="43.46076" lon="-0.32382">
        <ele>231.4</ele>
        <time>2010-12-12T10:34:36Z</time>
      </trkpt>
      <trkpt lat="43.46067" lon="-0.32371">
        <ele>231.1</ele>
        <time>2010-12-12T10:34:38Z</time>
      </trkpt>
      <trkpt lat="43.46057" lon="-0.32359">
        <ele>230.9</ele>
        <time>2010-12-12T10:34:40Z</time>
      </trkpt>
      <trkpt lat="43.46048" lon="-0.32347">
        <ele>230.8</ele>
        <time>2010-12-12T10:34:42Z</time>
      </trkpt>
      <trkpt lat="43.46041" lon="-0.32335">
        <ele>230.3</ele>
        <time>2010-12-12T10:34:44Z</time>
      </trkpt>
      <trkpt lat="43.4603" lon="-0.32321">
        <ele>229.3</ele>
        <time>2010-12-12T10:34:46Z</time>
      </trkpt>
      <trkpt lat="43.46024" lon="-0.32308">
        <ele>229.1</ele>
        <time>2010-12-12T10:34:48Z</time>
      </trkpt>
      <trkpt lat="43.46018" lon="-0.32296">
        <ele>229.9</ele>
        <time>2010-12-12T10:34:50Z</time>
      </trkpt>
      <trkpt lat="43.46011" lon="-0.32286">
        <ele>230.3</ele>
        <time>2010-12-12T10:34:52Z</time>
      </trkpt>
      <trkpt lat="43.46001" lon="-0.32277">
        <ele>229.9</ele>
        <time>2010-12-12T10:34:54Z</time>
      </trkpt>
      <trkpt lat="43.45989" lon="-0.3227">
        <ele>229.4</ele>
        <time>2010-12-12T10:34:56Z</time>
      </trkpt>
      <trkpt lat="43.45975" lon="-0.32267">
        <ele>228.8</ele>
        <time>2010-12-12T10:34:58Z</time>
      </trkpt>
      <trkpt lat="43.45961" lon="-0.32265">
        <ele>228.9</ele>
        <time>2010-12-12T10:35:00Z</time>
      </trkpt>
      <trkpt lat="43.45947" lon="-0.32264">
        <ele>229.3</ele>
        <time>2010-12-12T10:35:02Z</time>
      </trkpt>
      <trkpt lat="43.45934" lon="-0.32263">
        <ele>229.2</ele>
        <time>2010-12-12T10:35:04Z</time>
      </trkpt>
      <trkpt lat="43.45921" lon="-0.32262">
        <ele>229.3</ele>
        <time>2010-12-12T10:35:06Z</time>
      </trkpt>
      <trkpt lat="43.45907" lon="-0.3226">
        <ele>229.1</ele>
        <time>2010-12-12T10:35:08Z</time>
      </trkpt>
      <trkpt lat="43.45894" lon="-0.32258">
        <ele>229.8</ele>
        <time>2010-12-12T10:35:10Z</time>
      </trkpt>
      <trkpt lat="43.45882" lon="-0.32257">
        <ele>229.6</ele>
        <time>2010-12-12T10:35:12Z</time>
      </trkpt>
      <trkpt lat="43.4587" lon="-0.32255">
        <ele>228.3</ele>
        <time>2010-12-12T10:35:14Z</time>
      </trkpt>
      <trkpt lat="43.45855" lon="-0.32256">
        <ele>227.2</ele>
        <time>2010-12-12T10:35:16Z</time>
      </trkpt>
      <trkpt lat="43.45839" lon="-0.32258">
        <ele>226.2</ele>
        <time>2010-12-12T10:35:19Z</time>
      </trkpt>
      <trkpt lat="43.45826" lon="-0.32263">
        <ele>225.8</ele>
        <time>2010-12-12T10:35:21Z</time>
      </trkpt>
      <trkpt lat="43.45815" lon="-0.32269">
        <ele>226.8</ele>
        <time>2010-12-12T10:35:23Z</time>
      </trkpt>
      <trkpt lat="43.45803" lon="-0.32278">
        <ele>227.1</ele>
        <time>2010-12-12T10:35:25Z</time>
      </trkpt>
      <trkpt lat="43.45792" lon="-0.32289">
        <ele>227.9</ele>
        <time>2010-12-12T10:35:27Z</time>
      </trkpt>
      <trkpt lat="43.45783" lon="-0.32303">
        <ele>228.6</ele>
        <time>2010-12-12T10:35:29Z</time>
      </trkpt>
      <trkpt lat="43.45776" lon="-0.32317">
        <ele>229.1</ele>
        <time>2010-12-12T10:35:31Z</time>
      </trkpt>
      <trkpt lat="43.45768" lon="-0.32333">
        <ele>229.1</ele>
        <time>2010-12-12T10:35:33Z</time>
      </trkpt>
      <trkpt lat="43.45762" lon="-0.32352">
        <ele>229.2</ele>
        <time>2010-12-12T10:35:35Z</time>
      </trkpt>
      <trkpt lat="43.45757" lon="-0.32371">
        <ele>228.8</ele>
        <time>2010-12-12T10:35:37Z</time>
      </trkpt>
      <trkpt lat="43.45753" lon="-0.32392">
        <ele>228.4</ele>
        <time>2010-12-12T10:35:39Z</time>
      </trkpt>
      <trkpt lat="43.45749" lon="-0.3241">
        <ele>228.3</ele>
        <time>2010-12-12T10:35:41Z</time>
      </trkpt>
      <trkpt lat="43.45746" lon="-0.32429">
        <ele>228.2</ele>
        <time>2010-12-12T10:35:43Z</time>
      </trkpt>
      <trkpt lat="43.45743" lon="-0.32447">
        <ele>228.9</ele>
        <time>2010-12-12T10:35:45Z</time>
      </trkpt>
      <trkpt lat="43.45739" lon="-0.32467">
        <ele>228.6</ele>
        <time>2010-12-12T10:35:47Z</time>
      </trkpt>
      <trkpt lat="43.45735" lon="-0.32487">
        <ele>228.6</ele>
        <time>2010-12-12T10:35:49Z</time>
      </trkpt>
      <trkpt lat="43.45731" lon="-0.32507">
        <ele>229.1</ele>
        <time>2010-12-12T10:35:51Z</time>
      </trkpt>
      <trkpt lat="43.45727" lon="-0.32531">
        <ele>229.3</ele>
        <time>2010-12-12T10:35:53Z</time>
      </trkpt>
      <trkpt lat="43.45723" lon="-0.32554">
        <ele>230.4</ele>
        <time>2010-12-12T10:35:55Z</time>
      </trkpt>
      <trkpt lat="43.45719" lon="-0.32575">
        <ele>230.4</ele>
        <time>2010-12-12T10:35:57Z</time>
      </trkpt>
      <trkpt lat="43.45714" lon="-0.32598">
        <ele>230.1</ele>
        <time>2010-12-12T10:35:59Z</time>
      </trkpt>
      <trkpt lat="43.4571" lon="-0.32623">
        <ele>229.9</ele>
        <time>2010-12-12T10:36:01Z</time>
      </trkpt>
      <trkpt lat="43.45705" lon="-0.32647">
        <ele>229.4</ele>
        <time>2010-12-12T10:36:03Z</time>
      </trkpt>
      <trkpt lat="43.45699" lon="-0.32673">
        <ele>229.4</ele>
        <time>2010-12-12T10:36:05Z</time>
      </trkpt>
      <trkpt lat="43.45694" lon="-0.32699">
        <ele>228.7</ele>
        <time>2010-12-12T10:36:07Z</time>
      </trkpt>
      <trkpt lat="43.4569" lon="-0.32723">
        <ele>228.9</ele>
        <time>2010-12-12T10:36:09Z</time>
      </trkpt>
      <trkpt lat="43.45686" lon="-0.32746">
        <ele>228.9</ele>
        <time>2010-12-12T10:36:11Z</time>
      </trkpt>
      <trkpt lat="43.45682" lon="-0.3277">
        <ele>228.6</ele>
        <time>2010-12-12T10:36:13Z</time>
      </trkpt>
      <trkpt lat="43.4568" lon="-0.32794">
        <ele>228.1</ele>
        <time>2010-12-12T10:36:15Z</time>
      </trkpt>
      <trkpt lat="43.45678" lon="-0.32819">
        <ele>228.6</ele>
        <time>2010-12-12T10:36:17Z</time>
      </trkpt>
      <trkpt lat="43.4568" lon="-0.32844">
        <ele>228.7</ele>
        <time>2010-12-12T10:36:19Z</time>
      </trkpt>
      <trkpt lat="43.45687" lon="-0.32861">
        <ele>228.7</ele>
        <time>2010-12-12T10:36:21Z</time>
      </trkpt>
      <trkpt lat="43.45698" lon="-0.32877">
        <ele>227.3</ele>
        <time>2010-12-12T10:36:23Z</time>
      </trkpt>
      <trkpt lat="43.45713" lon="-0.32888">
        <ele>226.3</ele>
        <time>2010-12-12T10:36:25Z</time>
      </trkpt>
      <trkpt lat="43.45731" lon="-0.32892">
        <ele>222.7</ele>
        <time>2010-12-12T10:36:27Z</time>
      </trkpt>
      <trkpt lat="43.45748" lon="-0.32886">
        <ele>221.7</ele>
        <time>2010-12-12T10:36:29Z</time>
      </trkpt>
      <trkpt lat="43.45762" lon="-0.32876">
        <ele>220.4</ele>
        <time>2010-12-12T10:36:31Z</time>
      </trkpt>
      <trkpt lat="43.45776" lon="-0.32871">
        <ele>219</ele>
        <time>2010-12-12T10:36:33Z</time>
      </trkpt>
      <trkpt lat="43.45789" lon="-0.32874">
        <ele>218.8</ele>
        <time>2010-12-12T10:36:35Z</time>
      </trkpt>
      <trkpt lat="43.458" lon="-0.32884">
        <ele>219.4</ele>
        <time>2010-12-12T10:36:37Z</time>
      </trkpt>
      <trkpt lat="43.45804" lon="-0.32901">
        <ele>219.4</ele>
        <time>2010-12-12T10:36:39Z</time>
      </trkpt>
      <trkpt lat="43.45804" lon="-0.32919">
        <ele>219.4</ele>
        <time>2010-12-12T10:36:41Z</time>
      </trkpt>
      <trkpt lat="43.45798" lon="-0.32935">
        <ele>219.5</ele>
        <time>2010-12-12T10:36:43Z</time>
      </trkpt>
      <trkpt lat="43.45788" lon="-0.32954">
        <ele>219.3</ele>
        <time>2010-12-12T10:36:45Z</time>
      </trkpt>
      <trkpt lat="43.45777" lon="-0.32972">
        <ele>218.1</ele>
        <time>2010-12-12T10:36:47Z</time>
      </trkpt>
      <trkpt lat="43.45765" lon="-0.32987">
        <ele>217.6</ele>
        <time>2010-12-12T10:36:49Z</time>
      </trkpt>
      <trkpt lat="43.45752" lon="-0.33006">
        <ele>216.3</ele>
        <time>2010-12-12T10:36:51Z</time>
      </trkpt>
      <trkpt lat="43.4574" lon="-0.33024">
        <ele>214.3</ele>
        <time>2010-12-12T10:36:53Z</time>
      </trkpt>
      <trkpt lat="43.45728" lon="-0.3304">
        <ele>209</ele>
        <time>2010-12-12T10:36:55Z</time>
      </trkpt>
      <trkpt lat="43.45713" lon="-0.33051">
        <ele>205.8</ele>
        <time>2010-12-12T10:36:57Z</time>
      </trkpt>
      <trkpt lat="43.45697" lon="-0.33055">
        <ele>204.8</ele>
        <time>2010-12-12T10:36:59Z</time>
      </trkpt>
      <trkpt lat="43.4568" lon="-0.33052">
        <ele>204.8</ele>
        <time>2010-12-12T10:37:01Z</time>
      </trkpt>
      <trkpt lat="43.45665" lon="-0.33046">
        <ele>205.2</ele>
        <time>2010-12-12T10:37:03Z</time>
      </trkpt>
      <trkpt lat="43.45652" lon="-0.33035">
        <ele>204.4</ele>
        <time>2010-12-12T10:37:05Z</time>
      </trkpt>
      <trkpt lat="43.45639" lon="-0.33019">
        <ele>204.4</ele>
        <time>2010-12-12T10:37:07Z</time>
      </trkpt>
      <trkpt lat="43.45627" lon="-0.33001">
        <ele>203.4</ele>
        <time>2010-12-12T10:37:09Z</time>
      </trkpt>
      <trkpt lat="43.45618" lon="-0.3298">
        <ele>200.8</ele>
        <time>2010-12-12T10:37:11Z</time>
      </trkpt>
      <trkpt lat="43.45608" lon="-0.32958">
        <ele>198.6</ele>
        <time>2010-12-12T10:37:13Z</time>
      </trkpt>
      <trkpt lat="43.45597" lon="-0.32934">
        <ele>195.9</ele>
        <time>2010-12-12T10:37:15Z</time>
      </trkpt>
      <trkpt lat="43.45585" lon="-0.32911">
        <ele>193.6</ele>
        <time>2010-12-12T10:37:17Z</time>
      </trkpt>
      <trkpt lat="43.45574" lon="-0.32886">
        <ele>192.7</ele>
        <time>2010-12-12T10:37:19Z</time>
      </trkpt>
      <trkpt lat="43.45564" lon="-0.32861">
        <ele>192.1</ele>
        <time>2010-12-12T10:37:21Z</time>
      </trkpt>
      <trkpt lat="43.45554" lon="-0.32835">
        <ele>191.1</ele>
        <time>2010-12-12T10:37:23Z</time>
      </trkpt>
      <trkpt lat="43.45544" lon="-0.32809">
        <ele>189.6</ele>
        <time>2010-12-12T10:37:25Z</time>
      </trkpt>
      <trkpt lat="43.45531" lon="-0.32785">
        <ele>188.8</ele>
        <time>2010-12-12T10:37:27Z</time>
      </trkpt>
      <trkpt lat="43.45515" lon="-0.32764">
        <ele>187.9</ele>
        <time>2010-12-12T10:37:29Z</time>
      </trkpt>
      <trkpt lat="43.45495" lon="-0.3275">
        <ele>186.5</ele>
        <time>2010-12-12T10:37:31Z</time>
      </trkpt>
      <trkpt lat="43.45473" lon="-0.3274">
        <ele>185.2</ele>
        <time>2010-12-12T10:37:33Z</time>
      </trkpt>
      <trkpt lat="43.45452" lon="-0.32731">
        <ele>184.1</ele>
        <time>2010-12-12T10:37:35Z</time>
      </trkpt>
      <trkpt lat="43.45429" lon="-0.32723">
        <ele>182.5</ele>
        <time>2010-12-12T10:37:37Z</time>
      </trkpt>
      <trkpt lat="43.45407" lon="-0.32716">
        <ele>180.9</ele>
        <time>2010-12-12T10:37:39Z</time>
      </trkpt>
      <trkpt lat="43.45384" lon="-0.32707">
        <ele>179.4</ele>
        <time>2010-12-12T10:37:41Z</time>
      </trkpt>
      <trkpt lat="43.4536" lon="-0.32699">
        <ele>177.9</ele>
        <time>2010-12-12T10:37:43Z</time>
      </trkpt>
      <trkpt lat="43.45339" lon="-0.3269">
        <ele>176.9</ele>
        <time>2010-12-12T10:37:45Z</time>
      </trkpt>
      <trkpt lat="43.45319" lon="-0.32681">
        <ele>176.1</ele>
        <time>2010-12-12T10:37:47Z</time>
      </trkpt>
      <trkpt lat="43.45297" lon="-0.32672">
        <ele>174.6</ele>
        <time>2010-12-12T10:37:49Z</time>
      </trkpt>
      <trkpt lat="43.45275" lon="-0.32664">
        <ele>172.3</ele>
        <time>2010-12-12T10:37:51Z</time>
      </trkpt>
      <trkpt lat="43.45252" lon="-0.32657">
        <ele>170.4</ele>
        <time>2010-12-12T10:37:53Z</time>
      </trkpt>
      <trkpt lat="43.45229" lon="-0.32649">
        <ele>169.1</ele>
        <time>2010-12-12T10:37:55Z</time>
      </trkpt>
      <trkpt lat="43.45206" lon="-0.32642">
        <ele>168.6</ele>
        <time>2010-12-12T10:37:57Z</time>
      </trkpt>
      <trkpt lat="43.45182" lon="-0.32635">
        <ele>167.8</ele>
        <time>2010-12-12T10:37:59Z</time>
      </trkpt>
      <trkpt lat="43.45162" lon="-0.32628">
        <ele>167.6</ele>
        <time>2010-12-12T10:38:01Z</time>
      </trkpt>
      <trkpt lat="43.45142" lon="-0.32621">
        <ele>166.4</ele>
        <time>2010-12-12T10:38:03Z</time>
      </trkpt>
      <trkpt lat="43.45119" lon="-0.32615">
        <ele>165.9</ele>
        <time>2010-12-12T10:38:05Z</time>
      </trkpt>
      <trkpt lat="43.45099" lon="-0.32611">
        <ele>164.4</ele>
        <time>2010-12-12T10:38:07Z</time>
      </trkpt>
      <trkpt lat="43.45077" lon="-0.32607">
        <ele>162.9</ele>
        <time>2010-12-12T10:38:09Z</time>
      </trkpt>
      <trkpt lat="43.45057" lon="-0.32603">
        <ele>161.8</ele>
        <time>2010-12-12T10:38:11Z</time>
      </trkpt>
      <trkpt lat="43.45037" lon="-0.32598">
        <ele>161.1</ele>
        <time>2010-12-12T10:38:13Z</time>
      </trkpt>
      <trkpt lat="43.45018" lon="-0.32593">
        <ele>160.9</ele>
        <time>2010-12-12T10:38:15Z</time>
      </trkpt>
      <trkpt lat="43.45001" lon="-0.32587">
        <ele>160.9</ele>
        <time>2010-12-12T10:38:17Z</time>
      </trkpt>
      <trkpt lat="43.44984" lon="-0.32582">
        <ele>160.9</ele>
        <time>2010-12-12T10:38:19Z</time>
      </trkpt>
      <trkpt lat="43.44966" lon="-0.32579">
        <ele>159.3</ele>
        <time>2010-12-12T10:38:21Z</time>
      </trkpt>
      <trkpt lat="43.44949" lon="-0.32575">
        <ele>158.6</ele>
        <time>2010-12-12T10:38:23Z</time>
      </trkpt>
      <trkpt lat="43.4493" lon="-0.32572">
        <ele>157.9</ele>
        <time>2010-12-12T10:38:25Z</time>
      </trkpt>
      <trkpt lat="43.44912" lon="-0.32568">
        <ele>157.7</ele>
        <time>2010-12-12T10:38:27Z</time>
      </trkpt>
      <trkpt lat="43.44894" lon="-0.32564">
        <ele>157</ele>
        <time>2010-12-12T10:38:29Z</time>
      </trkpt>
      <trkpt lat="43.44878" lon="-0.3256">
        <ele>157</ele>
        <time>2010-12-12T10:38:31Z</time>
      </trkpt>
      <trkpt lat="43.44863" lon="-0.32556">
        <ele>157.6</ele>
        <time>2010-12-12T10:38:33Z</time>
      </trkpt>
      <trkpt lat="43.44844" lon="-0.32553">
        <ele>156.9</ele>
        <time>2010-12-12T10:38:35Z</time>
      </trkpt>
      <trkpt lat="43.44828" lon="-0.32549">
        <ele>156.6</ele>
        <time>2010-12-12T10:38:37Z</time>
      </trkpt>
      <trkpt lat="43.44813" lon="-0.32545">
        <ele>155.8</ele>
        <time>2010-12-12T10:38:39Z</time>
      </trkpt>
      <trkpt lat="43.44797" lon="-0.32541">
        <ele>156.4</ele>
        <time>2010-12-12T10:38:41Z</time>
      </trkpt>
      <trkpt lat="43.44784" lon="-0.32537">
        <ele>156.5</ele>
        <time>2010-12-12T10:38:43Z</time>
      </trkpt>
      <trkpt lat="43.44769" lon="-0.32535">
        <ele>156.5</ele>
        <time>2010-12-12T10:38:45Z</time>
      </trkpt>
      <trkpt lat="43.44757" lon="-0.32532">
        <ele>155.9</ele>
        <time>2010-12-12T10:38:47Z</time>
      </trkpt>
      <trkpt lat="43.44745" lon="-0.32528">
        <ele>156.1</ele>
        <time>2010-12-12T10:38:49Z</time>
      </trkpt>
      <trkpt lat="43.44733" lon="-0.32525">
        <ele>156.4</ele>
        <time>2010-12-12T10:38:51Z</time>
      </trkpt>
      <trkpt lat="43.4472" lon="-0.32522">
        <ele>156.6</ele>
        <time>2010-12-12T10:38:53Z</time>
      </trkpt>
      <trkpt lat="43.44703" lon="-0.32518">
        <ele>156.9</ele>
        <time>2010-12-12T10:38:55Z</time>
      </trkpt>
      <trkpt lat="43.44687" lon="-0.32515">
        <ele>157.3</ele>
        <time>2010-12-12T10:38:58Z</time>
      </trkpt>
      <trkpt lat="43.44669" lon="-0.32509">
        <ele>156.9</ele>
        <time>2010-12-12T10:39:02Z</time>
      </trkpt>
      <trkpt lat="43.44653" lon="-0.32505">
        <ele>156.4</ele>
        <time>2010-12-12T10:39:07Z</time>
      </trkpt>
      <trkpt lat="43.44639" lon="-0.32503">
        <ele>155.8</ele>
        <time>2010-12-12T10:39:11Z</time>
      </trkpt>
      <trkpt lat="43.44631" lon="-0.32499">
        <ele>158</ele>
        <time>2010-12-12T10:39:20Z</time>
      </trkpt>
      <trkpt lat="43.44623" lon="-0.32486">
        <ele>159.5</ele>
        <time>2010-12-12T10:39:25Z</time>
      </trkpt>
      <trkpt lat="43.44622" lon="-0.32474">
        <ele>159.9</ele>
        <time>2010-12-12T10:39:27Z</time>
      </trkpt>
      <trkpt lat="43.44619" lon="-0.32461">
        <ele>159.5</ele>
        <time>2010-12-12T10:39:29Z</time>
      </trkpt>
      <trkpt lat="43.44612" lon="-0.3245">
        <ele>159.9</ele>
        <time>2010-12-12T10:39:31Z</time>
      </trkpt>
      <trkpt lat="43.44604" lon="-0.32441">
        <ele>160.4</ele>
        <time>2010-12-12T10:39:33Z</time>
      </trkpt>
      <trkpt lat="43.44595" lon="-0.32431">
        <ele>160.6</ele>
        <time>2010-12-12T10:39:35Z</time>
      </trkpt>
      <trkpt lat="43.44585" lon="-0.32421">
        <ele>160.4</ele>
        <time>2010-12-12T10:39:37Z</time>
      </trkpt>
      <trkpt lat="43.44575" lon="-0.3241">
        <ele>160.2</ele>
        <time>2010-12-12T10:39:39Z</time>
      </trkpt>
      <trkpt lat="43.44565" lon="-0.32401">
        <ele>159.9</ele>
        <time>2010-12-12T10:39:41Z</time>
      </trkpt>
      <trkpt lat="43.44554" lon="-0.3239">
        <ele>159.4</ele>
        <time>2010-12-12T10:39:43Z</time>
      </trkpt>
      <trkpt lat="43.44543" lon="-0.3238">
        <ele>159.1</ele>
        <time>2010-12-12T10:39:45Z</time>
      </trkpt>
      <trkpt lat="43.44534" lon="-0.3237">
        <ele>159.2</ele>
        <time>2010-12-12T10:39:47Z</time>
      </trkpt>
      <trkpt lat="43.44526" lon="-0.3236">
        <ele>159.2</ele>
        <time>2010-12-12T10:39:49Z</time>
      </trkpt>
      <trkpt lat="43.44517" lon="-0.3235">
        <ele>158.9</ele>
        <time>2010-12-12T10:39:51Z</time>
      </trkpt>
      <trkpt lat="43.44509" lon="-0.3234">
        <ele>159.2</ele>
        <time>2010-12-12T10:39:53Z</time>
      </trkpt>
      <trkpt lat="43.445" lon="-0.3233">
        <ele>159.5</ele>
        <time>2010-12-12T10:39:55Z</time>
      </trkpt>
      <trkpt lat="43.4449" lon="-0.32321">
        <ele>159.8</ele>
        <time>2010-12-12T10:39:57Z</time>
      </trkpt>
      <trkpt lat="43.4448" lon="-0.32311">
        <ele>160.3</ele>
        <time>2010-12-12T10:39:59Z</time>
      </trkpt>
      <trkpt lat="43.44472" lon="-0.32302">
        <ele>160.8</ele>
        <time>2010-12-12T10:40:01Z</time>
      </trkpt>
      <trkpt lat="43.44463" lon="-0.32293">
        <ele>160.9</ele>
        <time>2010-12-12T10:40:03Z</time>
      </trkpt>
      <trkpt lat="43.44454" lon="-0.32284">
        <ele>160.9</ele>
        <time>2010-12-12T10:40:05Z</time>
      </trkpt>
      <trkpt lat="43.44445" lon="-0.32274">
        <ele>161.3</ele>
        <time>2010-12-12T10:40:07Z</time>
      </trkpt>
      <trkpt lat="43.44435" lon="-0.32265">
        <ele>162</ele>
        <time>2010-12-12T10:40:09Z</time>
      </trkpt>
      <trkpt lat="43.44425" lon="-0.32254">
        <ele>162.7</ele>
        <time>2010-12-12T10:40:11Z</time>
      </trkpt>
      <trkpt lat="43.44417" lon="-0.32245">
        <ele>162.7</ele>
        <time>2010-12-12T10:40:13Z</time>
      </trkpt>
      <trkpt lat="43.44408" lon="-0.32234">
        <ele>162.6</ele>
        <time>2010-12-12T10:40:15Z</time>
      </trkpt>
      <trkpt lat="43.44399" lon="-0.32225">
        <ele>163.4</ele>
        <time>2010-12-12T10:40:17Z</time>
      </trkpt>
      <trkpt lat="43.44391" lon="-0.32215">
        <ele>164.1</ele>
        <time>2010-12-12T10:40:19Z</time>
      </trkpt>
      <trkpt lat="43.44381" lon="-0.32205">
        <ele>163.9</ele>
        <time>2010-12-12T10:40:21Z</time>
      </trkpt>
      <trkpt lat="43.44371" lon="-0.32195">
        <ele>163.9</ele>
        <time>2010-12-12T10:40:23Z</time>
      </trkpt>
      <trkpt lat="43.44363" lon="-0.32184">
        <ele>164</ele>
        <time>2010-12-12T10:40:25Z</time>
      </trkpt>
      <trkpt lat="43.44352" lon="-0.32175">
        <ele>164.1</ele>
        <time>2010-12-12T10:40:27Z</time>
      </trkpt>
      <trkpt lat="43.44342" lon="-0.32166">
        <ele>163.4</ele>
        <time>2010-12-12T10:40:29Z</time>
      </trkpt>
      <trkpt lat="43.44331" lon="-0.32157">
        <ele>162.7</ele>
        <time>2010-12-12T10:40:31Z</time>
      </trkpt>
      <trkpt lat="43.44321" lon="-0.32147">
        <ele>162.4</ele>
        <time>2010-12-12T10:40:33Z</time>
      </trkpt>
      <trkpt lat="43.4431" lon="-0.32137">
        <ele>163.1</ele>
        <time>2010-12-12T10:40:35Z</time>
      </trkpt>
      <trkpt lat="43.44302" lon="-0.32127">
        <ele>164.6</ele>
        <time>2010-12-12T10:40:37Z</time>
      </trkpt>
      <trkpt lat="43.44292" lon="-0.32118">
        <ele>163.4</ele>
        <time>2010-12-12T10:40:39Z</time>
      </trkpt>
      <trkpt lat="43.44283" lon="-0.32108">
        <ele>163</ele>
        <time>2010-12-12T10:40:41Z</time>
      </trkpt>
      <trkpt lat="43.44274" lon="-0.32098">
        <ele>162.9</ele>
        <time>2010-12-12T10:40:43Z</time>
      </trkpt>
      <trkpt lat="43.44264" lon="-0.32088">
        <ele>162.5</ele>
        <time>2010-12-12T10:40:45Z</time>
      </trkpt>
      <trkpt lat="43.44254" lon="-0.32077">
        <ele>162.9</ele>
        <time>2010-12-12T10:40:47Z</time>
      </trkpt>
      <trkpt lat="43.44243" lon="-0.32066">
        <ele>163.7</ele>
        <time>2010-12-12T10:40:49Z</time>
      </trkpt>
      <trkpt lat="43.44232" lon="-0.32056">
        <ele>163.7</ele>
        <time>2010-12-12T10:40:51Z</time>
      </trkpt>
      <trkpt lat="43.44221" lon="-0.32046">
        <ele>164.1</ele>
        <time>2010-12-12T10:40:53Z</time>
      </trkpt>
      <trkpt lat="43.44212" lon="-0.32034">
        <ele>164</ele>
        <time>2010-12-12T10:40:55Z</time>
      </trkpt>
      <trkpt lat="43.442" lon="-0.32024">
        <ele>164.9</ele>
        <time>2010-12-12T10:40:57Z</time>
      </trkpt>
      <trkpt lat="43.44191" lon="-0.32013">
        <ele>164.9</ele>
        <time>2010-12-12T10:40:59Z</time>
      </trkpt>
      <trkpt lat="43.44181" lon="-0.32002">
        <ele>164.4</ele>
        <time>2010-12-12T10:41:01Z</time>
      </trkpt>
      <trkpt lat="43.4417" lon="-0.3199">
        <ele>164.2</ele>
        <time>2010-12-12T10:41:03Z</time>
      </trkpt>
      <trkpt lat="43.44159" lon="-0.3198">
        <ele>162.9</ele>
        <time>2010-12-12T10:41:05Z</time>
      </trkpt>
      <trkpt lat="43.44151" lon="-0.31969">
        <ele>163</ele>
        <time>2010-12-12T10:41:07Z</time>
      </trkpt>
      <trkpt lat="43.44142" lon="-0.31959">
        <ele>163.8</ele>
        <time>2010-12-12T10:41:09Z</time>
      </trkpt>
      <trkpt lat="43.44134" lon="-0.31949">
        <ele>165.5</ele>
        <time>2010-12-12T10:41:11Z</time>
      </trkpt>
      <trkpt lat="43.44125" lon="-0.31939">
        <ele>167.3</ele>
        <time>2010-12-12T10:41:13Z</time>
      </trkpt>
      <trkpt lat="43.44115" lon="-0.31927">
        <ele>168.9</ele>
        <time>2010-12-12T10:41:15Z</time>
      </trkpt>
      <trkpt lat="43.44106" lon="-0.31916">
        <ele>169.4</ele>
        <time>2010-12-12T10:41:17Z</time>
      </trkpt>
      <trkpt lat="43.44096" lon="-0.31903">
        <ele>169.8</ele>
        <time>2010-12-12T10:41:19Z</time>
      </trkpt>
      <trkpt lat="43.44084" lon="-0.3189">
        <ele>169.8</ele>
        <time>2010-12-12T10:41:21Z</time>
      </trkpt>
      <trkpt lat="43.44071" lon="-0.31879">
        <ele>169.8</ele>
        <time>2010-12-12T10:41:23Z</time>
      </trkpt>
      <trkpt lat="43.44059" lon="-0.31867">
        <ele>169.4</ele>
        <time>2010-12-12T10:41:25Z</time>
      </trkpt>
      <trkpt lat="43.44047" lon="-0.31856">
        <ele>169.6</ele>
        <time>2010-12-12T10:41:27Z</time>
      </trkpt>
      <trkpt lat="43.44035" lon="-0.31844">
        <ele>169.9</ele>
        <time>2010-12-12T10:41:29Z</time>
      </trkpt>
      <trkpt lat="43.44025" lon="-0.31833">
        <ele>169.8</ele>
        <time>2010-12-12T10:41:31Z</time>
      </trkpt>
      <trkpt lat="43.44015" lon="-0.31821">
        <ele>169.3</ele>
        <time>2010-12-12T10:41:33Z</time>
      </trkpt>
      <trkpt lat="43.44003" lon="-0.3181">
        <ele>169.9</ele>
        <time>2010-12-12T10:41:35Z</time>
      </trkpt>
      <trkpt lat="43.43992" lon="-0.31799">
        <ele>169.8</ele>
        <time>2010-12-12T10:41:37Z</time>
      </trkpt>
      <trkpt lat="43.43982" lon="-0.31787">
        <ele>170.1</ele>
        <time>2010-12-12T10:41:39Z</time>
      </trkpt>
      <trkpt lat="43.43971" lon="-0.31776">
        <ele>170.1</ele>
        <time>2010-12-12T10:41:41Z</time>
      </trkpt>
      <trkpt lat="43.4396" lon="-0.31764">
        <ele>170.1</ele>
        <time>2010-12-12T10:41:43Z</time>
      </trkpt>
      <trkpt lat="43.43949" lon="-0.31754">
        <ele>170.1</ele>
        <time>2010-12-12T10:41:45Z</time>
      </trkpt>
      <trkpt lat="43.43939" lon="-0.31743">
        <ele>169.9</ele>
        <time>2010-12-12T10:41:47Z</time>
      </trkpt>
      <trkpt lat="43.43929" lon="-0.31733">
        <ele>170.1</ele>
        <time>2010-12-12T10:41:49Z</time>
      </trkpt>
      <trkpt lat="43.43919" lon="-0.31722">
        <ele>169.3</ele>
        <time>2010-12-12T10:41:51Z</time>
      </trkpt>
      <trkpt lat="43.43907" lon="-0.31712">
        <ele>168.8</ele>
        <time>2010-12-12T10:41:53Z</time>
      </trkpt>
      <trkpt lat="43.43895" lon="-0.31701">
        <ele>168.9</ele>
        <time>2010-12-12T10:41:55Z</time>
      </trkpt>
      <trkpt lat="43.43885" lon="-0.31691">
        <ele>168.9</ele>
        <time>2010-12-12T10:41:57Z</time>
      </trkpt>
      <trkpt lat="43.43874" lon="-0.31681">
        <ele>168.6</ele>
        <time>2010-12-12T10:41:59Z</time>
      </trkpt>
      <trkpt lat="43.43863" lon="-0.31669">
        <ele>168.3</ele>
        <time>2010-12-12T10:42:01Z</time>
      </trkpt>
      <trkpt lat="43.43853" lon="-0.31658">
        <ele>168.4</ele>
        <time>2010-12-12T10:42:03Z</time>
      </trkpt>
      <trkpt lat="43.43842" lon="-0.31648">
        <ele>168</ele>
        <time>2010-12-12T10:42:05Z</time>
      </trkpt>
      <trkpt lat="43.43831" lon="-0.31637">
        <ele>167.9</ele>
        <time>2010-12-12T10:42:07Z</time>
      </trkpt>
      <trkpt lat="43.43822" lon="-0.31628">
        <ele>167.9</ele>
        <time>2010-12-12T10:42:09Z</time>
      </trkpt>
      <trkpt lat="43.43811" lon="-0.31618">
        <ele>168.1</ele>
        <time>2010-12-12T10:42:11Z</time>
      </trkpt>
      <trkpt lat="43.43801" lon="-0.31606">
        <ele>168.6</ele>
        <time>2010-12-12T10:42:13Z</time>
      </trkpt>
      <trkpt lat="43.43791" lon="-0.31596">
        <ele>168.7</ele>
        <time>2010-12-12T10:42:15Z</time>
      </trkpt>
      <trkpt lat="43.43782" lon="-0.31586">
        <ele>168.4</ele>
        <time>2010-12-12T10:42:17Z</time>
      </trkpt>
      <trkpt lat="43.43772" lon="-0.31577">
        <ele>168.1</ele>
        <time>2010-12-12T10:42:19Z</time>
      </trkpt>
      <trkpt lat="43.43763" lon="-0.31566">
        <ele>167.8</ele>
        <time>2010-12-12T10:42:21Z</time>
      </trkpt>
      <trkpt lat="43.43755" lon="-0.31556">
        <ele>167.4</ele>
        <time>2010-12-12T10:42:23Z</time>
      </trkpt>
      <trkpt lat="43.43747" lon="-0.31546">
        <ele>167.4</ele>
        <time>2010-12-12T10:42:25Z</time>
      </trkpt>
      <trkpt lat="43.43737" lon="-0.31538">
        <ele>167.6</ele>
        <time>2010-12-12T10:42:27Z</time>
      </trkpt>
      <trkpt lat="43.43727" lon="-0.31531">
        <ele>167.1</ele>
        <time>2010-12-12T10:42:29Z</time>
      </trkpt>
      <trkpt lat="43.43718" lon="-0.31521">
        <ele>166.1</ele>
        <time>2010-12-12T10:42:31Z</time>
      </trkpt>
      <trkpt lat="43.4371" lon="-0.31513">
        <ele>165.9</ele>
        <time>2010-12-12T10:42:33Z</time>
      </trkpt>
      <trkpt lat="43.437" lon="-0.31505">
        <ele>166</ele>
        <time>2010-12-12T10:42:35Z</time>
      </trkpt>
      <trkpt lat="43.43692" lon="-0.31496">
        <ele>165.8</ele>
        <time>2010-12-12T10:42:37Z</time>
      </trkpt>
      <trkpt lat="43.43682" lon="-0.31488">
        <ele>165.4</ele>
        <time>2010-12-12T10:42:39Z</time>
      </trkpt>
      <trkpt lat="43.43673" lon="-0.31479">
        <ele>165.4</ele>
        <time>2010-12-12T10:42:41Z</time>
      </trkpt>
      <trkpt lat="43.43664" lon="-0.3147">
        <ele>165.6</ele>
        <time>2010-12-12T10:42:43Z</time>
      </trkpt>
      <trkpt lat="43.43654" lon="-0.3146">
        <ele>165.7</ele>
        <time>2010-12-12T10:42:45Z</time>
      </trkpt>
      <trkpt lat="43.43647" lon="-0.3145">
        <ele>166.6</ele>
        <time>2010-12-12T10:42:47Z</time>
      </trkpt>
      <trkpt lat="43.43637" lon="-0.31441">
        <ele>167.6</ele>
        <time>2010-12-12T10:42:49Z</time>
      </trkpt>
      <trkpt lat="43.43628" lon="-0.31431">
        <ele>168.2</ele>
        <time>2010-12-12T10:42:51Z</time>
      </trkpt>
      <trkpt lat="43.4362" lon="-0.31421">
        <ele>168.8</ele>
        <time>2010-12-12T10:42:53Z</time>
      </trkpt>
      <trkpt lat="43.43611" lon="-0.31411">
        <ele>168.8</ele>
        <time>2010-12-12T10:42:55Z</time>
      </trkpt>
      <trkpt lat="43.43601" lon="-0.31401">
        <ele>168.6</ele>
        <time>2010-12-12T10:42:57Z</time>
      </trkpt>
      <trkpt lat="43.43592" lon="-0.31391">
        <ele>168.3</ele>
        <time>2010-12-12T10:42:59Z</time>
      </trkpt>
      <trkpt lat="43.43582" lon="-0.31381">
        <ele>168.9</ele>
        <time>2010-12-12T10:43:01Z</time>
      </trkpt>
      <trkpt lat="43.43572" lon="-0.31371">
        <ele>169.4</ele>
        <time>2010-12-12T10:43:03Z</time>
      </trkpt>
      <trkpt lat="43.43562" lon="-0.3136">
        <ele>169.1</ele>
        <time>2010-12-12T10:43:05Z</time>
      </trkpt>
      <trkpt lat="43.43552" lon="-0.31349">
        <ele>168.9</ele>
        <time>2010-12-12T10:43:07Z</time>
      </trkpt>
      <trkpt lat="43.43543" lon="-0.31339">
        <ele>169.1</ele>
        <time>2010-12-12T10:43:09Z</time>
      </trkpt>
      <trkpt lat="43.43533" lon="-0.31329">
        <ele>169.9</ele>
        <time>2010-12-12T10:43:11Z</time>
      </trkpt>
      <trkpt lat="43.43523" lon="-0.3132">
        <ele>169.8</ele>
        <time>2010-12-12T10:43:13Z</time>
      </trkpt>
      <trkpt lat="43.43512" lon="-0.3131">
        <ele>169.4</ele>
        <time>2010-12-12T10:43:15Z</time>
      </trkpt>
      <trkpt lat="43.43502" lon="-0.31301">
        <ele>168.9</ele>
        <time>2010-12-12T10:43:17Z</time>
      </trkpt>
      <trkpt lat="43.43492" lon="-0.31291">
        <ele>168.2</ele>
        <time>2010-12-12T10:43:19Z</time>
      </trkpt>
      <trkpt lat="43.43482" lon="-0.31282">
        <ele>167.8</ele>
        <time>2010-12-12T10:43:21Z</time>
      </trkpt>
      <trkpt lat="43.43473" lon="-0.31273">
        <ele>167.8</ele>
        <time>2010-12-12T10:43:23Z</time>
      </trkpt>
      <trkpt lat="43.43459" lon="-0.31265">
        <ele>168.4</ele>
        <time>2010-12-12T10:43:25Z</time>
      </trkpt>
      <trkpt lat="43.43448" lon="-0.31259">
        <ele>168.2</ele>
        <time>2010-12-12T10:43:27Z</time>
      </trkpt>
      <trkpt lat="43.43438" lon="-0.31253">
        <ele>168.4</ele>
        <time>2010-12-12T10:43:29Z</time>
      </trkpt>
      <trkpt lat="43.43427" lon="-0.31247">
        <ele>168.5</ele>
        <time>2010-12-12T10:43:31Z</time>
      </trkpt>
      <trkpt lat="43.43416" lon="-0.3124">
        <ele>168.1</ele>
        <time>2010-12-12T10:43:33Z</time>
      </trkpt>
      <trkpt lat="43.43406" lon="-0.31233">
        <ele>167.7</ele>
        <time>2010-12-12T10:43:35Z</time>
      </trkpt>
      <trkpt lat="43.43395" lon="-0.31227">
        <ele>167.8</ele>
        <time>2010-12-12T10:43:37Z</time>
      </trkpt>
      <trkpt lat="43.43384" lon="-0.31222">
        <ele>168.3</ele>
        <time>2010-12-12T10:43:39Z</time>
      </trkpt>
      <trkpt lat="43.43373" lon="-0.31216">
        <ele>168.9</ele>
        <time>2010-12-12T10:43:41Z</time>
      </trkpt>
      <trkpt lat="43.43364" lon="-0.3121">
        <ele>169.9</ele>
        <time>2010-12-12T10:43:43Z</time>
      </trkpt>
      <trkpt lat="43.43354" lon="-0.31204">
        <ele>169.7</ele>
        <time>2010-12-12T10:43:45Z</time>
      </trkpt>
      <trkpt lat="43.43342" lon="-0.31198">
        <ele>169.5</ele>
        <time>2010-12-12T10:43:47Z</time>
      </trkpt>
      <trkpt lat="43.4333" lon="-0.31193">
        <ele>169.6</ele>
        <time>2010-12-12T10:43:49Z</time>
      </trkpt>
      <trkpt lat="43.43318" lon="-0.31187">
        <ele>169.8</ele>
        <time>2010-12-12T10:43:51Z</time>
      </trkpt>
      <trkpt lat="43.43308" lon="-0.31182">
        <ele>169.9</ele>
        <time>2010-12-12T10:43:53Z</time>
      </trkpt>
      <trkpt lat="43.43296" lon="-0.31176">
        <ele>170.1</ele>
        <time>2010-12-12T10:43:55Z</time>
      </trkpt>
      <trkpt lat="43.43285" lon="-0.31171">
        <ele>170.1</ele>
        <time>2010-12-12T10:43:57Z</time>
      </trkpt>
      <trkpt lat="43.43273" lon="-0.31165">
        <ele>170.3</ele>
        <time>2010-12-12T10:43:59Z</time>
      </trkpt>
      <trkpt lat="43.43262" lon="-0.31158">
        <ele>170</ele>
        <time>2010-12-12T10:44:01Z</time>
      </trkpt>
      <trkpt lat="43.43252" lon="-0.31149">
        <ele>169.8</ele>
        <time>2010-12-12T10:44:03Z</time>
      </trkpt>
      <trkpt lat="43.43243" lon="-0.3114">
        <ele>168.9</ele>
        <time>2010-12-12T10:44:05Z</time>
      </trkpt>
      <trkpt lat="43.43232" lon="-0.3113">
        <ele>168.7</ele>
        <time>2010-12-12T10:44:07Z</time>
      </trkpt>
      <trkpt lat="43.43223" lon="-0.31119">
        <ele>168.2</ele>
        <time>2010-12-12T10:44:09Z</time>
      </trkpt>
      <trkpt lat="43.43215" lon="-0.31109">
        <ele>168.4</ele>
        <time>2010-12-12T10:44:11Z</time>
      </trkpt>
      <trkpt lat="43.43207" lon="-0.31097">
        <ele>169.4</ele>
        <time>2010-12-12T10:44:13Z</time>
      </trkpt>
      <trkpt lat="43.43198" lon="-0.31086">
        <ele>169.4</ele>
        <time>2010-12-12T10:44:15Z</time>
      </trkpt>
      <trkpt lat="43.43188" lon="-0.31073">
        <ele>170.1</ele>
        <time>2010-12-12T10:44:17Z</time>
      </trkpt>
      <trkpt lat="43.43179" lon="-0.31062">
        <ele>170.4</ele>
        <time>2010-12-12T10:44:19Z</time>
      </trkpt>
      <trkpt lat="43.43172" lon="-0.3105">
        <ele>171</ele>
        <time>2010-12-12T10:44:21Z</time>
      </trkpt>
      <trkpt lat="43.43165" lon="-0.31038">
        <ele>171.5</ele>
        <time>2010-12-12T10:44:23Z</time>
      </trkpt>
      <trkpt lat="43.43158" lon="-0.31025">
        <ele>172.2</ele>
        <time>2010-12-12T10:44:25Z</time>
      </trkpt>
      <trkpt lat="43.43152" lon="-0.31011">
        <ele>172.9</ele>
        <time>2010-12-12T10:44:27Z</time>
      </trkpt>
      <trkpt lat="43.43144" lon="-0.30996">
        <ele>173.3</ele>
        <time>2010-12-12T10:44:29Z</time>
      </trkpt>
      <trkpt lat="43.43138" lon="-0.30982">
        <ele>173.4</ele>
        <time>2010-12-12T10:44:31Z</time>
      </trkpt>
      <trkpt lat="43.43131" lon="-0.30968">
        <ele>173</ele>
        <time>2010-12-12T10:44:33Z</time>
      </trkpt>
      <trkpt lat="43.43125" lon="-0.30954">
        <ele>173.4</ele>
        <time>2010-12-12T10:44:35Z</time>
      </trkpt>
      <trkpt lat="43.4312" lon="-0.30938">
        <ele>174.5</ele>
        <time>2010-12-12T10:44:37Z</time>
      </trkpt>
      <trkpt lat="43.43113" lon="-0.30923">
        <ele>174.9</ele>
        <time>2010-12-12T10:44:39Z</time>
      </trkpt>
      <trkpt lat="43.43107" lon="-0.30909">
        <ele>174.7</ele>
        <time>2010-12-12T10:44:41Z</time>
      </trkpt>
      <trkpt lat="43.43101" lon="-0.30895">
        <ele>174.4</ele>
        <time>2010-12-12T10:44:43Z</time>
      </trkpt>
      <trkpt lat="43.43093" lon="-0.3088">
        <ele>174.8</ele>
        <time>2010-12-12T10:44:45Z</time>
      </trkpt>
      <trkpt lat="43.43086" lon="-0.30865">
        <ele>175.4</ele>
        <time>2010-12-12T10:44:47Z</time>
      </trkpt>
      <trkpt lat="43.43079" lon="-0.30851">
        <ele>174.9</ele>
        <time>2010-12-12T10:44:49Z</time>
      </trkpt>
      <trkpt lat="43.4307" lon="-0.30839">
        <ele>174.6</ele>
        <time>2010-12-12T10:44:51Z</time>
      </trkpt>
      <trkpt lat="43.43061" lon="-0.30827">
        <ele>174.6</ele>
        <time>2010-12-12T10:44:53Z</time>
      </trkpt>
      <trkpt lat="43.43051" lon="-0.30816">
        <ele>174.5</ele>
        <time>2010-12-12T10:44:55Z</time>
      </trkpt>
      <trkpt lat="43.43042" lon="-0.30804">
        <ele>174.4</ele>
        <time>2010-12-12T10:44:57Z</time>
      </trkpt>
      <trkpt lat="43.43034" lon="-0.30793">
        <ele>174.3</ele>
        <time>2010-12-12T10:44:59Z</time>
      </trkpt>
      <trkpt lat="43.43025" lon="-0.30781">
        <ele>174.4</ele>
        <time>2010-12-12T10:45:01Z</time>
      </trkpt>
      <trkpt lat="43.43014" lon="-0.3077">
        <ele>174.2</ele>
        <time>2010-12-12T10:45:03Z</time>
      </trkpt>
      <trkpt lat="43.43005" lon="-0.30758">
        <ele>174.4</ele>
        <time>2010-12-12T10:45:05Z</time>
      </trkpt>
      <trkpt lat="43.42997" lon="-0.30747">
        <ele>174.4</ele>
        <time>2010-12-12T10:45:07Z</time>
      </trkpt>
      <trkpt lat="43.42988" lon="-0.30734">
        <ele>173.9</ele>
        <time>2010-12-12T10:45:09Z</time>
      </trkpt>
      <trkpt lat="43.42978" lon="-0.30723">
        <ele>173.6</ele>
        <time>2010-12-12T10:45:11Z</time>
      </trkpt>
      <trkpt lat="43.42968" lon="-0.30712">
        <ele>174.4</ele>
        <time>2010-12-12T10:45:13Z</time>
      </trkpt>
      <trkpt lat="43.4296" lon="-0.307">
        <ele>175.1</ele>
        <time>2010-12-12T10:45:15Z</time>
      </trkpt>
      <trkpt lat="43.42952" lon="-0.30687">
        <ele>176.1</ele>
        <time>2010-12-12T10:45:17Z</time>
      </trkpt>
      <trkpt lat="43.42943" lon="-0.30675">
        <ele>176.8</ele>
        <time>2010-12-12T10:45:19Z</time>
      </trkpt>
      <trkpt lat="43.42933" lon="-0.30664">
        <ele>176.8</ele>
        <time>2010-12-12T10:45:21Z</time>
      </trkpt>
      <trkpt lat="43.42926" lon="-0.30652">
        <ele>178.1</ele>
        <time>2010-12-12T10:45:23Z</time>
      </trkpt>
      <trkpt lat="43.42917" lon="-0.30641">
        <ele>178.7</ele>
        <time>2010-12-12T10:45:25Z</time>
      </trkpt>
      <trkpt lat="43.42908" lon="-0.30629">
        <ele>178.6</ele>
        <time>2010-12-12T10:45:27Z</time>
      </trkpt>
      <trkpt lat="43.429" lon="-0.30617">
        <ele>178.8</ele>
        <time>2010-12-12T10:45:29Z</time>
      </trkpt>
      <trkpt lat="43.42891" lon="-0.30606">
        <ele>179</ele>
        <time>2010-12-12T10:45:31Z</time>
      </trkpt>
      <trkpt lat="43.4288" lon="-0.30594">
        <ele>179.1</ele>
        <time>2010-12-12T10:45:33Z</time>
      </trkpt>
      <trkpt lat="43.4287" lon="-0.30583">
        <ele>179.1</ele>
        <time>2010-12-12T10:45:35Z</time>
      </trkpt>
      <trkpt lat="43.42863" lon="-0.30573">
        <ele>179.9</ele>
        <time>2010-12-12T10:45:37Z</time>
      </trkpt>
      <trkpt lat="43.42853" lon="-0.30563">
        <ele>180.1</ele>
        <time>2010-12-12T10:45:39Z</time>
      </trkpt>
      <trkpt lat="43.42845" lon="-0.30552">
        <ele>180.2</ele>
        <time>2010-12-12T10:45:41Z</time>
      </trkpt>
      <trkpt lat="43.42837" lon="-0.30541">
        <ele>180.3</ele>
        <time>2010-12-12T10:45:43Z</time>
      </trkpt>
      <trkpt lat="43.42831" lon="-0.3053">
        <ele>180.6</ele>
        <time>2010-12-12T10:45:45Z</time>
      </trkpt>
      <trkpt lat="43.42823" lon="-0.30521">
        <ele>180.3</ele>
        <time>2010-12-12T10:45:47Z</time>
      </trkpt>
      <trkpt lat="43.42815" lon="-0.30512">
        <ele>180.4</ele>
        <time>2010-12-12T10:45:49Z</time>
      </trkpt>
      <trkpt lat="43.42808" lon="-0.30501">
        <ele>179.9</ele>
        <time>2010-12-12T10:45:51Z</time>
      </trkpt>
      <trkpt lat="43.42799" lon="-0.30491">
        <ele>179.1</ele>
        <time>2010-12-12T10:45:53Z</time>
      </trkpt>
      <trkpt lat="43.42791" lon="-0.3048">
        <ele>178.9</ele>
        <time>2010-12-12T10:45:55Z</time>
      </trkpt>
      <trkpt lat="43.42783" lon="-0.3047">
        <ele>178.6</ele>
        <time>2010-12-12T10:45:57Z</time>
      </trkpt>
      <trkpt lat="43.42775" lon="-0.30458">
        <ele>177.6</ele>
        <time>2010-12-12T10:45:59Z</time>
      </trkpt>
      <trkpt lat="43.42768" lon="-0.30448">
        <ele>177.5</ele>
        <time>2010-12-12T10:46:01Z</time>
      </trkpt>
      <trkpt lat="43.4276" lon="-0.30439">
        <ele>178.4</ele>
        <time>2010-12-12T10:46:03Z</time>
      </trkpt>
      <trkpt lat="43.42753" lon="-0.3043">
        <ele>179.2</ele>
        <time>2010-12-12T10:46:05Z</time>
      </trkpt>
      <trkpt lat="43.42742" lon="-0.30417">
        <ele>177.7</ele>
        <time>2010-12-12T10:46:10Z</time>
      </trkpt>
      <trkpt lat="43.4274" lon="-0.30415">
        <ele>177.6</ele>
        <time>2010-12-12T10:46:17Z</time>
      </trkpt>
      <trkpt lat="43.42743" lon="-0.30416">
        <ele>182.2</ele>
        <time>2010-12-12T10:46:47Z</time>
      </trkpt>
      <trkpt lat="43.42741" lon="-0.30412">
        <ele>184.9</ele>
        <time>2010-12-12T10:47:28Z</time>
      </trkpt>
      <trkpt lat="43.42741" lon="-0.30419">
        <ele>182.9</ele>
        <time>2010-12-12T10:47:48Z</time>
      </trkpt>
      <trkpt lat="43.42741" lon="-0.30418">
        <ele>183.1</ele>
        <time>2010-12-12T10:48:26Z</time>
      </trkpt>
      <trkpt lat="43.4274" lon="-0.30415">
        <ele>184.9</ele>
        <time>2010-12-12T10:49:00Z</time>
      </trkpt>
      <trkpt lat="43.42743" lon="-0.30413">
        <ele>184.9</ele>
        <time>2010-12-12T10:49:05Z</time>
      </trkpt>
      <trkpt lat="43.42739" lon="-0.30405">
        <ele>184.9</ele>
        <time>2010-12-12T10:49:10Z</time>
      </trkpt>
      <trkpt lat="43.42733" lon="-0.30392">
        <ele>182.8</ele>
        <time>2010-12-12T10:49:15Z</time>
      </trkpt>
      <trkpt lat="43.42727" lon="-0.30382">
        <ele>183.2</ele>
        <time>2010-12-12T10:49:18Z</time>
      </trkpt>
      <trkpt lat="43.42719" lon="-0.30373">
        <ele>182.5</ele>
        <time>2010-12-12T10:49:20Z</time>
      </trkpt>
      <trkpt lat="43.42711" lon="-0.30363">
        <ele>181.6</ele>
        <time>2010-12-12T10:49:22Z</time>
      </trkpt>
      <trkpt lat="43.42703" lon="-0.30352">
        <ele>182.1</ele>
        <time>2010-12-12T10:49:24Z</time>
      </trkpt>
      <trkpt lat="43.42696" lon="-0.30343">
        <ele>182.4</ele>
        <time>2010-12-12T10:49:26Z</time>
      </trkpt>
      <trkpt lat="43.42688" lon="-0.30332">
        <ele>182.1</ele>
        <time>2010-12-12T10:49:28Z</time>
      </trkpt>
      <trkpt lat="43.42679" lon="-0.3032">
        <ele>182.1</ele>
        <time>2010-12-12T10:49:30Z</time>
      </trkpt>
      <trkpt lat="43.42671" lon="-0.30308">
        <ele>182.9</ele>
        <time>2010-12-12T10:49:32Z</time>
      </trkpt>
      <trkpt lat="43.42664" lon="-0.30296">
        <ele>182.8</ele>
        <time>2010-12-12T10:49:34Z</time>
      </trkpt>
      <trkpt lat="43.42657" lon="-0.30284">
        <ele>182.1</ele>
        <time>2010-12-12T10:49:36Z</time>
      </trkpt>
      <trkpt lat="43.42648" lon="-0.30273">
        <ele>181.1</ele>
        <time>2010-12-12T10:49:38Z</time>
      </trkpt>
      <trkpt lat="43.4264" lon="-0.30261">
        <ele>180.6</ele>
        <time>2010-12-12T10:49:40Z</time>
      </trkpt>
      <trkpt lat="43.42632" lon="-0.30249">
        <ele>180.6</ele>
        <time>2010-12-12T10:49:42Z</time>
      </trkpt>
      <trkpt lat="43.42622" lon="-0.30236">
        <ele>180.1</ele>
        <time>2010-12-12T10:49:44Z</time>
      </trkpt>
      <trkpt lat="43.42614" lon="-0.30224">
        <ele>180.3</ele>
        <time>2010-12-12T10:49:46Z</time>
      </trkpt>
      <trkpt lat="43.42606" lon="-0.3021">
        <ele>180.3</ele>
        <time>2010-12-12T10:49:48Z</time>
      </trkpt>
      <trkpt lat="43.42602" lon="-0.30198">
        <ele>180.3</ele>
        <time>2010-12-12T10:49:50Z</time>
      </trkpt>
      <trkpt lat="43.42595" lon="-0.30185">
        <ele>180.1</ele>
        <time>2010-12-12T10:49:52Z</time>
      </trkpt>
      <trkpt lat="43.42587" lon="-0.30172">
        <ele>179.9</ele>
        <time>2010-12-12T10:49:54Z</time>
      </trkpt>
      <trkpt lat="43.42579" lon="-0.30159">
        <ele>179.4</ele>
        <time>2010-12-12T10:49:56Z</time>
      </trkpt>
      <trkpt lat="43.4257" lon="-0.30147">
        <ele>179.6</ele>
        <time>2010-12-12T10:49:58Z</time>
      </trkpt>
      <trkpt lat="43.42561" lon="-0.30135">
        <ele>179.6</ele>
        <time>2010-12-12T10:50:00Z</time>
      </trkpt>
      <trkpt lat="43.42553" lon="-0.30122">
        <ele>179.6</ele>
        <time>2010-12-12T10:50:02Z</time>
      </trkpt>
      <trkpt lat="43.42545" lon="-0.30109">
        <ele>179.6</ele>
        <time>2010-12-12T10:50:04Z</time>
      </trkpt>
      <trkpt lat="43.42539" lon="-0.30097">
        <ele>179.3</ele>
        <time>2010-12-12T10:50:06Z</time>
      </trkpt>
      <trkpt lat="43.42531" lon="-0.30084">
        <ele>178.6</ele>
        <time>2010-12-12T10:50:08Z</time>
      </trkpt>
      <trkpt lat="43.42526" lon="-0.3007">
        <ele>178.1</ele>
        <time>2010-12-12T10:50:10Z</time>
      </trkpt>
      <trkpt lat="43.42518" lon="-0.30058">
        <ele>177.9</ele>
        <time>2010-12-12T10:50:12Z</time>
      </trkpt>
      <trkpt lat="43.42513" lon="-0.30045">
        <ele>177.3</ele>
        <time>2010-12-12T10:50:14Z</time>
      </trkpt>
      <trkpt lat="43.42505" lon="-0.30032">
        <ele>176.9</ele>
        <time>2010-12-12T10:50:16Z</time>
      </trkpt>
      <trkpt lat="43.42496" lon="-0.3002">
        <ele>176.9</ele>
        <time>2010-12-12T10:50:18Z</time>
      </trkpt>
      <trkpt lat="43.42487" lon="-0.30007">
        <ele>177.1</ele>
        <time>2010-12-12T10:50:20Z</time>
      </trkpt>
      <trkpt lat="43.42476" lon="-0.29994">
        <ele>177.4</ele>
        <time>2010-12-12T10:50:22Z</time>
      </trkpt>
      <trkpt lat="43.42467" lon="-0.29981">
        <ele>177.4</ele>
        <time>2010-12-12T10:50:24Z</time>
      </trkpt>
      <trkpt lat="43.42457" lon="-0.29968">
        <ele>177.3</ele>
        <time>2010-12-12T10:50:26Z</time>
      </trkpt>
      <trkpt lat="43.42448" lon="-0.29956">
        <ele>176.8</ele>
        <time>2010-12-12T10:50:28Z</time>
      </trkpt>
      <trkpt lat="43.42441" lon="-0.29942">
        <ele>177.1</ele>
        <time>2010-12-12T10:50:30Z</time>
      </trkpt>
      <trkpt lat="43.42434" lon="-0.29928">
        <ele>177.6</ele>
        <time>2010-12-12T10:50:32Z</time>
      </trkpt>
      <trkpt lat="43.42426" lon="-0.29915">
        <ele>178</ele>
        <time>2010-12-12T10:50:34Z</time>
      </trkpt>
      <trkpt lat="43.42417" lon="-0.29902">
        <ele>178.7</ele>
        <time>2010-12-12T10:50:36Z</time>
      </trkpt>
      <trkpt lat="43.42406" lon="-0.29888">
        <ele>178.4</ele>
        <time>2010-12-12T10:50:38Z</time>
      </trkpt>
      <trkpt lat="43.42401" lon="-0.29874">
        <ele>179.6</ele>
        <time>2010-12-12T10:50:40Z</time>
      </trkpt>
      <trkpt lat="43.42394" lon="-0.29861">
        <ele>179.7</ele>
        <time>2010-12-12T10:50:42Z</time>
      </trkpt>
      <trkpt lat="43.42387" lon="-0.29847">
        <ele>180.1</ele>
        <time>2010-12-12T10:50:44Z</time>
      </trkpt>
      <trkpt lat="43.42378" lon="-0.29834">
        <ele>180.3</ele>
        <time>2010-12-12T10:50:46Z</time>
      </trkpt>
      <trkpt lat="43.42371" lon="-0.29823">
        <ele>180.3</ele>
        <time>2010-12-12T10:50:48Z</time>
      </trkpt>
      <trkpt lat="43.42363" lon="-0.29812">
        <ele>180.6</ele>
        <time>2010-12-12T10:50:50Z</time>
      </trkpt>
      <trkpt lat="43.42353" lon="-0.29803">
        <ele>180.4</ele>
        <time>2010-12-12T10:50:52Z</time>
      </trkpt>
      <trkpt lat="43.42342" lon="-0.29793">
        <ele>180.8</ele>
        <time>2010-12-12T10:50:54Z</time>
      </trkpt>
      <trkpt lat="43.42334" lon="-0.29783">
        <ele>181.3</ele>
        <time>2010-12-12T10:50:56Z</time>
      </trkpt>
      <trkpt lat="43.42325" lon="-0.29772">
        <ele>181.7</ele>
        <time>2010-12-12T10:50:58Z</time>
      </trkpt>
      <trkpt lat="43.42314" lon="-0.29763">
        <ele>181.4</ele>
        <time>2010-12-12T10:51:00Z</time>
      </trkpt>
      <trkpt lat="43.42304" lon="-0.29754">
        <ele>181.1</ele>
        <time>2010-12-12T10:51:02Z</time>
      </trkpt>
      <trkpt lat="43.42296" lon="-0.29744">
        <ele>180.9</ele>
        <time>2010-12-12T10:51:04Z</time>
      </trkpt>
      <trkpt lat="43.42286" lon="-0.29734">
        <ele>181.1</ele>
        <time>2010-12-12T10:51:06Z</time>
      </trkpt>
      <trkpt lat="43.42276" lon="-0.29725">
        <ele>181.5</ele>
        <time>2010-12-12T10:51:08Z</time>
      </trkpt>
      <trkpt lat="43.42266" lon="-0.29715">
        <ele>181.5</ele>
        <time>2010-12-12T10:51:10Z</time>
      </trkpt>
      <trkpt lat="43.42256" lon="-0.29706">
        <ele>180.8</ele>
        <time>2010-12-12T10:51:12Z</time>
      </trkpt>
      <trkpt lat="43.42245" lon="-0.29696">
        <ele>180.4</ele>
        <time>2010-12-12T10:51:14Z</time>
      </trkpt>
      <trkpt lat="43.42236" lon="-0.29686">
        <ele>180.4</ele>
        <time>2010-12-12T10:51:16Z</time>
      </trkpt>
      <trkpt lat="43.42226" lon="-0.29676">
        <ele>180.6</ele>
        <time>2010-12-12T10:51:18Z</time>
      </trkpt>
      <trkpt lat="43.42214" lon="-0.29667">
        <ele>180.4</ele>
        <time>2010-12-12T10:51:20Z</time>
      </trkpt>
      <trkpt lat="43.42206" lon="-0.29657">
        <ele>180.8</ele>
        <time>2010-12-12T10:51:22Z</time>
      </trkpt>
      <trkpt lat="43.42199" lon="-0.29646">
        <ele>181.4</ele>
        <time>2010-12-12T10:51:24Z</time>
      </trkpt>
      <trkpt lat="43.42195" lon="-0.29635">
        <ele>182.3</ele>
        <time>2010-12-12T10:51:26Z</time>
      </trkpt>
      <trkpt lat="43.42184" lon="-0.29625">
        <ele>181.7</ele>
        <time>2010-12-12T10:51:28Z</time>
      </trkpt>
      <trkpt lat="43.42175" lon="-0.29614">
        <ele>181.7</ele>
        <time>2010-12-12T10:51:30Z</time>
      </trkpt>
      <trkpt lat="43.4217" lon="-0.29603">
        <ele>182.4</ele>
        <time>2010-12-12T10:51:32Z</time>
      </trkpt>
      <trkpt lat="43.42167" lon="-0.29592">
        <ele>183.3</ele>
        <time>2010-12-12T10:51:34Z</time>
      </trkpt>
      <trkpt lat="43.4216" lon="-0.29579">
        <ele>184.3</ele>
        <time>2010-12-12T10:51:36Z</time>
      </trkpt>
      <trkpt lat="43.42154" lon="-0.29566">
        <ele>185.7</ele>
        <time>2010-12-12T10:51:38Z</time>
      </trkpt>
      <trkpt lat="43.42148" lon="-0.29553">
        <ele>187.6</ele>
        <time>2010-12-12T10:51:40Z</time>
      </trkpt>
      <trkpt lat="43.42141" lon="-0.2954">
        <ele>188.6</ele>
        <time>2010-12-12T10:51:42Z</time>
      </trkpt>
      <trkpt lat="43.42135" lon="-0.29528">
        <ele>190</ele>
        <time>2010-12-12T10:51:44Z</time>
      </trkpt>
      <trkpt lat="43.42124" lon="-0.29516">
        <ele>190.6</ele>
        <time>2010-12-12T10:51:46Z</time>
      </trkpt>
      <trkpt lat="43.4211" lon="-0.29502">
        <ele>190.6</ele>
        <time>2010-12-12T10:51:48Z</time>
      </trkpt>
      <trkpt lat="43.42099" lon="-0.29488">
        <ele>190.6</ele>
        <time>2010-12-12T10:51:50Z</time>
      </trkpt>
      <trkpt lat="43.4209" lon="-0.29475">
        <ele>190.6</ele>
        <time>2010-12-12T10:51:52Z</time>
      </trkpt>
      <trkpt lat="43.42078" lon="-0.29462">
        <ele>190.4</ele>
        <time>2010-12-12T10:51:54Z</time>
      </trkpt>
      <trkpt lat="43.42069" lon="-0.2945">
        <ele>190.4</ele>
        <time>2010-12-12T10:51:56Z</time>
      </trkpt>
      <trkpt lat="43.4206" lon="-0.2944">
        <ele>191.3</ele>
        <time>2010-12-12T10:51:58Z</time>
      </trkpt>
      <trkpt lat="43.4205" lon="-0.29432">
        <ele>191.6</ele>
        <time>2010-12-12T10:52:00Z</time>
      </trkpt>
      <trkpt lat="43.4204" lon="-0.29424">
        <ele>191.4</ele>
        <time>2010-12-12T10:52:02Z</time>
      </trkpt>
      <trkpt lat="43.4203" lon="-0.29417">
        <ele>191.8</ele>
        <time>2010-12-12T10:52:04Z</time>
      </trkpt>
      <trkpt lat="43.42019" lon="-0.2941">
        <ele>191.9</ele>
        <time>2010-12-12T10:52:06Z</time>
      </trkpt>
      <trkpt lat="43.42009" lon="-0.29403">
        <ele>191.4</ele>
        <time>2010-12-12T10:52:08Z</time>
      </trkpt>
      <trkpt lat="43.41997" lon="-0.29396">
        <ele>191.2</ele>
        <time>2010-12-12T10:52:10Z</time>
      </trkpt>
      <trkpt lat="43.41986" lon="-0.29388">
        <ele>190.6</ele>
        <time>2010-12-12T10:52:12Z</time>
      </trkpt>
      <trkpt lat="43.41975" lon="-0.2938">
        <ele>189.8</ele>
        <time>2010-12-12T10:52:14Z</time>
      </trkpt>
      <trkpt lat="43.41959" lon="-0.29373">
        <ele>187.4</ele>
        <time>2010-12-12T10:52:16Z</time>
      </trkpt>
      <trkpt lat="43.41948" lon="-0.29364">
        <ele>186.6</ele>
        <time>2010-12-12T10:52:18Z</time>
      </trkpt>
      <trkpt lat="43.41937" lon="-0.29356">
        <ele>185.4</ele>
        <time>2010-12-12T10:52:20Z</time>
      </trkpt>
      <trkpt lat="43.41927" lon="-0.29348">
        <ele>185.1</ele>
        <time>2010-12-12T10:52:22Z</time>
      </trkpt>
      <trkpt lat="43.41917" lon="-0.29341">
        <ele>184.4</ele>
        <time>2010-12-12T10:52:24Z</time>
      </trkpt>
      <trkpt lat="43.41908" lon="-0.29334">
        <ele>184</ele>
        <time>2010-12-12T10:52:26Z</time>
      </trkpt>
      <trkpt lat="43.41895" lon="-0.29327">
        <ele>183.9</ele>
        <time>2010-12-12T10:52:28Z</time>
      </trkpt>
      <trkpt lat="43.41885" lon="-0.29322">
        <ele>183.9</ele>
        <time>2010-12-12T10:52:30Z</time>
      </trkpt>
      <trkpt lat="43.41874" lon="-0.29316">
        <ele>183.7</ele>
        <time>2010-12-12T10:52:32Z</time>
      </trkpt>
      <trkpt lat="43.41863" lon="-0.29309">
        <ele>184</ele>
        <time>2010-12-12T10:52:34Z</time>
      </trkpt>
      <trkpt lat="43.41852" lon="-0.29304">
        <ele>183.6</ele>
        <time>2010-12-12T10:52:36Z</time>
      </trkpt>
      <trkpt lat="43.4184" lon="-0.29299">
        <ele>183.6</ele>
        <time>2010-12-12T10:52:38Z</time>
      </trkpt>
      <trkpt lat="43.41829" lon="-0.29293">
        <ele>182.9</ele>
        <time>2010-12-12T10:52:40Z</time>
      </trkpt>
      <trkpt lat="43.41816" lon="-0.29288">
        <ele>183.1</ele>
        <time>2010-12-12T10:52:42Z</time>
      </trkpt>
      <trkpt lat="43.41803" lon="-0.29283">
        <ele>183</ele>
        <time>2010-12-12T10:52:44Z</time>
      </trkpt>
      <trkpt lat="43.41794" lon="-0.29278">
        <ele>183.6</ele>
        <time>2010-12-12T10:52:46Z</time>
      </trkpt>
      <trkpt lat="43.41782" lon="-0.29272">
        <ele>184.1</ele>
        <time>2010-12-12T10:52:48Z</time>
      </trkpt>
      <trkpt lat="43.41769" lon="-0.29266">
        <ele>184.9</ele>
        <time>2010-12-12T10:52:50Z</time>
      </trkpt>
      <trkpt lat="43.41758" lon="-0.29261">
        <ele>184.9</ele>
        <time>2010-12-12T10:52:52Z</time>
      </trkpt>
      <trkpt lat="43.41746" lon="-0.29254">
        <ele>184.9</ele>
        <time>2010-12-12T10:52:54Z</time>
      </trkpt>
      <trkpt lat="43.41736" lon="-0.29246">
        <ele>184.6</ele>
        <time>2010-12-12T10:52:56Z</time>
      </trkpt>
      <trkpt lat="43.41725" lon="-0.29237">
        <ele>184.6</ele>
        <time>2010-12-12T10:52:58Z</time>
      </trkpt>
      <trkpt lat="43.41715" lon="-0.29228">
        <ele>184.8</ele>
        <time>2010-12-12T10:53:00Z</time>
      </trkpt>
      <trkpt lat="43.41705" lon="-0.2922">
        <ele>184.4</ele>
        <time>2010-12-12T10:53:02Z</time>
      </trkpt>
      <trkpt lat="43.41695" lon="-0.2921">
        <ele>184.2</ele>
        <time>2010-12-12T10:53:04Z</time>
      </trkpt>
      <trkpt lat="43.41686" lon="-0.29201">
        <ele>184.1</ele>
        <time>2010-12-12T10:53:06Z</time>
      </trkpt>
      <trkpt lat="43.41677" lon="-0.29191">
        <ele>183.8</ele>
        <time>2010-12-12T10:53:08Z</time>
      </trkpt>
      <trkpt lat="43.41663" lon="-0.29183">
        <ele>183.6</ele>
        <time>2010-12-12T10:53:10Z</time>
      </trkpt>
      <trkpt lat="43.41656" lon="-0.29174">
        <ele>184.6</ele>
        <time>2010-12-12T10:53:12Z</time>
      </trkpt>
      <trkpt lat="43.41648" lon="-0.29164">
        <ele>185.9</ele>
        <time>2010-12-12T10:53:14Z</time>
      </trkpt>
      <trkpt lat="43.41637" lon="-0.29155">
        <ele>186.4</ele>
        <time>2010-12-12T10:53:16Z</time>
      </trkpt>
      <trkpt lat="43.41626" lon="-0.29146">
        <ele>186.1</ele>
        <time>2010-12-12T10:53:18Z</time>
      </trkpt>
      <trkpt lat="43.41616" lon="-0.29137">
        <ele>187.1</ele>
        <time>2010-12-12T10:53:20Z</time>
      </trkpt>
      <trkpt lat="43.41606" lon="-0.29129">
        <ele>187.4</ele>
        <time>2010-12-12T10:53:22Z</time>
      </trkpt>
      <trkpt lat="43.41597" lon="-0.2912">
        <ele>187.1</ele>
        <time>2010-12-12T10:53:24Z</time>
      </trkpt>
      <trkpt lat="43.41588" lon="-0.29112">
        <ele>186.4</ele>
        <time>2010-12-12T10:53:26Z</time>
      </trkpt>
      <trkpt lat="43.41578" lon="-0.29104">
        <ele>186.1</ele>
        <time>2010-12-12T10:53:28Z</time>
      </trkpt>
      <trkpt lat="43.41567" lon="-0.29095">
        <ele>186</ele>
        <time>2010-12-12T10:53:30Z</time>
      </trkpt>
      <trkpt lat="43.41553" lon="-0.29085">
        <ele>185.8</ele>
        <time>2010-12-12T10:53:32Z</time>
      </trkpt>
      <trkpt lat="43.41545" lon="-0.29077">
        <ele>186.9</ele>
        <time>2010-12-12T10:53:34Z</time>
      </trkpt>
      <trkpt lat="43.41536" lon="-0.29069">
        <ele>186.8</ele>
        <time>2010-12-12T10:53:36Z</time>
      </trkpt>
      <trkpt lat="43.41525" lon="-0.29061">
        <ele>187.4</ele>
        <time>2010-12-12T10:53:38Z</time>
      </trkpt>
      <trkpt lat="43.41515" lon="-0.29054">
        <ele>187.4</ele>
        <time>2010-12-12T10:53:40Z</time>
      </trkpt>
      <trkpt lat="43.41501" lon="-0.29046">
        <ele>187.9</ele>
        <time>2010-12-12T10:53:43Z</time>
      </trkpt>
      <trkpt lat="43.41489" lon="-0.2904">
        <ele>188.1</ele>
        <time>2010-12-12T10:53:45Z</time>
      </trkpt>
      <trkpt lat="43.41476" lon="-0.29035">
        <ele>188.1</ele>
        <time>2010-12-12T10:53:47Z</time>
      </trkpt>
      <trkpt lat="43.41464" lon="-0.29031">
        <ele>188.4</ele>
        <time>2010-12-12T10:53:49Z</time>
      </trkpt>
      <trkpt lat="43.41451" lon="-0.29027">
        <ele>188.7</ele>
        <time>2010-12-12T10:53:51Z</time>
      </trkpt>
      <trkpt lat="43.41436" lon="-0.29025">
        <ele>188.9</ele>
        <time>2010-12-12T10:53:53Z</time>
      </trkpt>
      <trkpt lat="43.41423" lon="-0.29021">
        <ele>188.9</ele>
        <time>2010-12-12T10:53:55Z</time>
      </trkpt>
      <trkpt lat="43.41409" lon="-0.29018">
        <ele>188.1</ele>
        <time>2010-12-12T10:53:57Z</time>
      </trkpt>
      <trkpt lat="43.41398" lon="-0.29017">
        <ele>187.4</ele>
        <time>2010-12-12T10:53:59Z</time>
      </trkpt>
      <trkpt lat="43.41384" lon="-0.29017">
        <ele>187.4</ele>
        <time>2010-12-12T10:54:02Z</time>
      </trkpt>
      <trkpt lat="43.41372" lon="-0.29018">
        <ele>188.2</ele>
        <time>2010-12-12T10:54:04Z</time>
      </trkpt>
      <trkpt lat="43.41359" lon="-0.29019">
        <ele>188.8</ele>
        <time>2010-12-12T10:54:07Z</time>
      </trkpt>
      <trkpt lat="43.41348" lon="-0.29021">
        <ele>188.6</ele>
        <time>2010-12-12T10:54:09Z</time>
      </trkpt>
      <trkpt lat="43.41335" lon="-0.29022">
        <ele>188.6</ele>
        <time>2010-12-12T10:54:11Z</time>
      </trkpt>
      <trkpt lat="43.41324" lon="-0.29024">
        <ele>189.1</ele>
        <time>2010-12-12T10:54:13Z</time>
      </trkpt>
      <trkpt lat="43.41312" lon="-0.29025">
        <ele>189.6</ele>
        <time>2010-12-12T10:54:15Z</time>
      </trkpt>
      <trkpt lat="43.41301" lon="-0.29025">
        <ele>189.6</ele>
        <time>2010-12-12T10:54:17Z</time>
      </trkpt>
      <trkpt lat="43.41286" lon="-0.29026">
        <ele>189.7</ele>
        <time>2010-12-12T10:54:20Z</time>
      </trkpt>
      <trkpt lat="43.41273" lon="-0.29028">
        <ele>190.1</ele>
        <time>2010-12-12T10:54:22Z</time>
      </trkpt>
      <trkpt lat="43.4126" lon="-0.29029">
        <ele>190.6</ele>
        <time>2010-12-12T10:54:24Z</time>
      </trkpt>
      <trkpt lat="43.41249" lon="-0.29031">
        <ele>190.7</ele>
        <time>2010-12-12T10:54:26Z</time>
      </trkpt>
      <trkpt lat="43.41239" lon="-0.29032">
        <ele>190.4</ele>
        <time>2010-12-12T10:54:28Z</time>
      </trkpt>
      <trkpt lat="43.41228" lon="-0.29032">
        <ele>190.7</ele>
        <time>2010-12-12T10:54:30Z</time>
      </trkpt>
      <trkpt lat="43.41216" lon="-0.29034">
        <ele>190.9</ele>
        <time>2010-12-12T10:54:32Z</time>
      </trkpt>
      <trkpt lat="43.41206" lon="-0.29035">
        <ele>190.8</ele>
        <time>2010-12-12T10:54:34Z</time>
      </trkpt>
      <trkpt lat="43.41193" lon="-0.29039">
        <ele>191.1</ele>
        <time>2010-12-12T10:54:36Z</time>
      </trkpt>
      <trkpt lat="43.41181" lon="-0.29041">
        <ele>191.1</ele>
        <time>2010-12-12T10:54:38Z</time>
      </trkpt>
      <trkpt lat="43.41169" lon="-0.29044">
        <ele>190.4</ele>
        <time>2010-12-12T10:54:40Z</time>
      </trkpt>
      <trkpt lat="43.41159" lon="-0.29046">
        <ele>190.1</ele>
        <time>2010-12-12T10:54:42Z</time>
      </trkpt>
      <trkpt lat="43.41148" lon="-0.29049">
        <ele>190.5</ele>
        <time>2010-12-12T10:54:44Z</time>
      </trkpt>
      <trkpt lat="43.41133" lon="-0.29051">
        <ele>190.9</ele>
        <time>2010-12-12T10:54:46Z</time>
      </trkpt>
      <trkpt lat="43.41122" lon="-0.29053">
        <ele>192.4</ele>
        <time>2010-12-12T10:54:49Z</time>
      </trkpt>
      <trkpt lat="43.41111" lon="-0.29055">
        <ele>192.5</ele>
        <time>2010-12-12T10:54:51Z</time>
      </trkpt>
      <trkpt lat="43.41101" lon="-0.29057">
        <ele>193.1</ele>
        <time>2010-12-12T10:54:53Z</time>
      </trkpt>
      <trkpt lat="43.41091" lon="-0.2906">
        <ele>192.9</ele>
        <time>2010-12-12T10:54:55Z</time>
      </trkpt>
      <trkpt lat="43.4108" lon="-0.29062">
        <ele>192.4</ele>
        <time>2010-12-12T10:54:57Z</time>
      </trkpt>
      <trkpt lat="43.4107" lon="-0.29064">
        <ele>192.9</ele>
        <time>2010-12-12T10:54:59Z</time>
      </trkpt>
      <trkpt lat="43.4106" lon="-0.29066">
        <ele>192.3</ele>
        <time>2010-12-12T10:55:01Z</time>
      </trkpt>
      <trkpt lat="43.4105" lon="-0.29068">
        <ele>192.3</ele>
        <time>2010-12-12T10:55:03Z</time>
      </trkpt>
      <trkpt lat="43.4104" lon="-0.2907">
        <ele>192</ele>
        <time>2010-12-12T10:55:05Z</time>
      </trkpt>
      <trkpt lat="43.41029" lon="-0.29073">
        <ele>192.3</ele>
        <time>2010-12-12T10:55:07Z</time>
      </trkpt>
      <trkpt lat="43.41018" lon="-0.29076">
        <ele>193.1</ele>
        <time>2010-12-12T10:55:09Z</time>
      </trkpt>
      <trkpt lat="43.41008" lon="-0.29077">
        <ele>193.3</ele>
        <time>2010-12-12T10:55:11Z</time>
      </trkpt>
      <trkpt lat="43.40997" lon="-0.29078">
        <ele>194.3</ele>
        <time>2010-12-12T10:55:13Z</time>
      </trkpt>
      <trkpt lat="43.40987" lon="-0.29079">
        <ele>194.1</ele>
        <time>2010-12-12T10:55:15Z</time>
      </trkpt>
      <trkpt lat="43.40975" lon="-0.2908">
        <ele>194.5</ele>
        <time>2010-12-12T10:55:17Z</time>
      </trkpt>
      <trkpt lat="43.40965" lon="-0.29081">
        <ele>194.8</ele>
        <time>2010-12-12T10:55:19Z</time>
      </trkpt>
      <trkpt lat="43.40953" lon="-0.29081">
        <ele>194.5</ele>
        <time>2010-12-12T10:55:21Z</time>
      </trkpt>
      <trkpt lat="43.40942" lon="-0.29081">
        <ele>194.6</ele>
        <time>2010-12-12T10:55:23Z</time>
      </trkpt>
      <trkpt lat="43.40931" lon="-0.29082">
        <ele>195</ele>
        <time>2010-12-12T10:55:25Z</time>
      </trkpt>
      <trkpt lat="43.4092" lon="-0.29083">
        <ele>194.9</ele>
        <time>2010-12-12T10:55:27Z</time>
      </trkpt>
      <trkpt lat="43.40908" lon="-0.29083">
        <ele>194.6</ele>
        <time>2010-12-12T10:55:29Z</time>
      </trkpt>
      <trkpt lat="43.40898" lon="-0.29083">
        <ele>195.1</ele>
        <time>2010-12-12T10:55:31Z</time>
      </trkpt>
      <trkpt lat="43.40887" lon="-0.29083">
        <ele>195.1</ele>
        <time>2010-12-12T10:55:33Z</time>
      </trkpt>
      <trkpt lat="43.40877" lon="-0.29083">
        <ele>194.6</ele>
        <time>2010-12-12T10:55:35Z</time>
      </trkpt>
      <trkpt lat="43.40865" lon="-0.29083">
        <ele>194.4</ele>
        <time>2010-12-12T10:55:37Z</time>
      </trkpt>
      <trkpt lat="43.40853" lon="-0.29082">
        <ele>194.6</ele>
        <time>2010-12-12T10:55:39Z</time>
      </trkpt>
      <trkpt lat="43.40842" lon="-0.29081">
        <ele>194.6</ele>
        <time>2010-12-12T10:55:41Z</time>
      </trkpt>
      <trkpt lat="43.40832" lon="-0.2908">
        <ele>194.3</ele>
        <time>2010-12-12T10:55:43Z</time>
      </trkpt>
      <trkpt lat="43.40822" lon="-0.29077">
        <ele>193.8</ele>
        <time>2010-12-12T10:55:45Z</time>
      </trkpt>
      <trkpt lat="43.40806" lon="-0.29073">
        <ele>194.9</ele>
        <time>2010-12-12T10:55:49Z</time>
      </trkpt>
      <trkpt lat="43.40791" lon="-0.29072">
        <ele>195.3</ele>
        <time>2010-12-12T10:55:51Z</time>
      </trkpt>
      <trkpt lat="43.4078" lon="-0.29072">
        <ele>195.2</ele>
        <time>2010-12-12T10:55:53Z</time>
      </trkpt>
      <trkpt lat="43.40769" lon="-0.29074">
        <ele>195.1</ele>
        <time>2010-12-12T10:55:55Z</time>
      </trkpt>
      <trkpt lat="43.40759" lon="-0.29077">
        <ele>195.7</ele>
        <time>2010-12-12T10:55:57Z</time>
      </trkpt>
      <trkpt lat="43.40748" lon="-0.2908">
        <ele>195.6</ele>
        <time>2010-12-12T10:55:59Z</time>
      </trkpt>
      <trkpt lat="43.40736" lon="-0.29084">
        <ele>196.2</ele>
        <time>2010-12-12T10:56:01Z</time>
      </trkpt>
      <trkpt lat="43.40724" lon="-0.29088">
        <ele>196.4</ele>
        <time>2010-12-12T10:56:04Z</time>
      </trkpt>
      <trkpt lat="43.40714" lon="-0.29092">
        <ele>197.1</ele>
        <time>2010-12-12T10:56:06Z</time>
      </trkpt>
      <trkpt lat="43.40703" lon="-0.29096">
        <ele>198.1</ele>
        <time>2010-12-12T10:56:08Z</time>
      </trkpt>
      <trkpt lat="43.40694" lon="-0.29099">
        <ele>198.3</ele>
        <time>2010-12-12T10:56:10Z</time>
      </trkpt>
      <trkpt lat="43.40685" lon="-0.29102">
        <ele>198.6</ele>
        <time>2010-12-12T10:56:12Z</time>
      </trkpt>
      <trkpt lat="43.40675" lon="-0.29105">
        <ele>198.6</ele>
        <time>2010-12-12T10:56:14Z</time>
      </trkpt>
      <trkpt lat="43.40659" lon="-0.2911">
        <ele>198.8</ele>
        <time>2010-12-12T10:56:18Z</time>
      </trkpt>
      <trkpt lat="43.40648" lon="-0.29113">
        <ele>199.4</ele>
        <time>2010-12-12T10:56:20Z</time>
      </trkpt>
      <trkpt lat="43.40639" lon="-0.29117">
        <ele>199.8</ele>
        <time>2010-12-12T10:56:22Z</time>
      </trkpt>
      <trkpt lat="43.40629" lon="-0.29121">
        <ele>200.1</ele>
        <time>2010-12-12T10:56:24Z</time>
      </trkpt>
      <trkpt lat="43.40619" lon="-0.29124">
        <ele>201.1</ele>
        <time>2010-12-12T10:56:26Z</time>
      </trkpt>
      <trkpt lat="43.40608" lon="-0.29127">
        <ele>201.3</ele>
        <time>2010-12-12T10:56:28Z</time>
      </trkpt>
      <trkpt lat="43.40593" lon="-0.29133">
        <ele>203.4</ele>
        <time>2010-12-12T10:56:32Z</time>
      </trkpt>
      <trkpt lat="43.40583" lon="-0.29136">
        <ele>204.1</ele>
        <time>2010-12-12T10:56:34Z</time>
      </trkpt>
      <trkpt lat="43.40571" lon="-0.2914">
        <ele>204.9</ele>
        <time>2010-12-12T10:56:37Z</time>
      </trkpt>
      <trkpt lat="43.40561" lon="-0.29142">
        <ele>204.9</ele>
        <time>2010-12-12T10:56:39Z</time>
      </trkpt>
      <trkpt lat="43.40545" lon="-0.29147">
        <ele>204.9</ele>
        <time>2010-12-12T10:56:43Z</time>
      </trkpt>
      <trkpt lat="43.40534" lon="-0.2915">
        <ele>205.4</ele>
        <time>2010-12-12T10:56:47Z</time>
      </trkpt>
      <trkpt lat="43.40522" lon="-0.29155">
        <ele>205.5</ele>
        <time>2010-12-12T10:56:50Z</time>
      </trkpt>
      <trkpt lat="43.40509" lon="-0.29159">
        <ele>206.4</ele>
        <time>2010-12-12T10:56:53Z</time>
      </trkpt>
      <trkpt lat="43.40496" lon="-0.29163">
        <ele>207.6</ele>
        <time>2010-12-12T10:56:56Z</time>
      </trkpt>
      <trkpt lat="43.40486" lon="-0.29167">
        <ele>207.4</ele>
        <time>2010-12-12T10:56:58Z</time>
      </trkpt>
      <trkpt lat="43.40469" lon="-0.29173">
        <ele>207.5</ele>
        <time>2010-12-12T10:57:02Z</time>
      </trkpt>
      <trkpt lat="43.40456" lon="-0.29176">
        <ele>207.7</ele>
        <time>2010-12-12T10:57:05Z</time>
      </trkpt>
      <trkpt lat="43.40442" lon="-0.2918">
        <ele>208.4</ele>
        <time>2010-12-12T10:57:09Z</time>
      </trkpt>
      <trkpt lat="43.40427" lon="-0.29182">
        <ele>208.6</ele>
        <time>2010-12-12T10:57:12Z</time>
      </trkpt>
      <trkpt lat="43.40412" lon="-0.29185">
        <ele>209.4</ele>
        <time>2010-12-12T10:57:16Z</time>
      </trkpt>
      <trkpt lat="43.40395" lon="-0.29186">
        <ele>209.9</ele>
        <time>2010-12-12T10:57:19Z</time>
      </trkpt>
      <trkpt lat="43.40384" lon="-0.29186">
        <ele>210.2</ele>
        <time>2010-12-12T10:57:22Z</time>
      </trkpt>
      <trkpt lat="43.40369" lon="-0.29186">
        <ele>210.6</ele>
        <time>2010-12-12T10:57:26Z</time>
      </trkpt>
      <trkpt lat="43.40353" lon="-0.29185">
        <ele>212.4</ele>
        <time>2010-12-12T10:57:30Z</time>
      </trkpt>
      <trkpt lat="43.40342" lon="-0.29185">
        <ele>213.4</ele>
        <time>2010-12-12T10:57:32Z</time>
      </trkpt>
      <trkpt lat="43.40327" lon="-0.29185">
        <ele>214.1</ele>
        <time>2010-12-12T10:57:35Z</time>
      </trkpt>
      <trkpt lat="43.40314" lon="-0.29185">
        <ele>214</ele>
        <time>2010-12-12T10:57:38Z</time>
      </trkpt>
      <trkpt lat="43.40299" lon="-0.29185">
        <ele>215.6</ele>
        <time>2010-12-12T10:57:42Z</time>
      </trkpt>
      <trkpt lat="43.40284" lon="-0.29187">
        <ele>216.1</ele>
        <time>2010-12-12T10:57:47Z</time>
      </trkpt>
      <trkpt lat="43.4027" lon="-0.2919">
        <ele>216.9</ele>
        <time>2010-12-12T10:57:51Z</time>
      </trkpt>
      <trkpt lat="43.40257" lon="-0.29197">
        <ele>218.5</ele>
        <time>2010-12-12T10:57:54Z</time>
      </trkpt>
      <trkpt lat="43.40246" lon="-0.29206">
        <ele>220.4</ele>
        <time>2010-12-12T10:57:59Z</time>
      </trkpt>
      <trkpt lat="43.40237" lon="-0.29214">
        <ele>220.8</ele>
        <time>2010-12-12T10:58:01Z</time>
      </trkpt>
      <trkpt lat="43.40227" lon="-0.29225">
        <ele>219.9</ele>
        <time>2010-12-12T10:58:06Z</time>
      </trkpt>
      <trkpt lat="43.40217" lon="-0.29235">
        <ele>219.6</ele>
        <time>2010-12-12T10:58:10Z</time>
      </trkpt>
      <trkpt lat="43.40207" lon="-0.29247">
        <ele>220.4</ele>
        <time>2010-12-12T10:58:13Z</time>
      </trkpt>
      <trkpt lat="43.40196" lon="-0.29259">
        <ele>221.1</ele>
        <time>2010-12-12T10:58:17Z</time>
      </trkpt>
      <trkpt lat="43.40187" lon="-0.29271">
        <ele>222.7</ele>
        <time>2010-12-12T10:58:22Z</time>
      </trkpt>
      <trkpt lat="43.4018" lon="-0.29281">
        <ele>223.4</ele>
        <time>2010-12-12T10:58:25Z</time>
      </trkpt>
      <trkpt lat="43.40173" lon="-0.29292">
        <ele>225.1</ele>
        <time>2010-12-12T10:58:29Z</time>
      </trkpt>
      <trkpt lat="43.40165" lon="-0.29299">
        <ele>225.4</ele>
        <time>2010-12-12T10:58:33Z</time>
      </trkpt>
      <trkpt lat="43.40159" lon="-0.29312">
        <ele>225.4</ele>
        <time>2010-12-12T10:58:36Z</time>
      </trkpt>
      <trkpt lat="43.40152" lon="-0.29324">
        <ele>226.4</ele>
        <time>2010-12-12T10:58:41Z</time>
      </trkpt>
      <trkpt lat="43.40142" lon="-0.29333">
        <ele>227.4</ele>
        <time>2010-12-12T10:58:45Z</time>
      </trkpt>
      <trkpt lat="43.40131" lon="-0.29336">
        <ele>231.1</ele>
        <time>2010-12-12T10:58:49Z</time>
      </trkpt>
      <trkpt lat="43.40121" lon="-0.29333">
        <ele>232.6</ele>
        <time>2010-12-12T10:58:53Z</time>
      </trkpt>
      <trkpt lat="43.40111" lon="-0.29324">
        <ele>235.4</ele>
        <time>2010-12-12T10:58:57Z</time>
      </trkpt>
      <trkpt lat="43.40106" lon="-0.29312">
        <ele>237.9</ele>
        <time>2010-12-12T10:59:02Z</time>
      </trkpt>
      <trkpt lat="43.401" lon="-0.29299">
        <ele>239.4</ele>
        <time>2010-12-12T10:59:06Z</time>
      </trkpt>
      <trkpt lat="43.40096" lon="-0.29284">
        <ele>239.9</ele>
        <time>2010-12-12T10:59:09Z</time>
      </trkpt>
      <trkpt lat="43.40093" lon="-0.2927">
        <ele>240</ele>
        <time>2010-12-12T10:59:13Z</time>
      </trkpt>
      <trkpt lat="43.40087" lon="-0.2926">
        <ele>238.6</ele>
        <time>2010-12-12T10:59:16Z</time>
      </trkpt>
      <trkpt lat="43.40077" lon="-0.29251">
        <ele>240.3</ele>
        <time>2010-12-12T10:59:19Z</time>
      </trkpt>
      <trkpt lat="43.40061" lon="-0.29248">
        <ele>241.2</ele>
        <time>2010-12-12T10:59:23Z</time>
      </trkpt>
      <trkpt lat="43.40047" lon="-0.29247">
        <ele>240.4</ele>
        <time>2010-12-12T10:59:28Z</time>
      </trkpt>
      <trkpt lat="43.40031" lon="-0.29246">
        <ele>240.4</ele>
        <time>2010-12-12T10:59:32Z</time>
      </trkpt>
      <trkpt lat="43.40017" lon="-0.29248">
        <ele>240.1</ele>
        <time>2010-12-12T10:59:35Z</time>
      </trkpt>
      <trkpt lat="43.40001" lon="-0.29249">
        <ele>240.1</ele>
        <time>2010-12-12T10:59:40Z</time>
      </trkpt>
      <trkpt lat="43.39983" lon="-0.29248">
        <ele>240.3</ele>
        <time>2010-12-12T10:59:44Z</time>
      </trkpt>
      <trkpt lat="43.39973" lon="-0.29248">
        <ele>240.1</ele>
        <time>2010-12-12T10:59:46Z</time>
      </trkpt>
      <trkpt lat="43.39961" lon="-0.29245">
        <ele>239.6</ele>
        <time>2010-12-12T10:59:49Z</time>
      </trkpt>
      <trkpt lat="43.39949" lon="-0.29243">
        <ele>238.3</ele>
        <time>2010-12-12T10:59:52Z</time>
      </trkpt>
      <trkpt lat="43.39933" lon="-0.2924">
        <ele>237.8</ele>
        <time>2010-12-12T10:59:56Z</time>
      </trkpt>
      <trkpt lat="43.39921" lon="-0.29237">
        <ele>238</ele>
        <time>2010-12-12T11:00:00Z</time>
      </trkpt>
      <trkpt lat="43.39907" lon="-0.29233">
        <ele>238.5</ele>
        <time>2010-12-12T11:00:03Z</time>
      </trkpt>
      <trkpt lat="43.39892" lon="-0.2923">
        <ele>240.5</ele>
        <time>2010-12-12T11:00:08Z</time>
      </trkpt>
      <trkpt lat="43.3988" lon="-0.29228">
        <ele>242.7</ele>
        <time>2010-12-12T11:00:12Z</time>
      </trkpt>
      <trkpt lat="43.39866" lon="-0.29228">
        <ele>243.8</ele>
        <time>2010-12-12T11:00:17Z</time>
      </trkpt>
      <trkpt lat="43.39852" lon="-0.29228">
        <ele>246.1</ele>
        <time>2010-12-12T11:00:20Z</time>
      </trkpt>
      <trkpt lat="43.39839" lon="-0.2923">
        <ele>246.9</ele>
        <time>2010-12-12T11:00:24Z</time>
      </trkpt>
      <trkpt lat="43.39825" lon="-0.29233">
        <ele>246.4</ele>
        <time>2010-12-12T11:00:27Z</time>
      </trkpt>
      <trkpt lat="43.39815" lon="-0.29237">
        <ele>246.5</ele>
        <time>2010-12-12T11:00:29Z</time>
      </trkpt>
      <trkpt lat="43.39801" lon="-0.2924">
        <ele>246.6</ele>
        <time>2010-12-12T11:00:32Z</time>
      </trkpt>
      <trkpt lat="43.3979" lon="-0.29243">
        <ele>246.1</ele>
        <time>2010-12-12T11:00:34Z</time>
      </trkpt>
      <trkpt lat="43.39775" lon="-0.29249">
        <ele>247.4</ele>
        <time>2010-12-12T11:00:38Z</time>
      </trkpt>
      <trkpt lat="43.39766" lon="-0.29256">
        <ele>250.8</ele>
        <time>2010-12-12T11:00:42Z</time>
      </trkpt>
      <trkpt lat="43.39757" lon="-0.2926">
        <ele>252.1</ele>
        <time>2010-12-12T11:00:44Z</time>
      </trkpt>
      <trkpt lat="43.39745" lon="-0.29268">
        <ele>252.6</ele>
        <time>2010-12-12T11:00:48Z</time>
      </trkpt>
      <trkpt lat="43.39734" lon="-0.29275">
        <ele>252.9</ele>
        <time>2010-12-12T11:00:50Z</time>
      </trkpt>
      <trkpt lat="43.39724" lon="-0.29281">
        <ele>252.6</ele>
        <time>2010-12-12T11:00:53Z</time>
      </trkpt>
      <trkpt lat="43.39714" lon="-0.29286">
        <ele>252.8</ele>
        <time>2010-12-12T11:00:55Z</time>
      </trkpt>
      <trkpt lat="43.397" lon="-0.29294">
        <ele>250.7</ele>
        <time>2010-12-12T11:00:59Z</time>
      </trkpt>
      <trkpt lat="43.39691" lon="-0.29297">
        <ele>250.4</ele>
        <time>2010-12-12T11:01:01Z</time>
      </trkpt>
      <trkpt lat="43.39681" lon="-0.293">
        <ele>250.9</ele>
        <time>2010-12-12T11:01:03Z</time>
      </trkpt>
      <trkpt lat="43.39671" lon="-0.293">
        <ele>251.5</ele>
        <time>2010-12-12T11:01:05Z</time>
      </trkpt>
      <trkpt lat="43.39662" lon="-0.29299">
        <ele>252.1</ele>
        <time>2010-12-12T11:01:07Z</time>
      </trkpt>
      <trkpt lat="43.39651" lon="-0.29298">
        <ele>252.2</ele>
        <time>2010-12-12T11:01:09Z</time>
      </trkpt>
      <trkpt lat="43.39638" lon="-0.29295">
        <ele>251.4</ele>
        <time>2010-12-12T11:01:12Z</time>
      </trkpt>
      <trkpt lat="43.39625" lon="-0.29292">
        <ele>251.3</ele>
        <time>2010-12-12T11:01:14Z</time>
      </trkpt>
      <trkpt lat="43.39614" lon="-0.29289">
        <ele>251.8</ele>
        <time>2010-12-12T11:01:18Z</time>
      </trkpt>
      <trkpt lat="43.39602" lon="-0.2929">
        <ele>253.3</ele>
        <time>2010-12-12T11:01:23Z</time>
      </trkpt>
      <trkpt lat="43.39588" lon="-0.29293">
        <ele>255.8</ele>
        <time>2010-12-12T11:01:27Z</time>
      </trkpt>
      <trkpt lat="43.39575" lon="-0.29298">
        <ele>257.2</ele>
        <time>2010-12-12T11:01:30Z</time>
      </trkpt>
      <trkpt lat="43.39562" lon="-0.29307">
        <ele>256.9</ele>
        <time>2010-12-12T11:01:35Z</time>
      </trkpt>
      <trkpt lat="43.39552" lon="-0.29314">
        <ele>256.7</ele>
        <time>2010-12-12T11:01:37Z</time>
      </trkpt>
      <trkpt lat="43.3954" lon="-0.29325">
        <ele>258.1</ele>
        <time>2010-12-12T11:01:42Z</time>
      </trkpt>
      <trkpt lat="43.39528" lon="-0.29333">
        <ele>259</ele>
        <time>2010-12-12T11:01:46Z</time>
      </trkpt>
      <trkpt lat="43.39517" lon="-0.29338">
        <ele>259.6</ele>
        <time>2010-12-12T11:01:49Z</time>
      </trkpt>
      <trkpt lat="43.39506" lon="-0.2934">
        <ele>259.5</ele>
        <time>2010-12-12T11:01:53Z</time>
      </trkpt>
      <trkpt lat="43.39494" lon="-0.29339">
        <ele>260.9</ele>
        <time>2010-12-12T11:01:58Z</time>
      </trkpt>
      <trkpt lat="43.39483" lon="-0.29339">
        <ele>262.4</ele>
        <time>2010-12-12T11:02:01Z</time>
      </trkpt>
      <trkpt lat="43.39472" lon="-0.29337">
        <ele>264.2</ele>
        <time>2010-12-12T11:02:05Z</time>
      </trkpt>
      <trkpt lat="43.3946" lon="-0.29337">
        <ele>265</ele>
        <time>2010-12-12T11:02:10Z</time>
      </trkpt>
      <trkpt lat="43.39449" lon="-0.29336">
        <ele>266.3</ele>
        <time>2010-12-12T11:02:14Z</time>
      </trkpt>
      <trkpt lat="43.39436" lon="-0.29337">
        <ele>265.1</ele>
        <time>2010-12-12T11:02:17Z</time>
      </trkpt>
      <trkpt lat="43.39424" lon="-0.29337">
        <ele>264.3</ele>
        <time>2010-12-12T11:02:22Z</time>
      </trkpt>
      <trkpt lat="43.39412" lon="-0.29339">
        <ele>263.5</ele>
        <time>2010-12-12T11:02:26Z</time>
      </trkpt>
      <trkpt lat="43.394" lon="-0.29337">
        <ele>262.1</ele>
        <time>2010-12-12T11:02:29Z</time>
      </trkpt>
      <trkpt lat="43.39386" lon="-0.29336">
        <ele>261.6</ele>
        <time>2010-12-12T11:02:33Z</time>
      </trkpt>
      <trkpt lat="43.39374" lon="-0.29335">
        <ele>261.3</ele>
        <time>2010-12-12T11:02:36Z</time>
      </trkpt>
      <trkpt lat="43.39365" lon="-0.29335">
        <ele>263.4</ele>
        <time>2010-12-12T11:02:38Z</time>
      </trkpt>
      <trkpt lat="43.39352" lon="-0.29339">
        <ele>263</ele>
        <time>2010-12-12T11:02:41Z</time>
      </trkpt>
      <trkpt lat="43.39342" lon="-0.29339">
        <ele>262.5</ele>
        <time>2010-12-12T11:02:43Z</time>
      </trkpt>
      <trkpt lat="43.39329" lon="-0.29336">
        <ele>262.3</ele>
        <time>2010-12-12T11:02:47Z</time>
      </trkpt>
      <trkpt lat="43.39314" lon="-0.29333">
        <ele>261.6</ele>
        <time>2010-12-12T11:02:50Z</time>
      </trkpt>
      <trkpt lat="43.393" lon="-0.29329">
        <ele>261.5</ele>
        <time>2010-12-12T11:02:54Z</time>
      </trkpt>
      <trkpt lat="43.393" lon="-0.29323">
        <ele>264.9</ele>
        <time>2010-12-12T11:02:57Z</time>
      </trkpt>
      <trkpt lat="43.39306" lon="-0.29316">
        <ele>272</ele>
        <time>2010-12-12T11:03:02Z</time>
      </trkpt>
      <trkpt lat="43.39293" lon="-0.29309">
        <ele>275.5</ele>
        <time>2010-12-12T11:03:07Z</time>
      </trkpt>
      <trkpt lat="43.3928" lon="-0.29302">
        <ele>278.1</ele>
        <time>2010-12-12T11:03:11Z</time>
      </trkpt>
      <trkpt lat="43.3927" lon="-0.29293">
        <ele>279.9</ele>
        <time>2010-12-12T11:03:16Z</time>
      </trkpt>
      <trkpt lat="43.39264" lon="-0.29285">
        <ele>281.6</ele>
        <time>2010-12-12T11:03:20Z</time>
      </trkpt>
      <trkpt lat="43.39254" lon="-0.29277">
        <ele>283.5</ele>
        <time>2010-12-12T11:03:25Z</time>
      </trkpt>
      <trkpt lat="43.39243" lon="-0.29268">
        <ele>284.5</ele>
        <time>2010-12-12T11:03:29Z</time>
      </trkpt>
      <trkpt lat="43.39233" lon="-0.29262">
        <ele>285.7</ele>
        <time>2010-12-12T11:03:32Z</time>
      </trkpt>
      <trkpt lat="43.39221" lon="-0.29255">
        <ele>285.5</ele>
        <time>2010-12-12T11:03:36Z</time>
      </trkpt>
      <trkpt lat="43.39208" lon="-0.29251">
        <ele>285.4</ele>
        <time>2010-12-12T11:03:39Z</time>
      </trkpt>
      <trkpt lat="43.39196" lon="-0.29248">
        <ele>285</ele>
        <time>2010-12-12T11:03:42Z</time>
      </trkpt>
      <trkpt lat="43.39183" lon="-0.29246">
        <ele>285</ele>
        <time>2010-12-12T11:03:46Z</time>
      </trkpt>
      <trkpt lat="43.3917" lon="-0.29245">
        <ele>283.7</ele>
        <time>2010-12-12T11:03:49Z</time>
      </trkpt>
      <trkpt lat="43.39173" lon="-0.29242">
        <ele>290.8</ele>
        <time>2010-12-12T11:03:55Z</time>
      </trkpt>
      <trkpt lat="43.39161" lon="-0.29241">
        <ele>292.8</ele>
        <time>2010-12-12T11:04:00Z</time>
      </trkpt>
      <trkpt lat="43.39149" lon="-0.29244">
        <ele>293.6</ele>
        <time>2010-12-12T11:04:03Z</time>
      </trkpt>
      <trkpt lat="43.39138" lon="-0.2925">
        <ele>294.1</ele>
        <time>2010-12-12T11:04:07Z</time>
      </trkpt>
      <trkpt lat="43.39126" lon="-0.29256">
        <ele>294.5</ele>
        <time>2010-12-12T11:04:12Z</time>
      </trkpt>
      <trkpt lat="43.39114" lon="-0.29263">
        <ele>294</ele>
        <time>2010-12-12T11:04:16Z</time>
      </trkpt>
      <trkpt lat="43.39104" lon="-0.29272">
        <ele>295.1</ele>
        <time>2010-12-12T11:04:19Z</time>
      </trkpt>
      <trkpt lat="43.39094" lon="-0.2928">
        <ele>293.3</ele>
        <time>2010-12-12T11:04:24Z</time>
      </trkpt>
      <trkpt lat="43.39085" lon="-0.29288">
        <ele>292.5</ele>
        <time>2010-12-12T11:04:28Z</time>
      </trkpt>
      <trkpt lat="43.39075" lon="-0.29297">
        <ele>292</ele>
        <time>2010-12-12T11:04:31Z</time>
      </trkpt>
      <trkpt lat="43.39065" lon="-0.29305">
        <ele>291.5</ele>
        <time>2010-12-12T11:04:35Z</time>
      </trkpt>
      <trkpt lat="43.39054" lon="-0.29313">
        <ele>291.3</ele>
        <time>2010-12-12T11:04:40Z</time>
      </trkpt>
      <trkpt lat="43.39043" lon="-0.29319">
        <ele>290.5</ele>
        <time>2010-12-12T11:04:43Z</time>
      </trkpt>
      <trkpt lat="43.39034" lon="-0.29321">
        <ele>292.5</ele>
        <time>2010-12-12T11:04:47Z</time>
      </trkpt>
      <trkpt lat="43.39023" lon="-0.29321">
        <ele>295</ele>
        <time>2010-12-12T11:04:52Z</time>
      </trkpt>
      <trkpt lat="43.39011" lon="-0.2932">
        <ele>297.3</ele>
        <time>2010-12-12T11:04:56Z</time>
      </trkpt>
      <trkpt lat="43.38998" lon="-0.29319">
        <ele>298.4</ele>
        <time>2010-12-12T11:04:59Z</time>
      </trkpt>
      <trkpt lat="43.38983" lon="-0.29318">
        <ele>299.8</ele>
        <time>2010-12-12T11:05:04Z</time>
      </trkpt>
      <trkpt lat="43.38971" lon="-0.29316">
        <ele>300.1</ele>
        <time>2010-12-12T11:05:07Z</time>
      </trkpt>
      <trkpt lat="43.38957" lon="-0.29315">
        <ele>300.5</ele>
        <time>2010-12-12T11:05:11Z</time>
      </trkpt>
      <trkpt lat="43.38943" lon="-0.29313">
        <ele>301.5</ele>
        <time>2010-12-12T11:05:15Z</time>
      </trkpt>
      <trkpt lat="43.38928" lon="-0.29311">
        <ele>301.7</ele>
        <time>2010-12-12T11:05:18Z</time>
      </trkpt>
      <trkpt lat="43.38913" lon="-0.29308">
        <ele>302.3</ele>
        <time>2010-12-12T11:05:22Z</time>
      </trkpt>
      <trkpt lat="43.38899" lon="-0.29304">
        <ele>302.1</ele>
        <time>2010-12-12T11:05:26Z</time>
      </trkpt>
      <trkpt lat="43.38887" lon="-0.293">
        <ele>302.9</ele>
        <time>2010-12-12T11:05:29Z</time>
      </trkpt>
      <trkpt lat="43.38876" lon="-0.29296">
        <ele>303.1</ele>
        <time>2010-12-12T11:05:31Z</time>
      </trkpt>
      <trkpt lat="43.38867" lon="-0.29292">
        <ele>303</ele>
        <time>2010-12-12T11:05:33Z</time>
      </trkpt>
      <trkpt lat="43.38858" lon="-0.29287">
        <ele>302.9</ele>
        <time>2010-12-12T11:05:35Z</time>
      </trkpt>
      <trkpt lat="43.38848" lon="-0.29283">
        <ele>302.7</ele>
        <time>2010-12-12T11:05:37Z</time>
      </trkpt>
      <trkpt lat="43.38831" lon="-0.29277">
        <ele>302.7</ele>
        <time>2010-12-12T11:05:40Z</time>
      </trkpt>
      <trkpt lat="43.38821" lon="-0.29276">
        <ele>302.5</ele>
        <time>2010-12-12T11:05:42Z</time>
      </trkpt>
      <trkpt lat="43.38809" lon="-0.29275">
        <ele>302.8</ele>
        <time>2010-12-12T11:05:44Z</time>
      </trkpt>
      <trkpt lat="43.38796" lon="-0.29275">
        <ele>302.2</ele>
        <time>2010-12-12T11:05:46Z</time>
      </trkpt>
      <trkpt lat="43.38785" lon="-0.29276">
        <ele>301.5</ele>
        <time>2010-12-12T11:05:49Z</time>
      </trkpt>
      <trkpt lat="43.38775" lon="-0.29278">
        <ele>301.8</ele>
        <time>2010-12-12T11:05:51Z</time>
      </trkpt>
      <trkpt lat="43.38759" lon="-0.29282">
        <ele>301.8</ele>
        <time>2010-12-12T11:05:55Z</time>
      </trkpt>
      <trkpt lat="43.38742" lon="-0.29287">
        <ele>302</ele>
        <time>2010-12-12T11:05:58Z</time>
      </trkpt>
      <trkpt lat="43.38728" lon="-0.2929">
        <ele>302.2</ele>
        <time>2010-12-12T11:06:02Z</time>
      </trkpt>
      <trkpt lat="43.38713" lon="-0.29293">
        <ele>304</ele>
        <time>2010-12-12T11:06:05Z</time>
      </trkpt>
      <trkpt lat="43.38701" lon="-0.29295">
        <ele>304.7</ele>
        <time>2010-12-12T11:06:07Z</time>
      </trkpt>
      <trkpt lat="43.38688" lon="-0.29295">
        <ele>305.1</ele>
        <time>2010-12-12T11:06:10Z</time>
      </trkpt>
      <trkpt lat="43.38678" lon="-0.29293">
        <ele>306</ele>
        <time>2010-12-12T11:06:12Z</time>
      </trkpt>
      <trkpt lat="43.38665" lon="-0.29292">
        <ele>305.1</ele>
        <time>2010-12-12T11:06:15Z</time>
      </trkpt>
      <trkpt lat="43.38654" lon="-0.29291">
        <ele>304.5</ele>
        <time>2010-12-12T11:06:17Z</time>
      </trkpt>
      <trkpt lat="43.38643" lon="-0.29291">
        <ele>304.1</ele>
        <time>2010-12-12T11:06:19Z</time>
      </trkpt>
      <trkpt lat="43.38631" lon="-0.29291">
        <ele>303.5</ele>
        <time>2010-12-12T11:06:21Z</time>
      </trkpt>
      <trkpt lat="43.38619" lon="-0.2929">
        <ele>303</ele>
        <time>2010-12-12T11:06:23Z</time>
      </trkpt>
      <trkpt lat="43.38604" lon="-0.29288">
        <ele>303.3</ele>
        <time>2010-12-12T11:06:26Z</time>
      </trkpt>
      <trkpt lat="43.38593" lon="-0.29289">
        <ele>303.5</ele>
        <time>2010-12-12T11:06:28Z</time>
      </trkpt>
      <trkpt lat="43.38581" lon="-0.29289">
        <ele>303.7</ele>
        <time>2010-12-12T11:06:30Z</time>
      </trkpt>
      <trkpt lat="43.38571" lon="-0.29288">
        <ele>302.9</ele>
        <time>2010-12-12T11:06:32Z</time>
      </trkpt>
      <trkpt lat="43.3856" lon="-0.29287">
        <ele>303.3</ele>
        <time>2010-12-12T11:06:34Z</time>
      </trkpt>
      <trkpt lat="43.38545" lon="-0.29286">
        <ele>303.1</ele>
        <time>2010-12-12T11:06:37Z</time>
      </trkpt>
      <trkpt lat="43.38534" lon="-0.29286">
        <ele>303.5</ele>
        <time>2010-12-12T11:06:39Z</time>
      </trkpt>
      <trkpt lat="43.38524" lon="-0.29285">
        <ele>303.4</ele>
        <time>2010-12-12T11:06:41Z</time>
      </trkpt>
      <trkpt lat="43.38509" lon="-0.29285">
        <ele>303.7</ele>
        <time>2010-12-12T11:06:44Z</time>
      </trkpt>
      <trkpt lat="43.38496" lon="-0.29286">
        <ele>303.9</ele>
        <time>2010-12-12T11:06:46Z</time>
      </trkpt>
      <trkpt lat="43.38482" lon="-0.29284">
        <ele>303.6</ele>
        <time>2010-12-12T11:06:49Z</time>
      </trkpt>
      <trkpt lat="43.38467" lon="-0.29283">
        <ele>303.5</ele>
        <time>2010-12-12T11:06:52Z</time>
      </trkpt>
      <trkpt lat="43.38453" lon="-0.29282">
        <ele>303.9</ele>
        <time>2010-12-12T11:06:54Z</time>
      </trkpt>
      <trkpt lat="43.38442" lon="-0.2928">
        <ele>303.5</ele>
        <time>2010-12-12T11:06:56Z</time>
      </trkpt>
      <trkpt lat="43.38432" lon="-0.2928">
        <ele>303.9</ele>
        <time>2010-12-12T11:06:58Z</time>
      </trkpt>
      <trkpt lat="43.3842" lon="-0.29279">
        <ele>304.2</ele>
        <time>2010-12-12T11:07:00Z</time>
      </trkpt>
      <trkpt lat="43.38409" lon="-0.29277">
        <ele>304.4</ele>
        <time>2010-12-12T11:07:02Z</time>
      </trkpt>
      <trkpt lat="43.38399" lon="-0.29274">
        <ele>304.5</ele>
        <time>2010-12-12T11:07:04Z</time>
      </trkpt>
      <trkpt lat="43.38387" lon="-0.29272">
        <ele>304.4</ele>
        <time>2010-12-12T11:07:06Z</time>
      </trkpt>
      <trkpt lat="43.38376" lon="-0.29269">
        <ele>304.9</ele>
        <time>2010-12-12T11:07:08Z</time>
      </trkpt>
      <trkpt lat="43.38364" lon="-0.29266">
        <ele>304.6</ele>
        <time>2010-12-12T11:07:10Z</time>
      </trkpt>
      <trkpt lat="43.38354" lon="-0.29264">
        <ele>304.5</ele>
        <time>2010-12-12T11:07:12Z</time>
      </trkpt>
      <trkpt lat="43.38344" lon="-0.2926">
        <ele>304.7</ele>
        <time>2010-12-12T11:07:14Z</time>
      </trkpt>
      <trkpt lat="43.38332" lon="-0.29256">
        <ele>304.2</ele>
        <time>2010-12-12T11:07:16Z</time>
      </trkpt>
      <trkpt lat="43.3832" lon="-0.29251">
        <ele>304</ele>
        <time>2010-12-12T11:07:18Z</time>
      </trkpt>
      <trkpt lat="43.38308" lon="-0.29246">
        <ele>304</ele>
        <time>2010-12-12T11:07:20Z</time>
      </trkpt>
      <trkpt lat="43.38298" lon="-0.29238">
        <ele>303.8</ele>
        <time>2010-12-12T11:07:22Z</time>
      </trkpt>
      <trkpt lat="43.38287" lon="-0.29231">
        <ele>304</ele>
        <time>2010-12-12T11:07:24Z</time>
      </trkpt>
      <trkpt lat="43.38277" lon="-0.29224">
        <ele>304.2</ele>
        <time>2010-12-12T11:07:26Z</time>
      </trkpt>
      <trkpt lat="43.38267" lon="-0.29215">
        <ele>304.2</ele>
        <time>2010-12-12T11:07:28Z</time>
      </trkpt>
      <trkpt lat="43.38259" lon="-0.29206">
        <ele>304</ele>
        <time>2010-12-12T11:07:30Z</time>
      </trkpt>
      <trkpt lat="43.38249" lon="-0.29198">
        <ele>304.1</ele>
        <time>2010-12-12T11:07:32Z</time>
      </trkpt>
      <trkpt lat="43.38239" lon="-0.29191">
        <ele>304.5</ele>
        <time>2010-12-12T11:07:34Z</time>
      </trkpt>
      <trkpt lat="43.38231" lon="-0.29183">
        <ele>304</ele>
        <time>2010-12-12T11:07:36Z</time>
      </trkpt>
      <trkpt lat="43.38222" lon="-0.29176">
        <ele>304.1</ele>
        <time>2010-12-12T11:07:38Z</time>
      </trkpt>
      <trkpt lat="43.38213" lon="-0.29168">
        <ele>304</ele>
        <time>2010-12-12T11:07:40Z</time>
      </trkpt>
      <trkpt lat="43.38204" lon="-0.29161">
        <ele>304.2</ele>
        <time>2010-12-12T11:07:42Z</time>
      </trkpt>
      <trkpt lat="43.38195" lon="-0.29153">
        <ele>304.3</ele>
        <time>2010-12-12T11:07:44Z</time>
      </trkpt>
      <trkpt lat="43.38185" lon="-0.29145">
        <ele>304.3</ele>
        <time>2010-12-12T11:07:46Z</time>
      </trkpt>
      <trkpt lat="43.38177" lon="-0.29135">
        <ele>304.8</ele>
        <time>2010-12-12T11:07:48Z</time>
      </trkpt>
      <trkpt lat="43.38168" lon="-0.29126">
        <ele>304.3</ele>
        <time>2010-12-12T11:07:50Z</time>
      </trkpt>
      <trkpt lat="43.38159" lon="-0.29118">
        <ele>304.1</ele>
        <time>2010-12-12T11:07:52Z</time>
      </trkpt>
      <trkpt lat="43.38147" lon="-0.29109">
        <ele>303.9</ele>
        <time>2010-12-12T11:07:54Z</time>
      </trkpt>
      <trkpt lat="43.38138" lon="-0.291">
        <ele>304</ele>
        <time>2010-12-12T11:07:56Z</time>
      </trkpt>
      <trkpt lat="43.38129" lon="-0.29092">
        <ele>304.1</ele>
        <time>2010-12-12T11:07:58Z</time>
      </trkpt>
      <trkpt lat="43.38118" lon="-0.29084">
        <ele>304.5</ele>
        <time>2010-12-12T11:08:00Z</time>
      </trkpt>
      <trkpt lat="43.38107" lon="-0.29078">
        <ele>305</ele>
        <time>2010-12-12T11:08:02Z</time>
      </trkpt>
      <trkpt lat="43.38097" lon="-0.29072">
        <ele>305.1</ele>
        <time>2010-12-12T11:08:04Z</time>
      </trkpt>
      <trkpt lat="43.38086" lon="-0.29067">
        <ele>305.1</ele>
        <time>2010-12-12T11:08:06Z</time>
      </trkpt>
      <trkpt lat="43.38071" lon="-0.29061">
        <ele>305.5</ele>
        <time>2010-12-12T11:08:09Z</time>
      </trkpt>
      <trkpt lat="43.38058" lon="-0.29056">
        <ele>306</ele>
        <time>2010-12-12T11:08:11Z</time>
      </trkpt>
      <trkpt lat="43.38046" lon="-0.29053">
        <ele>305.6</ele>
        <time>2010-12-12T11:08:13Z</time>
      </trkpt>
      <trkpt lat="43.38029" lon="-0.29048">
        <ele>305.6</ele>
        <time>2010-12-12T11:08:16Z</time>
      </trkpt>
      <trkpt lat="43.38017" lon="-0.29043">
        <ele>306.1</ele>
        <time>2010-12-12T11:08:18Z</time>
      </trkpt>
      <trkpt lat="43.38005" lon="-0.29039">
        <ele>306.8</ele>
        <time>2010-12-12T11:08:20Z</time>
      </trkpt>
      <trkpt lat="43.37993" lon="-0.29035">
        <ele>306.3</ele>
        <time>2010-12-12T11:08:22Z</time>
      </trkpt>
      <trkpt lat="43.37982" lon="-0.29031">
        <ele>306.1</ele>
        <time>2010-12-12T11:08:24Z</time>
      </trkpt>
      <trkpt lat="43.37971" lon="-0.29027">
        <ele>306.3</ele>
        <time>2010-12-12T11:08:26Z</time>
      </trkpt>
      <trkpt lat="43.37957" lon="-0.29022">
        <ele>306.6</ele>
        <time>2010-12-12T11:08:28Z</time>
      </trkpt>
      <trkpt lat="43.37942" lon="-0.29015">
        <ele>307.2</ele>
        <time>2010-12-12T11:08:32Z</time>
      </trkpt>
      <trkpt lat="43.37932" lon="-0.29009">
        <ele>307.8</ele>
        <time>2010-12-12T11:08:34Z</time>
      </trkpt>
      <trkpt lat="43.37917" lon="-0.29005">
        <ele>308</ele>
        <time>2010-12-12T11:08:37Z</time>
      </trkpt>
      <trkpt lat="43.37903" lon="-0.29">
        <ele>307.7</ele>
        <time>2010-12-12T11:08:39Z</time>
      </trkpt>
      <trkpt lat="43.3789" lon="-0.28995">
        <ele>307.7</ele>
        <time>2010-12-12T11:08:41Z</time>
      </trkpt>
      <trkpt lat="43.37879" lon="-0.2899">
        <ele>307.5</ele>
        <time>2010-12-12T11:08:43Z</time>
      </trkpt>
      <trkpt lat="43.37864" lon="-0.28986">
        <ele>307.6</ele>
        <time>2010-12-12T11:08:45Z</time>
      </trkpt>
      <trkpt lat="43.3785" lon="-0.28981">
        <ele>307.5</ele>
        <time>2010-12-12T11:08:47Z</time>
      </trkpt>
      <trkpt lat="43.37837" lon="-0.28975">
        <ele>307.4</ele>
        <time>2010-12-12T11:08:49Z</time>
      </trkpt>
      <trkpt lat="43.37832" lon="-0.28968">
        <ele>310.3</ele>
        <time>2010-12-12T11:08:52Z</time>
      </trkpt>
      <trkpt lat="43.3782" lon="-0.28963">
        <ele>310.3</ele>
        <time>2010-12-12T11:08:54Z</time>
      </trkpt>
      <trkpt lat="43.37805" lon="-0.28957">
        <ele>308.1</ele>
        <time>2010-12-12T11:08:56Z</time>
      </trkpt>
      <trkpt lat="43.37791" lon="-0.28952">
        <ele>307.6</ele>
        <time>2010-12-12T11:08:58Z</time>
      </trkpt>
      <trkpt lat="43.37778" lon="-0.28946">
        <ele>306.6</ele>
        <time>2010-12-12T11:09:00Z</time>
      </trkpt>
      <trkpt lat="43.37765" lon="-0.28941">
        <ele>305.6</ele>
        <time>2010-12-12T11:09:02Z</time>
      </trkpt>
      <trkpt lat="43.37753" lon="-0.28936">
        <ele>305.5</ele>
        <time>2010-12-12T11:09:04Z</time>
      </trkpt>
      <trkpt lat="43.3774" lon="-0.28931">
        <ele>305.1</ele>
        <time>2010-12-12T11:09:06Z</time>
      </trkpt>
      <trkpt lat="43.37725" lon="-0.28924">
        <ele>304.4</ele>
        <time>2010-12-12T11:09:08Z</time>
      </trkpt>
      <trkpt lat="43.37713" lon="-0.28921">
        <ele>303.9</ele>
        <time>2010-12-12T11:09:10Z</time>
      </trkpt>
      <trkpt lat="43.37701" lon="-0.2892">
        <ele>303.7</ele>
        <time>2010-12-12T11:09:12Z</time>
      </trkpt>
      <trkpt lat="43.3769" lon="-0.28918">
        <ele>303.9</ele>
        <time>2010-12-12T11:09:14Z</time>
      </trkpt>
      <trkpt lat="43.37678" lon="-0.28913">
        <ele>304.3</ele>
        <time>2010-12-12T11:09:16Z</time>
      </trkpt>
      <trkpt lat="43.37668" lon="-0.28907">
        <ele>304.4</ele>
        <time>2010-12-12T11:09:18Z</time>
      </trkpt>
      <trkpt lat="43.37656" lon="-0.28903">
        <ele>304</ele>
        <time>2010-12-12T11:09:20Z</time>
      </trkpt>
      <trkpt lat="43.37645" lon="-0.289">
        <ele>304.4</ele>
        <time>2010-12-12T11:09:22Z</time>
      </trkpt>
      <trkpt lat="43.37634" lon="-0.28898">
        <ele>305</ele>
        <time>2010-12-12T11:09:24Z</time>
      </trkpt>
      <trkpt lat="43.37624" lon="-0.28896">
        <ele>305.8</ele>
        <time>2010-12-12T11:09:26Z</time>
      </trkpt>
      <trkpt lat="43.37612" lon="-0.28893">
        <ele>305.8</ele>
        <time>2010-12-12T11:09:28Z</time>
      </trkpt>
      <trkpt lat="43.37601" lon="-0.28891">
        <ele>306</ele>
        <time>2010-12-12T11:09:30Z</time>
      </trkpt>
      <trkpt lat="43.37589" lon="-0.28888">
        <ele>305.5</ele>
        <time>2010-12-12T11:09:32Z</time>
      </trkpt>
      <trkpt lat="43.37578" lon="-0.28886">
        <ele>305.3</ele>
        <time>2010-12-12T11:09:34Z</time>
      </trkpt>
      <trkpt lat="43.37565" lon="-0.28884">
        <ele>304.9</ele>
        <time>2010-12-12T11:09:36Z</time>
      </trkpt>
      <trkpt lat="43.37549" lon="-0.28878">
        <ele>303.9</ele>
        <time>2010-12-12T11:09:41Z</time>
      </trkpt>
      <trkpt lat="43.37535" lon="-0.28872">
        <ele>303.8</ele>
        <time>2010-12-12T11:09:45Z</time>
      </trkpt>
      <trkpt lat="43.37525" lon="-0.28871">
        <ele>304.8</ele>
        <time>2010-12-12T11:09:47Z</time>
      </trkpt>
      <trkpt lat="43.37515" lon="-0.28872">
        <ele>304.3</ele>
        <time>2010-12-12T11:09:49Z</time>
      </trkpt>
      <trkpt lat="43.37504" lon="-0.28872">
        <ele>303.9</ele>
        <time>2010-12-12T11:09:51Z</time>
      </trkpt>
      <trkpt lat="43.37493" lon="-0.28872">
        <ele>304.5</ele>
        <time>2010-12-12T11:09:53Z</time>
      </trkpt>
      <trkpt lat="43.37482" lon="-0.28875">
        <ele>305.1</ele>
        <time>2010-12-12T11:09:55Z</time>
      </trkpt>
      <trkpt lat="43.3747" lon="-0.28876">
        <ele>304.8</ele>
        <time>2010-12-12T11:09:57Z</time>
      </trkpt>
      <trkpt lat="43.37455" lon="-0.28875">
        <ele>304.9</ele>
        <time>2010-12-12T11:10:00Z</time>
      </trkpt>
      <trkpt lat="43.37443" lon="-0.28875">
        <ele>304.9</ele>
        <time>2010-12-12T11:10:02Z</time>
      </trkpt>
      <trkpt lat="43.37431" lon="-0.28875">
        <ele>305.2</ele>
        <time>2010-12-12T11:10:04Z</time>
      </trkpt>
      <trkpt lat="43.3742" lon="-0.28873">
        <ele>305.4</ele>
        <time>2010-12-12T11:10:06Z</time>
      </trkpt>
      <trkpt lat="43.37409" lon="-0.2887">
        <ele>305.3</ele>
        <time>2010-12-12T11:10:08Z</time>
      </trkpt>
      <trkpt lat="43.37397" lon="-0.28866">
        <ele>305.4</ele>
        <time>2010-12-12T11:10:10Z</time>
      </trkpt>
      <trkpt lat="43.37385" lon="-0.2886">
        <ele>306.1</ele>
        <time>2010-12-12T11:10:12Z</time>
      </trkpt>
      <trkpt lat="43.37373" lon="-0.28856">
        <ele>306.3</ele>
        <time>2010-12-12T11:10:14Z</time>
      </trkpt>
      <trkpt lat="43.37361" lon="-0.28853">
        <ele>306.8</ele>
        <time>2010-12-12T11:10:16Z</time>
      </trkpt>
      <trkpt lat="43.37347" lon="-0.28849">
        <ele>307.5</ele>
        <time>2010-12-12T11:10:18Z</time>
      </trkpt>
      <trkpt lat="43.37335" lon="-0.28844">
        <ele>307.9</ele>
        <time>2010-12-12T11:10:21Z</time>
      </trkpt>
      <trkpt lat="43.37323" lon="-0.2884">
        <ele>307.9</ele>
        <time>2010-12-12T11:10:23Z</time>
      </trkpt>
      <trkpt lat="43.37307" lon="-0.28835">
        <ele>307.7</ele>
        <time>2010-12-12T11:10:26Z</time>
      </trkpt>
      <trkpt lat="43.37297" lon="-0.28832">
        <ele>307.2</ele>
        <time>2010-12-12T11:10:28Z</time>
      </trkpt>
      <trkpt lat="43.37287" lon="-0.28829">
        <ele>307</ele>
        <time>2010-12-12T11:10:30Z</time>
      </trkpt>
      <trkpt lat="43.37275" lon="-0.28826">
        <ele>306.4</ele>
        <time>2010-12-12T11:10:32Z</time>
      </trkpt>
      <trkpt lat="43.3726" lon="-0.2882">
        <ele>307.1</ele>
        <time>2010-12-12T11:10:35Z</time>
      </trkpt>
      <trkpt lat="43.3725" lon="-0.28816">
        <ele>307.4</ele>
        <time>2010-12-12T11:10:37Z</time>
      </trkpt>
      <trkpt lat="43.37239" lon="-0.28812">
        <ele>307.2</ele>
        <time>2010-12-12T11:10:39Z</time>
      </trkpt>
      <trkpt lat="43.37228" lon="-0.28808">
        <ele>307.1</ele>
        <time>2010-12-12T11:10:41Z</time>
      </trkpt>
      <trkpt lat="43.37216" lon="-0.28803">
        <ele>307.1</ele>
        <time>2010-12-12T11:10:43Z</time>
      </trkpt>
      <trkpt lat="43.37201" lon="-0.28796">
        <ele>307.3</ele>
        <time>2010-12-12T11:10:46Z</time>
      </trkpt>
      <trkpt lat="43.37189" lon="-0.2879">
        <ele>307</ele>
        <time>2010-12-12T11:10:48Z</time>
      </trkpt>
      <trkpt lat="43.37179" lon="-0.28783">
        <ele>307.2</ele>
        <time>2010-12-12T11:10:50Z</time>
      </trkpt>
      <trkpt lat="43.37169" lon="-0.28776">
        <ele>306.6</ele>
        <time>2010-12-12T11:10:52Z</time>
      </trkpt>
      <trkpt lat="43.37159" lon="-0.28769">
        <ele>306.5</ele>
        <time>2010-12-12T11:10:54Z</time>
      </trkpt>
      <trkpt lat="43.37148" lon="-0.28762">
        <ele>306.3</ele>
        <time>2010-12-12T11:10:56Z</time>
      </trkpt>
      <trkpt lat="43.37137" lon="-0.28757">
        <ele>306.5</ele>
        <time>2010-12-12T11:10:58Z</time>
      </trkpt>
      <trkpt lat="43.37124" lon="-0.28752">
        <ele>307.1</ele>
        <time>2010-12-12T11:11:00Z</time>
      </trkpt>
      <trkpt lat="43.37113" lon="-0.28746">
        <ele>307.2</ele>
        <time>2010-12-12T11:11:02Z</time>
      </trkpt>
      <trkpt lat="43.37102" lon="-0.28741">
        <ele>307.2</ele>
        <time>2010-12-12T11:11:04Z</time>
      </trkpt>
      <trkpt lat="43.3709" lon="-0.28736">
        <ele>307.5</ele>
        <time>2010-12-12T11:11:06Z</time>
      </trkpt>
      <trkpt lat="43.37078" lon="-0.28729">
        <ele>307.8</ele>
        <time>2010-12-12T11:11:08Z</time>
      </trkpt>
      <trkpt lat="43.37064" lon="-0.28723">
        <ele>307.6</ele>
        <time>2010-12-12T11:11:11Z</time>
      </trkpt>
      <trkpt lat="43.37052" lon="-0.28718">
        <ele>308.5</ele>
        <time>2010-12-12T11:11:13Z</time>
      </trkpt>
      <trkpt lat="43.37039" lon="-0.28712">
        <ele>308.6</ele>
        <time>2010-12-12T11:11:15Z</time>
      </trkpt>
      <trkpt lat="43.37027" lon="-0.28708">
        <ele>308.8</ele>
        <time>2010-12-12T11:11:17Z</time>
      </trkpt>
      <trkpt lat="43.37015" lon="-0.28701">
        <ele>309.5</ele>
        <time>2010-12-12T11:11:19Z</time>
      </trkpt>
      <trkpt lat="43.37005" lon="-0.28694">
        <ele>309.9</ele>
        <time>2010-12-12T11:11:22Z</time>
      </trkpt>
      <trkpt lat="43.36994" lon="-0.28689">
        <ele>310</ele>
        <time>2010-12-12T11:11:24Z</time>
      </trkpt>
      <trkpt lat="43.36981" lon="-0.28684">
        <ele>310</ele>
        <time>2010-12-12T11:11:26Z</time>
      </trkpt>
      <trkpt lat="43.36969" lon="-0.28678">
        <ele>311.4</ele>
        <time>2010-12-12T11:11:29Z</time>
      </trkpt>
      <trkpt lat="43.36957" lon="-0.28671">
        <ele>312.5</ele>
        <time>2010-12-12T11:11:31Z</time>
      </trkpt>
      <trkpt lat="43.36946" lon="-0.28666">
        <ele>312.5</ele>
        <time>2010-12-12T11:11:33Z</time>
      </trkpt>
      <trkpt lat="43.36936" lon="-0.28661">
        <ele>312.8</ele>
        <time>2010-12-12T11:11:35Z</time>
      </trkpt>
      <trkpt lat="43.36926" lon="-0.28654">
        <ele>312.2</ele>
        <time>2010-12-12T11:11:37Z</time>
      </trkpt>
      <trkpt lat="43.36916" lon="-0.28646">
        <ele>312.1</ele>
        <time>2010-12-12T11:11:39Z</time>
      </trkpt>
      <trkpt lat="43.36905" lon="-0.28638">
        <ele>312.7</ele>
        <time>2010-12-12T11:11:41Z</time>
      </trkpt>
      <trkpt lat="43.3689" lon="-0.28631">
        <ele>311.3</ele>
        <time>2010-12-12T11:11:43Z</time>
      </trkpt>
      <trkpt lat="43.3688" lon="-0.28622">
        <ele>310.3</ele>
        <time>2010-12-12T11:11:45Z</time>
      </trkpt>
      <trkpt lat="43.36869" lon="-0.28613">
        <ele>309.6</ele>
        <time>2010-12-12T11:11:47Z</time>
      </trkpt>
      <trkpt lat="43.36859" lon="-0.28603">
        <ele>309.4</ele>
        <time>2010-12-12T11:11:49Z</time>
      </trkpt>
      <trkpt lat="43.36847" lon="-0.28594">
        <ele>308.5</ele>
        <time>2010-12-12T11:11:51Z</time>
      </trkpt>
      <trkpt lat="43.36836" lon="-0.28581">
        <ele>307.8</ele>
        <time>2010-12-12T11:11:53Z</time>
      </trkpt>
      <trkpt lat="43.36826" lon="-0.28566">
        <ele>307.5</ele>
        <time>2010-12-12T11:11:55Z</time>
      </trkpt>
      <trkpt lat="43.36816" lon="-0.28549">
        <ele>307.3</ele>
        <time>2010-12-12T11:11:57Z</time>
      </trkpt>
      <trkpt lat="43.36809" lon="-0.28527">
        <ele>306.4</ele>
        <time>2010-12-12T11:11:59Z</time>
      </trkpt>
      <trkpt lat="43.36803" lon="-0.28502">
        <ele>305.1</ele>
        <time>2010-12-12T11:12:01Z</time>
      </trkpt>
      <trkpt lat="43.36798" lon="-0.28477">
        <ele>305.1</ele>
        <time>2010-12-12T11:12:03Z</time>
      </trkpt>
      <trkpt lat="43.36794" lon="-0.28448">
        <ele>304.5</ele>
        <time>2010-12-12T11:12:05Z</time>
      </trkpt>
      <trkpt lat="43.36787" lon="-0.28421">
        <ele>302.5</ele>
        <time>2010-12-12T11:12:07Z</time>
      </trkpt>
      <trkpt lat="43.36777" lon="-0.28395">
        <ele>300.3</ele>
        <time>2010-12-12T11:12:09Z</time>
      </trkpt>
      <trkpt lat="43.36764" lon="-0.28368">
        <ele>299.3</ele>
        <time>2010-12-12T11:12:11Z</time>
      </trkpt>
      <trkpt lat="43.36747" lon="-0.28342">
        <ele>297.3</ele>
        <time>2010-12-12T11:12:13Z</time>
      </trkpt>
      <trkpt lat="43.36733" lon="-0.28316">
        <ele>295.4</ele>
        <time>2010-12-12T11:12:15Z</time>
      </trkpt>
      <trkpt lat="43.36721" lon="-0.28289">
        <ele>293.6</ele>
        <time>2010-12-12T11:12:17Z</time>
      </trkpt>
      <trkpt lat="43.36711" lon="-0.28261">
        <ele>292.1</ele>
        <time>2010-12-12T11:12:19Z</time>
      </trkpt>
      <trkpt lat="43.36703" lon="-0.28235">
        <ele>290.5</ele>
        <time>2010-12-12T11:12:21Z</time>
      </trkpt>
      <trkpt lat="43.36695" lon="-0.28212">
        <ele>290.1</ele>
        <time>2010-12-12T11:12:23Z</time>
      </trkpt>
      <trkpt lat="43.36686" lon="-0.28191">
        <ele>289.4</ele>
        <time>2010-12-12T11:12:25Z</time>
      </trkpt>
      <trkpt lat="43.36675" lon="-0.28173">
        <ele>288.9</ele>
        <time>2010-12-12T11:12:27Z</time>
      </trkpt>
      <trkpt lat="43.36662" lon="-0.28155">
        <ele>288</ele>
        <time>2010-12-12T11:12:29Z</time>
      </trkpt>
      <trkpt lat="43.36648" lon="-0.28138">
        <ele>286.4</ele>
        <time>2010-12-12T11:12:31Z</time>
      </trkpt>
      <trkpt lat="43.36632" lon="-0.28119">
        <ele>285.6</ele>
        <time>2010-12-12T11:12:33Z</time>
      </trkpt>
      <trkpt lat="43.36616" lon="-0.28102">
        <ele>285</ele>
        <time>2010-12-12T11:12:35Z</time>
      </trkpt>
      <trkpt lat="43.36599" lon="-0.28083">
        <ele>284.6</ele>
        <time>2010-12-12T11:12:37Z</time>
      </trkpt>
      <trkpt lat="43.36582" lon="-0.28063">
        <ele>284.3</ele>
        <time>2010-12-12T11:12:39Z</time>
      </trkpt>
      <trkpt lat="43.36565" lon="-0.28042">
        <ele>283.5</ele>
        <time>2010-12-12T11:12:41Z</time>
      </trkpt>
      <trkpt lat="43.36547" lon="-0.28021">
        <ele>280.8</ele>
        <time>2010-12-12T11:12:43Z</time>
      </trkpt>
      <trkpt lat="43.36531" lon="-0.28">
        <ele>279.9</ele>
        <time>2010-12-12T11:12:45Z</time>
      </trkpt>
      <trkpt lat="43.36518" lon="-0.2798">
        <ele>279.1</ele>
        <time>2010-12-12T11:12:47Z</time>
      </trkpt>
      <trkpt lat="43.36505" lon="-0.27961">
        <ele>276.8</ele>
        <time>2010-12-12T11:12:49Z</time>
      </trkpt>
      <trkpt lat="43.36493" lon="-0.2794">
        <ele>276</ele>
        <time>2010-12-12T11:12:51Z</time>
      </trkpt>
      <trkpt lat="43.36482" lon="-0.2792">
        <ele>275.9</ele>
        <time>2010-12-12T11:12:53Z</time>
      </trkpt>
      <trkpt lat="43.36471" lon="-0.279">
        <ele>275.8</ele>
        <time>2010-12-12T11:12:55Z</time>
      </trkpt>
      <trkpt lat="43.36454" lon="-0.2788">
        <ele>274.8</ele>
        <time>2010-12-12T11:12:57Z</time>
      </trkpt>
      <trkpt lat="43.36442" lon="-0.27862">
        <ele>274.5</ele>
        <time>2010-12-12T11:12:59Z</time>
      </trkpt>
      <trkpt lat="43.36431" lon="-0.27843">
        <ele>273.9</ele>
        <time>2010-12-12T11:13:01Z</time>
      </trkpt>
      <trkpt lat="43.36418" lon="-0.27823">
        <ele>273.2</ele>
        <time>2010-12-12T11:13:03Z</time>
      </trkpt>
      <trkpt lat="43.36405" lon="-0.27804">
        <ele>273.4</ele>
        <time>2010-12-12T11:13:05Z</time>
      </trkpt>
      <trkpt lat="43.36392" lon="-0.27784">
        <ele>272.6</ele>
        <time>2010-12-12T11:13:07Z</time>
      </trkpt>
      <trkpt lat="43.36382" lon="-0.27767">
        <ele>272.3</ele>
        <time>2010-12-12T11:13:09Z</time>
      </trkpt>
      <trkpt lat="43.36368" lon="-0.2775">
        <ele>271.8</ele>
        <time>2010-12-12T11:13:11Z</time>
      </trkpt>
      <trkpt lat="43.36355" lon="-0.27736">
        <ele>271.3</ele>
        <time>2010-12-12T11:13:13Z</time>
      </trkpt>
      <trkpt lat="43.3634" lon="-0.27723">
        <ele>270.6</ele>
        <time>2010-12-12T11:13:15Z</time>
      </trkpt>
      <trkpt lat="43.36324" lon="-0.27711">
        <ele>270.4</ele>
        <time>2010-12-12T11:13:17Z</time>
      </trkpt>
      <trkpt lat="43.36307" lon="-0.27698">
        <ele>270.4</ele>
        <time>2010-12-12T11:13:19Z</time>
      </trkpt>
      <trkpt lat="43.36292" lon="-0.27687">
        <ele>270.3</ele>
        <time>2010-12-12T11:13:21Z</time>
      </trkpt>
      <trkpt lat="43.36278" lon="-0.27674">
        <ele>270.1</ele>
        <time>2010-12-12T11:13:23Z</time>
      </trkpt>
      <trkpt lat="43.36262" lon="-0.27662">
        <ele>270.4</ele>
        <time>2010-12-12T11:13:25Z</time>
      </trkpt>
      <trkpt lat="43.36248" lon="-0.2765">
        <ele>269.6</ele>
        <time>2010-12-12T11:13:27Z</time>
      </trkpt>
      <trkpt lat="43.36234" lon="-0.27637">
        <ele>269.8</ele>
        <time>2010-12-12T11:13:29Z</time>
      </trkpt>
      <trkpt lat="43.3622" lon="-0.27626">
        <ele>270.1</ele>
        <time>2010-12-12T11:13:31Z</time>
      </trkpt>
      <trkpt lat="43.36207" lon="-0.27615">
        <ele>269.4</ele>
        <time>2010-12-12T11:13:33Z</time>
      </trkpt>
      <trkpt lat="43.36195" lon="-0.27605">
        <ele>270.4</ele>
        <time>2010-12-12T11:13:35Z</time>
      </trkpt>
      <trkpt lat="43.36183" lon="-0.27598">
        <ele>271.1</ele>
        <time>2010-12-12T11:13:37Z</time>
      </trkpt>
      <trkpt lat="43.36172" lon="-0.2759">
        <ele>270.9</ele>
        <time>2010-12-12T11:13:39Z</time>
      </trkpt>
      <trkpt lat="43.36163" lon="-0.27581">
        <ele>271.8</ele>
        <time>2010-12-12T11:13:41Z</time>
      </trkpt>
      <trkpt lat="43.36153" lon="-0.27573">
        <ele>271.9</ele>
        <time>2010-12-12T11:13:43Z</time>
      </trkpt>
      <trkpt lat="43.36142" lon="-0.27564">
        <ele>272.3</ele>
        <time>2010-12-12T11:13:45Z</time>
      </trkpt>
      <trkpt lat="43.36132" lon="-0.27556">
        <ele>272.5</ele>
        <time>2010-12-12T11:13:47Z</time>
      </trkpt>
      <trkpt lat="43.36122" lon="-0.27548">
        <ele>273</ele>
        <time>2010-12-12T11:13:49Z</time>
      </trkpt>
      <trkpt lat="43.36112" lon="-0.27542">
        <ele>273.6</ele>
        <time>2010-12-12T11:13:51Z</time>
      </trkpt>
      <trkpt lat="43.36101" lon="-0.27536">
        <ele>274</ele>
        <time>2010-12-12T11:13:53Z</time>
      </trkpt>
      <trkpt lat="43.3609" lon="-0.27528">
        <ele>274.1</ele>
        <time>2010-12-12T11:13:55Z</time>
      </trkpt>
      <trkpt lat="43.3608" lon="-0.27521">
        <ele>274.8</ele>
        <time>2010-12-12T11:13:57Z</time>
      </trkpt>
      <trkpt lat="43.3607" lon="-0.27513">
        <ele>274.4</ele>
        <time>2010-12-12T11:13:59Z</time>
      </trkpt>
      <trkpt lat="43.3606" lon="-0.27507">
        <ele>274.7</ele>
        <time>2010-12-12T11:14:01Z</time>
      </trkpt>
      <trkpt lat="43.36049" lon="-0.27501">
        <ele>275</ele>
        <time>2010-12-12T11:14:03Z</time>
      </trkpt>
      <trkpt lat="43.36039" lon="-0.27495">
        <ele>276.1</ele>
        <time>2010-12-12T11:14:05Z</time>
      </trkpt>
      <trkpt lat="43.36028" lon="-0.2749">
        <ele>276.3</ele>
        <time>2010-12-12T11:14:07Z</time>
      </trkpt>
      <trkpt lat="43.36016" lon="-0.27485">
        <ele>276</ele>
        <time>2010-12-12T11:14:09Z</time>
      </trkpt>
      <trkpt lat="43.36005" lon="-0.27481">
        <ele>275.5</ele>
        <time>2010-12-12T11:14:11Z</time>
      </trkpt>
      <trkpt lat="43.35994" lon="-0.27476">
        <ele>275.1</ele>
        <time>2010-12-12T11:14:13Z</time>
      </trkpt>
      <trkpt lat="43.35982" lon="-0.27471">
        <ele>275.4</ele>
        <time>2010-12-12T11:14:15Z</time>
      </trkpt>
      <trkpt lat="43.35971" lon="-0.27466">
        <ele>275.9</ele>
        <time>2010-12-12T11:14:17Z</time>
      </trkpt>
      <trkpt lat="43.35958" lon="-0.27461">
        <ele>275</ele>
        <time>2010-12-12T11:14:19Z</time>
      </trkpt>
      <trkpt lat="43.35946" lon="-0.27457">
        <ele>274.4</ele>
        <time>2010-12-12T11:14:21Z</time>
      </trkpt>
      <trkpt lat="43.35933" lon="-0.27451">
        <ele>274.7</ele>
        <time>2010-12-12T11:14:23Z</time>
      </trkpt>
      <trkpt lat="43.3592" lon="-0.27446">
        <ele>274.3</ele>
        <time>2010-12-12T11:14:25Z</time>
      </trkpt>
      <trkpt lat="43.35905" lon="-0.2744">
        <ele>274.3</ele>
        <time>2010-12-12T11:14:27Z</time>
      </trkpt>
      <trkpt lat="43.35892" lon="-0.27433">
        <ele>274.4</ele>
        <time>2010-12-12T11:14:29Z</time>
      </trkpt>
      <trkpt lat="43.35879" lon="-0.27427">
        <ele>274.5</ele>
        <time>2010-12-12T11:14:31Z</time>
      </trkpt>
      <trkpt lat="43.35865" lon="-0.27422">
        <ele>274.9</ele>
        <time>2010-12-12T11:14:33Z</time>
      </trkpt>
      <trkpt lat="43.35853" lon="-0.27417">
        <ele>275.5</ele>
        <time>2010-12-12T11:14:35Z</time>
      </trkpt>
      <trkpt lat="43.35842" lon="-0.27413">
        <ele>275.6</ele>
        <time>2010-12-12T11:14:37Z</time>
      </trkpt>
      <trkpt lat="43.35833" lon="-0.27407">
        <ele>275.5</ele>
        <time>2010-12-12T11:14:39Z</time>
      </trkpt>
      <trkpt lat="43.35822" lon="-0.274">
        <ele>275.2</ele>
        <time>2010-12-12T11:14:41Z</time>
      </trkpt>
      <trkpt lat="43.35811" lon="-0.27394">
        <ele>275.8</ele>
        <time>2010-12-12T11:14:43Z</time>
      </trkpt>
      <trkpt lat="43.35802" lon="-0.27386">
        <ele>276.1</ele>
        <time>2010-12-12T11:14:45Z</time>
      </trkpt>
      <trkpt lat="43.35791" lon="-0.27379">
        <ele>275.4</ele>
        <time>2010-12-12T11:14:47Z</time>
      </trkpt>
      <trkpt lat="43.35781" lon="-0.27371">
        <ele>275</ele>
        <time>2010-12-12T11:14:49Z</time>
      </trkpt>
      <trkpt lat="43.35772" lon="-0.27363">
        <ele>275.7</ele>
        <time>2010-12-12T11:14:51Z</time>
      </trkpt>
      <trkpt lat="43.35763" lon="-0.27354">
        <ele>275.7</ele>
        <time>2010-12-12T11:14:53Z</time>
      </trkpt>
      <trkpt lat="43.35753" lon="-0.27345">
        <ele>275.5</ele>
        <time>2010-12-12T11:14:55Z</time>
      </trkpt>
      <trkpt lat="43.35741" lon="-0.27336">
        <ele>275.9</ele>
        <time>2010-12-12T11:14:57Z</time>
      </trkpt>
      <trkpt lat="43.3573" lon="-0.27327">
        <ele>275.4</ele>
        <time>2010-12-12T11:14:59Z</time>
      </trkpt>
      <trkpt lat="43.35719" lon="-0.27318">
        <ele>275.5</ele>
        <time>2010-12-12T11:15:01Z</time>
      </trkpt>
      <trkpt lat="43.35708" lon="-0.27308">
        <ele>275.1</ele>
        <time>2010-12-12T11:15:03Z</time>
      </trkpt>
      <trkpt lat="43.35696" lon="-0.273">
        <ele>274.8</ele>
        <time>2010-12-12T11:15:05Z</time>
      </trkpt>
      <trkpt lat="43.35684" lon="-0.2729">
        <ele>274.8</ele>
        <time>2010-12-12T11:15:07Z</time>
      </trkpt>
      <trkpt lat="43.35673" lon="-0.27281">
        <ele>274.5</ele>
        <time>2010-12-12T11:15:09Z</time>
      </trkpt>
      <trkpt lat="43.35661" lon="-0.27272">
        <ele>274.5</ele>
        <time>2010-12-12T11:15:11Z</time>
      </trkpt>
      <trkpt lat="43.3565" lon="-0.27263">
        <ele>274.4</ele>
        <time>2010-12-12T11:15:13Z</time>
      </trkpt>
      <trkpt lat="43.35638" lon="-0.27253">
        <ele>274.3</ele>
        <time>2010-12-12T11:15:15Z</time>
      </trkpt>
      <trkpt lat="43.35626" lon="-0.27242">
        <ele>274.2</ele>
        <time>2010-12-12T11:15:17Z</time>
      </trkpt>
      <trkpt lat="43.35613" lon="-0.27232">
        <ele>273.9</ele>
        <time>2010-12-12T11:15:19Z</time>
      </trkpt>
      <trkpt lat="43.35601" lon="-0.27222">
        <ele>274.2</ele>
        <time>2010-12-12T11:15:21Z</time>
      </trkpt>
      <trkpt lat="43.35588" lon="-0.27213">
        <ele>273.9</ele>
        <time>2010-12-12T11:15:23Z</time>
      </trkpt>
      <trkpt lat="43.35575" lon="-0.27203">
        <ele>273.5</ele>
        <time>2010-12-12T11:15:25Z</time>
      </trkpt>
      <trkpt lat="43.35566" lon="-0.27194">
        <ele>273.3</ele>
        <time>2010-12-12T11:15:27Z</time>
      </trkpt>
      <trkpt lat="43.35555" lon="-0.27186">
        <ele>273.7</ele>
        <time>2010-12-12T11:15:29Z</time>
      </trkpt>
      <trkpt lat="43.35546" lon="-0.27176">
        <ele>273.8</ele>
        <time>2010-12-12T11:15:31Z</time>
      </trkpt>
      <trkpt lat="43.35539" lon="-0.27166">
        <ele>273.8</ele>
        <time>2010-12-12T11:15:33Z</time>
      </trkpt>
      <trkpt lat="43.35531" lon="-0.27156">
        <ele>274.2</ele>
        <time>2010-12-12T11:15:35Z</time>
      </trkpt>
      <trkpt lat="43.35525" lon="-0.27145">
        <ele>274.5</ele>
        <time>2010-12-12T11:15:37Z</time>
      </trkpt>
      <trkpt lat="43.35519" lon="-0.27133">
        <ele>274.6</ele>
        <time>2010-12-12T11:15:39Z</time>
      </trkpt>
      <trkpt lat="43.35512" lon="-0.2712">
        <ele>273.6</ele>
        <time>2010-12-12T11:15:41Z</time>
      </trkpt>
      <trkpt lat="43.35505" lon="-0.27107">
        <ele>274.5</ele>
        <time>2010-12-12T11:15:43Z</time>
      </trkpt>
      <trkpt lat="43.35499" lon="-0.27094">
        <ele>275.5</ele>
        <time>2010-12-12T11:15:45Z</time>
      </trkpt>
      <trkpt lat="43.35491" lon="-0.2708">
        <ele>275.2</ele>
        <time>2010-12-12T11:15:47Z</time>
      </trkpt>
      <trkpt lat="43.35483" lon="-0.27067">
        <ele>275.3</ele>
        <time>2010-12-12T11:15:49Z</time>
      </trkpt>
      <trkpt lat="43.35476" lon="-0.27053">
        <ele>275.7</ele>
        <time>2010-12-12T11:15:51Z</time>
      </trkpt>
      <trkpt lat="43.35469" lon="-0.27039">
        <ele>275.6</ele>
        <time>2010-12-12T11:15:53Z</time>
      </trkpt>
      <trkpt lat="43.35462" lon="-0.27026">
        <ele>276.1</ele>
        <time>2010-12-12T11:15:55Z</time>
      </trkpt>
      <trkpt lat="43.35455" lon="-0.27012">
        <ele>276.2</ele>
        <time>2010-12-12T11:15:57Z</time>
      </trkpt>
      <trkpt lat="43.35448" lon="-0.26996">
        <ele>275.5</ele>
        <time>2010-12-12T11:15:59Z</time>
      </trkpt>
      <trkpt lat="43.35443" lon="-0.26979">
        <ele>274.8</ele>
        <time>2010-12-12T11:16:01Z</time>
      </trkpt>
      <trkpt lat="43.35439" lon="-0.26961">
        <ele>274.9</ele>
        <time>2010-12-12T11:16:03Z</time>
      </trkpt>
      <trkpt lat="43.35435" lon="-0.26944">
        <ele>274.8</ele>
        <time>2010-12-12T11:16:05Z</time>
      </trkpt>
      <trkpt lat="43.3543" lon="-0.26926">
        <ele>274.3</ele>
        <time>2010-12-12T11:16:07Z</time>
      </trkpt>
      <trkpt lat="43.35424" lon="-0.26908">
        <ele>274.2</ele>
        <time>2010-12-12T11:16:09Z</time>
      </trkpt>
      <trkpt lat="43.35416" lon="-0.26891">
        <ele>274.1</ele>
        <time>2010-12-12T11:16:11Z</time>
      </trkpt>
      <trkpt lat="43.35406" lon="-0.26876">
        <ele>274.3</ele>
        <time>2010-12-12T11:16:13Z</time>
      </trkpt>
      <trkpt lat="43.35396" lon="-0.26861">
        <ele>274</ele>
        <time>2010-12-12T11:16:15Z</time>
      </trkpt>
      <trkpt lat="43.35386" lon="-0.26848">
        <ele>274.8</ele>
        <time>2010-12-12T11:16:17Z</time>
      </trkpt>
      <trkpt lat="43.35377" lon="-0.26835">
        <ele>275.5</ele>
        <time>2010-12-12T11:16:19Z</time>
      </trkpt>
      <trkpt lat="43.35369" lon="-0.26823">
        <ele>275.8</ele>
        <time>2010-12-12T11:16:21Z</time>
      </trkpt>
      <trkpt lat="43.35361" lon="-0.26812">
        <ele>276.2</ele>
        <time>2010-12-12T11:16:23Z</time>
      </trkpt>
      <trkpt lat="43.35353" lon="-0.26801">
        <ele>275.5</ele>
        <time>2010-12-12T11:16:25Z</time>
      </trkpt>
      <trkpt lat="43.35344" lon="-0.2679">
        <ele>275.3</ele>
        <time>2010-12-12T11:16:27Z</time>
      </trkpt>
      <trkpt lat="43.35337" lon="-0.26779">
        <ele>275.3</ele>
        <time>2010-12-12T11:16:29Z</time>
      </trkpt>
      <trkpt lat="43.35329" lon="-0.26767">
        <ele>275.3</ele>
        <time>2010-12-12T11:16:31Z</time>
      </trkpt>
      <trkpt lat="43.35322" lon="-0.26755">
        <ele>275.7</ele>
        <time>2010-12-12T11:16:33Z</time>
      </trkpt>
      <trkpt lat="43.35315" lon="-0.26744">
        <ele>276.1</ele>
        <time>2010-12-12T11:16:35Z</time>
      </trkpt>
      <trkpt lat="43.35308" lon="-0.26732">
        <ele>276.5</ele>
        <time>2010-12-12T11:16:37Z</time>
      </trkpt>
      <trkpt lat="43.353" lon="-0.26721">
        <ele>276.5</ele>
        <time>2010-12-12T11:16:39Z</time>
      </trkpt>
      <trkpt lat="43.35292" lon="-0.26708">
        <ele>276.4</ele>
        <time>2010-12-12T11:16:41Z</time>
      </trkpt>
      <trkpt lat="43.35284" lon="-0.26698">
        <ele>277.6</ele>
        <time>2010-12-12T11:16:43Z</time>
      </trkpt>
      <trkpt lat="43.35276" lon="-0.26687">
        <ele>277.7</ele>
        <time>2010-12-12T11:16:45Z</time>
      </trkpt>
      <trkpt lat="43.35268" lon="-0.26675">
        <ele>278</ele>
        <time>2010-12-12T11:16:47Z</time>
      </trkpt>
      <trkpt lat="43.35262" lon="-0.26663">
        <ele>278.1</ele>
        <time>2010-12-12T11:16:49Z</time>
      </trkpt>
      <trkpt lat="43.35254" lon="-0.2665">
        <ele>278.1</ele>
        <time>2010-12-12T11:16:51Z</time>
      </trkpt>
      <trkpt lat="43.35248" lon="-0.26639">
        <ele>278.3</ele>
        <time>2010-12-12T11:16:53Z</time>
      </trkpt>
      <trkpt lat="43.35241" lon="-0.26628">
        <ele>278.4</ele>
        <time>2010-12-12T11:16:55Z</time>
      </trkpt>
      <trkpt lat="43.35234" lon="-0.26617">
        <ele>278.5</ele>
        <time>2010-12-12T11:16:57Z</time>
      </trkpt>
      <trkpt lat="43.35227" lon="-0.26606">
        <ele>278.4</ele>
        <time>2010-12-12T11:16:59Z</time>
      </trkpt>
      <trkpt lat="43.35221" lon="-0.26595">
        <ele>278.4</ele>
        <time>2010-12-12T11:17:01Z</time>
      </trkpt>
      <trkpt lat="43.35214" lon="-0.26583">
        <ele>278.5</ele>
        <time>2010-12-12T11:17:03Z</time>
      </trkpt>
      <trkpt lat="43.35207" lon="-0.26571">
        <ele>278.9</ele>
        <time>2010-12-12T11:17:05Z</time>
      </trkpt>
      <trkpt lat="43.35201" lon="-0.26559">
        <ele>278.4</ele>
        <time>2010-12-12T11:17:07Z</time>
      </trkpt>
      <trkpt lat="43.35194" lon="-0.26547">
        <ele>278.8</ele>
        <time>2010-12-12T11:17:09Z</time>
      </trkpt>
      <trkpt lat="43.35186" lon="-0.26535">
        <ele>278.9</ele>
        <time>2010-12-12T11:17:11Z</time>
      </trkpt>
      <trkpt lat="43.35178" lon="-0.26523">
        <ele>279.6</ele>
        <time>2010-12-12T11:17:13Z</time>
      </trkpt>
      <trkpt lat="43.35171" lon="-0.2651">
        <ele>279.8</ele>
        <time>2010-12-12T11:17:15Z</time>
      </trkpt>
      <trkpt lat="43.35163" lon="-0.26498">
        <ele>279.8</ele>
        <time>2010-12-12T11:17:17Z</time>
      </trkpt>
      <trkpt lat="43.35156" lon="-0.26486">
        <ele>280.3</ele>
        <time>2010-12-12T11:17:19Z</time>
      </trkpt>
      <trkpt lat="43.35148" lon="-0.26474">
        <ele>280.2</ele>
        <time>2010-12-12T11:17:21Z</time>
      </trkpt>
      <trkpt lat="43.35139" lon="-0.26462">
        <ele>280.1</ele>
        <time>2010-12-12T11:17:23Z</time>
      </trkpt>
      <trkpt lat="43.35131" lon="-0.26449">
        <ele>280.5</ele>
        <time>2010-12-12T11:17:25Z</time>
      </trkpt>
      <trkpt lat="43.35124" lon="-0.26436">
        <ele>280.4</ele>
        <time>2010-12-12T11:17:27Z</time>
      </trkpt>
      <trkpt lat="43.35116" lon="-0.26421">
        <ele>280.3</ele>
        <time>2010-12-12T11:17:29Z</time>
      </trkpt>
      <trkpt lat="43.35111" lon="-0.26405">
        <ele>280</ele>
        <time>2010-12-12T11:17:31Z</time>
      </trkpt>
      <trkpt lat="43.35107" lon="-0.26389">
        <ele>279.3</ele>
        <time>2010-12-12T11:17:33Z</time>
      </trkpt>
      <trkpt lat="43.35102" lon="-0.26372">
        <ele>278</ele>
        <time>2010-12-12T11:17:35Z</time>
      </trkpt>
      <trkpt lat="43.35096" lon="-0.26355">
        <ele>277</ele>
        <time>2010-12-12T11:17:37Z</time>
      </trkpt>
      <trkpt lat="43.35086" lon="-0.26342">
        <ele>276.9</ele>
        <time>2010-12-12T11:17:39Z</time>
      </trkpt>
      <trkpt lat="43.35076" lon="-0.26334">
        <ele>277.5</ele>
        <time>2010-12-12T11:17:41Z</time>
      </trkpt>
      <trkpt lat="43.35064" lon="-0.26327">
        <ele>278</ele>
        <time>2010-12-12T11:17:43Z</time>
      </trkpt>
      <trkpt lat="43.35053" lon="-0.2632">
        <ele>278.5</ele>
        <time>2010-12-12T11:17:45Z</time>
      </trkpt>
      <trkpt lat="43.35042" lon="-0.26315">
        <ele>278.5</ele>
        <time>2010-12-12T11:17:47Z</time>
      </trkpt>
      <trkpt lat="43.35032" lon="-0.26311">
        <ele>278.5</ele>
        <time>2010-12-12T11:17:49Z</time>
      </trkpt>
      <trkpt lat="43.3502" lon="-0.26304">
        <ele>278.4</ele>
        <time>2010-12-12T11:17:51Z</time>
      </trkpt>
      <trkpt lat="43.35007" lon="-0.26296">
        <ele>278.6</ele>
        <time>2010-12-12T11:17:53Z</time>
      </trkpt>
      <trkpt lat="43.34989" lon="-0.2629">
        <ele>278.6</ele>
        <time>2010-12-12T11:17:55Z</time>
      </trkpt>
      <trkpt lat="43.34975" lon="-0.26287">
        <ele>278.1</ele>
        <time>2010-12-12T11:17:57Z</time>
      </trkpt>
      <trkpt lat="43.34963" lon="-0.26283">
        <ele>277.7</ele>
        <time>2010-12-12T11:17:59Z</time>
      </trkpt>
      <trkpt lat="43.34951" lon="-0.26279">
        <ele>277.1</ele>
        <time>2010-12-12T11:18:01Z</time>
      </trkpt>
      <trkpt lat="43.34938" lon="-0.26274">
        <ele>277.3</ele>
        <time>2010-12-12T11:18:03Z</time>
      </trkpt>
      <trkpt lat="43.34924" lon="-0.2627">
        <ele>278.4</ele>
        <time>2010-12-12T11:18:05Z</time>
      </trkpt>
      <trkpt lat="43.34912" lon="-0.26265">
        <ele>278.6</ele>
        <time>2010-12-12T11:18:07Z</time>
      </trkpt>
      <trkpt lat="43.349" lon="-0.2626">
        <ele>278</ele>
        <time>2010-12-12T11:18:09Z</time>
      </trkpt>
      <trkpt lat="43.34888" lon="-0.26254">
        <ele>278.1</ele>
        <time>2010-12-12T11:18:11Z</time>
      </trkpt>
      <trkpt lat="43.34875" lon="-0.26247">
        <ele>278.6</ele>
        <time>2010-12-12T11:18:14Z</time>
      </trkpt>
      <trkpt lat="43.34867" lon="-0.26241">
        <ele>278.9</ele>
        <time>2010-12-12T11:18:16Z</time>
      </trkpt>
      <trkpt lat="43.34857" lon="-0.26234">
        <ele>279.3</ele>
        <time>2010-12-12T11:18:19Z</time>
      </trkpt>
      <trkpt lat="43.34848" lon="-0.26227">
        <ele>280.1</ele>
        <time>2010-12-12T11:18:21Z</time>
      </trkpt>
      <trkpt lat="43.3484" lon="-0.2622">
        <ele>280.2</ele>
        <time>2010-12-12T11:18:23Z</time>
      </trkpt>
      <trkpt lat="43.34831" lon="-0.26214">
        <ele>280.1</ele>
        <time>2010-12-12T11:18:25Z</time>
      </trkpt>
      <trkpt lat="43.34822" lon="-0.26207">
        <ele>280</ele>
        <time>2010-12-12T11:18:27Z</time>
      </trkpt>
      <trkpt lat="43.34813" lon="-0.262">
        <ele>280.3</ele>
        <time>2010-12-12T11:18:29Z</time>
      </trkpt>
      <trkpt lat="43.34804" lon="-0.26194">
        <ele>280.1</ele>
        <time>2010-12-12T11:18:31Z</time>
      </trkpt>
      <trkpt lat="43.34795" lon="-0.26187">
        <ele>281.1</ele>
        <time>2010-12-12T11:18:34Z</time>
      </trkpt>
      <trkpt lat="43.34787" lon="-0.26179">
        <ele>281.5</ele>
        <time>2010-12-12T11:18:36Z</time>
      </trkpt>
      <trkpt lat="43.3478" lon="-0.26172">
        <ele>281.9</ele>
        <time>2010-12-12T11:18:38Z</time>
      </trkpt>
      <trkpt lat="43.34771" lon="-0.26164">
        <ele>281.5</ele>
        <time>2010-12-12T11:18:41Z</time>
      </trkpt>
      <trkpt lat="43.34766" lon="-0.26159">
        <ele>282.6</ele>
        <time>2010-12-12T11:18:54Z</time>
      </trkpt>
      <trkpt lat="43.34759" lon="-0.26151">
        <ele>283.3</ele>
        <time>2010-12-12T11:19:06Z</time>
      </trkpt>
      <trkpt lat="43.34749" lon="-0.2614">
        <ele>284.5</ele>
        <time>2010-12-12T11:19:11Z</time>
      </trkpt>
      <trkpt lat="43.34742" lon="-0.26133">
        <ele>283.4</ele>
        <time>2010-12-12T11:19:13Z</time>
      </trkpt>
      <trkpt lat="43.34736" lon="-0.26126">
        <ele>282.8</ele>
        <time>2010-12-12T11:19:15Z</time>
      </trkpt>
      <trkpt lat="43.34727" lon="-0.2612">
        <ele>282.5</ele>
        <time>2010-12-12T11:19:17Z</time>
      </trkpt>
      <trkpt lat="43.34715" lon="-0.26119">
        <ele>283</ele>
        <time>2010-12-12T11:19:19Z</time>
      </trkpt>
      <trkpt lat="43.34702" lon="-0.26118">
        <ele>283.5</ele>
        <time>2010-12-12T11:19:21Z</time>
      </trkpt>
      <trkpt lat="43.34688" lon="-0.26119">
        <ele>282.9</ele>
        <time>2010-12-12T11:19:23Z</time>
      </trkpt>
      <trkpt lat="43.34674" lon="-0.26121">
        <ele>282.4</ele>
        <time>2010-12-12T11:19:25Z</time>
      </trkpt>
      <trkpt lat="43.34659" lon="-0.26125">
        <ele>282.4</ele>
        <time>2010-12-12T11:19:28Z</time>
      </trkpt>
      <trkpt lat="43.34648" lon="-0.26132">
        <ele>281.8</ele>
        <time>2010-12-12T11:19:30Z</time>
      </trkpt>
      <trkpt lat="43.34637" lon="-0.26137">
        <ele>281.5</ele>
        <time>2010-12-12T11:19:32Z</time>
      </trkpt>
      <trkpt lat="43.34627" lon="-0.26143">
        <ele>281.4</ele>
        <time>2010-12-12T11:19:34Z</time>
      </trkpt>
      <trkpt lat="43.34617" lon="-0.26151">
        <ele>280.8</ele>
        <time>2010-12-12T11:19:36Z</time>
      </trkpt>
      <trkpt lat="43.34607" lon="-0.26158">
        <ele>280.7</ele>
        <time>2010-12-12T11:19:38Z</time>
      </trkpt>
      <trkpt lat="43.34597" lon="-0.26165">
        <ele>280.7</ele>
        <time>2010-12-12T11:19:40Z</time>
      </trkpt>
      <trkpt lat="43.34588" lon="-0.26172">
        <ele>280.3</ele>
        <time>2010-12-12T11:19:42Z</time>
      </trkpt>
      <trkpt lat="43.34579" lon="-0.26178">
        <ele>280.2</ele>
        <time>2010-12-12T11:19:44Z</time>
      </trkpt>
      <trkpt lat="43.34569" lon="-0.26185">
        <ele>280</ele>
        <time>2010-12-12T11:19:46Z</time>
      </trkpt>
      <trkpt lat="43.3456" lon="-0.26191">
        <ele>279.7</ele>
        <time>2010-12-12T11:19:48Z</time>
      </trkpt>
      <trkpt lat="43.3455" lon="-0.26199">
        <ele>280.4</ele>
        <time>2010-12-12T11:19:50Z</time>
      </trkpt>
      <trkpt lat="43.34539" lon="-0.26205">
        <ele>280.5</ele>
        <time>2010-12-12T11:19:52Z</time>
      </trkpt>
      <trkpt lat="43.3453" lon="-0.26212">
        <ele>280.5</ele>
        <time>2010-12-12T11:19:54Z</time>
      </trkpt>
      <trkpt lat="43.34522" lon="-0.26217">
        <ele>280.9</ele>
        <time>2010-12-12T11:19:56Z</time>
      </trkpt>
      <trkpt lat="43.34512" lon="-0.26224">
        <ele>280.5</ele>
        <time>2010-12-12T11:19:58Z</time>
      </trkpt>
      <trkpt lat="43.34504" lon="-0.26231">
        <ele>281.5</ele>
        <time>2010-12-12T11:20:00Z</time>
      </trkpt>
      <trkpt lat="43.34497" lon="-0.26236">
        <ele>282.1</ele>
        <time>2010-12-12T11:20:02Z</time>
      </trkpt>
      <trkpt lat="43.34487" lon="-0.26241">
        <ele>282.5</ele>
        <time>2010-12-12T11:20:04Z</time>
      </trkpt>
      <trkpt lat="43.34479" lon="-0.26248">
        <ele>282.9</ele>
        <time>2010-12-12T11:20:06Z</time>
      </trkpt>
      <trkpt lat="43.3447" lon="-0.26256">
        <ele>283.7</ele>
        <time>2010-12-12T11:20:08Z</time>
      </trkpt>
      <trkpt lat="43.34462" lon="-0.26262">
        <ele>284.4</ele>
        <time>2010-12-12T11:20:10Z</time>
      </trkpt>
      <trkpt lat="43.34455" lon="-0.26268">
        <ele>284.3</ele>
        <time>2010-12-12T11:20:12Z</time>
      </trkpt>
      <trkpt lat="43.34447" lon="-0.26274">
        <ele>284</ele>
        <time>2010-12-12T11:20:14Z</time>
      </trkpt>
      <trkpt lat="43.34436" lon="-0.26283">
        <ele>283.5</ele>
        <time>2010-12-12T11:20:17Z</time>
      </trkpt>
      <trkpt lat="43.34427" lon="-0.26287">
        <ele>282.5</ele>
        <time>2010-12-12T11:20:22Z</time>
      </trkpt>
      <trkpt lat="43.34427" lon="-0.26276">
        <ele>285.5</ele>
        <time>2010-12-12T11:20:25Z</time>
      </trkpt>
      <trkpt lat="43.34427" lon="-0.26266">
        <ele>287.5</ele>
        <time>2010-12-12T11:20:27Z</time>
      </trkpt>
      <trkpt lat="43.34422" lon="-0.26255">
        <ele>288.1</ele>
        <time>2010-12-12T11:20:29Z</time>
      </trkpt>
      <trkpt lat="43.34414" lon="-0.26244">
        <ele>288.2</ele>
        <time>2010-12-12T11:20:31Z</time>
      </trkpt>
      <trkpt lat="43.34402" lon="-0.26232">
        <ele>287.5</ele>
        <time>2010-12-12T11:20:33Z</time>
      </trkpt>
      <trkpt lat="43.3439" lon="-0.26222">
        <ele>286</ele>
        <time>2010-12-12T11:20:35Z</time>
      </trkpt>
      <trkpt lat="43.34385" lon="-0.26208">
        <ele>285.7</ele>
        <time>2010-12-12T11:20:37Z</time>
      </trkpt>
      <trkpt lat="43.34381" lon="-0.26193">
        <ele>286</ele>
        <time>2010-12-12T11:20:39Z</time>
      </trkpt>
      <trkpt lat="43.34377" lon="-0.26179">
        <ele>287</ele>
        <time>2010-12-12T11:20:41Z</time>
      </trkpt>
      <trkpt lat="43.3437" lon="-0.26166">
        <ele>286.9</ele>
        <time>2010-12-12T11:20:43Z</time>
      </trkpt>
      <trkpt lat="43.34365" lon="-0.26153">
        <ele>287.1</ele>
        <time>2010-12-12T11:20:45Z</time>
      </trkpt>
      <trkpt lat="43.3436" lon="-0.2614">
        <ele>288.3</ele>
        <time>2010-12-12T11:20:47Z</time>
      </trkpt>
      <trkpt lat="43.34349" lon="-0.26127">
        <ele>288.6</ele>
        <time>2010-12-12T11:20:49Z</time>
      </trkpt>
      <trkpt lat="43.34342" lon="-0.26116">
        <ele>289.1</ele>
        <time>2010-12-12T11:20:51Z</time>
      </trkpt>
      <trkpt lat="43.34336" lon="-0.26103">
        <ele>289.4</ele>
        <time>2010-12-12T11:20:53Z</time>
      </trkpt>
      <trkpt lat="43.34328" lon="-0.26091">
        <ele>289.7</ele>
        <time>2010-12-12T11:20:55Z</time>
      </trkpt>
      <trkpt lat="43.34322" lon="-0.26078">
        <ele>289.3</ele>
        <time>2010-12-12T11:20:57Z</time>
      </trkpt>
      <trkpt lat="43.34312" lon="-0.26065">
        <ele>287.8</ele>
        <time>2010-12-12T11:20:59Z</time>
      </trkpt>
      <trkpt lat="43.34304" lon="-0.26052">
        <ele>285.8</ele>
        <time>2010-12-12T11:21:01Z</time>
      </trkpt>
      <trkpt lat="43.34303" lon="-0.26038">
        <ele>285.4</ele>
        <time>2010-12-12T11:21:03Z</time>
      </trkpt>
      <trkpt lat="43.34302" lon="-0.26023">
        <ele>285.3</ele>
        <time>2010-12-12T11:21:05Z</time>
      </trkpt>
      <trkpt lat="43.343" lon="-0.26006">
        <ele>285.4</ele>
        <time>2010-12-12T11:21:07Z</time>
      </trkpt>
      <trkpt lat="43.343" lon="-0.25986">
        <ele>285.7</ele>
        <time>2010-12-12T11:21:09Z</time>
      </trkpt>
      <trkpt lat="43.34298" lon="-0.2597">
        <ele>285.5</ele>
        <time>2010-12-12T11:21:11Z</time>
      </trkpt>
      <trkpt lat="43.34298" lon="-0.25953">
        <ele>285.4</ele>
        <time>2010-12-12T11:21:13Z</time>
      </trkpt>
      <trkpt lat="43.34295" lon="-0.25937">
        <ele>285.3</ele>
        <time>2010-12-12T11:21:15Z</time>
      </trkpt>
      <trkpt lat="43.34293" lon="-0.25918">
        <ele>282.6</ele>
        <time>2010-12-12T11:21:17Z</time>
      </trkpt>
      <trkpt lat="43.34289" lon="-0.25906">
        <ele>283</ele>
        <time>2010-12-12T11:21:19Z</time>
      </trkpt>
      <trkpt lat="43.34284" lon="-0.25894">
        <ele>283.2</ele>
        <time>2010-12-12T11:21:21Z</time>
      </trkpt>
      <trkpt lat="43.34284" lon="-0.25883">
        <ele>283.4</ele>
        <time>2010-12-12T11:21:23Z</time>
      </trkpt>
      <trkpt lat="43.34284" lon="-0.25867">
        <ele>283.9</ele>
        <time>2010-12-12T11:21:25Z</time>
      </trkpt>
      <trkpt lat="43.34284" lon="-0.25851">
        <ele>284.1</ele>
        <time>2010-12-12T11:21:27Z</time>
      </trkpt>
      <trkpt lat="43.34284" lon="-0.25835">
        <ele>284.3</ele>
        <time>2010-12-12T11:21:29Z</time>
      </trkpt>
      <trkpt lat="43.34281" lon="-0.2582">
        <ele>283.6</ele>
        <time>2010-12-12T11:21:31Z</time>
      </trkpt>
      <trkpt lat="43.34275" lon="-0.25806">
        <ele>283.5</ele>
        <time>2010-12-12T11:21:33Z</time>
      </trkpt>
      <trkpt lat="43.34268" lon="-0.25793">
        <ele>283</ele>
        <time>2010-12-12T11:21:35Z</time>
      </trkpt>
      <trkpt lat="43.3426" lon="-0.25782">
        <ele>283</ele>
        <time>2010-12-12T11:21:37Z</time>
      </trkpt>
      <trkpt lat="43.34251" lon="-0.25773">
        <ele>283.4</ele>
        <time>2010-12-12T11:21:39Z</time>
      </trkpt>
      <trkpt lat="43.34242" lon="-0.25765">
        <ele>284.1</ele>
        <time>2010-12-12T11:21:41Z</time>
      </trkpt>
      <trkpt lat="43.34234" lon="-0.25756">
        <ele>285.4</ele>
        <time>2010-12-12T11:21:43Z</time>
      </trkpt>
      <trkpt lat="43.34224" lon="-0.25748">
        <ele>285.6</ele>
        <time>2010-12-12T11:21:45Z</time>
      </trkpt>
      <trkpt lat="43.34216" lon="-0.2574">
        <ele>285.6</ele>
        <time>2010-12-12T11:21:47Z</time>
      </trkpt>
      <trkpt lat="43.34208" lon="-0.25732">
        <ele>285.5</ele>
        <time>2010-12-12T11:21:49Z</time>
      </trkpt>
      <trkpt lat="43.34201" lon="-0.25724">
        <ele>285.5</ele>
        <time>2010-12-12T11:21:51Z</time>
      </trkpt>
      <trkpt lat="43.34192" lon="-0.25716">
        <ele>285.6</ele>
        <time>2010-12-12T11:21:53Z</time>
      </trkpt>
      <trkpt lat="43.34183" lon="-0.25707">
        <ele>286.1</ele>
        <time>2010-12-12T11:21:55Z</time>
      </trkpt>
      <trkpt lat="43.34174" lon="-0.257">
        <ele>286.9</ele>
        <time>2010-12-12T11:21:57Z</time>
      </trkpt>
      <trkpt lat="43.34165" lon="-0.25691">
        <ele>287.5</ele>
        <time>2010-12-12T11:21:59Z</time>
      </trkpt>
      <trkpt lat="43.34158" lon="-0.25684">
        <ele>288</ele>
        <time>2010-12-12T11:22:01Z</time>
      </trkpt>
      <trkpt lat="43.34151" lon="-0.25677">
        <ele>288.7</ele>
        <time>2010-12-12T11:22:03Z</time>
      </trkpt>
      <trkpt lat="43.34144" lon="-0.25668">
        <ele>288.6</ele>
        <time>2010-12-12T11:22:05Z</time>
      </trkpt>
      <trkpt lat="43.34136" lon="-0.25658">
        <ele>288.8</ele>
        <time>2010-12-12T11:22:07Z</time>
      </trkpt>
      <trkpt lat="43.34127" lon="-0.25648">
        <ele>287</ele>
        <time>2010-12-12T11:22:09Z</time>
      </trkpt>
      <trkpt lat="43.34119" lon="-0.25638">
        <ele>286.3</ele>
        <time>2010-12-12T11:22:11Z</time>
      </trkpt>
      <trkpt lat="43.34113" lon="-0.25627">
        <ele>286.5</ele>
        <time>2010-12-12T11:22:13Z</time>
      </trkpt>
      <trkpt lat="43.34107" lon="-0.25614">
        <ele>287.1</ele>
        <time>2010-12-12T11:22:15Z</time>
      </trkpt>
      <trkpt lat="43.341" lon="-0.256">
        <ele>287.6</ele>
        <time>2010-12-12T11:22:17Z</time>
      </trkpt>
      <trkpt lat="43.34094" lon="-0.25586">
        <ele>287.9</ele>
        <time>2010-12-12T11:22:19Z</time>
      </trkpt>
      <trkpt lat="43.34089" lon="-0.25574">
        <ele>287.9</ele>
        <time>2010-12-12T11:22:21Z</time>
      </trkpt>
      <trkpt lat="43.34083" lon="-0.2556">
        <ele>288</ele>
        <time>2010-12-12T11:22:23Z</time>
      </trkpt>
      <trkpt lat="43.34078" lon="-0.25547">
        <ele>288</ele>
        <time>2010-12-12T11:22:25Z</time>
      </trkpt>
      <trkpt lat="43.34074" lon="-0.25533">
        <ele>288.6</ele>
        <time>2010-12-12T11:22:27Z</time>
      </trkpt>
      <trkpt lat="43.34069" lon="-0.25519">
        <ele>288.9</ele>
        <time>2010-12-12T11:22:29Z</time>
      </trkpt>
      <trkpt lat="43.34063" lon="-0.25505">
        <ele>288.9</ele>
        <time>2010-12-12T11:22:31Z</time>
      </trkpt>
      <trkpt lat="43.34056" lon="-0.25491">
        <ele>288.9</ele>
        <time>2010-12-12T11:22:33Z</time>
      </trkpt>
      <trkpt lat="43.34049" lon="-0.25478">
        <ele>289</ele>
        <time>2010-12-12T11:22:35Z</time>
      </trkpt>
      <trkpt lat="43.34042" lon="-0.25465">
        <ele>288.9</ele>
        <time>2010-12-12T11:22:37Z</time>
      </trkpt>
      <trkpt lat="43.34036" lon="-0.25454">
        <ele>289.8</ele>
        <time>2010-12-12T11:22:39Z</time>
      </trkpt>
      <trkpt lat="43.34028" lon="-0.25443">
        <ele>290.8</ele>
        <time>2010-12-12T11:22:41Z</time>
      </trkpt>
      <trkpt lat="43.34021" lon="-0.25432">
        <ele>290.8</ele>
        <time>2010-12-12T11:22:43Z</time>
      </trkpt>
      <trkpt lat="43.34014" lon="-0.2542">
        <ele>290.8</ele>
        <time>2010-12-12T11:22:45Z</time>
      </trkpt>
      <trkpt lat="43.34006" lon="-0.25409">
        <ele>290.8</ele>
        <time>2010-12-12T11:22:47Z</time>
      </trkpt>
      <trkpt lat="43.33999" lon="-0.25396">
        <ele>291.7</ele>
        <time>2010-12-12T11:22:49Z</time>
      </trkpt>
      <trkpt lat="43.33992" lon="-0.25385">
        <ele>292.1</ele>
        <time>2010-12-12T11:22:51Z</time>
      </trkpt>
      <trkpt lat="43.33984" lon="-0.25374">
        <ele>292.4</ele>
        <time>2010-12-12T11:22:53Z</time>
      </trkpt>
      <trkpt lat="43.33976" lon="-0.25364">
        <ele>292.2</ele>
        <time>2010-12-12T11:22:55Z</time>
      </trkpt>
      <trkpt lat="43.33968" lon="-0.25353">
        <ele>292.4</ele>
        <time>2010-12-12T11:22:57Z</time>
      </trkpt>
      <trkpt lat="43.33961" lon="-0.25342">
        <ele>292.5</ele>
        <time>2010-12-12T11:22:59Z</time>
      </trkpt>
      <trkpt lat="43.33955" lon="-0.25331">
        <ele>293</ele>
        <time>2010-12-12T11:23:01Z</time>
      </trkpt>
      <trkpt lat="43.33949" lon="-0.2532">
        <ele>293.5</ele>
        <time>2010-12-12T11:23:03Z</time>
      </trkpt>
      <trkpt lat="43.33941" lon="-0.2531">
        <ele>293.5</ele>
        <time>2010-12-12T11:23:05Z</time>
      </trkpt>
      <trkpt lat="43.33934" lon="-0.25299">
        <ele>293.3</ele>
        <time>2010-12-12T11:23:07Z</time>
      </trkpt>
      <trkpt lat="43.33926" lon="-0.25287">
        <ele>293</ele>
        <time>2010-12-12T11:23:09Z</time>
      </trkpt>
      <trkpt lat="43.33918" lon="-0.25275">
        <ele>293</ele>
        <time>2010-12-12T11:23:11Z</time>
      </trkpt>
      <trkpt lat="43.3391" lon="-0.25263">
        <ele>293</ele>
        <time>2010-12-12T11:23:13Z</time>
      </trkpt>
      <trkpt lat="43.33902" lon="-0.25251">
        <ele>293.2</ele>
        <time>2010-12-12T11:23:15Z</time>
      </trkpt>
      <trkpt lat="43.33892" lon="-0.2524">
        <ele>293.6</ele>
        <time>2010-12-12T11:23:17Z</time>
      </trkpt>
      <trkpt lat="43.33883" lon="-0.25231">
        <ele>292.6</ele>
        <time>2010-12-12T11:23:19Z</time>
      </trkpt>
      <trkpt lat="43.33872" lon="-0.25226">
        <ele>292.9</ele>
        <time>2010-12-12T11:23:21Z</time>
      </trkpt>
      <trkpt lat="43.3386" lon="-0.25227">
        <ele>292.2</ele>
        <time>2010-12-12T11:23:23Z</time>
      </trkpt>
      <trkpt lat="43.33849" lon="-0.25234">
        <ele>292.3</ele>
        <time>2010-12-12T11:23:25Z</time>
      </trkpt>
      <trkpt lat="43.33838" lon="-0.25243">
        <ele>292.9</ele>
        <time>2010-12-12T11:23:27Z</time>
      </trkpt>
      <trkpt lat="43.33828" lon="-0.25254">
        <ele>293.2</ele>
        <time>2010-12-12T11:23:29Z</time>
      </trkpt>
      <trkpt lat="43.33818" lon="-0.25264">
        <ele>293.4</ele>
        <time>2010-12-12T11:23:31Z</time>
      </trkpt>
      <trkpt lat="43.3381" lon="-0.25279">
        <ele>293.5</ele>
        <time>2010-12-12T11:23:33Z</time>
      </trkpt>
      <trkpt lat="43.33806" lon="-0.25299">
        <ele>292.9</ele>
        <time>2010-12-12T11:23:35Z</time>
      </trkpt>
      <trkpt lat="43.33801" lon="-0.25315">
        <ele>292.4</ele>
        <time>2010-12-12T11:23:37Z</time>
      </trkpt>
      <trkpt lat="43.33795" lon="-0.25331">
        <ele>292.8</ele>
        <time>2010-12-12T11:23:39Z</time>
      </trkpt>
      <trkpt lat="43.33791" lon="-0.25347">
        <ele>293</ele>
        <time>2010-12-12T11:23:41Z</time>
      </trkpt>
      <trkpt lat="43.33786" lon="-0.25363">
        <ele>293.1</ele>
        <time>2010-12-12T11:23:43Z</time>
      </trkpt>
      <trkpt lat="43.33781" lon="-0.25379">
        <ele>293</ele>
        <time>2010-12-12T11:23:45Z</time>
      </trkpt>
      <trkpt lat="43.33778" lon="-0.25396">
        <ele>292.3</ele>
        <time>2010-12-12T11:23:47Z</time>
      </trkpt>
      <trkpt lat="43.33775" lon="-0.25414">
        <ele>291.9</ele>
        <time>2010-12-12T11:23:49Z</time>
      </trkpt>
      <trkpt lat="43.33773" lon="-0.25431">
        <ele>291.3</ele>
        <time>2010-12-12T11:23:51Z</time>
      </trkpt>
      <trkpt lat="43.33771" lon="-0.25449">
        <ele>291.2</ele>
        <time>2010-12-12T11:23:53Z</time>
      </trkpt>
      <trkpt lat="43.3377" lon="-0.25467">
        <ele>291.4</ele>
        <time>2010-12-12T11:23:55Z</time>
      </trkpt>
      <trkpt lat="43.33769" lon="-0.25484">
        <ele>291.3</ele>
        <time>2010-12-12T11:23:57Z</time>
      </trkpt>
      <trkpt lat="43.33768" lon="-0.255">
        <ele>290.6</ele>
        <time>2010-12-12T11:23:59Z</time>
      </trkpt>
      <trkpt lat="43.33768" lon="-0.25518">
        <ele>290.6</ele>
        <time>2010-12-12T11:24:01Z</time>
      </trkpt>
      <trkpt lat="43.33769" lon="-0.25536">
        <ele>290.5</ele>
        <time>2010-12-12T11:24:03Z</time>
      </trkpt>
      <trkpt lat="43.33769" lon="-0.25554">
        <ele>290.3</ele>
        <time>2010-12-12T11:24:05Z</time>
      </trkpt>
      <trkpt lat="43.3377" lon="-0.25571">
        <ele>289.8</ele>
        <time>2010-12-12T11:24:07Z</time>
      </trkpt>
      <trkpt lat="43.33772" lon="-0.25589">
        <ele>289.5</ele>
        <time>2010-12-12T11:24:09Z</time>
      </trkpt>
      <trkpt lat="43.33775" lon="-0.25606">
        <ele>289.9</ele>
        <time>2010-12-12T11:24:11Z</time>
      </trkpt>
      <trkpt lat="43.33777" lon="-0.25623">
        <ele>289.7</ele>
        <time>2010-12-12T11:24:13Z</time>
      </trkpt>
      <trkpt lat="43.3378" lon="-0.2564">
        <ele>289.6</ele>
        <time>2010-12-12T11:24:15Z</time>
      </trkpt>
      <trkpt lat="43.33783" lon="-0.25658">
        <ele>289.7</ele>
        <time>2010-12-12T11:24:17Z</time>
      </trkpt>
      <trkpt lat="43.33786" lon="-0.25675">
        <ele>290.1</ele>
        <time>2010-12-12T11:24:19Z</time>
      </trkpt>
      <trkpt lat="43.33789" lon="-0.25692">
        <ele>290.5</ele>
        <time>2010-12-12T11:24:21Z</time>
      </trkpt>
      <trkpt lat="43.33793" lon="-0.2571">
        <ele>290.4</ele>
        <time>2010-12-12T11:24:23Z</time>
      </trkpt>
      <trkpt lat="43.33796" lon="-0.25727">
        <ele>290.6</ele>
        <time>2010-12-12T11:24:25Z</time>
      </trkpt>
      <trkpt lat="43.33799" lon="-0.25743">
        <ele>290.4</ele>
        <time>2010-12-12T11:24:27Z</time>
      </trkpt>
      <trkpt lat="43.33802" lon="-0.2576">
        <ele>290.1</ele>
        <time>2010-12-12T11:24:29Z</time>
      </trkpt>
      <trkpt lat="43.33804" lon="-0.25775">
        <ele>290.1</ele>
        <time>2010-12-12T11:24:31Z</time>
      </trkpt>
      <trkpt lat="43.33808" lon="-0.25793">
        <ele>289.8</ele>
        <time>2010-12-12T11:24:33Z</time>
      </trkpt>
      <trkpt lat="43.33811" lon="-0.25809">
        <ele>290.4</ele>
        <time>2010-12-12T11:24:35Z</time>
      </trkpt>
      <trkpt lat="43.33814" lon="-0.25824">
        <ele>290.4</ele>
        <time>2010-12-12T11:24:37Z</time>
      </trkpt>
      <trkpt lat="43.33816" lon="-0.25841">
        <ele>290.4</ele>
        <time>2010-12-12T11:24:39Z</time>
      </trkpt>
      <trkpt lat="43.3382" lon="-0.2586">
        <ele>291</ele>
        <time>2010-12-12T11:24:41Z</time>
      </trkpt>
      <trkpt lat="43.33824" lon="-0.25878">
        <ele>291.5</ele>
        <time>2010-12-12T11:24:43Z</time>
      </trkpt>
      <trkpt lat="43.33828" lon="-0.25896">
        <ele>291.1</ele>
        <time>2010-12-12T11:24:45Z</time>
      </trkpt>
      <trkpt lat="43.3383" lon="-0.25913">
        <ele>291.1</ele>
        <time>2010-12-12T11:24:47Z</time>
      </trkpt>
      <trkpt lat="43.33832" lon="-0.2593">
        <ele>291</ele>
        <time>2010-12-12T11:24:49Z</time>
      </trkpt>
      <trkpt lat="43.33834" lon="-0.25948">
        <ele>290.5</ele>
        <time>2010-12-12T11:24:51Z</time>
      </trkpt>
      <trkpt lat="43.33837" lon="-0.25966">
        <ele>290.8</ele>
        <time>2010-12-12T11:24:53Z</time>
      </trkpt>
      <trkpt lat="43.3384" lon="-0.25979">
        <ele>290.6</ele>
        <time>2010-12-12T11:24:54Z</time>
      </trkpt>
      <trkpt lat="43.33841" lon="-0.25987">
        <ele>290.5</ele>
        <time>2010-12-12T11:24:56Z</time>
      </trkpt>
      <trkpt lat="43.33843" lon="-0.26004">
        <ele>290.5</ele>
        <time>2010-12-12T11:24:58Z</time>
      </trkpt>
      <trkpt lat="43.33844" lon="-0.26012">
        <ele>289.9</ele>
        <time>2010-12-12T11:24:59Z</time>
      </trkpt>
      <trkpt lat="43.33846" lon="-0.2603">
        <ele>289.6</ele>
        <time>2010-12-12T11:25:01Z</time>
      </trkpt>
      <trkpt lat="43.33846" lon="-0.26048">
        <ele>290.5</ele>
        <time>2010-12-12T11:25:03Z</time>
      </trkpt>
      <trkpt lat="43.33848" lon="-0.26065">
        <ele>291</ele>
        <time>2010-12-12T11:25:05Z</time>
      </trkpt>
      <trkpt lat="43.33848" lon="-0.26075">
        <ele>290.8</ele>
        <time>2010-12-12T11:25:06Z</time>
      </trkpt>
      <trkpt lat="43.33849" lon="-0.26092">
        <ele>290.4</ele>
        <time>2010-12-12T11:25:08Z</time>
      </trkpt>
      <trkpt lat="43.33849" lon="-0.26109">
        <ele>290.5</ele>
        <time>2010-12-12T11:25:10Z</time>
      </trkpt>
      <trkpt lat="43.3385" lon="-0.26127">
        <ele>290.6</ele>
        <time>2010-12-12T11:25:12Z</time>
      </trkpt>
      <trkpt lat="43.3385" lon="-0.26136">
        <ele>290.6</ele>
        <time>2010-12-12T11:25:13Z</time>
      </trkpt>
      <trkpt lat="43.3385" lon="-0.26153">
        <ele>290.1</ele>
        <time>2010-12-12T11:25:15Z</time>
      </trkpt>
      <trkpt lat="43.33849" lon="-0.26169">
        <ele>290</ele>
        <time>2010-12-12T11:25:17Z</time>
      </trkpt>
      <trkpt lat="43.33848" lon="-0.26186">
        <ele>290.1</ele>
        <time>2010-12-12T11:25:18Z</time>
      </trkpt>
      <trkpt lat="43.33847" lon="-0.26194">
        <ele>291</ele>
        <time>2010-12-12T11:25:20Z</time>
      </trkpt>
      <trkpt lat="43.33847" lon="-0.26211">
        <ele>291.1</ele>
        <time>2010-12-12T11:25:22Z</time>
      </trkpt>
      <trkpt lat="43.33846" lon="-0.26229">
        <ele>291</ele>
        <time>2010-12-12T11:25:24Z</time>
      </trkpt>
      <trkpt lat="43.33845" lon="-0.26246">
        <ele>291.1</ele>
        <time>2010-12-12T11:25:25Z</time>
      </trkpt>
      <trkpt lat="43.33844" lon="-0.26254">
        <ele>291.1</ele>
        <time>2010-12-12T11:25:27Z</time>
      </trkpt>
      <trkpt lat="43.33844" lon="-0.26275">
        <ele>290.6</ele>
        <time>2010-12-12T11:25:29Z</time>
      </trkpt>
      <trkpt lat="43.33842" lon="-0.26291">
        <ele>290.6</ele>
        <time>2010-12-12T11:25:31Z</time>
      </trkpt>
      <trkpt lat="43.3384" lon="-0.26306">
        <ele>290.7</ele>
        <time>2010-12-12T11:25:32Z</time>
      </trkpt>
      <trkpt lat="43.33839" lon="-0.26315">
        <ele>290.5</ele>
        <time>2010-12-12T11:25:34Z</time>
      </trkpt>
      <trkpt lat="43.33837" lon="-0.2633">
        <ele>289.9</ele>
        <time>2010-12-12T11:25:36Z</time>
      </trkpt>
      <trkpt lat="43.33834" lon="-0.26347">
        <ele>290.8</ele>
        <time>2010-12-12T11:25:38Z</time>
      </trkpt>
      <trkpt lat="43.33833" lon="-0.26355">
        <ele>291</ele>
        <time>2010-12-12T11:25:39Z</time>
      </trkpt>
      <trkpt lat="43.33831" lon="-0.2637">
        <ele>292.4</ele>
        <time>2010-12-12T11:25:41Z</time>
      </trkpt>
      <trkpt lat="43.33828" lon="-0.26384">
        <ele>292.6</ele>
        <time>2010-12-12T11:25:43Z</time>
      </trkpt>
      <trkpt lat="43.33825" lon="-0.26398">
        <ele>292.9</ele>
        <time>2010-12-12T11:25:45Z</time>
      </trkpt>
      <trkpt lat="43.33824" lon="-0.26408">
        <ele>292.8</ele>
        <time>2010-12-12T11:25:46Z</time>
      </trkpt>
      <trkpt lat="43.3382" lon="-0.26421">
        <ele>293.1</ele>
        <time>2010-12-12T11:25:48Z</time>
      </trkpt>
      <trkpt lat="43.33817" lon="-0.26435">
        <ele>293.3</ele>
        <time>2010-12-12T11:25:50Z</time>
      </trkpt>
      <trkpt lat="43.33815" lon="-0.26448">
        <ele>293.1</ele>
        <time>2010-12-12T11:25:52Z</time>
      </trkpt>
      <trkpt lat="43.33813" lon="-0.26454">
        <ele>293.2</ele>
        <time>2010-12-12T11:25:53Z</time>
      </trkpt>
      <trkpt lat="43.33811" lon="-0.26468">
        <ele>293</ele>
        <time>2010-12-12T11:25:55Z</time>
      </trkpt>
      <trkpt lat="43.33808" lon="-0.26481">
        <ele>293.2</ele>
        <time>2010-12-12T11:25:57Z</time>
      </trkpt>
      <trkpt lat="43.33805" lon="-0.26492">
        <ele>293.1</ele>
        <time>2010-12-12T11:25:59Z</time>
      </trkpt>
      <trkpt lat="43.338" lon="-0.265">
        <ele>293.4</ele>
        <time>2010-12-12T11:26:00Z</time>
      </trkpt>
      <trkpt lat="43.33798" lon="-0.26505">
        <ele>293.4</ele>
        <time>2010-12-12T11:26:02Z</time>
      </trkpt>
      <trkpt lat="43.33796" lon="-0.26517">
        <ele>293.4</ele>
        <time>2010-12-12T11:26:04Z</time>
      </trkpt>
      <trkpt lat="43.33794" lon="-0.2653">
        <ele>294.1</ele>
        <time>2010-12-12T11:26:06Z</time>
      </trkpt>
      <trkpt lat="43.33792" lon="-0.26535">
        <ele>293.9</ele>
        <time>2010-12-12T11:26:07Z</time>
      </trkpt>
      <trkpt lat="43.33789" lon="-0.26546">
        <ele>294.2</ele>
        <time>2010-12-12T11:26:09Z</time>
      </trkpt>
      <trkpt lat="43.33787" lon="-0.26556">
        <ele>294.6</ele>
        <time>2010-12-12T11:26:11Z</time>
      </trkpt>
      <trkpt lat="43.33784" lon="-0.26568">
        <ele>295.3</ele>
        <time>2010-12-12T11:26:12Z</time>
      </trkpt>
      <trkpt lat="43.33784" lon="-0.26573">
        <ele>295.3</ele>
        <time>2010-12-12T11:26:14Z</time>
      </trkpt>
      <trkpt lat="43.33779" lon="-0.26587">
        <ele>295.5</ele>
        <time>2010-12-12T11:26:16Z</time>
      </trkpt>
      <trkpt lat="43.33777" lon="-0.26593">
        <ele>295.2</ele>
        <time>2010-12-12T11:26:18Z</time>
      </trkpt>
      <trkpt lat="43.33775" lon="-0.26602">
        <ele>295.8</ele>
        <time>2010-12-12T11:26:19Z</time>
      </trkpt>
      <trkpt lat="43.33772" lon="-0.26611">
        <ele>295.9</ele>
        <time>2010-12-12T11:26:21Z</time>
      </trkpt>
      <trkpt lat="43.33771" lon="-0.26616">
        <ele>296.1</ele>
        <time>2010-12-12T11:26:23Z</time>
      </trkpt>
      <trkpt lat="43.33769" lon="-0.26628">
        <ele>296.7</ele>
        <time>2010-12-12T11:26:25Z</time>
      </trkpt>
      <trkpt lat="43.33767" lon="-0.26636">
        <ele>297.3</ele>
        <time>2010-12-12T11:26:26Z</time>
      </trkpt>
      <trkpt lat="43.33766" lon="-0.26641">
        <ele>297.6</ele>
        <time>2010-12-12T11:26:28Z</time>
      </trkpt>
      <trkpt lat="43.33763" lon="-0.26652">
        <ele>300</ele>
        <time>2010-12-12T11:26:30Z</time>
      </trkpt>
      <trkpt lat="43.33757" lon="-0.26665">
        <ele>301.3</ele>
        <time>2010-12-12T11:26:32Z</time>
      </trkpt>
      <trkpt lat="43.33754" lon="-0.26673">
        <ele>302</ele>
        <time>2010-12-12T11:26:35Z</time>
      </trkpt>
      <trkpt lat="43.3375" lon="-0.26684">
        <ele>303</ele>
        <time>2010-12-12T11:26:37Z</time>
      </trkpt>
      <trkpt lat="43.33749" lon="-0.26695">
        <ele>303</ele>
        <time>2010-12-12T11:26:39Z</time>
      </trkpt>
      <trkpt lat="43.33747" lon="-0.267">
        <ele>303.2</ele>
        <time>2010-12-12T11:26:40Z</time>
      </trkpt>
      <trkpt lat="43.33743" lon="-0.26713">
        <ele>305.5</ele>
        <time>2010-12-12T11:26:42Z</time>
      </trkpt>
      <trkpt lat="43.33742" lon="-0.26718">
        <ele>305.4</ele>
        <time>2010-12-12T11:26:44Z</time>
      </trkpt>
      <trkpt lat="43.3374" lon="-0.26726">
        <ele>305.7</ele>
        <time>2010-12-12T11:26:46Z</time>
      </trkpt>
      <trkpt lat="43.33738" lon="-0.26731">
        <ele>306.2</ele>
        <time>2010-12-12T11:26:47Z</time>
      </trkpt>
      <trkpt lat="43.33736" lon="-0.2674">
        <ele>307.4</ele>
        <time>2010-12-12T11:26:49Z</time>
      </trkpt>
      <trkpt lat="43.33734" lon="-0.26747">
        <ele>307.4</ele>
        <time>2010-12-12T11:26:51Z</time>
      </trkpt>
      <trkpt lat="43.33732" lon="-0.26758">
        <ele>307.4</ele>
        <time>2010-12-12T11:26:53Z</time>
      </trkpt>
      <trkpt lat="43.33731" lon="-0.26762">
        <ele>307.6</ele>
        <time>2010-12-12T11:26:54Z</time>
      </trkpt>
      <trkpt lat="43.33728" lon="-0.26773">
        <ele>308.5</ele>
        <time>2010-12-12T11:26:56Z</time>
      </trkpt>
      <trkpt lat="43.33725" lon="-0.26783">
        <ele>309.8</ele>
        <time>2010-12-12T11:26:58Z</time>
      </trkpt>
      <trkpt lat="43.33723" lon="-0.26793">
        <ele>309.9</ele>
        <time>2010-12-12T11:27:00Z</time>
      </trkpt>
      <trkpt lat="43.33721" lon="-0.26797">
        <ele>309.9</ele>
        <time>2010-12-12T11:27:01Z</time>
      </trkpt>
      <trkpt lat="43.33719" lon="-0.26806">
        <ele>310.2</ele>
        <time>2010-12-12T11:27:03Z</time>
      </trkpt>
      <trkpt lat="43.33717" lon="-0.26815">
        <ele>310.3</ele>
        <time>2010-12-12T11:27:05Z</time>
      </trkpt>
      <trkpt lat="43.33715" lon="-0.26829">
        <ele>310.7</ele>
        <time>2010-12-12T11:27:08Z</time>
      </trkpt>
      <trkpt lat="43.33711" lon="-0.26839">
        <ele>312</ele>
        <time>2010-12-12T11:27:10Z</time>
      </trkpt>
      <trkpt lat="43.33708" lon="-0.26848">
        <ele>312.7</ele>
        <time>2010-12-12T11:27:12Z</time>
      </trkpt>
      <trkpt lat="43.33707" lon="-0.26859">
        <ele>312.7</ele>
        <time>2010-12-12T11:27:13Z</time>
      </trkpt>
      <trkpt lat="43.33706" lon="-0.26865">
        <ele>313.6</ele>
        <time>2010-12-12T11:27:15Z</time>
      </trkpt>
      <trkpt lat="43.33705" lon="-0.2688">
        <ele>313.4</ele>
        <time>2010-12-12T11:27:17Z</time>
      </trkpt>
      <trkpt lat="43.33704" lon="-0.26884">
        <ele>313.8</ele>
        <time>2010-12-12T11:27:19Z</time>
      </trkpt>
      <trkpt lat="43.33703" lon="-0.26898">
        <ele>313.7</ele>
        <time>2010-12-12T11:27:22Z</time>
      </trkpt>
      <trkpt lat="43.33702" lon="-0.26909">
        <ele>315.2</ele>
        <time>2010-12-12T11:27:24Z</time>
      </trkpt>
      <trkpt lat="43.33701" lon="-0.26918">
        <ele>315.9</ele>
        <time>2010-12-12T11:27:26Z</time>
      </trkpt>
      <trkpt lat="43.33701" lon="-0.26927">
        <ele>315.9</ele>
        <time>2010-12-12T11:27:27Z</time>
      </trkpt>
      <trkpt lat="43.337" lon="-0.26931">
        <ele>315.3</ele>
        <time>2010-12-12T11:27:29Z</time>
      </trkpt>
      <trkpt lat="43.337" lon="-0.26941">
        <ele>314.9</ele>
        <time>2010-12-12T11:27:31Z</time>
      </trkpt>
      <trkpt lat="43.337" lon="-0.2695">
        <ele>314.9</ele>
        <time>2010-12-12T11:27:33Z</time>
      </trkpt>
      <trkpt lat="43.337" lon="-0.26954">
        <ele>314.8</ele>
        <time>2010-12-12T11:27:34Z</time>
      </trkpt>
      <trkpt lat="43.337" lon="-0.2697">
        <ele>314.6</ele>
        <time>2010-12-12T11:27:36Z</time>
      </trkpt>
      <trkpt lat="43.33699" lon="-0.26972">
        <ele>315.4</ele>
        <time>2010-12-12T11:27:38Z</time>
      </trkpt>
      <trkpt lat="43.337" lon="-0.26982">
        <ele>314.6</ele>
        <time>2010-12-12T11:27:40Z</time>
      </trkpt>
      <trkpt lat="43.33701" lon="-0.26992">
        <ele>314.7</ele>
        <time>2010-12-12T11:27:41Z</time>
      </trkpt>
      <trkpt lat="43.33701" lon="-0.27002">
        <ele>315.3</ele>
        <time>2010-12-12T11:27:43Z</time>
      </trkpt>
      <trkpt lat="43.33702" lon="-0.27011">
        <ele>314.6</ele>
        <time>2010-12-12T11:27:45Z</time>
      </trkpt>
      <trkpt lat="43.33702" lon="-0.27018">
        <ele>314.7</ele>
        <time>2010-12-12T11:27:48Z</time>
      </trkpt>
      <trkpt lat="43.33703" lon="-0.27029">
        <ele>314.8</ele>
        <time>2010-12-12T11:27:50Z</time>
      </trkpt>
      <trkpt lat="43.33704" lon="-0.2704">
        <ele>314.2</ele>
        <time>2010-12-12T11:27:52Z</time>
      </trkpt>
      <trkpt lat="43.33705" lon="-0.27045">
        <ele>314.1</ele>
        <time>2010-12-12T11:27:54Z</time>
      </trkpt>
      <trkpt lat="43.33706" lon="-0.2705">
        <ele>313.9</ele>
        <time>2010-12-12T11:27:55Z</time>
      </trkpt>
      <trkpt lat="43.33706" lon="-0.27059">
        <ele>314.5</ele>
        <time>2010-12-12T11:27:57Z</time>
      </trkpt>
      <trkpt lat="43.33708" lon="-0.27065">
        <ele>316.1</ele>
        <time>2010-12-12T11:27:59Z</time>
      </trkpt>
      <trkpt lat="43.33712" lon="-0.27079">
        <ele>316.7</ele>
        <time>2010-12-12T11:28:02Z</time>
      </trkpt>
      <trkpt lat="43.33714" lon="-0.27088">
        <ele>317.6</ele>
        <time>2010-12-12T11:28:04Z</time>
      </trkpt>
      <trkpt lat="43.33717" lon="-0.27099">
        <ele>317.4</ele>
        <time>2010-12-12T11:28:06Z</time>
      </trkpt>
      <trkpt lat="43.33719" lon="-0.27109">
        <ele>317.3</ele>
        <time>2010-12-12T11:28:07Z</time>
      </trkpt>
      <trkpt lat="43.33721" lon="-0.27117">
        <ele>318.2</ele>
        <time>2010-12-12T11:28:09Z</time>
      </trkpt>
      <trkpt lat="43.33723" lon="-0.27122">
        <ele>318.8</ele>
        <time>2010-12-12T11:28:11Z</time>
      </trkpt>
      <trkpt lat="43.33725" lon="-0.27133">
        <ele>319.5</ele>
        <time>2010-12-12T11:28:13Z</time>
      </trkpt>
      <trkpt lat="43.3373" lon="-0.27148">
        <ele>318.8</ele>
        <time>2010-12-12T11:28:16Z</time>
      </trkpt>
      <trkpt lat="43.33733" lon="-0.27159">
        <ele>318.6</ele>
        <time>2010-12-12T11:28:18Z</time>
      </trkpt>
      <trkpt lat="43.33736" lon="-0.2717">
        <ele>319.2</ele>
        <time>2010-12-12T11:28:20Z</time>
      </trkpt>
      <trkpt lat="43.33739" lon="-0.27179">
        <ele>318.5</ele>
        <time>2010-12-12T11:28:21Z</time>
      </trkpt>
      <trkpt lat="43.3374" lon="-0.27184">
        <ele>318.2</ele>
        <time>2010-12-12T11:28:23Z</time>
      </trkpt>
      <trkpt lat="43.33743" lon="-0.27193">
        <ele>318.3</ele>
        <time>2010-12-12T11:28:25Z</time>
      </trkpt>
      <trkpt lat="43.33746" lon="-0.27205">
        <ele>318</ele>
        <time>2010-12-12T11:28:27Z</time>
      </trkpt>
      <trkpt lat="43.33748" lon="-0.27212">
        <ele>318.6</ele>
        <time>2010-12-12T11:28:28Z</time>
      </trkpt>
      <trkpt lat="43.33751" lon="-0.27222">
        <ele>318.5</ele>
        <time>2010-12-12T11:28:30Z</time>
      </trkpt>
      <trkpt lat="43.33753" lon="-0.27232">
        <ele>318.2</ele>
        <time>2010-12-12T11:28:32Z</time>
      </trkpt>
      <trkpt lat="43.33754" lon="-0.27243">
        <ele>317.3</ele>
        <time>2010-12-12T11:28:34Z</time>
      </trkpt>
      <trkpt lat="43.33755" lon="-0.27249">
        <ele>317.3</ele>
        <time>2010-12-12T11:28:35Z</time>
      </trkpt>
      <trkpt lat="43.33757" lon="-0.27263">
        <ele>317.6</ele>
        <time>2010-12-12T11:28:37Z</time>
      </trkpt>
      <trkpt lat="43.33758" lon="-0.27277">
        <ele>317.4</ele>
        <time>2010-12-12T11:28:39Z</time>
      </trkpt>
      <trkpt lat="43.33758" lon="-0.27287">
        <ele>317.2</ele>
        <time>2010-12-12T11:28:41Z</time>
      </trkpt>
      <trkpt lat="43.33757" lon="-0.27294">
        <ele>317.3</ele>
        <time>2010-12-12T11:28:42Z</time>
      </trkpt>
      <trkpt lat="43.33754" lon="-0.27308">
        <ele>318.8</ele>
        <time>2010-12-12T11:28:44Z</time>
      </trkpt>
      <trkpt lat="43.33748" lon="-0.27311">
        <ele>320.8</ele>
        <time>2010-12-12T11:28:46Z</time>
      </trkpt>
      <trkpt lat="43.33746" lon="-0.27316">
        <ele>323.1</ele>
        <time>2010-12-12T11:28:48Z</time>
      </trkpt>
      <trkpt lat="43.33744" lon="-0.27321">
        <ele>324.9</ele>
        <time>2010-12-12T11:28:49Z</time>
      </trkpt>
      <trkpt lat="43.3374" lon="-0.27334">
        <ele>324.5</ele>
        <time>2010-12-12T11:28:51Z</time>
      </trkpt>
      <trkpt lat="43.33736" lon="-0.27345">
        <ele>325</ele>
        <time>2010-12-12T11:28:53Z</time>
      </trkpt>
      <trkpt lat="43.3373" lon="-0.27356">
        <ele>325.5</ele>
        <time>2010-12-12T11:28:54Z</time>
      </trkpt>
      <trkpt lat="43.33727" lon="-0.2736">
        <ele>325.7</ele>
        <time>2010-12-12T11:28:56Z</time>
      </trkpt>
      <trkpt lat="43.33721" lon="-0.27369">
        <ele>326.3</ele>
        <time>2010-12-12T11:28:58Z</time>
      </trkpt>
      <trkpt lat="43.3371" lon="-0.27379">
        <ele>329.7</ele>
        <time>2010-12-12T11:29:00Z</time>
      </trkpt>
      <trkpt lat="43.33706" lon="-0.27383">
        <ele>329.7</ele>
        <time>2010-12-12T11:29:01Z</time>
      </trkpt>
      <trkpt lat="43.33701" lon="-0.27387">
        <ele>329.7</ele>
        <time>2010-12-12T11:29:03Z</time>
      </trkpt>
      <trkpt lat="43.33695" lon="-0.27396">
        <ele>329.8</ele>
        <time>2010-12-12T11:29:05Z</time>
      </trkpt>
      <trkpt lat="43.33686" lon="-0.27403">
        <ele>329.7</ele>
        <time>2010-12-12T11:29:07Z</time>
      </trkpt>
      <trkpt lat="43.33677" lon="-0.2741">
        <ele>329.4</ele>
        <time>2010-12-12T11:29:08Z</time>
      </trkpt>
      <trkpt lat="43.33673" lon="-0.27415">
        <ele>329.3</ele>
        <time>2010-12-12T11:29:10Z</time>
      </trkpt>
      <trkpt lat="43.33667" lon="-0.27423">
        <ele>328.6</ele>
        <time>2010-12-12T11:29:12Z</time>
      </trkpt>
      <trkpt lat="43.33658" lon="-0.27431">
        <ele>328.8</ele>
        <time>2010-12-12T11:29:14Z</time>
      </trkpt>
      <trkpt lat="43.33655" lon="-0.27434">
        <ele>329</ele>
        <time>2010-12-12T11:29:15Z</time>
      </trkpt>
      <trkpt lat="43.33646" lon="-0.27443">
        <ele>329.1</ele>
        <time>2010-12-12T11:29:17Z</time>
      </trkpt>
      <trkpt lat="43.33639" lon="-0.27453">
        <ele>329.5</ele>
        <time>2010-12-12T11:29:19Z</time>
      </trkpt>
      <trkpt lat="43.33633" lon="-0.27462">
        <ele>329.8</ele>
        <time>2010-12-12T11:29:21Z</time>
      </trkpt>
      <trkpt lat="43.3363" lon="-0.27467">
        <ele>329.7</ele>
        <time>2010-12-12T11:29:22Z</time>
      </trkpt>
      <trkpt lat="43.33624" lon="-0.27477">
        <ele>330.1</ele>
        <time>2010-12-12T11:29:24Z</time>
      </trkpt>
      <trkpt lat="43.33619" lon="-0.27487">
        <ele>329.4</ele>
        <time>2010-12-12T11:29:26Z</time>
      </trkpt>
      <trkpt lat="43.33616" lon="-0.27499">
        <ele>330.2</ele>
        <time>2010-12-12T11:29:28Z</time>
      </trkpt>
      <trkpt lat="43.33614" lon="-0.27506">
        <ele>330.4</ele>
        <time>2010-12-12T11:29:29Z</time>
      </trkpt>
      <trkpt lat="43.33611" lon="-0.27519">
        <ele>331.1</ele>
        <time>2010-12-12T11:29:31Z</time>
      </trkpt>
      <trkpt lat="43.33609" lon="-0.27532">
        <ele>331.9</ele>
        <time>2010-12-12T11:29:33Z</time>
      </trkpt>
      <trkpt lat="43.33606" lon="-0.27545">
        <ele>332.3</ele>
        <time>2010-12-12T11:29:35Z</time>
      </trkpt>
      <trkpt lat="43.33605" lon="-0.2755">
        <ele>332.7</ele>
        <time>2010-12-12T11:29:36Z</time>
      </trkpt>
      <trkpt lat="43.33603" lon="-0.27561">
        <ele>332.4</ele>
        <time>2010-12-12T11:29:38Z</time>
      </trkpt>
      <trkpt lat="43.336" lon="-0.27574">
        <ele>332.5</ele>
        <time>2010-12-12T11:29:40Z</time>
      </trkpt>
      <trkpt lat="43.33597" lon="-0.27587">
        <ele>332.6</ele>
        <time>2010-12-12T11:29:42Z</time>
      </trkpt>
      <trkpt lat="43.33593" lon="-0.27587">
        <ele>333.3</ele>
        <time>2010-12-12T11:29:43Z</time>
      </trkpt>
      <trkpt lat="43.3359" lon="-0.27606">
        <ele>332.5</ele>
        <time>2010-12-12T11:29:45Z</time>
      </trkpt>
      <trkpt lat="43.33587" lon="-0.27628">
        <ele>330.8</ele>
        <time>2010-12-12T11:29:47Z</time>
      </trkpt>
      <trkpt lat="43.33583" lon="-0.27647">
        <ele>330.7</ele>
        <time>2010-12-12T11:29:48Z</time>
      </trkpt>
      <trkpt lat="43.3358" lon="-0.27656">
        <ele>330.9</ele>
        <time>2010-12-12T11:29:50Z</time>
      </trkpt>
      <trkpt lat="43.33575" lon="-0.27675">
        <ele>330.9</ele>
        <time>2010-12-12T11:29:52Z</time>
      </trkpt>
      <trkpt lat="43.33568" lon="-0.27698">
        <ele>329.2</ele>
        <time>2010-12-12T11:29:54Z</time>
      </trkpt>
      <trkpt lat="43.33558" lon="-0.27717">
        <ele>327.4</ele>
        <time>2010-12-12T11:29:55Z</time>
      </trkpt>
      <trkpt lat="43.33552" lon="-0.27726">
        <ele>326.8</ele>
        <time>2010-12-12T11:29:57Z</time>
      </trkpt>
      <trkpt lat="43.33538" lon="-0.27746">
        <ele>326.7</ele>
        <time>2010-12-12T11:29:59Z</time>
      </trkpt>
      <trkpt lat="43.33525" lon="-0.27764">
        <ele>326.7</ele>
        <time>2010-12-12T11:30:01Z</time>
      </trkpt>
      <trkpt lat="43.33512" lon="-0.27783">
        <ele>326.5</ele>
        <time>2010-12-12T11:30:02Z</time>
      </trkpt>
      <trkpt lat="43.33505" lon="-0.27792">
        <ele>326</ele>
        <time>2010-12-12T11:30:04Z</time>
      </trkpt>
      <trkpt lat="43.33489" lon="-0.2781">
        <ele>325.4</ele>
        <time>2010-12-12T11:30:06Z</time>
      </trkpt>
      <trkpt lat="43.33474" lon="-0.27828">
        <ele>324.3</ele>
        <time>2010-12-12T11:30:08Z</time>
      </trkpt>
      <trkpt lat="43.33459" lon="-0.2784">
        <ele>323.3</ele>
        <time>2010-12-12T11:30:09Z</time>
      </trkpt>
      <trkpt lat="43.3345" lon="-0.27843">
        <ele>322.8</ele>
        <time>2010-12-12T11:30:11Z</time>
      </trkpt>
      <trkpt lat="43.33433" lon="-0.27847">
        <ele>321.9</ele>
        <time>2010-12-12T11:30:13Z</time>
      </trkpt>
      <trkpt lat="43.33413" lon="-0.2785">
        <ele>318.6</ele>
        <time>2010-12-12T11:30:15Z</time>
      </trkpt>
      <trkpt lat="43.33402" lon="-0.2785">
        <ele>317.3</ele>
        <time>2010-12-12T11:30:16Z</time>
      </trkpt>
      <trkpt lat="43.33383" lon="-0.27846">
        <ele>316.2</ele>
        <time>2010-12-12T11:30:18Z</time>
      </trkpt>
      <trkpt lat="43.33362" lon="-0.27841">
        <ele>313.6</ele>
        <time>2010-12-12T11:30:20Z</time>
      </trkpt>
      <trkpt lat="43.33343" lon="-0.27834">
        <ele>313.1</ele>
        <time>2010-12-12T11:30:22Z</time>
      </trkpt>
      <trkpt lat="43.33334" lon="-0.27831">
        <ele>312.7</ele>
        <time>2010-12-12T11:30:23Z</time>
      </trkpt>
      <trkpt lat="43.33315" lon="-0.2782">
        <ele>312.4</ele>
        <time>2010-12-12T11:30:25Z</time>
      </trkpt>
      <trkpt lat="43.33296" lon="-0.27808">
        <ele>310.7</ele>
        <time>2010-12-12T11:30:27Z</time>
      </trkpt>
      <trkpt lat="43.33275" lon="-0.27796">
        <ele>309.3</ele>
        <time>2010-12-12T11:30:29Z</time>
      </trkpt>
      <trkpt lat="43.33265" lon="-0.27789">
        <ele>308.4</ele>
        <time>2010-12-12T11:30:30Z</time>
      </trkpt>
      <trkpt lat="43.33244" lon="-0.27774">
        <ele>307</ele>
        <time>2010-12-12T11:30:32Z</time>
      </trkpt>
      <trkpt lat="43.33222" lon="-0.27757">
        <ele>305.4</ele>
        <time>2010-12-12T11:30:34Z</time>
      </trkpt>
      <trkpt lat="43.33201" lon="-0.27744">
        <ele>304.2</ele>
        <time>2010-12-12T11:30:36Z</time>
      </trkpt>
      <trkpt lat="43.33191" lon="-0.27736">
        <ele>303.7</ele>
        <time>2010-12-12T11:30:37Z</time>
      </trkpt>
      <trkpt lat="43.33172" lon="-0.27717">
        <ele>302.6</ele>
        <time>2010-12-12T11:30:39Z</time>
      </trkpt>
      <trkpt lat="43.33155" lon="-0.27692">
        <ele>299.4</ele>
        <time>2010-12-12T11:30:41Z</time>
      </trkpt>
      <trkpt lat="43.33141" lon="-0.27666">
        <ele>298.5</ele>
        <time>2010-12-12T11:30:42Z</time>
      </trkpt>
      <trkpt lat="43.33135" lon="-0.27653">
        <ele>298</ele>
        <time>2010-12-12T11:30:44Z</time>
      </trkpt>
      <trkpt lat="43.33124" lon="-0.27629">
        <ele>296.6</ele>
        <time>2010-12-12T11:30:46Z</time>
      </trkpt>
      <trkpt lat="43.33115" lon="-0.27609">
        <ele>296.2</ele>
        <time>2010-12-12T11:30:48Z</time>
      </trkpt>
      <trkpt lat="43.33106" lon="-0.27591">
        <ele>295.9</ele>
        <time>2010-12-12T11:30:49Z</time>
      </trkpt>
      <trkpt lat="43.33102" lon="-0.27584">
        <ele>296.1</ele>
        <time>2010-12-12T11:30:51Z</time>
      </trkpt>
      <trkpt lat="43.33092" lon="-0.27574">
        <ele>295.5</ele>
        <time>2010-12-12T11:30:53Z</time>
      </trkpt>
      <trkpt lat="43.33081" lon="-0.27571">
        <ele>294.2</ele>
        <time>2010-12-12T11:30:55Z</time>
      </trkpt>
      <trkpt lat="43.33071" lon="-0.27576">
        <ele>291.5</ele>
        <time>2010-12-12T11:30:56Z</time>
      </trkpt>
      <trkpt lat="43.33067" lon="-0.27579">
        <ele>291.2</ele>
        <time>2010-12-12T11:30:58Z</time>
      </trkpt>
      <trkpt lat="43.33054" lon="-0.27589">
        <ele>289.7</ele>
        <time>2010-12-12T11:31:00Z</time>
      </trkpt>
      <trkpt lat="43.33048" lon="-0.27589">
        <ele>289.2</ele>
        <time>2010-12-12T11:31:02Z</time>
      </trkpt>
      <trkpt lat="43.33043" lon="-0.27588">
        <ele>288.8</ele>
        <time>2010-12-12T11:31:03Z</time>
      </trkpt>
      <trkpt lat="43.33031" lon="-0.27583">
        <ele>288.4</ele>
        <time>2010-12-12T11:31:05Z</time>
      </trkpt>
      <trkpt lat="43.33019" lon="-0.27573">
        <ele>288.1</ele>
        <time>2010-12-12T11:31:07Z</time>
      </trkpt>
      <trkpt lat="43.33011" lon="-0.2756">
        <ele>287.3</ele>
        <time>2010-12-12T11:31:09Z</time>
      </trkpt>
      <trkpt lat="43.33004" lon="-0.27551">
        <ele>286.6</ele>
        <time>2010-12-12T11:31:10Z</time>
      </trkpt>
      <trkpt lat="43.32992" lon="-0.27534">
        <ele>284.9</ele>
        <time>2010-12-12T11:31:12Z</time>
      </trkpt>
      <trkpt lat="43.32983" lon="-0.27518">
        <ele>282.5</ele>
        <time>2010-12-12T11:31:14Z</time>
      </trkpt>
      <trkpt lat="43.32975" lon="-0.275">
        <ele>282.1</ele>
        <time>2010-12-12T11:31:16Z</time>
      </trkpt>
      <trkpt lat="43.32971" lon="-0.2749">
        <ele>282</ele>
        <time>2010-12-12T11:31:17Z</time>
      </trkpt>
      <trkpt lat="43.32962" lon="-0.27469">
        <ele>281.5</ele>
        <time>2010-12-12T11:31:19Z</time>
      </trkpt>
      <trkpt lat="43.32954" lon="-0.27451">
        <ele>280.4</ele>
        <time>2010-12-12T11:31:21Z</time>
      </trkpt>
      <trkpt lat="43.32947" lon="-0.27436">
        <ele>280.7</ele>
        <time>2010-12-12T11:31:23Z</time>
      </trkpt>
      <trkpt lat="43.32943" lon="-0.2743">
        <ele>279.7</ele>
        <time>2010-12-12T11:31:24Z</time>
      </trkpt>
      <trkpt lat="43.32933" lon="-0.27426">
        <ele>279</ele>
        <time>2010-12-12T11:31:26Z</time>
      </trkpt>
      <trkpt lat="43.32924" lon="-0.27431">
        <ele>278.7</ele>
        <time>2010-12-12T11:31:28Z</time>
      </trkpt>
      <trkpt lat="43.3292" lon="-0.27439">
        <ele>278.7</ele>
        <time>2010-12-12T11:31:29Z</time>
      </trkpt>
      <trkpt lat="43.32921" lon="-0.27447">
        <ele>279.1</ele>
        <time>2010-12-12T11:31:31Z</time>
      </trkpt>
      <trkpt lat="43.32924" lon="-0.2747">
        <ele>278.2</ele>
        <time>2010-12-12T11:31:33Z</time>
      </trkpt>
      <trkpt lat="43.32923" lon="-0.2749">
        <ele>277.5</ele>
        <time>2010-12-12T11:31:35Z</time>
      </trkpt>
      <trkpt lat="43.32914" lon="-0.27509">
        <ele>276.1</ele>
        <time>2010-12-12T11:31:38Z</time>
      </trkpt>
      <trkpt lat="43.32907" lon="-0.27504">
        <ele>274.4</ele>
        <time>2010-12-12T11:31:40Z</time>
      </trkpt>
      <trkpt lat="43.32893" lon="-0.27485">
        <ele>272.3</ele>
        <time>2010-12-12T11:31:42Z</time>
      </trkpt>
      <trkpt lat="43.3288" lon="-0.27464">
        <ele>271.5</ele>
        <time>2010-12-12T11:31:43Z</time>
      </trkpt>
      <trkpt lat="43.32874" lon="-0.27457">
        <ele>270.3</ele>
        <time>2010-12-12T11:31:45Z</time>
      </trkpt>
      <trkpt lat="43.3286" lon="-0.2744">
        <ele>270.1</ele>
        <time>2010-12-12T11:31:47Z</time>
      </trkpt>
      <trkpt lat="43.32846" lon="-0.2742">
        <ele>268.6</ele>
        <time>2010-12-12T11:31:49Z</time>
      </trkpt>
      <trkpt lat="43.32834" lon="-0.27403">
        <ele>267.3</ele>
        <time>2010-12-12T11:31:50Z</time>
      </trkpt>
      <trkpt lat="43.32825" lon="-0.27393">
        <ele>266.2</ele>
        <time>2010-12-12T11:31:52Z</time>
      </trkpt>
      <trkpt lat="43.32805" lon="-0.27379">
        <ele>265.3</ele>
        <time>2010-12-12T11:31:54Z</time>
      </trkpt>
      <trkpt lat="43.32785" lon="-0.27374">
        <ele>264.3</ele>
        <time>2010-12-12T11:31:56Z</time>
      </trkpt>
      <trkpt lat="43.32761" lon="-0.27369">
        <ele>262.8</ele>
        <time>2010-12-12T11:31:57Z</time>
      </trkpt>
      <trkpt lat="43.32748" lon="-0.27367">
        <ele>262.1</ele>
        <time>2010-12-12T11:31:59Z</time>
      </trkpt>
      <trkpt lat="43.32724" lon="-0.27364">
        <ele>261.3</ele>
        <time>2010-12-12T11:32:01Z</time>
      </trkpt>
      <trkpt lat="43.327" lon="-0.27363">
        <ele>260</ele>
        <time>2010-12-12T11:32:03Z</time>
      </trkpt>
      <trkpt lat="43.32688" lon="-0.27362">
        <ele>258.8</ele>
        <time>2010-12-12T11:32:04Z</time>
      </trkpt>
      <trkpt lat="43.32664" lon="-0.27358">
        <ele>257.6</ele>
        <time>2010-12-12T11:32:06Z</time>
      </trkpt>
      <trkpt lat="43.32641" lon="-0.27354">
        <ele>255.7</ele>
        <time>2010-12-12T11:32:08Z</time>
      </trkpt>
      <trkpt lat="43.32619" lon="-0.27349">
        <ele>254.8</ele>
        <time>2010-12-12T11:32:10Z</time>
      </trkpt>
      <trkpt lat="43.32609" lon="-0.27345">
        <ele>253.8</ele>
        <time>2010-12-12T11:32:11Z</time>
      </trkpt>
      <trkpt lat="43.32588" lon="-0.27339">
        <ele>251.4</ele>
        <time>2010-12-12T11:32:13Z</time>
      </trkpt>
      <trkpt lat="43.32565" lon="-0.27334">
        <ele>249.6</ele>
        <time>2010-12-12T11:32:15Z</time>
      </trkpt>
      <trkpt lat="43.32545" lon="-0.27329">
        <ele>248.4</ele>
        <time>2010-12-12T11:32:17Z</time>
      </trkpt>
      <trkpt lat="43.32534" lon="-0.27327">
        <ele>247.5</ele>
        <time>2010-12-12T11:32:18Z</time>
      </trkpt>
      <trkpt lat="43.32513" lon="-0.27326">
        <ele>246.1</ele>
        <time>2010-12-12T11:32:20Z</time>
      </trkpt>
      <trkpt lat="43.3249" lon="-0.27327">
        <ele>246.8</ele>
        <time>2010-12-12T11:32:22Z</time>
      </trkpt>
      <trkpt lat="43.3247" lon="-0.27331">
        <ele>247.1</ele>
        <time>2010-12-12T11:32:24Z</time>
      </trkpt>
      <trkpt lat="43.3246" lon="-0.27333">
        <ele>247.1</ele>
        <time>2010-12-12T11:32:25Z</time>
      </trkpt>
      <trkpt lat="43.32441" lon="-0.27339">
        <ele>247.7</ele>
        <time>2010-12-12T11:32:27Z</time>
      </trkpt>
      <trkpt lat="43.32423" lon="-0.27345">
        <ele>246.8</ele>
        <time>2010-12-12T11:32:29Z</time>
      </trkpt>
      <trkpt lat="43.32405" lon="-0.27351">
        <ele>246.4</ele>
        <time>2010-12-12T11:32:30Z</time>
      </trkpt>
      <trkpt lat="43.32395" lon="-0.27354">
        <ele>245.9</ele>
        <time>2010-12-12T11:32:32Z</time>
      </trkpt>
      <trkpt lat="43.32378" lon="-0.27358">
        <ele>245.5</ele>
        <time>2010-12-12T11:32:34Z</time>
      </trkpt>
      <trkpt lat="43.3236" lon="-0.27364">
        <ele>244.9</ele>
        <time>2010-12-12T11:32:36Z</time>
      </trkpt>
      <trkpt lat="43.32341" lon="-0.27369">
        <ele>244.4</ele>
        <time>2010-12-12T11:32:37Z</time>
      </trkpt>
      <trkpt lat="43.32331" lon="-0.27373">
        <ele>243.6</ele>
        <time>2010-12-12T11:32:39Z</time>
      </trkpt>
      <trkpt lat="43.32313" lon="-0.27378">
        <ele>243.9</ele>
        <time>2010-12-12T11:32:41Z</time>
      </trkpt>
      <trkpt lat="43.32295" lon="-0.27385">
        <ele>243.9</ele>
        <time>2010-12-12T11:32:43Z</time>
      </trkpt>
      <trkpt lat="43.32278" lon="-0.2739">
        <ele>243</ele>
        <time>2010-12-12T11:32:44Z</time>
      </trkpt>
      <trkpt lat="43.32269" lon="-0.27393">
        <ele>243.1</ele>
        <time>2010-12-12T11:32:46Z</time>
      </trkpt>
      <trkpt lat="43.32253" lon="-0.27399">
        <ele>242.5</ele>
        <time>2010-12-12T11:32:48Z</time>
      </trkpt>
      <trkpt lat="43.32236" lon="-0.27404">
        <ele>242.2</ele>
        <time>2010-12-12T11:32:50Z</time>
      </trkpt>
      <trkpt lat="43.32227" lon="-0.27408">
        <ele>242</ele>
        <time>2010-12-12T11:32:51Z</time>
      </trkpt>
      <trkpt lat="43.32211" lon="-0.27415">
        <ele>242</ele>
        <time>2010-12-12T11:32:53Z</time>
      </trkpt>
      <trkpt lat="43.32197" lon="-0.2742">
        <ele>241.6</ele>
        <time>2010-12-12T11:32:55Z</time>
      </trkpt>
      <trkpt lat="43.32182" lon="-0.27425">
        <ele>242.2</ele>
        <time>2010-12-12T11:32:57Z</time>
      </trkpt>
      <trkpt lat="43.32174" lon="-0.27429">
        <ele>242.7</ele>
        <time>2010-12-12T11:32:58Z</time>
      </trkpt>
      <trkpt lat="43.32161" lon="-0.27436">
        <ele>242.5</ele>
        <time>2010-12-12T11:33:00Z</time>
      </trkpt>
      <trkpt lat="43.32146" lon="-0.27444">
        <ele>241.6</ele>
        <time>2010-12-12T11:33:02Z</time>
      </trkpt>
      <trkpt lat="43.32132" lon="-0.2745">
        <ele>241.7</ele>
        <time>2010-12-12T11:33:04Z</time>
      </trkpt>
      <trkpt lat="43.32124" lon="-0.27454">
        <ele>241.6</ele>
        <time>2010-12-12T11:33:05Z</time>
      </trkpt>
      <trkpt lat="43.32108" lon="-0.27461">
        <ele>241.4</ele>
        <time>2010-12-12T11:33:07Z</time>
      </trkpt>
      <trkpt lat="43.32095" lon="-0.27467">
        <ele>242.3</ele>
        <time>2010-12-12T11:33:09Z</time>
      </trkpt>
      <trkpt lat="43.32083" lon="-0.27472">
        <ele>242</ele>
        <time>2010-12-12T11:33:11Z</time>
      </trkpt>
      <trkpt lat="43.32076" lon="-0.27474">
        <ele>241.8</ele>
        <time>2010-12-12T11:33:12Z</time>
      </trkpt>
      <trkpt lat="43.32063" lon="-0.27478">
        <ele>241.7</ele>
        <time>2010-12-12T11:33:14Z</time>
      </trkpt>
      <trkpt lat="43.32052" lon="-0.27483">
        <ele>241.5</ele>
        <time>2010-12-12T11:33:16Z</time>
      </trkpt>
      <trkpt lat="43.32038" lon="-0.27485">
        <ele>241.3</ele>
        <time>2010-12-12T11:33:17Z</time>
      </trkpt>
      <trkpt lat="43.32031" lon="-0.27486">
        <ele>242.7</ele>
        <time>2010-12-12T11:33:19Z</time>
      </trkpt>
      <trkpt lat="43.32017" lon="-0.27488">
        <ele>242.7</ele>
        <time>2010-12-12T11:33:21Z</time>
      </trkpt>
      <trkpt lat="43.32002" lon="-0.2749">
        <ele>241.9</ele>
        <time>2010-12-12T11:33:23Z</time>
      </trkpt>
      <trkpt lat="43.31985" lon="-0.27491">
        <ele>241.4</ele>
        <time>2010-12-12T11:33:24Z</time>
      </trkpt>
      <trkpt lat="43.31979" lon="-0.27491">
        <ele>241.3</ele>
        <time>2010-12-12T11:33:26Z</time>
      </trkpt>
      <trkpt lat="43.31966" lon="-0.27491">
        <ele>241.9</ele>
        <time>2010-12-12T11:33:28Z</time>
      </trkpt>
      <trkpt lat="43.31954" lon="-0.27492">
        <ele>242</ele>
        <time>2010-12-12T11:33:30Z</time>
      </trkpt>
      <trkpt lat="43.31943" lon="-0.27494">
        <ele>243</ele>
        <time>2010-12-12T11:33:31Z</time>
      </trkpt>
      <trkpt lat="43.31937" lon="-0.27495">
        <ele>243</ele>
        <time>2010-12-12T11:33:33Z</time>
      </trkpt>
      <trkpt lat="43.31925" lon="-0.27495">
        <ele>243.2</ele>
        <time>2010-12-12T11:33:35Z</time>
      </trkpt>
      <trkpt lat="43.31914" lon="-0.27495">
        <ele>244.1</ele>
        <time>2010-12-12T11:33:37Z</time>
      </trkpt>
      <trkpt lat="43.31902" lon="-0.27495">
        <ele>244.3</ele>
        <time>2010-12-12T11:33:38Z</time>
      </trkpt>
      <trkpt lat="43.31897" lon="-0.27495">
        <ele>244.3</ele>
        <time>2010-12-12T11:33:40Z</time>
      </trkpt>
      <trkpt lat="43.31885" lon="-0.27496">
        <ele>244.3</ele>
        <time>2010-12-12T11:33:42Z</time>
      </trkpt>
      <trkpt lat="43.31873" lon="-0.27496">
        <ele>244.5</ele>
        <time>2010-12-12T11:33:44Z</time>
      </trkpt>
      <trkpt lat="43.31866" lon="-0.27496">
        <ele>244.7</ele>
        <time>2010-12-12T11:33:45Z</time>
      </trkpt>
      <trkpt lat="43.31854" lon="-0.27497">
        <ele>244.8</ele>
        <time>2010-12-12T11:33:47Z</time>
      </trkpt>
      <trkpt lat="43.31841" lon="-0.27498">
        <ele>244.2</ele>
        <time>2010-12-12T11:33:49Z</time>
      </trkpt>
      <trkpt lat="43.31829" lon="-0.27499">
        <ele>244.5</ele>
        <time>2010-12-12T11:33:51Z</time>
      </trkpt>
      <trkpt lat="43.31822" lon="-0.275">
        <ele>245.4</ele>
        <time>2010-12-12T11:33:52Z</time>
      </trkpt>
      <trkpt lat="43.31809" lon="-0.275">
        <ele>245</ele>
        <time>2010-12-12T11:33:54Z</time>
      </trkpt>
      <trkpt lat="43.31796" lon="-0.27502">
        <ele>245.1</ele>
        <time>2010-12-12T11:33:56Z</time>
      </trkpt>
      <trkpt lat="43.31779" lon="-0.27502">
        <ele>244.9</ele>
        <time>2010-12-12T11:33:59Z</time>
      </trkpt>
      <trkpt lat="43.31767" lon="-0.27502">
        <ele>244</ele>
        <time>2010-12-12T11:34:01Z</time>
      </trkpt>
      <trkpt lat="43.31755" lon="-0.27502">
        <ele>244.3</ele>
        <time>2010-12-12T11:34:03Z</time>
      </trkpt>
      <trkpt lat="43.31742" lon="-0.27501">
        <ele>244.4</ele>
        <time>2010-12-12T11:34:05Z</time>
      </trkpt>
      <trkpt lat="43.31735" lon="-0.27502">
        <ele>244.7</ele>
        <time>2010-12-12T11:34:06Z</time>
      </trkpt>
      <trkpt lat="43.31723" lon="-0.27502">
        <ele>244.9</ele>
        <time>2010-12-12T11:34:08Z</time>
      </trkpt>
      <trkpt lat="43.31712" lon="-0.27499">
        <ele>245.2</ele>
        <time>2010-12-12T11:34:10Z</time>
      </trkpt>
      <trkpt lat="43.31699" lon="-0.27498">
        <ele>244.9</ele>
        <time>2010-12-12T11:34:12Z</time>
      </trkpt>
      <trkpt lat="43.31694" lon="-0.27497">
        <ele>245.3</ele>
        <time>2010-12-12T11:34:13Z</time>
      </trkpt>
      <trkpt lat="43.31685" lon="-0.27496">
        <ele>246.1</ele>
        <time>2010-12-12T11:34:15Z</time>
      </trkpt>
      <trkpt lat="43.31672" lon="-0.27493">
        <ele>246</ele>
        <time>2010-12-12T11:34:17Z</time>
      </trkpt>
      <trkpt lat="43.31661" lon="-0.2749">
        <ele>246.3</ele>
        <time>2010-12-12T11:34:18Z</time>
      </trkpt>
      <trkpt lat="43.31652" lon="-0.27487">
        <ele>246.2</ele>
        <time>2010-12-12T11:34:20Z</time>
      </trkpt>
      <trkpt lat="43.31647" lon="-0.27487">
        <ele>246.5</ele>
        <time>2010-12-12T11:34:22Z</time>
      </trkpt>
      <trkpt lat="43.31636" lon="-0.27487">
        <ele>246.5</ele>
        <time>2010-12-12T11:34:24Z</time>
      </trkpt>
      <trkpt lat="43.31626" lon="-0.27485">
        <ele>246.2</ele>
        <time>2010-12-12T11:34:25Z</time>
      </trkpt>
      <trkpt lat="43.31617" lon="-0.27484">
        <ele>246.6</ele>
        <time>2010-12-12T11:34:27Z</time>
      </trkpt>
      <trkpt lat="43.31612" lon="-0.27484">
        <ele>246.5</ele>
        <time>2010-12-12T11:34:29Z</time>
      </trkpt>
      <trkpt lat="43.316" lon="-0.27483">
        <ele>246.6</ele>
        <time>2010-12-12T11:34:31Z</time>
      </trkpt>
      <trkpt lat="43.31588" lon="-0.27484">
        <ele>246.9</ele>
        <time>2010-12-12T11:34:32Z</time>
      </trkpt>
      <trkpt lat="43.31582" lon="-0.27484">
        <ele>246.9</ele>
        <time>2010-12-12T11:34:34Z</time>
      </trkpt>
      <trkpt lat="43.3157" lon="-0.27482">
        <ele>246.9</ele>
        <time>2010-12-12T11:34:36Z</time>
      </trkpt>
      <trkpt lat="43.3156" lon="-0.27483">
        <ele>247.3</ele>
        <time>2010-12-12T11:34:38Z</time>
      </trkpt>
      <trkpt lat="43.31546" lon="-0.27482">
        <ele>249.1</ele>
        <time>2010-12-12T11:34:41Z</time>
      </trkpt>
      <trkpt lat="43.31535" lon="-0.27483">
        <ele>250</ele>
        <time>2010-12-12T11:34:43Z</time>
      </trkpt>
      <trkpt lat="43.31524" lon="-0.27485">
        <ele>252</ele>
        <time>2010-12-12T11:34:45Z</time>
      </trkpt>
      <trkpt lat="43.31519" lon="-0.27485">
        <ele>252</ele>
        <time>2010-12-12T11:34:46Z</time>
      </trkpt>
      <trkpt lat="43.31508" lon="-0.27486">
        <ele>253.4</ele>
        <time>2010-12-12T11:34:48Z</time>
      </trkpt>
      <trkpt lat="43.31496" lon="-0.27487">
        <ele>253.8</ele>
        <time>2010-12-12T11:34:50Z</time>
      </trkpt>
      <trkpt lat="43.31484" lon="-0.27488">
        <ele>253.5</ele>
        <time>2010-12-12T11:34:52Z</time>
      </trkpt>
      <trkpt lat="43.31478" lon="-0.2749">
        <ele>253.5</ele>
        <time>2010-12-12T11:34:53Z</time>
      </trkpt>
      <trkpt lat="43.31464" lon="-0.27491">
        <ele>253.5</ele>
        <time>2010-12-12T11:34:55Z</time>
      </trkpt>
      <trkpt lat="43.3145" lon="-0.27493">
        <ele>253.5</ele>
        <time>2010-12-12T11:34:57Z</time>
      </trkpt>
      <trkpt lat="43.31436" lon="-0.27497">
        <ele>252.4</ele>
        <time>2010-12-12T11:34:59Z</time>
      </trkpt>
      <trkpt lat="43.3143" lon="-0.27499">
        <ele>252.9</ele>
        <time>2010-12-12T11:35:00Z</time>
      </trkpt>
      <trkpt lat="43.31412" lon="-0.27505">
        <ele>250.8</ele>
        <time>2010-12-12T11:35:02Z</time>
      </trkpt>
      <trkpt lat="43.31395" lon="-0.2751">
        <ele>249.7</ele>
        <time>2010-12-12T11:35:04Z</time>
      </trkpt>
      <trkpt lat="43.31379" lon="-0.27515">
        <ele>249.1</ele>
        <time>2010-12-12T11:35:05Z</time>
      </trkpt>
      <trkpt lat="43.31371" lon="-0.27518">
        <ele>249.1</ele>
        <time>2010-12-12T11:35:07Z</time>
      </trkpt>
      <trkpt lat="43.31356" lon="-0.27523">
        <ele>249.9</ele>
        <time>2010-12-12T11:35:09Z</time>
      </trkpt>
      <trkpt lat="43.3134" lon="-0.27527">
        <ele>249.4</ele>
        <time>2010-12-12T11:35:11Z</time>
      </trkpt>
      <trkpt lat="43.31324" lon="-0.27529">
        <ele>248.8</ele>
        <time>2010-12-12T11:35:12Z</time>
      </trkpt>
      <trkpt lat="43.31317" lon="-0.27529">
        <ele>249.4</ele>
        <time>2010-12-12T11:35:14Z</time>
      </trkpt>
      <trkpt lat="43.31302" lon="-0.27531">
        <ele>249</ele>
        <time>2010-12-12T11:35:16Z</time>
      </trkpt>
      <trkpt lat="43.31288" lon="-0.27531">
        <ele>249.3</ele>
        <time>2010-12-12T11:35:18Z</time>
      </trkpt>
      <trkpt lat="43.31272" lon="-0.27532">
        <ele>248.3</ele>
        <time>2010-12-12T11:35:19Z</time>
      </trkpt>
      <trkpt lat="43.31265" lon="-0.27532">
        <ele>247.9</ele>
        <time>2010-12-12T11:35:21Z</time>
      </trkpt>
      <trkpt lat="43.31251" lon="-0.27532">
        <ele>247.5</ele>
        <time>2010-12-12T11:35:23Z</time>
      </trkpt>
      <trkpt lat="43.31237" lon="-0.27533">
        <ele>247.7</ele>
        <time>2010-12-12T11:35:25Z</time>
      </trkpt>
      <trkpt lat="43.31224" lon="-0.27533">
        <ele>247.3</ele>
        <time>2010-12-12T11:35:26Z</time>
      </trkpt>
      <trkpt lat="43.31217" lon="-0.27534">
        <ele>247.7</ele>
        <time>2010-12-12T11:35:28Z</time>
      </trkpt>
      <trkpt lat="43.31202" lon="-0.27535">
        <ele>247.6</ele>
        <time>2010-12-12T11:35:30Z</time>
      </trkpt>
      <trkpt lat="43.31187" lon="-0.27537">
        <ele>247.9</ele>
        <time>2010-12-12T11:35:32Z</time>
      </trkpt>
      <trkpt lat="43.3118" lon="-0.27538">
        <ele>247.7</ele>
        <time>2010-12-12T11:35:33Z</time>
      </trkpt>
      <trkpt lat="43.31164" lon="-0.27539">
        <ele>247.7</ele>
        <time>2010-12-12T11:35:35Z</time>
      </trkpt>
      <trkpt lat="43.3115" lon="-0.27539">
        <ele>247.8</ele>
        <time>2010-12-12T11:35:37Z</time>
      </trkpt>
      <trkpt lat="43.31135" lon="-0.27539">
        <ele>248.2</ele>
        <time>2010-12-12T11:35:39Z</time>
      </trkpt>
      <trkpt lat="43.31128" lon="-0.27539">
        <ele>248.2</ele>
        <time>2010-12-12T11:35:40Z</time>
      </trkpt>
      <trkpt lat="43.31114" lon="-0.2754">
        <ele>247.9</ele>
        <time>2010-12-12T11:35:42Z</time>
      </trkpt>
      <trkpt lat="43.31098" lon="-0.27541">
        <ele>247.4</ele>
        <time>2010-12-12T11:35:44Z</time>
      </trkpt>
      <trkpt lat="43.31082" lon="-0.27542">
        <ele>248</ele>
        <time>2010-12-12T11:35:46Z</time>
      </trkpt>
      <trkpt lat="43.31075" lon="-0.27542">
        <ele>246.9</ele>
        <time>2010-12-12T11:35:47Z</time>
      </trkpt>
      <trkpt lat="43.3106" lon="-0.27544">
        <ele>246.9</ele>
        <time>2010-12-12T11:35:49Z</time>
      </trkpt>
      <trkpt lat="43.31045" lon="-0.27545">
        <ele>246</ele>
        <time>2010-12-12T11:35:51Z</time>
      </trkpt>
      <trkpt lat="43.31028" lon="-0.27545">
        <ele>246.5</ele>
        <time>2010-12-12T11:35:53Z</time>
      </trkpt>
      <trkpt lat="43.31021" lon="-0.27546">
        <ele>246.6</ele>
        <time>2010-12-12T11:35:54Z</time>
      </trkpt>
      <trkpt lat="43.31003" lon="-0.27548">
        <ele>245.9</ele>
        <time>2010-12-12T11:35:56Z</time>
      </trkpt>
      <trkpt lat="43.30984" lon="-0.2755">
        <ele>245.2</ele>
        <time>2010-12-12T11:35:58Z</time>
      </trkpt>
      <trkpt lat="43.30969" lon="-0.2755">
        <ele>244.7</ele>
        <time>2010-12-12T11:36:00Z</time>
      </trkpt>
      <trkpt lat="43.3096" lon="-0.27551">
        <ele>244.2</ele>
        <time>2010-12-12T11:36:01Z</time>
      </trkpt>
      <trkpt lat="43.30941" lon="-0.27552">
        <ele>244.1</ele>
        <time>2010-12-12T11:36:03Z</time>
      </trkpt>
      <trkpt lat="43.30922" lon="-0.27553">
        <ele>242.9</ele>
        <time>2010-12-12T11:36:05Z</time>
      </trkpt>
      <trkpt lat="43.30905" lon="-0.27554">
        <ele>243</ele>
        <time>2010-12-12T11:36:06Z</time>
      </trkpt>
      <trkpt lat="43.30897" lon="-0.27555">
        <ele>243.6</ele>
        <time>2010-12-12T11:36:08Z</time>
      </trkpt>
      <trkpt lat="43.30881" lon="-0.27556">
        <ele>243.3</ele>
        <time>2010-12-12T11:36:10Z</time>
      </trkpt>
      <trkpt lat="43.30867" lon="-0.27557">
        <ele>243.5</ele>
        <time>2010-12-12T11:36:12Z</time>
      </trkpt>
      <trkpt lat="43.3085" lon="-0.27557">
        <ele>244</ele>
        <time>2010-12-12T11:36:13Z</time>
      </trkpt>
      <trkpt lat="43.30843" lon="-0.27557">
        <ele>244.2</ele>
        <time>2010-12-12T11:36:15Z</time>
      </trkpt>
      <trkpt lat="43.30828" lon="-0.27559">
        <ele>243.8</ele>
        <time>2010-12-12T11:36:17Z</time>
      </trkpt>
      <trkpt lat="43.30813" lon="-0.2756">
        <ele>243.3</ele>
        <time>2010-12-12T11:36:19Z</time>
      </trkpt>
      <trkpt lat="43.30798" lon="-0.27561">
        <ele>243.3</ele>
        <time>2010-12-12T11:36:20Z</time>
      </trkpt>
      <trkpt lat="43.3079" lon="-0.27561">
        <ele>243.3</ele>
        <time>2010-12-12T11:36:22Z</time>
      </trkpt>
      <trkpt lat="43.30775" lon="-0.27562">
        <ele>243.7</ele>
        <time>2010-12-12T11:36:24Z</time>
      </trkpt>
      <trkpt lat="43.30761" lon="-0.27563">
        <ele>244.4</ele>
        <time>2010-12-12T11:36:26Z</time>
      </trkpt>
      <trkpt lat="43.30745" lon="-0.27564">
        <ele>244.5</ele>
        <time>2010-12-12T11:36:27Z</time>
      </trkpt>
      <trkpt lat="43.30738" lon="-0.27566">
        <ele>244.9</ele>
        <time>2010-12-12T11:36:29Z</time>
      </trkpt>
      <trkpt lat="43.3072" lon="-0.27565">
        <ele>244</ele>
        <time>2010-12-12T11:36:31Z</time>
      </trkpt>
      <trkpt lat="43.30704" lon="-0.27567">
        <ele>244.2</ele>
        <time>2010-12-12T11:36:33Z</time>
      </trkpt>
      <trkpt lat="43.30697" lon="-0.27567">
        <ele>244.4</ele>
        <time>2010-12-12T11:36:34Z</time>
      </trkpt>
      <trkpt lat="43.30681" lon="-0.27568">
        <ele>244.4</ele>
        <time>2010-12-12T11:36:36Z</time>
      </trkpt>
      <trkpt lat="43.30665" lon="-0.27569">
        <ele>244.2</ele>
        <time>2010-12-12T11:36:38Z</time>
      </trkpt>
      <trkpt lat="43.3065" lon="-0.27569">
        <ele>244.4</ele>
        <time>2010-12-12T11:36:40Z</time>
      </trkpt>
      <trkpt lat="43.30641" lon="-0.27569">
        <ele>244.9</ele>
        <time>2010-12-12T11:36:41Z</time>
      </trkpt>
      <trkpt lat="43.30626" lon="-0.27571">
        <ele>245.3</ele>
        <time>2010-12-12T11:36:43Z</time>
      </trkpt>
      <trkpt lat="43.30609" lon="-0.27571">
        <ele>245.3</ele>
        <time>2010-12-12T11:36:45Z</time>
      </trkpt>
      <trkpt lat="43.30594" lon="-0.27573">
        <ele>244.7</ele>
        <time>2010-12-12T11:36:47Z</time>
      </trkpt>
      <trkpt lat="43.30588" lon="-0.27572">
        <ele>244.5</ele>
        <time>2010-12-12T11:36:48Z</time>
      </trkpt>
      <trkpt lat="43.30572" lon="-0.27573">
        <ele>243.8</ele>
        <time>2010-12-12T11:36:50Z</time>
      </trkpt>
      <trkpt lat="43.30558" lon="-0.27574">
        <ele>244.1</ele>
        <time>2010-12-12T11:36:52Z</time>
      </trkpt>
      <trkpt lat="43.30543" lon="-0.27577">
        <ele>245.1</ele>
        <time>2010-12-12T11:36:54Z</time>
      </trkpt>
      <trkpt lat="43.30537" lon="-0.27577">
        <ele>244.8</ele>
        <time>2010-12-12T11:36:55Z</time>
      </trkpt>
      <trkpt lat="43.30522" lon="-0.27577">
        <ele>244.6</ele>
        <time>2010-12-12T11:36:57Z</time>
      </trkpt>
      <trkpt lat="43.30503" lon="-0.27579">
        <ele>243.9</ele>
        <time>2010-12-12T11:36:59Z</time>
      </trkpt>
      <trkpt lat="43.30486" lon="-0.27579">
        <ele>242.5</ele>
        <time>2010-12-12T11:37:00Z</time>
      </trkpt>
      <trkpt lat="43.30478" lon="-0.27579">
        <ele>242.1</ele>
        <time>2010-12-12T11:37:02Z</time>
      </trkpt>
      <trkpt lat="43.30461" lon="-0.27577">
        <ele>241.7</ele>
        <time>2010-12-12T11:37:04Z</time>
      </trkpt>
      <trkpt lat="43.30444" lon="-0.27571">
        <ele>241.7</ele>
        <time>2010-12-12T11:37:06Z</time>
      </trkpt>
      <trkpt lat="43.30427" lon="-0.27566">
        <ele>240.8</ele>
        <time>2010-12-12T11:37:07Z</time>
      </trkpt>
      <trkpt lat="43.3042" lon="-0.27563">
        <ele>240.3</ele>
        <time>2010-12-12T11:37:09Z</time>
      </trkpt>
      <trkpt lat="43.30405" lon="-0.27557">
        <ele>240.4</ele>
        <time>2010-12-12T11:37:11Z</time>
      </trkpt>
      <trkpt lat="43.30388" lon="-0.27548">
        <ele>240.7</ele>
        <time>2010-12-12T11:37:13Z</time>
      </trkpt>
      <trkpt lat="43.30375" lon="-0.27541">
        <ele>240.7</ele>
        <time>2010-12-12T11:37:14Z</time>
      </trkpt>
      <trkpt lat="43.30368" lon="-0.27538">
        <ele>240.8</ele>
        <time>2010-12-12T11:37:16Z</time>
      </trkpt>
      <trkpt lat="43.30354" lon="-0.27532">
        <ele>240.9</ele>
        <time>2010-12-12T11:37:18Z</time>
      </trkpt>
      <trkpt lat="43.30342" lon="-0.27524">
        <ele>241.6</ele>
        <time>2010-12-12T11:37:20Z</time>
      </trkpt>
      <trkpt lat="43.30335" lon="-0.27522">
        <ele>241.9</ele>
        <time>2010-12-12T11:37:21Z</time>
      </trkpt>
      <trkpt lat="43.30323" lon="-0.27516">
        <ele>242.5</ele>
        <time>2010-12-12T11:37:23Z</time>
      </trkpt>
      <trkpt lat="43.30309" lon="-0.27509">
        <ele>242.7</ele>
        <time>2010-12-12T11:37:25Z</time>
      </trkpt>
      <trkpt lat="43.30298" lon="-0.27502">
        <ele>242.4</ele>
        <time>2010-12-12T11:37:27Z</time>
      </trkpt>
      <trkpt lat="43.30293" lon="-0.27498">
        <ele>242.9</ele>
        <time>2010-12-12T11:37:28Z</time>
      </trkpt>
      <trkpt lat="43.30281" lon="-0.27491">
        <ele>243</ele>
        <time>2010-12-12T11:37:30Z</time>
      </trkpt>
      <trkpt lat="43.30271" lon="-0.27484">
        <ele>243.3</ele>
        <time>2010-12-12T11:37:32Z</time>
      </trkpt>
      <trkpt lat="43.30261" lon="-0.27476">
        <ele>242.9</ele>
        <time>2010-12-12T11:37:34Z</time>
      </trkpt>
      <trkpt lat="43.30257" lon="-0.27472">
        <ele>242.8</ele>
        <time>2010-12-12T11:37:35Z</time>
      </trkpt>
      <trkpt lat="43.30243" lon="-0.27463">
        <ele>243.2</ele>
        <time>2010-12-12T11:37:37Z</time>
      </trkpt>
      <trkpt lat="43.30231" lon="-0.27456">
        <ele>244</ele>
        <time>2010-12-12T11:37:39Z</time>
      </trkpt>
      <trkpt lat="43.30217" lon="-0.27447">
        <ele>244.6</ele>
        <time>2010-12-12T11:37:41Z</time>
      </trkpt>
      <trkpt lat="43.3021" lon="-0.27443">
        <ele>243.8</ele>
        <time>2010-12-12T11:37:42Z</time>
      </trkpt>
      <trkpt lat="43.30198" lon="-0.27434">
        <ele>243.6</ele>
        <time>2010-12-12T11:37:44Z</time>
      </trkpt>
      <trkpt lat="43.30185" lon="-0.27426">
        <ele>243.1</ele>
        <time>2010-12-12T11:37:46Z</time>
      </trkpt>
      <trkpt lat="43.30172" lon="-0.27416">
        <ele>242.7</ele>
        <time>2010-12-12T11:37:48Z</time>
      </trkpt>
      <trkpt lat="43.30166" lon="-0.27412">
        <ele>242.8</ele>
        <time>2010-12-12T11:37:49Z</time>
      </trkpt>
      <trkpt lat="43.30153" lon="-0.27403">
        <ele>242.7</ele>
        <time>2010-12-12T11:37:51Z</time>
      </trkpt>
      <trkpt lat="43.30139" lon="-0.27395">
        <ele>242.8</ele>
        <time>2010-12-12T11:37:53Z</time>
      </trkpt>
      <trkpt lat="43.30124" lon="-0.27386">
        <ele>242.7</ele>
        <time>2010-12-12T11:37:54Z</time>
      </trkpt>
      <trkpt lat="43.30115" lon="-0.27382">
        <ele>241.8</ele>
        <time>2010-12-12T11:37:56Z</time>
      </trkpt>
      <trkpt lat="43.30103" lon="-0.27372">
        <ele>241.2</ele>
        <time>2010-12-12T11:37:58Z</time>
      </trkpt>
      <trkpt lat="43.30089" lon="-0.27365">
        <ele>239.9</ele>
        <time>2010-12-12T11:38:00Z</time>
      </trkpt>
      <trkpt lat="43.30073" lon="-0.27359">
        <ele>239.9</ele>
        <time>2010-12-12T11:38:01Z</time>
      </trkpt>
      <trkpt lat="43.30066" lon="-0.27356">
        <ele>240</ele>
        <time>2010-12-12T11:38:03Z</time>
      </trkpt>
      <trkpt lat="43.3005" lon="-0.2735">
        <ele>240.6</ele>
        <time>2010-12-12T11:38:05Z</time>
      </trkpt>
      <trkpt lat="43.30035" lon="-0.27343">
        <ele>240.4</ele>
        <time>2010-12-12T11:38:07Z</time>
      </trkpt>
      <trkpt lat="43.30022" lon="-0.27337">
        <ele>240.4</ele>
        <time>2010-12-12T11:38:08Z</time>
      </trkpt>
      <trkpt lat="43.30014" lon="-0.27333">
        <ele>240</ele>
        <time>2010-12-12T11:38:10Z</time>
      </trkpt>
      <trkpt lat="43.29995" lon="-0.27327">
        <ele>239.8</ele>
        <time>2010-12-12T11:38:12Z</time>
      </trkpt>
      <trkpt lat="43.29983" lon="-0.27322">
        <ele>240.8</ele>
        <time>2010-12-12T11:38:14Z</time>
      </trkpt>
      <trkpt lat="43.2997" lon="-0.27318">
        <ele>240.9</ele>
        <time>2010-12-12T11:38:15Z</time>
      </trkpt>
      <trkpt lat="43.29963" lon="-0.27318">
        <ele>240.7</ele>
        <time>2010-12-12T11:38:17Z</time>
      </trkpt>
      <trkpt lat="43.2995" lon="-0.27317">
        <ele>240.4</ele>
        <time>2010-12-12T11:38:19Z</time>
      </trkpt>
      <trkpt lat="43.29937" lon="-0.2732">
        <ele>240.4</ele>
        <time>2010-12-12T11:38:21Z</time>
      </trkpt>
      <trkpt lat="43.29929" lon="-0.27321">
        <ele>240.7</ele>
        <time>2010-12-12T11:38:22Z</time>
      </trkpt>
      <trkpt lat="43.29914" lon="-0.27325">
        <ele>241.2</ele>
        <time>2010-12-12T11:38:24Z</time>
      </trkpt>
      <trkpt lat="43.299" lon="-0.27328">
        <ele>241.5</ele>
        <time>2010-12-12T11:38:26Z</time>
      </trkpt>
      <trkpt lat="43.29888" lon="-0.27331">
        <ele>241.9</ele>
        <time>2010-12-12T11:38:28Z</time>
      </trkpt>
      <trkpt lat="43.29882" lon="-0.27332">
        <ele>241.9</ele>
        <time>2010-12-12T11:38:29Z</time>
      </trkpt>
      <trkpt lat="43.29868" lon="-0.27335">
        <ele>241.6</ele>
        <time>2010-12-12T11:38:31Z</time>
      </trkpt>
      <trkpt lat="43.29854" lon="-0.27337">
        <ele>240.6</ele>
        <time>2010-12-12T11:38:33Z</time>
      </trkpt>
      <trkpt lat="43.2984" lon="-0.27339">
        <ele>241.8</ele>
        <time>2010-12-12T11:38:35Z</time>
      </trkpt>
      <trkpt lat="43.29832" lon="-0.27339">
        <ele>241</ele>
        <time>2010-12-12T11:38:36Z</time>
      </trkpt>
      <trkpt lat="43.2982" lon="-0.27337">
        <ele>241</ele>
        <time>2010-12-12T11:38:38Z</time>
      </trkpt>
      <trkpt lat="43.29808" lon="-0.27332">
        <ele>240.9</ele>
        <time>2010-12-12T11:38:40Z</time>
      </trkpt>
      <trkpt lat="43.29795" lon="-0.27326">
        <ele>240.8</ele>
        <time>2010-12-12T11:38:42Z</time>
      </trkpt>
      <trkpt lat="43.29788" lon="-0.27323">
        <ele>240.8</ele>
        <time>2010-12-12T11:38:43Z</time>
      </trkpt>
      <trkpt lat="43.2978" lon="-0.27315">
        <ele>241.8</ele>
        <time>2010-12-12T11:38:45Z</time>
      </trkpt>
      <trkpt lat="43.29769" lon="-0.27308">
        <ele>241.3</ele>
        <time>2010-12-12T11:38:47Z</time>
      </trkpt>
      <trkpt lat="43.29758" lon="-0.273">
        <ele>240.9</ele>
        <time>2010-12-12T11:38:48Z</time>
      </trkpt>
      <trkpt lat="43.29752" lon="-0.27297">
        <ele>240.7</ele>
        <time>2010-12-12T11:38:50Z</time>
      </trkpt>
      <trkpt lat="43.29741" lon="-0.27289">
        <ele>241.2</ele>
        <time>2010-12-12T11:38:52Z</time>
      </trkpt>
      <trkpt lat="43.29729" lon="-0.27281">
        <ele>241.7</ele>
        <time>2010-12-12T11:38:54Z</time>
      </trkpt>
      <trkpt lat="43.29718" lon="-0.27275">
        <ele>241.5</ele>
        <time>2010-12-12T11:38:55Z</time>
      </trkpt>
      <trkpt lat="43.29712" lon="-0.27272">
        <ele>241.8</ele>
        <time>2010-12-12T11:38:57Z</time>
      </trkpt>
      <trkpt lat="43.29703" lon="-0.27265">
        <ele>241.8</ele>
        <time>2010-12-12T11:38:59Z</time>
      </trkpt>
      <trkpt lat="43.29693" lon="-0.27258">
        <ele>242.7</ele>
        <time>2010-12-12T11:39:01Z</time>
      </trkpt>
      <trkpt lat="43.29684" lon="-0.27252">
        <ele>242.3</ele>
        <time>2010-12-12T11:39:02Z</time>
      </trkpt>
      <trkpt lat="43.29678" lon="-0.27249">
        <ele>242.5</ele>
        <time>2010-12-12T11:39:04Z</time>
      </trkpt>
      <trkpt lat="43.29667" lon="-0.27243">
        <ele>242.7</ele>
        <time>2010-12-12T11:39:06Z</time>
      </trkpt>
      <trkpt lat="43.29656" lon="-0.27238">
        <ele>242.6</ele>
        <time>2010-12-12T11:39:08Z</time>
      </trkpt>
      <trkpt lat="43.29649" lon="-0.27234">
        <ele>242.8</ele>
        <time>2010-12-12T11:39:09Z</time>
      </trkpt>
      <trkpt lat="43.29635" lon="-0.27227">
        <ele>244</ele>
        <time>2010-12-12T11:39:11Z</time>
      </trkpt>
      <trkpt lat="43.2963" lon="-0.27226">
        <ele>244.8</ele>
        <time>2010-12-12T11:39:13Z</time>
      </trkpt>
      <trkpt lat="43.2962" lon="-0.27225">
        <ele>244.7</ele>
        <time>2010-12-12T11:39:15Z</time>
      </trkpt>
      <trkpt lat="43.29615" lon="-0.27224">
        <ele>244.7</ele>
        <time>2010-12-12T11:39:16Z</time>
      </trkpt>
      <trkpt lat="43.29602" lon="-0.27223">
        <ele>245</ele>
        <time>2010-12-12T11:39:18Z</time>
      </trkpt>
      <trkpt lat="43.2959" lon="-0.27223">
        <ele>245.5</ele>
        <time>2010-12-12T11:39:20Z</time>
      </trkpt>
      <trkpt lat="43.29579" lon="-0.27224">
        <ele>245.7</ele>
        <time>2010-12-12T11:39:22Z</time>
      </trkpt>
      <trkpt lat="43.29573" lon="-0.27224">
        <ele>245.7</ele>
        <time>2010-12-12T11:39:23Z</time>
      </trkpt>
      <trkpt lat="43.29564" lon="-0.27227">
        <ele>245.2</ele>
        <time>2010-12-12T11:39:25Z</time>
      </trkpt>
      <trkpt lat="43.29555" lon="-0.27237">
        <ele>245.3</ele>
        <time>2010-12-12T11:39:27Z</time>
      </trkpt>
      <trkpt lat="43.29546" lon="-0.27245">
        <ele>245.4</ele>
        <time>2010-12-12T11:39:29Z</time>
      </trkpt>
      <trkpt lat="43.29541" lon="-0.27247">
        <ele>244.9</ele>
        <time>2010-12-12T11:39:30Z</time>
      </trkpt>
      <trkpt lat="43.29528" lon="-0.27247">
        <ele>244.5</ele>
        <time>2010-12-12T11:39:32Z</time>
      </trkpt>
      <trkpt lat="43.29515" lon="-0.27241">
        <ele>244.9</ele>
        <time>2010-12-12T11:39:34Z</time>
      </trkpt>
      <trkpt lat="43.29505" lon="-0.27233">
        <ele>243.9</ele>
        <time>2010-12-12T11:39:36Z</time>
      </trkpt>
      <trkpt lat="43.29498" lon="-0.2723">
        <ele>244.5</ele>
        <time>2010-12-12T11:39:37Z</time>
      </trkpt>
      <trkpt lat="43.29486" lon="-0.27226">
        <ele>245.5</ele>
        <time>2010-12-12T11:39:39Z</time>
      </trkpt>
      <trkpt lat="43.29472" lon="-0.27224">
        <ele>246.2</ele>
        <time>2010-12-12T11:39:41Z</time>
      </trkpt>
      <trkpt lat="43.29459" lon="-0.27222">
        <ele>245.5</ele>
        <time>2010-12-12T11:39:42Z</time>
      </trkpt>
      <trkpt lat="43.29452" lon="-0.2722">
        <ele>245.4</ele>
        <time>2010-12-12T11:39:44Z</time>
      </trkpt>
      <trkpt lat="43.2944" lon="-0.27218">
        <ele>245.3</ele>
        <time>2010-12-12T11:39:46Z</time>
      </trkpt>
      <trkpt lat="43.29426" lon="-0.27216">
        <ele>245.8</ele>
        <time>2010-12-12T11:39:48Z</time>
      </trkpt>
      <trkpt lat="43.29413" lon="-0.27217">
        <ele>247.3</ele>
        <time>2010-12-12T11:39:49Z</time>
      </trkpt>
      <trkpt lat="43.29407" lon="-0.27217">
        <ele>247.4</ele>
        <time>2010-12-12T11:39:51Z</time>
      </trkpt>
      <trkpt lat="43.29394" lon="-0.27215">
        <ele>247.7</ele>
        <time>2010-12-12T11:39:53Z</time>
      </trkpt>
      <trkpt lat="43.29383" lon="-0.27213">
        <ele>247.8</ele>
        <time>2010-12-12T11:39:55Z</time>
      </trkpt>
      <trkpt lat="43.29369" lon="-0.27211">
        <ele>248</ele>
        <time>2010-12-12T11:39:56Z</time>
      </trkpt>
      <trkpt lat="43.29362" lon="-0.2721">
        <ele>248.6</ele>
        <time>2010-12-12T11:39:58Z</time>
      </trkpt>
      <trkpt lat="43.29349" lon="-0.27209">
        <ele>248.7</ele>
        <time>2010-12-12T11:40:00Z</time>
      </trkpt>
      <trkpt lat="43.29336" lon="-0.27206">
        <ele>249.7</ele>
        <time>2010-12-12T11:40:02Z</time>
      </trkpt>
      <trkpt lat="43.29324" lon="-0.27204">
        <ele>248.8</ele>
        <time>2010-12-12T11:40:03Z</time>
      </trkpt>
      <trkpt lat="43.29317" lon="-0.27203">
        <ele>248.9</ele>
        <time>2010-12-12T11:40:05Z</time>
      </trkpt>
      <trkpt lat="43.29302" lon="-0.272">
        <ele>248.2</ele>
        <time>2010-12-12T11:40:07Z</time>
      </trkpt>
      <trkpt lat="43.29292" lon="-0.27198">
        <ele>247.8</ele>
        <time>2010-12-12T11:40:09Z</time>
      </trkpt>
      <trkpt lat="43.29285" lon="-0.27197">
        <ele>247.5</ele>
        <time>2010-12-12T11:40:10Z</time>
      </trkpt>
      <trkpt lat="43.29273" lon="-0.27195">
        <ele>247.6</ele>
        <time>2010-12-12T11:40:12Z</time>
      </trkpt>
      <trkpt lat="43.2926" lon="-0.27191">
        <ele>247.6</ele>
        <time>2010-12-12T11:40:14Z</time>
      </trkpt>
      <trkpt lat="43.29246" lon="-0.2719">
        <ele>246.9</ele>
        <time>2010-12-12T11:40:16Z</time>
      </trkpt>
      <trkpt lat="43.29239" lon="-0.2719">
        <ele>246.8</ele>
        <time>2010-12-12T11:40:17Z</time>
      </trkpt>
      <trkpt lat="43.29226" lon="-0.27188">
        <ele>246.7</ele>
        <time>2010-12-12T11:40:19Z</time>
      </trkpt>
      <trkpt lat="43.29212" lon="-0.27185">
        <ele>246.7</ele>
        <time>2010-12-12T11:40:21Z</time>
      </trkpt>
      <trkpt lat="43.292" lon="-0.27184">
        <ele>245.5</ele>
        <time>2010-12-12T11:40:23Z</time>
      </trkpt>
      <trkpt lat="43.29195" lon="-0.27182">
        <ele>245.6</ele>
        <time>2010-12-12T11:40:24Z</time>
      </trkpt>
      <trkpt lat="43.29182" lon="-0.27179">
        <ele>245.4</ele>
        <time>2010-12-12T11:40:26Z</time>
      </trkpt>
      <trkpt lat="43.2917" lon="-0.27176">
        <ele>245.6</ele>
        <time>2010-12-12T11:40:28Z</time>
      </trkpt>
      <trkpt lat="43.29157" lon="-0.27173">
        <ele>244.8</ele>
        <time>2010-12-12T11:40:30Z</time>
      </trkpt>
      <trkpt lat="43.29151" lon="-0.27172">
        <ele>245.3</ele>
        <time>2010-12-12T11:40:31Z</time>
      </trkpt>
      <trkpt lat="43.29137" lon="-0.27169">
        <ele>244.9</ele>
        <time>2010-12-12T11:40:33Z</time>
      </trkpt>
      <trkpt lat="43.29123" lon="-0.27165">
        <ele>244.7</ele>
        <time>2010-12-12T11:40:35Z</time>
      </trkpt>
      <trkpt lat="43.29109" lon="-0.27164">
        <ele>245.5</ele>
        <time>2010-12-12T11:40:36Z</time>
      </trkpt>
      <trkpt lat="43.29103" lon="-0.27162">
        <ele>245.5</ele>
        <time>2010-12-12T11:40:38Z</time>
      </trkpt>
      <trkpt lat="43.29091" lon="-0.27161">
        <ele>245.6</ele>
        <time>2010-12-12T11:40:40Z</time>
      </trkpt>
      <trkpt lat="43.29078" lon="-0.27159">
        <ele>245.4</ele>
        <time>2010-12-12T11:40:42Z</time>
      </trkpt>
      <trkpt lat="43.29066" lon="-0.27157">
        <ele>245.4</ele>
        <time>2010-12-12T11:40:43Z</time>
      </trkpt>
      <trkpt lat="43.2906" lon="-0.27155">
        <ele>245.2</ele>
        <time>2010-12-12T11:40:45Z</time>
      </trkpt>
      <trkpt lat="43.29048" lon="-0.27154">
        <ele>245.5</ele>
        <time>2010-12-12T11:40:47Z</time>
      </trkpt>
      <trkpt lat="43.29037" lon="-0.27152">
        <ele>245.8</ele>
        <time>2010-12-12T11:40:49Z</time>
      </trkpt>
      <trkpt lat="43.29026" lon="-0.27149">
        <ele>245.6</ele>
        <time>2010-12-12T11:40:50Z</time>
      </trkpt>
      <trkpt lat="43.2902" lon="-0.27148">
        <ele>245.8</ele>
        <time>2010-12-12T11:40:52Z</time>
      </trkpt>
      <trkpt lat="43.29004" lon="-0.27146">
        <ele>245</ele>
        <time>2010-12-12T11:40:54Z</time>
      </trkpt>
      <trkpt lat="43.28998" lon="-0.27144">
        <ele>245</ele>
        <time>2010-12-12T11:40:56Z</time>
      </trkpt>
      <trkpt lat="43.28991" lon="-0.2714">
        <ele>245.7</ele>
        <time>2010-12-12T11:40:57Z</time>
      </trkpt>
      <trkpt lat="43.28986" lon="-0.27139">
        <ele>245.9</ele>
        <time>2010-12-12T11:40:59Z</time>
      </trkpt>
      <trkpt lat="43.28977" lon="-0.27135">
        <ele>246.2</ele>
        <time>2010-12-12T11:41:01Z</time>
      </trkpt>
      <trkpt lat="43.28966" lon="-0.27132">
        <ele>247.1</ele>
        <time>2010-12-12T11:41:04Z</time>
      </trkpt>
      <trkpt lat="43.28962" lon="-0.27129">
        <ele>250.2</ele>
        <time>2010-12-12T11:41:06Z</time>
      </trkpt>
      <trkpt lat="43.28956" lon="-0.27127">
        <ele>255.1</ele>
        <time>2010-12-12T11:41:09Z</time>
      </trkpt>
      <trkpt lat="43.28954" lon="-0.27126">
        <ele>256.1</ele>
        <time>2010-12-12T11:41:11Z</time>
      </trkpt>
      <trkpt lat="43.28957" lon="-0.27128">
        <ele>257.9</ele>
        <time>2010-12-12T11:41:15Z</time>
      </trkpt>
      <trkpt lat="43.28963" lon="-0.27132">
        <ele>263</ele>
        <time>2010-12-12T11:41:20Z</time>
      </trkpt>
      <trkpt lat="43.28954" lon="-0.27136">
        <ele>263.6</ele>
        <time>2010-12-12T11:41:24Z</time>
      </trkpt>
      <trkpt lat="43.28952" lon="-0.27143">
        <ele>261.9</ele>
        <time>2010-12-12T11:41:27Z</time>
      </trkpt>
      <trkpt lat="43.28947" lon="-0.27145">
        <ele>259.4</ele>
        <time>2010-12-12T11:41:29Z</time>
      </trkpt>
      <trkpt lat="43.28944" lon="-0.27147">
        <ele>257.7</ele>
        <time>2010-12-12T11:41:34Z</time>
      </trkpt>
      <trkpt lat="43.28939" lon="-0.27146">
        <ele>255.9</ele>
        <time>2010-12-12T11:41:37Z</time>
      </trkpt>
      <trkpt lat="43.28936" lon="-0.2714">
        <ele>254.5</ele>
        <time>2010-12-12T11:41:39Z</time>
      </trkpt>
      <trkpt lat="43.28929" lon="-0.27135">
        <ele>252.7</ele>
        <time>2010-12-12T11:41:41Z</time>
      </trkpt>
      <trkpt lat="43.28923" lon="-0.27132">
        <ele>252.5</ele>
        <time>2010-12-12T11:41:43Z</time>
      </trkpt>
      <trkpt lat="43.28911" lon="-0.27126">
        <ele>251.6</ele>
        <time>2010-12-12T11:41:44Z</time>
      </trkpt>
      <trkpt lat="43.28905" lon="-0.27122">
        <ele>251</ele>
        <time>2010-12-12T11:41:46Z</time>
      </trkpt>
      <trkpt lat="43.2889" lon="-0.2712">
        <ele>250.2</ele>
        <time>2010-12-12T11:41:48Z</time>
      </trkpt>
      <trkpt lat="43.28876" lon="-0.27116">
        <ele>249.9</ele>
        <time>2010-12-12T11:41:50Z</time>
      </trkpt>
      <trkpt lat="43.28861" lon="-0.27113">
        <ele>250.2</ele>
        <time>2010-12-12T11:41:51Z</time>
      </trkpt>
      <trkpt lat="43.28854" lon="-0.27112">
        <ele>249.7</ele>
        <time>2010-12-12T11:41:53Z</time>
      </trkpt>
      <trkpt lat="43.28841" lon="-0.27111">
        <ele>249.4</ele>
        <time>2010-12-12T11:41:55Z</time>
      </trkpt>
      <trkpt lat="43.28828" lon="-0.2711">
        <ele>249</ele>
        <time>2010-12-12T11:41:57Z</time>
      </trkpt>
      <trkpt lat="43.28822" lon="-0.27111">
        <ele>249.7</ele>
        <time>2010-12-12T11:41:58Z</time>
      </trkpt>
      <trkpt lat="43.28809" lon="-0.27109">
        <ele>251.6</ele>
        <time>2010-12-12T11:42:00Z</time>
      </trkpt>
      <trkpt lat="43.28798" lon="-0.27107">
        <ele>253.7</ele>
        <time>2010-12-12T11:42:02Z</time>
      </trkpt>
      <trkpt lat="43.28784" lon="-0.27111">
        <ele>253.5</ele>
        <time>2010-12-12T11:42:04Z</time>
      </trkpt>
      <trkpt lat="43.28777" lon="-0.27111">
        <ele>253</ele>
        <time>2010-12-12T11:42:05Z</time>
      </trkpt>
      <trkpt lat="43.28763" lon="-0.27112">
        <ele>251.9</ele>
        <time>2010-12-12T11:42:07Z</time>
      </trkpt>
      <trkpt lat="43.28748" lon="-0.27113">
        <ele>251.2</ele>
        <time>2010-12-12T11:42:09Z</time>
      </trkpt>
      <trkpt lat="43.28735" lon="-0.27113">
        <ele>250.6</ele>
        <time>2010-12-12T11:42:11Z</time>
      </trkpt>
      <trkpt lat="43.28728" lon="-0.27113">
        <ele>250.5</ele>
        <time>2010-12-12T11:42:12Z</time>
      </trkpt>
      <trkpt lat="43.28715" lon="-0.27114">
        <ele>250.5</ele>
        <time>2010-12-12T11:42:14Z</time>
      </trkpt>
      <trkpt lat="43.28702" lon="-0.27113">
        <ele>250.2</ele>
        <time>2010-12-12T11:42:16Z</time>
      </trkpt>
      <trkpt lat="43.28688" lon="-0.2711">
        <ele>248.7</ele>
        <time>2010-12-12T11:42:18Z</time>
      </trkpt>
      <trkpt lat="43.28681" lon="-0.27105">
        <ele>247.9</ele>
        <time>2010-12-12T11:42:19Z</time>
      </trkpt>
      <trkpt lat="43.28669" lon="-0.2709">
        <ele>244.9</ele>
        <time>2010-12-12T11:42:21Z</time>
      </trkpt>
      <trkpt lat="43.2866" lon="-0.27071">
        <ele>244.1</ele>
        <time>2010-12-12T11:42:23Z</time>
      </trkpt>
      <trkpt lat="43.28653" lon="-0.2705">
        <ele>243.3</ele>
        <time>2010-12-12T11:42:24Z</time>
      </trkpt>
      <trkpt lat="43.28648" lon="-0.27039">
        <ele>243.2</ele>
        <time>2010-12-12T11:42:26Z</time>
      </trkpt>
      <trkpt lat="43.28635" lon="-0.2702">
        <ele>240.5</ele>
        <time>2010-12-12T11:42:28Z</time>
      </trkpt>
      <trkpt lat="43.2862" lon="-0.27002">
        <ele>239.7</ele>
        <time>2010-12-12T11:42:30Z</time>
      </trkpt>
      <trkpt lat="43.28608" lon="-0.26982">
        <ele>238.6</ele>
        <time>2010-12-12T11:42:31Z</time>
      </trkpt>
      <trkpt lat="43.28602" lon="-0.26974">
        <ele>238.9</ele>
        <time>2010-12-12T11:42:33Z</time>
      </trkpt>
      <trkpt lat="43.28587" lon="-0.26955">
        <ele>239.4</ele>
        <time>2010-12-12T11:42:35Z</time>
      </trkpt>
      <trkpt lat="43.2857" lon="-0.26938">
        <ele>238.6</ele>
        <time>2010-12-12T11:42:37Z</time>
      </trkpt>
      <trkpt lat="43.28553" lon="-0.26928">
        <ele>237.9</ele>
        <time>2010-12-12T11:42:38Z</time>
      </trkpt>
      <trkpt lat="43.28543" lon="-0.26925">
        <ele>237.8</ele>
        <time>2010-12-12T11:42:40Z</time>
      </trkpt>
      <trkpt lat="43.28523" lon="-0.26919">
        <ele>237.3</ele>
        <time>2010-12-12T11:42:42Z</time>
      </trkpt>
      <trkpt lat="43.28504" lon="-0.26916">
        <ele>236.7</ele>
        <time>2010-12-12T11:42:44Z</time>
      </trkpt>
      <trkpt lat="43.28491" lon="-0.26916">
        <ele>235.6</ele>
        <time>2010-12-12T11:42:45Z</time>
      </trkpt>
      <trkpt lat="43.28474" lon="-0.26914">
        <ele>232.9</ele>
        <time>2010-12-12T11:42:47Z</time>
      </trkpt>
      <trkpt lat="43.28455" lon="-0.26913">
        <ele>231.5</ele>
        <time>2010-12-12T11:42:49Z</time>
      </trkpt>
      <trkpt lat="43.28432" lon="-0.26912">
        <ele>230.6</ele>
        <time>2010-12-12T11:42:51Z</time>
      </trkpt>
      <trkpt lat="43.28423" lon="-0.26912">
        <ele>230.4</ele>
        <time>2010-12-12T11:42:52Z</time>
      </trkpt>
      <trkpt lat="43.28404" lon="-0.26912">
        <ele>229.7</ele>
        <time>2010-12-12T11:42:54Z</time>
      </trkpt>
      <trkpt lat="43.28388" lon="-0.26911">
        <ele>229.2</ele>
        <time>2010-12-12T11:42:56Z</time>
      </trkpt>
      <trkpt lat="43.28375" lon="-0.26909">
        <ele>228.7</ele>
        <time>2010-12-12T11:42:58Z</time>
      </trkpt>
      <trkpt lat="43.28369" lon="-0.26909">
        <ele>228.7</ele>
        <time>2010-12-12T11:42:59Z</time>
      </trkpt>
      <trkpt lat="43.28357" lon="-0.2691">
        <ele>228.8</ele>
        <time>2010-12-12T11:43:01Z</time>
      </trkpt>
      <trkpt lat="43.28345" lon="-0.26911">
        <ele>227.5</ele>
        <time>2010-12-12T11:43:03Z</time>
      </trkpt>
      <trkpt lat="43.28333" lon="-0.26914">
        <ele>227.2</ele>
        <time>2010-12-12T11:43:05Z</time>
      </trkpt>
      <trkpt lat="43.28328" lon="-0.26915">
        <ele>227.1</ele>
        <time>2010-12-12T11:43:06Z</time>
      </trkpt>
      <trkpt lat="43.28317" lon="-0.26917">
        <ele>226.7</ele>
        <time>2010-12-12T11:43:08Z</time>
      </trkpt>
      <trkpt lat="43.28306" lon="-0.26923">
        <ele>226.8</ele>
        <time>2010-12-12T11:43:10Z</time>
      </trkpt>
      <trkpt lat="43.28291" lon="-0.2693">
        <ele>226.7</ele>
        <time>2010-12-12T11:43:12Z</time>
      </trkpt>
      <trkpt lat="43.28284" lon="-0.26933">
        <ele>226.7</ele>
        <time>2010-12-12T11:43:13Z</time>
      </trkpt>
      <trkpt lat="43.28271" lon="-0.26939">
        <ele>226.7</ele>
        <time>2010-12-12T11:43:15Z</time>
      </trkpt>
      <trkpt lat="43.2826" lon="-0.26947">
        <ele>227.1</ele>
        <time>2010-12-12T11:43:17Z</time>
      </trkpt>
      <trkpt lat="43.28248" lon="-0.26953">
        <ele>227.1</ele>
        <time>2010-12-12T11:43:18Z</time>
      </trkpt>
      <trkpt lat="43.28241" lon="-0.26954">
        <ele>227.4</ele>
        <time>2010-12-12T11:43:20Z</time>
      </trkpt>
      <trkpt lat="43.28227" lon="-0.26958">
        <ele>227.6</ele>
        <time>2010-12-12T11:43:22Z</time>
      </trkpt>
      <trkpt lat="43.28214" lon="-0.26961">
        <ele>228.3</ele>
        <time>2010-12-12T11:43:24Z</time>
      </trkpt>
      <trkpt lat="43.28203" lon="-0.2696">
        <ele>229.3</ele>
        <time>2010-12-12T11:43:25Z</time>
      </trkpt>
      <trkpt lat="43.28196" lon="-0.26959">
        <ele>229.5</ele>
        <time>2010-12-12T11:43:27Z</time>
      </trkpt>
      <trkpt lat="43.28182" lon="-0.2696">
        <ele>230</ele>
        <time>2010-12-12T11:43:29Z</time>
      </trkpt>
      <trkpt lat="43.28168" lon="-0.26962">
        <ele>229.9</ele>
        <time>2010-12-12T11:43:31Z</time>
      </trkpt>
      <trkpt lat="43.28153" lon="-0.26966">
        <ele>229.4</ele>
        <time>2010-12-12T11:43:32Z</time>
      </trkpt>
      <trkpt lat="43.28143" lon="-0.26968">
        <ele>230.2</ele>
        <time>2010-12-12T11:43:34Z</time>
      </trkpt>
      <trkpt lat="43.28132" lon="-0.26969">
        <ele>230.8</ele>
        <time>2010-12-12T11:43:36Z</time>
      </trkpt>
      <trkpt lat="43.28128" lon="-0.2697">
        <ele>231.6</ele>
        <time>2010-12-12T11:43:38Z</time>
      </trkpt>
      <trkpt lat="43.28114" lon="-0.26969">
        <ele>230.6</ele>
        <time>2010-12-12T11:43:39Z</time>
      </trkpt>
      <trkpt lat="43.28105" lon="-0.2697">
        <ele>229.9</ele>
        <time>2010-12-12T11:43:41Z</time>
      </trkpt>
      <trkpt lat="43.2809" lon="-0.26974">
        <ele>229.3</ele>
        <time>2010-12-12T11:43:43Z</time>
      </trkpt>
      <trkpt lat="43.28076" lon="-0.26976">
        <ele>229.1</ele>
        <time>2010-12-12T11:43:45Z</time>
      </trkpt>
      <trkpt lat="43.28068" lon="-0.26977">
        <ele>228.1</ele>
        <time>2010-12-12T11:43:46Z</time>
      </trkpt>
      <trkpt lat="43.28053" lon="-0.26979">
        <ele>227.2</ele>
        <time>2010-12-12T11:43:48Z</time>
      </trkpt>
      <trkpt lat="43.2804" lon="-0.2698">
        <ele>226.2</ele>
        <time>2010-12-12T11:43:50Z</time>
      </trkpt>
      <trkpt lat="43.28026" lon="-0.26982">
        <ele>226</ele>
        <time>2010-12-12T11:43:52Z</time>
      </trkpt>
      <trkpt lat="43.2802" lon="-0.26983">
        <ele>226.1</ele>
        <time>2010-12-12T11:43:53Z</time>
      </trkpt>
      <trkpt lat="43.28006" lon="-0.26987">
        <ele>226</ele>
        <time>2010-12-12T11:43:55Z</time>
      </trkpt>
      <trkpt lat="43.27994" lon="-0.26992">
        <ele>226</ele>
        <time>2010-12-12T11:43:57Z</time>
      </trkpt>
      <trkpt lat="43.27982" lon="-0.27001">
        <ele>226.2</ele>
        <time>2010-12-12T11:43:59Z</time>
      </trkpt>
      <trkpt lat="43.27977" lon="-0.27004">
        <ele>226.2</ele>
        <time>2010-12-12T11:44:00Z</time>
      </trkpt>
      <trkpt lat="43.27966" lon="-0.27009">
        <ele>226.3</ele>
        <time>2010-12-12T11:44:02Z</time>
      </trkpt>
      <trkpt lat="43.27953" lon="-0.27011">
        <ele>227.9</ele>
        <time>2010-12-12T11:44:04Z</time>
      </trkpt>
      <trkpt lat="43.27942" lon="-0.27013">
        <ele>228.5</ele>
        <time>2010-12-12T11:44:06Z</time>
      </trkpt>
      <trkpt lat="43.27934" lon="-0.27015">
        <ele>229.1</ele>
        <time>2010-12-12T11:44:07Z</time>
      </trkpt>
      <trkpt lat="43.27919" lon="-0.27019">
        <ele>229.2</ele>
        <time>2010-12-12T11:44:09Z</time>
      </trkpt>
      <trkpt lat="43.27906" lon="-0.27023">
        <ele>228.8</ele>
        <time>2010-12-12T11:44:11Z</time>
      </trkpt>
      <trkpt lat="43.27893" lon="-0.27026">
        <ele>228.5</ele>
        <time>2010-12-12T11:44:12Z</time>
      </trkpt>
      <trkpt lat="43.27888" lon="-0.27027">
        <ele>228.4</ele>
        <time>2010-12-12T11:44:14Z</time>
      </trkpt>
      <trkpt lat="43.27876" lon="-0.27028">
        <ele>228.5</ele>
        <time>2010-12-12T11:44:16Z</time>
      </trkpt>
      <trkpt lat="43.27862" lon="-0.27029">
        <ele>228.9</ele>
        <time>2010-12-12T11:44:18Z</time>
      </trkpt>
      <trkpt lat="43.27849" lon="-0.27026">
        <ele>228.5</ele>
        <time>2010-12-12T11:44:19Z</time>
      </trkpt>
      <trkpt lat="43.27842" lon="-0.27023">
        <ele>228.5</ele>
        <time>2010-12-12T11:44:21Z</time>
      </trkpt>
      <trkpt lat="43.27831" lon="-0.27015">
        <ele>228.4</ele>
        <time>2010-12-12T11:44:23Z</time>
      </trkpt>
      <trkpt lat="43.27821" lon="-0.27005">
        <ele>228.6</ele>
        <time>2010-12-12T11:44:25Z</time>
      </trkpt>
      <trkpt lat="43.27815" lon="-0.26996">
        <ele>229.9</ele>
        <time>2010-12-12T11:44:26Z</time>
      </trkpt>
      <trkpt lat="43.27808" lon="-0.2699">
        <ele>230.6</ele>
        <time>2010-12-12T11:44:28Z</time>
      </trkpt>
      <trkpt lat="43.27805" lon="-0.26987">
        <ele>230.6</ele>
        <time>2010-12-12T11:44:30Z</time>
      </trkpt>
      <trkpt lat="43.27799" lon="-0.26982">
        <ele>230.8</ele>
        <time>2010-12-12T11:44:32Z</time>
      </trkpt>
      <trkpt lat="43.27793" lon="-0.26976">
        <ele>230.5</ele>
        <time>2010-12-12T11:44:33Z</time>
      </trkpt>
      <trkpt lat="43.27785" lon="-0.26972">
        <ele>229.5</ele>
        <time>2010-12-12T11:44:35Z</time>
      </trkpt>
      <trkpt lat="43.27777" lon="-0.2697">
        <ele>229.3</ele>
        <time>2010-12-12T11:44:37Z</time>
      </trkpt>
      <trkpt lat="43.27769" lon="-0.26972">
        <ele>229.5</ele>
        <time>2010-12-12T11:44:40Z</time>
      </trkpt>
      <trkpt lat="43.27763" lon="-0.26975">
        <ele>230</ele>
        <time>2010-12-12T11:44:42Z</time>
      </trkpt>
      <trkpt lat="43.27756" lon="-0.26979">
        <ele>230.2</ele>
        <time>2010-12-12T11:44:44Z</time>
      </trkpt>
      <trkpt lat="43.2775" lon="-0.26983">
        <ele>230.7</ele>
        <time>2010-12-12T11:44:46Z</time>
      </trkpt>
      <trkpt lat="43.27745" lon="-0.26988">
        <ele>230.9</ele>
        <time>2010-12-12T11:44:47Z</time>
      </trkpt>
      <trkpt lat="43.27739" lon="-0.26994">
        <ele>231.5</ele>
        <time>2010-12-12T11:44:49Z</time>
      </trkpt>
      <trkpt lat="43.27734" lon="-0.27">
        <ele>231.8</ele>
        <time>2010-12-12T11:44:51Z</time>
      </trkpt>
      <trkpt lat="43.2773" lon="-0.27004">
        <ele>232.1</ele>
        <time>2010-12-12T11:44:53Z</time>
      </trkpt>
      <trkpt lat="43.27725" lon="-0.27008">
        <ele>232.8</ele>
        <time>2010-12-12T11:44:54Z</time>
      </trkpt>
      <trkpt lat="43.2772" lon="-0.27014">
        <ele>233.5</ele>
        <time>2010-12-12T11:44:56Z</time>
      </trkpt>
      <trkpt lat="43.27715" lon="-0.27019">
        <ele>233.6</ele>
        <time>2010-12-12T11:44:58Z</time>
      </trkpt>
      <trkpt lat="43.2771" lon="-0.27023">
        <ele>233.5</ele>
        <time>2010-12-12T11:45:00Z</time>
      </trkpt>
      <trkpt lat="43.27705" lon="-0.27024">
        <ele>234.3</ele>
        <time>2010-12-12T11:45:01Z</time>
      </trkpt>
      <trkpt lat="43.27699" lon="-0.27026">
        <ele>235.4</ele>
        <time>2010-12-12T11:45:03Z</time>
      </trkpt>
      <trkpt lat="43.27693" lon="-0.27027">
        <ele>236.7</ele>
        <time>2010-12-12T11:45:05Z</time>
      </trkpt>
      <trkpt lat="43.27686" lon="-0.27027">
        <ele>238.2</ele>
        <time>2010-12-12T11:45:08Z</time>
      </trkpt>
      <trkpt lat="43.27678" lon="-0.27027">
        <ele>239.1</ele>
        <time>2010-12-12T11:45:10Z</time>
      </trkpt>
      <trkpt lat="43.27671" lon="-0.27023">
        <ele>238.9</ele>
        <time>2010-12-12T11:45:12Z</time>
      </trkpt>
      <trkpt lat="43.27665" lon="-0.27019">
        <ele>238.9</ele>
        <time>2010-12-12T11:45:14Z</time>
      </trkpt>
      <trkpt lat="43.27658" lon="-0.27016">
        <ele>238.9</ele>
        <time>2010-12-12T11:45:17Z</time>
      </trkpt>
      <trkpt lat="43.2765" lon="-0.27013">
        <ele>238</ele>
        <time>2010-12-12T11:45:19Z</time>
      </trkpt>
      <trkpt lat="43.27644" lon="-0.2701">
        <ele>237.7</ele>
        <time>2010-12-12T11:45:20Z</time>
      </trkpt>
      <trkpt lat="43.27639" lon="-0.27006">
        <ele>237.8</ele>
        <time>2010-12-12T11:45:22Z</time>
      </trkpt>
      <trkpt lat="43.27636" lon="-0.27003">
        <ele>237.8</ele>
        <time>2010-12-12T11:45:24Z</time>
      </trkpt>
      <trkpt lat="43.2763" lon="-0.26997">
        <ele>239.1</ele>
        <time>2010-12-12T11:45:26Z</time>
      </trkpt>
      <trkpt lat="43.27621" lon="-0.26989">
        <ele>240.2</ele>
        <time>2010-12-12T11:45:29Z</time>
      </trkpt>
      <trkpt lat="43.27618" lon="-0.26984">
        <ele>241.6</ele>
        <time>2010-12-12T11:45:31Z</time>
      </trkpt>
      <trkpt lat="43.27615" lon="-0.26978">
        <ele>243</ele>
        <time>2010-12-12T11:45:33Z</time>
      </trkpt>
      <trkpt lat="43.2761" lon="-0.26972">
        <ele>244.1</ele>
        <time>2010-12-12T11:45:34Z</time>
      </trkpt>
      <trkpt lat="43.27606" lon="-0.26967">
        <ele>244.4</ele>
        <time>2010-12-12T11:45:36Z</time>
      </trkpt>
      <trkpt lat="43.27601" lon="-0.26961">
        <ele>244.7</ele>
        <time>2010-12-12T11:45:38Z</time>
      </trkpt>
      <trkpt lat="43.27597" lon="-0.26955">
        <ele>244.3</ele>
        <time>2010-12-12T11:45:41Z</time>
      </trkpt>
      <trkpt lat="43.27591" lon="-0.26949">
        <ele>245.2</ele>
        <time>2010-12-12T11:45:43Z</time>
      </trkpt>
      <trkpt lat="43.27584" lon="-0.26942">
        <ele>245.8</ele>
        <time>2010-12-12T11:45:45Z</time>
      </trkpt>
      <trkpt lat="43.27577" lon="-0.26934">
        <ele>246.4</ele>
        <time>2010-12-12T11:45:47Z</time>
      </trkpt>
      <trkpt lat="43.27572" lon="-0.2693">
        <ele>246.7</ele>
        <time>2010-12-12T11:45:48Z</time>
      </trkpt>
      <trkpt lat="43.27564" lon="-0.26921">
        <ele>245.1</ele>
        <time>2010-12-12T11:45:50Z</time>
      </trkpt>
      <trkpt lat="43.27559" lon="-0.26914">
        <ele>245.9</ele>
        <time>2010-12-12T11:45:52Z</time>
      </trkpt>
      <trkpt lat="43.27552" lon="-0.26908">
        <ele>246.2</ele>
        <time>2010-12-12T11:45:54Z</time>
      </trkpt>
      <trkpt lat="43.2755" lon="-0.26905">
        <ele>247.2</ele>
        <time>2010-12-12T11:45:55Z</time>
      </trkpt>
      <trkpt lat="43.27544" lon="-0.26898">
        <ele>247.5</ele>
        <time>2010-12-12T11:45:57Z</time>
      </trkpt>
      <trkpt lat="43.27539" lon="-0.26892">
        <ele>247.4</ele>
        <time>2010-12-12T11:45:59Z</time>
      </trkpt>
      <trkpt lat="43.27533" lon="-0.26885">
        <ele>247.2</ele>
        <time>2010-12-12T11:46:00Z</time>
      </trkpt>
      <trkpt lat="43.27528" lon="-0.26881">
        <ele>247.3</ele>
        <time>2010-12-12T11:46:02Z</time>
      </trkpt>
      <trkpt lat="43.27518" lon="-0.26875">
        <ele>247.1</ele>
        <time>2010-12-12T11:46:04Z</time>
      </trkpt>
      <trkpt lat="43.2751" lon="-0.26868">
        <ele>246.9</ele>
        <time>2010-12-12T11:46:06Z</time>
      </trkpt>
      <trkpt lat="43.27501" lon="-0.26858">
        <ele>246.6</ele>
        <time>2010-12-12T11:46:09Z</time>
      </trkpt>
      <trkpt lat="43.27495" lon="-0.26852">
        <ele>246.8</ele>
        <time>2010-12-12T11:46:11Z</time>
      </trkpt>
      <trkpt lat="43.2749" lon="-0.26844">
        <ele>246.3</ele>
        <time>2010-12-12T11:46:13Z</time>
      </trkpt>
      <trkpt lat="43.27483" lon="-0.26838">
        <ele>246.1</ele>
        <time>2010-12-12T11:46:14Z</time>
      </trkpt>
      <trkpt lat="43.27478" lon="-0.26831">
        <ele>245.9</ele>
        <time>2010-12-12T11:46:16Z</time>
      </trkpt>
      <trkpt lat="43.27472" lon="-0.26826">
        <ele>247.1</ele>
        <time>2010-12-12T11:46:18Z</time>
      </trkpt>
      <trkpt lat="43.27466" lon="-0.26821">
        <ele>248.1</ele>
        <time>2010-12-12T11:46:21Z</time>
      </trkpt>
      <trkpt lat="43.27457" lon="-0.26815">
        <ele>248.9</ele>
        <time>2010-12-12T11:46:23Z</time>
      </trkpt>
      <trkpt lat="43.27449" lon="-0.26812">
        <ele>249.2</ele>
        <time>2010-12-12T11:46:25Z</time>
      </trkpt>
      <trkpt lat="43.27442" lon="-0.26807">
        <ele>248.8</ele>
        <time>2010-12-12T11:46:27Z</time>
      </trkpt>
      <trkpt lat="43.27437" lon="-0.26804">
        <ele>249.7</ele>
        <time>2010-12-12T11:46:28Z</time>
      </trkpt>
      <trkpt lat="43.27434" lon="-0.26802">
        <ele>249.3</ele>
        <time>2010-12-12T11:46:30Z</time>
      </trkpt>
      <trkpt lat="43.27423" lon="-0.26794">
        <ele>249.7</ele>
        <time>2010-12-12T11:46:32Z</time>
      </trkpt>
      <trkpt lat="43.27419" lon="-0.26792">
        <ele>248.7</ele>
        <time>2010-12-12T11:46:34Z</time>
      </trkpt>
      <trkpt lat="43.27413" lon="-0.26789">
        <ele>248.5</ele>
        <time>2010-12-12T11:46:35Z</time>
      </trkpt>
      <trkpt lat="43.274" lon="-0.26778">
        <ele>248.3</ele>
        <time>2010-12-12T11:46:37Z</time>
      </trkpt>
      <trkpt lat="43.27391" lon="-0.26773">
        <ele>248.6</ele>
        <time>2010-12-12T11:46:39Z</time>
      </trkpt>
      <trkpt lat="43.27386" lon="-0.26772">
        <ele>249.1</ele>
        <time>2010-12-12T11:46:41Z</time>
      </trkpt>
      <trkpt lat="43.2738" lon="-0.26769">
        <ele>249.8</ele>
        <time>2010-12-12T11:46:42Z</time>
      </trkpt>
      <trkpt lat="43.27371" lon="-0.26763">
        <ele>250.1</ele>
        <time>2010-12-12T11:46:44Z</time>
      </trkpt>
      <trkpt lat="43.27362" lon="-0.26758">
        <ele>250.6</ele>
        <time>2010-12-12T11:46:46Z</time>
      </trkpt>
      <trkpt lat="43.2735" lon="-0.26751">
        <ele>250.2</ele>
        <time>2010-12-12T11:46:49Z</time>
      </trkpt>
      <trkpt lat="43.27339" lon="-0.26746">
        <ele>250.3</ele>
        <time>2010-12-12T11:46:51Z</time>
      </trkpt>
      <trkpt lat="43.27331" lon="-0.26741">
        <ele>250.2</ele>
        <time>2010-12-12T11:46:53Z</time>
      </trkpt>
      <trkpt lat="43.27318" lon="-0.26734">
        <ele>250.8</ele>
        <time>2010-12-12T11:46:56Z</time>
      </trkpt>
      <trkpt lat="43.27309" lon="-0.26729">
        <ele>251.8</ele>
        <time>2010-12-12T11:46:58Z</time>
      </trkpt>
      <trkpt lat="43.27296" lon="-0.26724">
        <ele>252</ele>
        <time>2010-12-12T11:47:00Z</time>
      </trkpt>
      <trkpt lat="43.27292" lon="-0.26722">
        <ele>252.4</ele>
        <time>2010-12-12T11:47:01Z</time>
      </trkpt>
      <trkpt lat="43.27286" lon="-0.2672">
        <ele>252.5</ele>
        <time>2010-12-12T11:47:03Z</time>
      </trkpt>
      <trkpt lat="43.27275" lon="-0.26716">
        <ele>252.4</ele>
        <time>2010-12-12T11:47:05Z</time>
      </trkpt>
      <trkpt lat="43.27265" lon="-0.26715">
        <ele>251.6</ele>
        <time>2010-12-12T11:47:07Z</time>
      </trkpt>
      <trkpt lat="43.2725" lon="-0.26716">
        <ele>253</ele>
        <time>2010-12-12T11:47:10Z</time>
      </trkpt>
      <trkpt lat="43.27239" lon="-0.26717">
        <ele>253.5</ele>
        <time>2010-12-12T11:47:12Z</time>
      </trkpt>
      <trkpt lat="43.27226" lon="-0.26718">
        <ele>253.9</ele>
        <time>2010-12-12T11:47:14Z</time>
      </trkpt>
      <trkpt lat="43.27221" lon="-0.2672">
        <ele>254</ele>
        <time>2010-12-12T11:47:15Z</time>
      </trkpt>
      <trkpt lat="43.27213" lon="-0.26722">
        <ele>253.7</ele>
        <time>2010-12-12T11:47:17Z</time>
      </trkpt>
      <trkpt lat="43.27208" lon="-0.26722">
        <ele>254.7</ele>
        <time>2010-12-12T11:47:19Z</time>
      </trkpt>
      <trkpt lat="43.27198" lon="-0.26724">
        <ele>255.1</ele>
        <time>2010-12-12T11:47:21Z</time>
      </trkpt>
      <trkpt lat="43.27193" lon="-0.26724">
        <ele>255.6</ele>
        <time>2010-12-12T11:47:22Z</time>
      </trkpt>
      <trkpt lat="43.27183" lon="-0.26727">
        <ele>255.9</ele>
        <time>2010-12-12T11:47:24Z</time>
      </trkpt>
      <trkpt lat="43.27174" lon="-0.26729">
        <ele>256</ele>
        <time>2010-12-12T11:47:26Z</time>
      </trkpt>
      <trkpt lat="43.27165" lon="-0.26729">
        <ele>256.2</ele>
        <time>2010-12-12T11:47:28Z</time>
      </trkpt>
      <trkpt lat="43.2716" lon="-0.2673">
        <ele>256</ele>
        <time>2010-12-12T11:47:29Z</time>
      </trkpt>
      <trkpt lat="43.27146" lon="-0.26729">
        <ele>257</ele>
        <time>2010-12-12T11:47:31Z</time>
      </trkpt>
      <trkpt lat="43.27142" lon="-0.26728">
        <ele>257.2</ele>
        <time>2010-12-12T11:47:33Z</time>
      </trkpt>
      <trkpt lat="43.27129" lon="-0.26726">
        <ele>257.3</ele>
        <time>2010-12-12T11:47:36Z</time>
      </trkpt>
      <trkpt lat="43.27121" lon="-0.26722">
        <ele>257.1</ele>
        <time>2010-12-12T11:47:38Z</time>
      </trkpt>
      <trkpt lat="43.27111" lon="-0.26718">
        <ele>257</ele>
        <time>2010-12-12T11:47:40Z</time>
      </trkpt>
      <trkpt lat="43.27102" lon="-0.26714">
        <ele>257.6</ele>
        <time>2010-12-12T11:47:42Z</time>
      </trkpt>
      <trkpt lat="43.27094" lon="-0.2671">
        <ele>257.6</ele>
        <time>2010-12-12T11:47:43Z</time>
      </trkpt>
      <trkpt lat="43.27089" lon="-0.26707">
        <ele>257.7</ele>
        <time>2010-12-12T11:47:45Z</time>
      </trkpt>
      <trkpt lat="43.27078" lon="-0.267">
        <ele>258.3</ele>
        <time>2010-12-12T11:47:47Z</time>
      </trkpt>
      <trkpt lat="43.2707" lon="-0.26695">
        <ele>259</ele>
        <time>2010-12-12T11:47:50Z</time>
      </trkpt>
      <trkpt lat="43.27061" lon="-0.26689">
        <ele>259.7</ele>
        <time>2010-12-12T11:47:52Z</time>
      </trkpt>
      <trkpt lat="43.27054" lon="-0.26684">
        <ele>260.1</ele>
        <time>2010-12-12T11:47:54Z</time>
      </trkpt>
      <trkpt lat="43.27047" lon="-0.26677">
        <ele>260.2</ele>
        <time>2010-12-12T11:47:55Z</time>
      </trkpt>
      <trkpt lat="43.27044" lon="-0.26673">
        <ele>260</ele>
        <time>2010-12-12T11:47:57Z</time>
      </trkpt>
      <trkpt lat="43.27036" lon="-0.26664">
        <ele>259.8</ele>
        <time>2010-12-12T11:47:59Z</time>
      </trkpt>
      <trkpt lat="43.27026" lon="-0.26652">
        <ele>259.3</ele>
        <time>2010-12-12T11:48:01Z</time>
      </trkpt>
      <trkpt lat="43.27016" lon="-0.26641">
        <ele>259.1</ele>
        <time>2010-12-12T11:48:02Z</time>
      </trkpt>
      <trkpt lat="43.27013" lon="-0.26637">
        <ele>258.9</ele>
        <time>2010-12-12T11:48:04Z</time>
      </trkpt>
      <trkpt lat="43.27002" lon="-0.26624">
        <ele>259.1</ele>
        <time>2010-12-12T11:48:06Z</time>
      </trkpt>
      <trkpt lat="43.27" lon="-0.26621">
        <ele>259.3</ele>
        <time>2010-12-12T11:48:08Z</time>
      </trkpt>
      <trkpt lat="43.26995" lon="-0.26617">
        <ele>259.6</ele>
        <time>2010-12-12T11:48:09Z</time>
      </trkpt>
      <trkpt lat="43.26986" lon="-0.26607">
        <ele>259.6</ele>
        <time>2010-12-12T11:48:11Z</time>
      </trkpt>
      <trkpt lat="43.26977" lon="-0.266">
        <ele>259.1</ele>
        <time>2010-12-12T11:48:13Z</time>
      </trkpt>
      <trkpt lat="43.26965" lon="-0.26592">
        <ele>258.6</ele>
        <time>2010-12-12T11:48:16Z</time>
      </trkpt>
      <trkpt lat="43.26957" lon="-0.26587">
        <ele>258.9</ele>
        <time>2010-12-12T11:48:18Z</time>
      </trkpt>
      <trkpt lat="43.26944" lon="-0.26584">
        <ele>260.2</ele>
        <time>2010-12-12T11:48:20Z</time>
      </trkpt>
      <trkpt lat="43.2694" lon="-0.26583">
        <ele>259.3</ele>
        <time>2010-12-12T11:48:22Z</time>
      </trkpt>
      <trkpt lat="43.26935" lon="-0.26583">
        <ele>259.6</ele>
        <time>2010-12-12T11:48:23Z</time>
      </trkpt>
      <trkpt lat="43.26926" lon="-0.26583">
        <ele>260.4</ele>
        <time>2010-12-12T11:48:25Z</time>
      </trkpt>
      <trkpt lat="43.26912" lon="-0.26577">
        <ele>261.7</ele>
        <time>2010-12-12T11:48:27Z</time>
      </trkpt>
      <trkpt lat="43.26909" lon="-0.26575">
        <ele>262</ele>
        <time>2010-12-12T11:48:29Z</time>
      </trkpt>
      <trkpt lat="43.26901" lon="-0.26571">
        <ele>261.7</ele>
        <time>2010-12-12T11:48:30Z</time>
      </trkpt>
      <trkpt lat="43.26897" lon="-0.26568">
        <ele>261.9</ele>
        <time>2010-12-12T11:48:32Z</time>
      </trkpt>
      <trkpt lat="43.26885" lon="-0.26559">
        <ele>263.5</ele>
        <time>2010-12-12T11:48:34Z</time>
      </trkpt>
      <trkpt lat="43.26882" lon="-0.26556">
        <ele>264.7</ele>
        <time>2010-12-12T11:48:36Z</time>
      </trkpt>
      <trkpt lat="43.26878" lon="-0.26553">
        <ele>265.3</ele>
        <time>2010-12-12T11:48:37Z</time>
      </trkpt>
      <trkpt lat="43.26872" lon="-0.26548">
        <ele>265.4</ele>
        <time>2010-12-12T11:48:39Z</time>
      </trkpt>
      <trkpt lat="43.26866" lon="-0.26545">
        <ele>266.6</ele>
        <time>2010-12-12T11:48:41Z</time>
      </trkpt>
      <trkpt lat="43.26859" lon="-0.26542">
        <ele>267.3</ele>
        <time>2010-12-12T11:48:42Z</time>
      </trkpt>
      <trkpt lat="43.26853" lon="-0.26538">
        <ele>267.3</ele>
        <time>2010-12-12T11:48:44Z</time>
      </trkpt>
      <trkpt lat="43.2685" lon="-0.26536">
        <ele>267.3</ele>
        <time>2010-12-12T11:48:46Z</time>
      </trkpt>
      <trkpt lat="43.26843" lon="-0.26532">
        <ele>267.7</ele>
        <time>2010-12-12T11:48:48Z</time>
      </trkpt>
      <trkpt lat="43.26839" lon="-0.26528">
        <ele>267.9</ele>
        <time>2010-12-12T11:48:49Z</time>
      </trkpt>
      <trkpt lat="43.26832" lon="-0.26523">
        <ele>268.3</ele>
        <time>2010-12-12T11:48:51Z</time>
      </trkpt>
      <trkpt lat="43.26827" lon="-0.26519">
        <ele>268.8</ele>
        <time>2010-12-12T11:48:53Z</time>
      </trkpt>
      <trkpt lat="43.2682" lon="-0.26516">
        <ele>269.4</ele>
        <time>2010-12-12T11:48:55Z</time>
      </trkpt>
      <trkpt lat="43.26813" lon="-0.26514">
        <ele>269.5</ele>
        <time>2010-12-12T11:48:58Z</time>
      </trkpt>
      <trkpt lat="43.26799" lon="-0.26512">
        <ele>269.4</ele>
        <time>2010-12-12T11:49:00Z</time>
      </trkpt>
      <trkpt lat="43.26792" lon="-0.26516">
        <ele>269.4</ele>
        <time>2010-12-12T11:49:02Z</time>
      </trkpt>
      <trkpt lat="43.26789" lon="-0.26518">
        <ele>270.6</ele>
        <time>2010-12-12T11:49:05Z</time>
      </trkpt>
      <trkpt lat="43.26783" lon="-0.26522">
        <ele>273</ele>
        <time>2010-12-12T11:49:07Z</time>
      </trkpt>
      <trkpt lat="43.26774" lon="-0.2653">
        <ele>276.3</ele>
        <time>2010-12-12T11:49:10Z</time>
      </trkpt>
      <trkpt lat="43.26769" lon="-0.26538">
        <ele>276.8</ele>
        <time>2010-12-12T11:49:12Z</time>
      </trkpt>
      <trkpt lat="43.26762" lon="-0.26547">
        <ele>276.4</ele>
        <time>2010-12-12T11:49:14Z</time>
      </trkpt>
      <trkpt lat="43.26755" lon="-0.26556">
        <ele>277.2</ele>
        <time>2010-12-12T11:49:16Z</time>
      </trkpt>
      <trkpt lat="43.26751" lon="-0.26561">
        <ele>276.8</ele>
        <time>2010-12-12T11:49:17Z</time>
      </trkpt>
      <trkpt lat="43.26743" lon="-0.26569">
        <ele>277</ele>
        <time>2010-12-12T11:49:19Z</time>
      </trkpt>
      <trkpt lat="43.2673" lon="-0.26577">
        <ele>275.7</ele>
        <time>2010-12-12T11:49:21Z</time>
      </trkpt>
      <trkpt lat="43.26717" lon="-0.26586">
        <ele>274.5</ele>
        <time>2010-12-12T11:49:23Z</time>
      </trkpt>
      <trkpt lat="43.26711" lon="-0.2659">
        <ele>273.7</ele>
        <time>2010-12-12T11:49:24Z</time>
      </trkpt>
      <trkpt lat="43.26699" lon="-0.26598">
        <ele>272.4</ele>
        <time>2010-12-12T11:49:26Z</time>
      </trkpt>
      <trkpt lat="43.26687" lon="-0.26607">
        <ele>271.3</ele>
        <time>2010-12-12T11:49:28Z</time>
      </trkpt>
      <trkpt lat="43.26682" lon="-0.26619">
        <ele>270.7</ele>
        <time>2010-12-12T11:49:30Z</time>
      </trkpt>
      <trkpt lat="43.26681" lon="-0.26626">
        <ele>270.6</ele>
        <time>2010-12-12T11:49:31Z</time>
      </trkpt>
      <trkpt lat="43.26679" lon="-0.26637">
        <ele>269.7</ele>
        <time>2010-12-12T11:49:33Z</time>
      </trkpt>
      <trkpt lat="43.26674" lon="-0.26652">
        <ele>269.9</ele>
        <time>2010-12-12T11:49:35Z</time>
      </trkpt>
      <trkpt lat="43.26663" lon="-0.26665">
        <ele>269.6</ele>
        <time>2010-12-12T11:49:36Z</time>
      </trkpt>
      <trkpt lat="43.26659" lon="-0.26672">
        <ele>269.7</ele>
        <time>2010-12-12T11:49:38Z</time>
      </trkpt>
      <trkpt lat="43.26646" lon="-0.26689">
        <ele>268.6</ele>
        <time>2010-12-12T11:49:40Z</time>
      </trkpt>
      <trkpt lat="43.26634" lon="-0.26705">
        <ele>267.7</ele>
        <time>2010-12-12T11:49:42Z</time>
      </trkpt>
      <trkpt lat="43.26621" lon="-0.26722">
        <ele>267.7</ele>
        <time>2010-12-12T11:49:43Z</time>
      </trkpt>
      <trkpt lat="43.26615" lon="-0.26729">
        <ele>267.2</ele>
        <time>2010-12-12T11:49:45Z</time>
      </trkpt>
      <trkpt lat="43.26603" lon="-0.26743">
        <ele>266.8</ele>
        <time>2010-12-12T11:49:47Z</time>
      </trkpt>
      <trkpt lat="43.26592" lon="-0.26753">
        <ele>265.8</ele>
        <time>2010-12-12T11:49:49Z</time>
      </trkpt>
      <trkpt lat="43.26582" lon="-0.26764">
        <ele>265.5</ele>
        <time>2010-12-12T11:49:50Z</time>
      </trkpt>
      <trkpt lat="43.26578" lon="-0.2677">
        <ele>265.8</ele>
        <time>2010-12-12T11:49:52Z</time>
      </trkpt>
      <trkpt lat="43.2657" lon="-0.26782">
        <ele>265.4</ele>
        <time>2010-12-12T11:49:54Z</time>
      </trkpt>
      <trkpt lat="43.2656" lon="-0.26792">
        <ele>265.4</ele>
        <time>2010-12-12T11:49:56Z</time>
      </trkpt>
      <trkpt lat="43.26556" lon="-0.26798">
        <ele>264.9</ele>
        <time>2010-12-12T11:49:57Z</time>
      </trkpt>
      <trkpt lat="43.26547" lon="-0.26813">
        <ele>263.5</ele>
        <time>2010-12-12T11:49:59Z</time>
      </trkpt>
      <trkpt lat="43.26537" lon="-0.26827">
        <ele>262.7</ele>
        <time>2010-12-12T11:50:01Z</time>
      </trkpt>
      <trkpt lat="43.26529" lon="-0.26842">
        <ele>262</ele>
        <time>2010-12-12T11:50:03Z</time>
      </trkpt>
      <trkpt lat="43.26524" lon="-0.2685">
        <ele>261.5</ele>
        <time>2010-12-12T11:50:04Z</time>
      </trkpt>
      <trkpt lat="43.26514" lon="-0.26869">
        <ele>261.3</ele>
        <time>2010-12-12T11:50:06Z</time>
      </trkpt>
      <trkpt lat="43.26504" lon="-0.26889">
        <ele>261.5</ele>
        <time>2010-12-12T11:50:08Z</time>
      </trkpt>
      <trkpt lat="43.26494" lon="-0.26908">
        <ele>260.7</ele>
        <time>2010-12-12T11:50:10Z</time>
      </trkpt>
      <trkpt lat="43.26489" lon="-0.26918">
        <ele>260.7</ele>
        <time>2010-12-12T11:50:11Z</time>
      </trkpt>
      <trkpt lat="43.2648" lon="-0.26937">
        <ele>260.6</ele>
        <time>2010-12-12T11:50:13Z</time>
      </trkpt>
      <trkpt lat="43.26468" lon="-0.26955">
        <ele>261.3</ele>
        <time>2010-12-12T11:50:15Z</time>
      </trkpt>
      <trkpt lat="43.26457" lon="-0.26972">
        <ele>260.3</ele>
        <time>2010-12-12T11:50:17Z</time>
      </trkpt>
      <trkpt lat="43.26453" lon="-0.26982">
        <ele>259.4</ele>
        <time>2010-12-12T11:50:18Z</time>
      </trkpt>
      <trkpt lat="43.26445" lon="-0.27001">
        <ele>257.8</ele>
        <time>2010-12-12T11:50:20Z</time>
      </trkpt>
      <trkpt lat="43.26434" lon="-0.27022">
        <ele>257.8</ele>
        <time>2010-12-12T11:50:22Z</time>
      </trkpt>
      <trkpt lat="43.26424" lon="-0.27045">
        <ele>257</ele>
        <time>2010-12-12T11:50:24Z</time>
      </trkpt>
      <trkpt lat="43.2642" lon="-0.27056">
        <ele>256.4</ele>
        <time>2010-12-12T11:50:25Z</time>
      </trkpt>
      <trkpt lat="43.26411" lon="-0.27077">
        <ele>254.5</ele>
        <time>2010-12-12T11:50:27Z</time>
      </trkpt>
      <trkpt lat="43.26403" lon="-0.27098">
        <ele>253.8</ele>
        <time>2010-12-12T11:50:29Z</time>
      </trkpt>
      <trkpt lat="43.26393" lon="-0.27117">
        <ele>253.1</ele>
        <time>2010-12-12T11:50:30Z</time>
      </trkpt>
      <trkpt lat="43.26388" lon="-0.27128">
        <ele>253</ele>
        <time>2010-12-12T11:50:32Z</time>
      </trkpt>
      <trkpt lat="43.2638" lon="-0.2715">
        <ele>253.3</ele>
        <time>2010-12-12T11:50:34Z</time>
      </trkpt>
      <trkpt lat="43.2637" lon="-0.2717">
        <ele>253.1</ele>
        <time>2010-12-12T11:50:36Z</time>
      </trkpt>
      <trkpt lat="43.26361" lon="-0.2719">
        <ele>252.6</ele>
        <time>2010-12-12T11:50:37Z</time>
      </trkpt>
      <trkpt lat="43.26357" lon="-0.27201">
        <ele>252.1</ele>
        <time>2010-12-12T11:50:39Z</time>
      </trkpt>
      <trkpt lat="43.26349" lon="-0.27223">
        <ele>250.2</ele>
        <time>2010-12-12T11:50:41Z</time>
      </trkpt>
      <trkpt lat="43.26339" lon="-0.27246">
        <ele>248.3</ele>
        <time>2010-12-12T11:50:43Z</time>
      </trkpt>
      <trkpt lat="43.26328" lon="-0.27269">
        <ele>246.1</ele>
        <time>2010-12-12T11:50:44Z</time>
      </trkpt>
      <trkpt lat="43.26322" lon="-0.27282">
        <ele>245.3</ele>
        <time>2010-12-12T11:50:46Z</time>
      </trkpt>
      <trkpt lat="43.26312" lon="-0.27306">
        <ele>244.2</ele>
        <time>2010-12-12T11:50:48Z</time>
      </trkpt>
      <trkpt lat="43.26304" lon="-0.27328">
        <ele>244.5</ele>
        <time>2010-12-12T11:50:50Z</time>
      </trkpt>
      <trkpt lat="43.26295" lon="-0.27347">
        <ele>242.8</ele>
        <time>2010-12-12T11:50:51Z</time>
      </trkpt>
      <trkpt lat="43.26288" lon="-0.27355">
        <ele>241.8</ele>
        <time>2010-12-12T11:50:53Z</time>
      </trkpt>
      <trkpt lat="43.26275" lon="-0.27363">
        <ele>240.8</ele>
        <time>2010-12-12T11:50:55Z</time>
      </trkpt>
      <trkpt lat="43.26255" lon="-0.27357">
        <ele>240.1</ele>
        <time>2010-12-12T11:50:57Z</time>
      </trkpt>
      <trkpt lat="43.26245" lon="-0.2735">
        <ele>239.3</ele>
        <time>2010-12-12T11:50:58Z</time>
      </trkpt>
      <trkpt lat="43.26227" lon="-0.27342">
        <ele>238.7</ele>
        <time>2010-12-12T11:51:00Z</time>
      </trkpt>
      <trkpt lat="43.26207" lon="-0.27334">
        <ele>236.2</ele>
        <time>2010-12-12T11:51:02Z</time>
      </trkpt>
      <trkpt lat="43.26187" lon="-0.27329">
        <ele>235.9</ele>
        <time>2010-12-12T11:51:04Z</time>
      </trkpt>
      <trkpt lat="43.26177" lon="-0.27329">
        <ele>235.5</ele>
        <time>2010-12-12T11:51:05Z</time>
      </trkpt>
      <trkpt lat="43.26157" lon="-0.2733">
        <ele>235.8</ele>
        <time>2010-12-12T11:51:07Z</time>
      </trkpt>
      <trkpt lat="43.26139" lon="-0.27337">
        <ele>235.3</ele>
        <time>2010-12-12T11:51:09Z</time>
      </trkpt>
      <trkpt lat="43.26122" lon="-0.27348">
        <ele>235.5</ele>
        <time>2010-12-12T11:51:11Z</time>
      </trkpt>
      <trkpt lat="43.26115" lon="-0.27353">
        <ele>235.5</ele>
        <time>2010-12-12T11:51:12Z</time>
      </trkpt>
      <trkpt lat="43.26102" lon="-0.27366">
        <ele>235.3</ele>
        <time>2010-12-12T11:51:14Z</time>
      </trkpt>
      <trkpt lat="43.26086" lon="-0.27381">
        <ele>234.2</ele>
        <time>2010-12-12T11:51:16Z</time>
      </trkpt>
      <trkpt lat="43.2607" lon="-0.27393">
        <ele>233.5</ele>
        <time>2010-12-12T11:51:18Z</time>
      </trkpt>
      <trkpt lat="43.26063" lon="-0.274">
        <ele>233.5</ele>
        <time>2010-12-12T11:51:19Z</time>
      </trkpt>
      <trkpt lat="43.26049" lon="-0.27414">
        <ele>233.3</ele>
        <time>2010-12-12T11:51:21Z</time>
      </trkpt>
      <trkpt lat="43.26035" lon="-0.27428">
        <ele>233</ele>
        <time>2010-12-12T11:51:23Z</time>
      </trkpt>
      <trkpt lat="43.26022" lon="-0.27445">
        <ele>232.5</ele>
        <time>2010-12-12T11:51:24Z</time>
      </trkpt>
      <trkpt lat="43.26015" lon="-0.27451">
        <ele>232.3</ele>
        <time>2010-12-12T11:51:26Z</time>
      </trkpt>
      <trkpt lat="43.26002" lon="-0.27465">
        <ele>231.7</ele>
        <time>2010-12-12T11:51:28Z</time>
      </trkpt>
      <trkpt lat="43.25989" lon="-0.27479">
        <ele>231.1</ele>
        <time>2010-12-12T11:51:30Z</time>
      </trkpt>
      <trkpt lat="43.25976" lon="-0.27493">
        <ele>231.5</ele>
        <time>2010-12-12T11:51:31Z</time>
      </trkpt>
      <trkpt lat="43.25969" lon="-0.27498">
        <ele>231.1</ele>
        <time>2010-12-12T11:51:33Z</time>
      </trkpt>
      <trkpt lat="43.25956" lon="-0.27508">
        <ele>231</ele>
        <time>2010-12-12T11:51:35Z</time>
      </trkpt>
      <trkpt lat="43.25943" lon="-0.2752">
        <ele>231</ele>
        <time>2010-12-12T11:51:37Z</time>
      </trkpt>
      <trkpt lat="43.25932" lon="-0.2753">
        <ele>230.8</ele>
        <time>2010-12-12T11:51:38Z</time>
      </trkpt>
      <trkpt lat="43.25926" lon="-0.27536">
        <ele>230.9</ele>
        <time>2010-12-12T11:51:40Z</time>
      </trkpt>
      <trkpt lat="43.25915" lon="-0.27548">
        <ele>231</ele>
        <time>2010-12-12T11:51:42Z</time>
      </trkpt>
      <trkpt lat="43.25903" lon="-0.27561">
        <ele>229.3</ele>
        <time>2010-12-12T11:51:44Z</time>
      </trkpt>
      <trkpt lat="43.25894" lon="-0.27571">
        <ele>227</ele>
        <time>2010-12-12T11:51:45Z</time>
      </trkpt>
      <trkpt lat="43.25884" lon="-0.27587">
        <ele>225.8</ele>
        <time>2010-12-12T11:51:47Z</time>
      </trkpt>
      <trkpt lat="43.25876" lon="-0.27607">
        <ele>225.2</ele>
        <time>2010-12-12T11:51:49Z</time>
      </trkpt>
      <trkpt lat="43.25872" lon="-0.27634">
        <ele>223.8</ele>
        <time>2010-12-12T11:51:51Z</time>
      </trkpt>
      <trkpt lat="43.25871" lon="-0.27648">
        <ele>223.1</ele>
        <time>2010-12-12T11:51:52Z</time>
      </trkpt>
      <trkpt lat="43.25865" lon="-0.27673">
        <ele>222.8</ele>
        <time>2010-12-12T11:51:54Z</time>
      </trkpt>
      <trkpt lat="43.2586" lon="-0.27694">
        <ele>222.5</ele>
        <time>2010-12-12T11:51:56Z</time>
      </trkpt>
      <trkpt lat="43.25853" lon="-0.27719">
        <ele>222.6</ele>
        <time>2010-12-12T11:51:58Z</time>
      </trkpt>
      <trkpt lat="43.2585" lon="-0.27729">
        <ele>222.7</ele>
        <time>2010-12-12T11:51:59Z</time>
      </trkpt>
      <trkpt lat="43.25844" lon="-0.27752">
        <ele>222.6</ele>
        <time>2010-12-12T11:52:01Z</time>
      </trkpt>
      <trkpt lat="43.25838" lon="-0.27776">
        <ele>222.3</ele>
        <time>2010-12-12T11:52:03Z</time>
      </trkpt>
      <trkpt lat="43.25836" lon="-0.27794">
        <ele>221</ele>
        <time>2010-12-12T11:52:05Z</time>
      </trkpt>
      <trkpt lat="43.25833" lon="-0.27804">
        <ele>220.1</ele>
        <time>2010-12-12T11:52:06Z</time>
      </trkpt>
      <trkpt lat="43.2583" lon="-0.27829">
        <ele>219</ele>
        <time>2010-12-12T11:52:08Z</time>
      </trkpt>
      <trkpt lat="43.25824" lon="-0.27849">
        <ele>218.4</ele>
        <time>2010-12-12T11:52:10Z</time>
      </trkpt>
      <trkpt lat="43.25811" lon="-0.27866">
        <ele>218.1</ele>
        <time>2010-12-12T11:52:12Z</time>
      </trkpt>
      <trkpt lat="43.25804" lon="-0.27874">
        <ele>218.1</ele>
        <time>2010-12-12T11:52:13Z</time>
      </trkpt>
      <trkpt lat="43.2579" lon="-0.27893">
        <ele>216.8</ele>
        <time>2010-12-12T11:52:15Z</time>
      </trkpt>
      <trkpt lat="43.25779" lon="-0.27913">
        <ele>216.1</ele>
        <time>2010-12-12T11:52:17Z</time>
      </trkpt>
      <trkpt lat="43.25769" lon="-0.27935">
        <ele>216.5</ele>
        <time>2010-12-12T11:52:18Z</time>
      </trkpt>
      <trkpt lat="43.25767" lon="-0.27946">
        <ele>216.7</ele>
        <time>2010-12-12T11:52:20Z</time>
      </trkpt>
      <trkpt lat="43.25764" lon="-0.27968">
        <ele>216.2</ele>
        <time>2010-12-12T11:52:22Z</time>
      </trkpt>
      <trkpt lat="43.2576" lon="-0.27988">
        <ele>215.4</ele>
        <time>2010-12-12T11:52:24Z</time>
      </trkpt>
      <trkpt lat="43.2576" lon="-0.28014">
        <ele>214.8</ele>
        <time>2010-12-12T11:52:25Z</time>
      </trkpt>
      <trkpt lat="43.2576" lon="-0.28026">
        <ele>214.8</ele>
        <time>2010-12-12T11:52:27Z</time>
      </trkpt>
      <trkpt lat="43.25758" lon="-0.28049">
        <ele>214.6</ele>
        <time>2010-12-12T11:52:29Z</time>
      </trkpt>
      <trkpt lat="43.25756" lon="-0.28072">
        <ele>214.5</ele>
        <time>2010-12-12T11:52:31Z</time>
      </trkpt>
      <trkpt lat="43.25754" lon="-0.28096">
        <ele>214.3</ele>
        <time>2010-12-12T11:52:32Z</time>
      </trkpt>
      <trkpt lat="43.25753" lon="-0.28109">
        <ele>214.2</ele>
        <time>2010-12-12T11:52:34Z</time>
      </trkpt>
      <trkpt lat="43.25749" lon="-0.28122">
        <ele>212.6</ele>
        <time>2010-12-12T11:52:36Z</time>
      </trkpt>
      <trkpt lat="43.25741" lon="-0.28135">
        <ele>212.7</ele>
        <time>2010-12-12T11:52:38Z</time>
      </trkpt>
      <trkpt lat="43.25735" lon="-0.28153">
        <ele>213</ele>
        <time>2010-12-12T11:52:39Z</time>
      </trkpt>
      <trkpt lat="43.25732" lon="-0.28161">
        <ele>213.2</ele>
        <time>2010-12-12T11:52:41Z</time>
      </trkpt>
      <trkpt lat="43.25725" lon="-0.2818">
        <ele>213.4</ele>
        <time>2010-12-12T11:52:43Z</time>
      </trkpt>
      <trkpt lat="43.2572" lon="-0.28199">
        <ele>212.7</ele>
        <time>2010-12-12T11:52:45Z</time>
      </trkpt>
      <trkpt lat="43.25718" lon="-0.28214">
        <ele>212.7</ele>
        <time>2010-12-12T11:52:46Z</time>
      </trkpt>
      <trkpt lat="43.25715" lon="-0.28239">
        <ele>212.2</ele>
        <time>2010-12-12T11:52:48Z</time>
      </trkpt>
      <trkpt lat="43.25709" lon="-0.28259">
        <ele>213.3</ele>
        <time>2010-12-12T11:52:50Z</time>
      </trkpt>
      <trkpt lat="43.25705" lon="-0.28283">
        <ele>214.1</ele>
        <time>2010-12-12T11:52:52Z</time>
      </trkpt>
      <trkpt lat="43.25703" lon="-0.28294">
        <ele>214.4</ele>
        <time>2010-12-12T11:52:53Z</time>
      </trkpt>
      <trkpt lat="43.25699" lon="-0.28312">
        <ele>214.1</ele>
        <time>2010-12-12T11:52:55Z</time>
      </trkpt>
      <trkpt lat="43.25694" lon="-0.28329">
        <ele>216</ele>
        <time>2010-12-12T11:52:57Z</time>
      </trkpt>
      <trkpt lat="43.2569" lon="-0.28347">
        <ele>217.7</ele>
        <time>2010-12-12T11:52:59Z</time>
      </trkpt>
      <trkpt lat="43.25687" lon="-0.28355">
        <ele>219.2</ele>
        <time>2010-12-12T11:53:00Z</time>
      </trkpt>
      <trkpt lat="43.25682" lon="-0.28373">
        <ele>220.4</ele>
        <time>2010-12-12T11:53:02Z</time>
      </trkpt>
      <trkpt lat="43.25678" lon="-0.28392">
        <ele>220.5</ele>
        <time>2010-12-12T11:53:04Z</time>
      </trkpt>
      <trkpt lat="43.25673" lon="-0.28408">
        <ele>220.1</ele>
        <time>2010-12-12T11:53:06Z</time>
      </trkpt>
      <trkpt lat="43.2567" lon="-0.28418">
        <ele>220.2</ele>
        <time>2010-12-12T11:53:07Z</time>
      </trkpt>
      <trkpt lat="43.25664" lon="-0.2844">
        <ele>220.4</ele>
        <time>2010-12-12T11:53:09Z</time>
      </trkpt>
      <trkpt lat="43.2566" lon="-0.28466">
        <ele>219.9</ele>
        <time>2010-12-12T11:53:11Z</time>
      </trkpt>
      <trkpt lat="43.25658" lon="-0.28494">
        <ele>219.7</ele>
        <time>2010-12-12T11:53:12Z</time>
      </trkpt>
      <trkpt lat="43.25657" lon="-0.28501">
        <ele>218.7</ele>
        <time>2010-12-12T11:53:14Z</time>
      </trkpt>
      <trkpt lat="43.25657" lon="-0.28525">
        <ele>218.5</ele>
        <time>2010-12-12T11:53:16Z</time>
      </trkpt>
      <trkpt lat="43.25659" lon="-0.28548">
        <ele>218.6</ele>
        <time>2010-12-12T11:53:18Z</time>
      </trkpt>
      <trkpt lat="43.2566" lon="-0.28568">
        <ele>218.6</ele>
        <time>2010-12-12T11:53:19Z</time>
      </trkpt>
      <trkpt lat="43.2566" lon="-0.2858">
        <ele>218.6</ele>
        <time>2010-12-12T11:53:21Z</time>
      </trkpt>
      <trkpt lat="43.25663" lon="-0.28602">
        <ele>217.4</ele>
        <time>2010-12-12T11:53:23Z</time>
      </trkpt>
      <trkpt lat="43.25662" lon="-0.2862">
        <ele>216.3</ele>
        <time>2010-12-12T11:53:25Z</time>
      </trkpt>
      <trkpt lat="43.25659" lon="-0.28637">
        <ele>215</ele>
        <time>2010-12-12T11:53:26Z</time>
      </trkpt>
      <trkpt lat="43.25656" lon="-0.28647">
        <ele>214.9</ele>
        <time>2010-12-12T11:53:28Z</time>
      </trkpt>
      <trkpt lat="43.25651" lon="-0.28665">
        <ele>215.6</ele>
        <time>2010-12-12T11:53:30Z</time>
      </trkpt>
      <trkpt lat="43.25646" lon="-0.28687">
        <ele>214.7</ele>
        <time>2010-12-12T11:53:32Z</time>
      </trkpt>
      <trkpt lat="43.25641" lon="-0.28697">
        <ele>214.6</ele>
        <time>2010-12-12T11:53:33Z</time>
      </trkpt>
      <trkpt lat="43.25635" lon="-0.28719">
        <ele>212.4</ele>
        <time>2010-12-12T11:53:35Z</time>
      </trkpt>
      <trkpt lat="43.25628" lon="-0.28736">
        <ele>211.1</ele>
        <time>2010-12-12T11:53:37Z</time>
      </trkpt>
      <trkpt lat="43.25617" lon="-0.28752">
        <ele>210.6</ele>
        <time>2010-12-12T11:53:39Z</time>
      </trkpt>
      <trkpt lat="43.25611" lon="-0.2876">
        <ele>211.2</ele>
        <time>2010-12-12T11:53:40Z</time>
      </trkpt>
      <trkpt lat="43.25599" lon="-0.28775">
        <ele>211.5</ele>
        <time>2010-12-12T11:53:42Z</time>
      </trkpt>
      <trkpt lat="43.25588" lon="-0.2879">
        <ele>211.6</ele>
        <time>2010-12-12T11:53:44Z</time>
      </trkpt>
      <trkpt lat="43.25578" lon="-0.28805">
        <ele>211.5</ele>
        <time>2010-12-12T11:53:46Z</time>
      </trkpt>
      <trkpt lat="43.25573" lon="-0.28813">
        <ele>211.4</ele>
        <time>2010-12-12T11:53:47Z</time>
      </trkpt>
      <trkpt lat="43.25564" lon="-0.28827">
        <ele>210.7</ele>
        <time>2010-12-12T11:53:49Z</time>
      </trkpt>
      <trkpt lat="43.25559" lon="-0.28844">
        <ele>211</ele>
        <time>2010-12-12T11:53:51Z</time>
      </trkpt>
      <trkpt lat="43.25554" lon="-0.28858">
        <ele>210.4</ele>
        <time>2010-12-12T11:53:53Z</time>
      </trkpt>
      <trkpt lat="43.25551" lon="-0.28866">
        <ele>210.4</ele>
        <time>2010-12-12T11:53:54Z</time>
      </trkpt>
      <trkpt lat="43.25547" lon="-0.28887">
        <ele>210.3</ele>
        <time>2010-12-12T11:53:56Z</time>
      </trkpt>
      <trkpt lat="43.2554" lon="-0.28906">
        <ele>210.4</ele>
        <time>2010-12-12T11:53:58Z</time>
      </trkpt>
      <trkpt lat="43.25537" lon="-0.28926">
        <ele>210.3</ele>
        <time>2010-12-12T11:53:59Z</time>
      </trkpt>
      <trkpt lat="43.25534" lon="-0.28936">
        <ele>210.1</ele>
        <time>2010-12-12T11:54:01Z</time>
      </trkpt>
      <trkpt lat="43.25533" lon="-0.28955">
        <ele>209.8</ele>
        <time>2010-12-12T11:54:03Z</time>
      </trkpt>
      <trkpt lat="43.25532" lon="-0.28976">
        <ele>209.5</ele>
        <time>2010-12-12T11:54:05Z</time>
      </trkpt>
      <trkpt lat="43.25529" lon="-0.28997">
        <ele>209.7</ele>
        <time>2010-12-12T11:54:06Z</time>
      </trkpt>
      <trkpt lat="43.25527" lon="-0.29008">
        <ele>209.3</ele>
        <time>2010-12-12T11:54:08Z</time>
      </trkpt>
      <trkpt lat="43.25524" lon="-0.29028">
        <ele>208.9</ele>
        <time>2010-12-12T11:54:10Z</time>
      </trkpt>
      <trkpt lat="43.2552" lon="-0.29046">
        <ele>208.7</ele>
        <time>2010-12-12T11:54:12Z</time>
      </trkpt>
      <trkpt lat="43.25514" lon="-0.29064">
        <ele>208.4</ele>
        <time>2010-12-12T11:54:13Z</time>
      </trkpt>
      <trkpt lat="43.25512" lon="-0.29075">
        <ele>208.2</ele>
        <time>2010-12-12T11:54:15Z</time>
      </trkpt>
      <trkpt lat="43.25505" lon="-0.29093">
        <ele>208.6</ele>
        <time>2010-12-12T11:54:17Z</time>
      </trkpt>
      <trkpt lat="43.255" lon="-0.29111">
        <ele>208.9</ele>
        <time>2010-12-12T11:54:19Z</time>
      </trkpt>
      <trkpt lat="43.25494" lon="-0.2913">
        <ele>209.1</ele>
        <time>2010-12-12T11:54:20Z</time>
      </trkpt>
      <trkpt lat="43.25491" lon="-0.29137">
        <ele>209.4</ele>
        <time>2010-12-12T11:54:22Z</time>
      </trkpt>
      <trkpt lat="43.25484" lon="-0.29157">
        <ele>209.1</ele>
        <time>2010-12-12T11:54:24Z</time>
      </trkpt>
      <trkpt lat="43.25476" lon="-0.29176">
        <ele>209</ele>
        <time>2010-12-12T11:54:26Z</time>
      </trkpt>
      <trkpt lat="43.25468" lon="-0.29194">
        <ele>210.9</ele>
        <time>2010-12-12T11:54:27Z</time>
      </trkpt>
      <trkpt lat="43.25463" lon="-0.29204">
        <ele>210.6</ele>
        <time>2010-12-12T11:54:29Z</time>
      </trkpt>
      <trkpt lat="43.25455" lon="-0.2922">
        <ele>210.4</ele>
        <time>2010-12-12T11:54:31Z</time>
      </trkpt>
      <trkpt lat="43.25446" lon="-0.29235">
        <ele>209.8</ele>
        <time>2010-12-12T11:54:33Z</time>
      </trkpt>
      <trkpt lat="43.25441" lon="-0.29244">
        <ele>209.7</ele>
        <time>2010-12-12T11:54:34Z</time>
      </trkpt>
      <trkpt lat="43.25432" lon="-0.29262">
        <ele>209.7</ele>
        <time>2010-12-12T11:54:36Z</time>
      </trkpt>
      <trkpt lat="43.25424" lon="-0.29277">
        <ele>209.9</ele>
        <time>2010-12-12T11:54:38Z</time>
      </trkpt>
      <trkpt lat="43.25413" lon="-0.29293">
        <ele>209.3</ele>
        <time>2010-12-12T11:54:40Z</time>
      </trkpt>
      <trkpt lat="43.25409" lon="-0.293">
        <ele>209.2</ele>
        <time>2010-12-12T11:54:41Z</time>
      </trkpt>
      <trkpt lat="43.254" lon="-0.29317">
        <ele>209.2</ele>
        <time>2010-12-12T11:54:43Z</time>
      </trkpt>
      <trkpt lat="43.2539" lon="-0.29329">
        <ele>209.1</ele>
        <time>2010-12-12T11:54:45Z</time>
      </trkpt>
      <trkpt lat="43.2538" lon="-0.29347">
        <ele>208.4</ele>
        <time>2010-12-12T11:54:47Z</time>
      </trkpt>
      <trkpt lat="43.25375" lon="-0.29355">
        <ele>207.8</ele>
        <time>2010-12-12T11:54:48Z</time>
      </trkpt>
      <trkpt lat="43.25365" lon="-0.29374">
        <ele>207.4</ele>
        <time>2010-12-12T11:54:50Z</time>
      </trkpt>
      <trkpt lat="43.25356" lon="-0.29391">
        <ele>206.8</ele>
        <time>2010-12-12T11:54:52Z</time>
      </trkpt>
      <trkpt lat="43.25347" lon="-0.29408">
        <ele>207.2</ele>
        <time>2010-12-12T11:54:54Z</time>
      </trkpt>
      <trkpt lat="43.25343" lon="-0.29415">
        <ele>208</ele>
        <time>2010-12-12T11:54:55Z</time>
      </trkpt>
      <trkpt lat="43.25334" lon="-0.29428">
        <ele>208.3</ele>
        <time>2010-12-12T11:54:57Z</time>
      </trkpt>
      <trkpt lat="43.25326" lon="-0.29442">
        <ele>208.3</ele>
        <time>2010-12-12T11:54:59Z</time>
      </trkpt>
      <trkpt lat="43.25317" lon="-0.29457">
        <ele>208.3</ele>
        <time>2010-12-12T11:55:00Z</time>
      </trkpt>
      <trkpt lat="43.25312" lon="-0.29464">
        <ele>208.3</ele>
        <time>2010-12-12T11:55:02Z</time>
      </trkpt>
      <trkpt lat="43.25303" lon="-0.29481">
        <ele>208.2</ele>
        <time>2010-12-12T11:55:04Z</time>
      </trkpt>
      <trkpt lat="43.25295" lon="-0.29497">
        <ele>208.9</ele>
        <time>2010-12-12T11:55:06Z</time>
      </trkpt>
      <trkpt lat="43.25286" lon="-0.2951">
        <ele>209.6</ele>
        <time>2010-12-12T11:55:07Z</time>
      </trkpt>
      <trkpt lat="43.25282" lon="-0.29518">
        <ele>209.3</ele>
        <time>2010-12-12T11:55:09Z</time>
      </trkpt>
      <trkpt lat="43.25274" lon="-0.29531">
        <ele>208.8</ele>
        <time>2010-12-12T11:55:11Z</time>
      </trkpt>
      <trkpt lat="43.25266" lon="-0.29546">
        <ele>209.2</ele>
        <time>2010-12-12T11:55:13Z</time>
      </trkpt>
      <trkpt lat="43.25261" lon="-0.29558">
        <ele>209.3</ele>
        <time>2010-12-12T11:55:14Z</time>
      </trkpt>
      <trkpt lat="43.2526" lon="-0.29564">
        <ele>209.4</ele>
        <time>2010-12-12T11:55:16Z</time>
      </trkpt>
      <trkpt lat="43.25253" lon="-0.29576">
        <ele>210.2</ele>
        <time>2010-12-12T11:55:19Z</time>
      </trkpt>
      <trkpt lat="43.2525" lon="-0.2957">
        <ele>209.6</ele>
        <time>2010-12-12T11:55:21Z</time>
      </trkpt>
      <trkpt lat="43.25249" lon="-0.29563">
        <ele>210.9</ele>
        <time>2010-12-12T11:55:24Z</time>
      </trkpt>
      <trkpt lat="43.25253" lon="-0.29561">
        <ele>211.6</ele>
        <time>2010-12-12T11:55:27Z</time>
      </trkpt>
      <trkpt lat="43.25257" lon="-0.29564">
        <ele>211.2</ele>
        <time>2010-12-12T11:55:28Z</time>
      </trkpt>
      <trkpt lat="43.25261" lon="-0.29567">
        <ele>211</ele>
        <time>2010-12-12T11:55:30Z</time>
      </trkpt>
      <trkpt lat="43.25266" lon="-0.2957">
        <ele>211.2</ele>
        <time>2010-12-12T11:55:34Z</time>
      </trkpt>
      <trkpt lat="43.2527" lon="-0.29576">
        <ele>214.4</ele>
        <time>2010-12-12T11:55:37Z</time>
      </trkpt>
      <trkpt lat="43.25274" lon="-0.29581">
        <ele>215.2</ele>
        <time>2010-12-12T11:55:39Z</time>
      </trkpt>
      <trkpt lat="43.25279" lon="-0.29586">
        <ele>216.4</ele>
        <time>2010-12-12T11:55:41Z</time>
      </trkpt>
      <trkpt lat="43.25281" lon="-0.29588">
        <ele>216.2</ele>
        <time>2010-12-12T11:55:44Z</time>
      </trkpt>
      <trkpt lat="43.25284" lon="-0.2959">
        <ele>211.6</ele>
        <time>2010-12-12T11:57:55Z</time>
      </trkpt>
      <trkpt lat="43.25284" lon="-0.29592">
        <ele>208.5</ele>
        <time>2010-12-12T11:58:50Z</time>
      </trkpt>
      <trkpt lat="43.25278" lon="-0.29586">
        <ele>209.4</ele>
        <time>2010-12-12T11:58:54Z</time>
      </trkpt>
      <trkpt lat="43.25271" lon="-0.29581">
        <ele>209.6</ele>
        <time>2010-12-12T11:58:56Z</time>
      </trkpt>
      <trkpt lat="43.25261" lon="-0.29581">
        <ele>207.5</ele>
        <time>2010-12-12T11:58:57Z</time>
      </trkpt>
      <trkpt lat="43.25256" lon="-0.29579">
        <ele>207.7</ele>
        <time>2010-12-12T11:58:59Z</time>
      </trkpt>
      <trkpt lat="43.25249" lon="-0.29572">
        <ele>207</ele>
        <time>2010-12-12T11:59:01Z</time>
      </trkpt>
      <trkpt lat="43.25249" lon="-0.29559">
        <ele>206.2</ele>
        <time>2010-12-12T11:59:04Z</time>
      </trkpt>
      <trkpt lat="43.25256" lon="-0.29559">
        <ele>205.9</ele>
        <time>2010-12-12T11:59:06Z</time>
      </trkpt>
      <trkpt lat="43.25267" lon="-0.29573">
        <ele>206.1</ele>
        <time>2010-12-12T11:59:08Z</time>
      </trkpt>
      <trkpt lat="43.2528" lon="-0.29584">
        <ele>207</ele>
        <time>2010-12-12T11:59:10Z</time>
      </trkpt>
      <trkpt lat="43.25287" lon="-0.2959">
        <ele>207</ele>
        <time>2010-12-12T11:59:11Z</time>
      </trkpt>
      <trkpt lat="43.25301" lon="-0.296">
        <ele>207.4</ele>
        <time>2010-12-12T11:59:13Z</time>
      </trkpt>
      <trkpt lat="43.25312" lon="-0.2961">
        <ele>207.1</ele>
        <time>2010-12-12T11:59:15Z</time>
      </trkpt>
      <trkpt lat="43.25324" lon="-0.29618">
        <ele>206.9</ele>
        <time>2010-12-12T11:59:17Z</time>
      </trkpt>
      <trkpt lat="43.2533" lon="-0.29621">
        <ele>206.2</ele>
        <time>2010-12-12T11:59:18Z</time>
      </trkpt>
      <trkpt lat="43.25344" lon="-0.2963">
        <ele>205.7</ele>
        <time>2010-12-12T11:59:20Z</time>
      </trkpt>
      <trkpt lat="43.25356" lon="-0.29639">
        <ele>204.9</ele>
        <time>2010-12-12T11:59:22Z</time>
      </trkpt>
      <trkpt lat="43.25367" lon="-0.29649">
        <ele>204.7</ele>
        <time>2010-12-12T11:59:24Z</time>
      </trkpt>
      <trkpt lat="43.25373" lon="-0.29654">
        <ele>204.6</ele>
        <time>2010-12-12T11:59:25Z</time>
      </trkpt>
      <trkpt lat="43.25382" lon="-0.29663">
        <ele>204.7</ele>
        <time>2010-12-12T11:59:27Z</time>
      </trkpt>
      <trkpt lat="43.25391" lon="-0.29672">
        <ele>204.2</ele>
        <time>2010-12-12T11:59:29Z</time>
      </trkpt>
      <trkpt lat="43.25398" lon="-0.29681">
        <ele>204</ele>
        <time>2010-12-12T11:59:30Z</time>
      </trkpt>
      <trkpt lat="43.25402" lon="-0.29686">
        <ele>203.9</ele>
        <time>2010-12-12T11:59:32Z</time>
      </trkpt>
      <trkpt lat="43.25409" lon="-0.29695">
        <ele>203.9</ele>
        <time>2010-12-12T11:59:34Z</time>
      </trkpt>
      <trkpt lat="43.25417" lon="-0.29705">
        <ele>204.2</ele>
        <time>2010-12-12T11:59:36Z</time>
      </trkpt>
      <trkpt lat="43.25426" lon="-0.29719">
        <ele>204.3</ele>
        <time>2010-12-12T11:59:37Z</time>
      </trkpt>
      <trkpt lat="43.25431" lon="-0.29726">
        <ele>204.3</ele>
        <time>2010-12-12T11:59:39Z</time>
      </trkpt>
      <trkpt lat="43.25442" lon="-0.29741">
        <ele>204.7</ele>
        <time>2010-12-12T11:59:41Z</time>
      </trkpt>
      <trkpt lat="43.25455" lon="-0.29755">
        <ele>205.2</ele>
        <time>2010-12-12T11:59:43Z</time>
      </trkpt>
      <trkpt lat="43.25466" lon="-0.29767">
        <ele>204.7</ele>
        <time>2010-12-12T11:59:44Z</time>
      </trkpt>
      <trkpt lat="43.25472" lon="-0.29774">
        <ele>204</ele>
        <time>2010-12-12T11:59:46Z</time>
      </trkpt>
      <trkpt lat="43.25485" lon="-0.29787">
        <ele>204</ele>
        <time>2010-12-12T11:59:48Z</time>
      </trkpt>
      <trkpt lat="43.25497" lon="-0.29801">
        <ele>204.3</ele>
        <time>2010-12-12T11:59:50Z</time>
      </trkpt>
      <trkpt lat="43.25504" lon="-0.29808">
        <ele>204.5</ele>
        <time>2010-12-12T11:59:51Z</time>
      </trkpt>
      <trkpt lat="43.25515" lon="-0.29823">
        <ele>204.4</ele>
        <time>2010-12-12T11:59:53Z</time>
      </trkpt>
      <trkpt lat="43.25527" lon="-0.29837">
        <ele>203.6</ele>
        <time>2010-12-12T11:59:55Z</time>
      </trkpt>
      <trkpt lat="43.25537" lon="-0.29851">
        <ele>203.4</ele>
        <time>2010-12-12T11:59:57Z</time>
      </trkpt>
      <trkpt lat="43.25543" lon="-0.29858">
        <ele>203.7</ele>
        <time>2010-12-12T11:59:58Z</time>
      </trkpt>
      <trkpt lat="43.25556" lon="-0.29874">
        <ele>203.6</ele>
        <time>2010-12-12T12:00:00Z</time>
      </trkpt>
      <trkpt lat="43.25567" lon="-0.2989">
        <ele>204</ele>
        <time>2010-12-12T12:00:02Z</time>
      </trkpt>
      <trkpt lat="43.25578" lon="-0.29904">
        <ele>204.6</ele>
        <time>2010-12-12T12:00:04Z</time>
      </trkpt>
      <trkpt lat="43.25584" lon="-0.29912">
        <ele>204.9</ele>
        <time>2010-12-12T12:00:05Z</time>
      </trkpt>
      <trkpt lat="43.25595" lon="-0.29925">
        <ele>204.6</ele>
        <time>2010-12-12T12:00:07Z</time>
      </trkpt>
      <trkpt lat="43.25607" lon="-0.2994">
        <ele>203.3</ele>
        <time>2010-12-12T12:00:09Z</time>
      </trkpt>
      <trkpt lat="43.25619" lon="-0.29955">
        <ele>202.5</ele>
        <time>2010-12-12T12:00:11Z</time>
      </trkpt>
      <trkpt lat="43.25624" lon="-0.29963">
        <ele>202.1</ele>
        <time>2010-12-12T12:00:12Z</time>
      </trkpt>
      <trkpt lat="43.25635" lon="-0.29977">
        <ele>202.4</ele>
        <time>2010-12-12T12:00:14Z</time>
      </trkpt>
      <trkpt lat="43.25647" lon="-0.29992">
        <ele>202.3</ele>
        <time>2010-12-12T12:00:16Z</time>
      </trkpt>
      <trkpt lat="43.25658" lon="-0.30008">
        <ele>202.9</ele>
        <time>2010-12-12T12:00:18Z</time>
      </trkpt>
      <trkpt lat="43.25665" lon="-0.30017">
        <ele>203.3</ele>
        <time>2010-12-12T12:00:19Z</time>
      </trkpt>
      <trkpt lat="43.25677" lon="-0.30033">
        <ele>204</ele>
        <time>2010-12-12T12:00:21Z</time>
      </trkpt>
      <trkpt lat="43.25689" lon="-0.30048">
        <ele>204.2</ele>
        <time>2010-12-12T12:00:23Z</time>
      </trkpt>
      <trkpt lat="43.25699" lon="-0.30063">
        <ele>204.5</ele>
        <time>2010-12-12T12:00:24Z</time>
      </trkpt>
      <trkpt lat="43.25705" lon="-0.30071">
        <ele>204.9</ele>
        <time>2010-12-12T12:00:26Z</time>
      </trkpt>
      <trkpt lat="43.25717" lon="-0.30087">
        <ele>204.5</ele>
        <time>2010-12-12T12:00:28Z</time>
      </trkpt>
      <trkpt lat="43.25728" lon="-0.30103">
        <ele>204.9</ele>
        <time>2010-12-12T12:00:30Z</time>
      </trkpt>
      <trkpt lat="43.25739" lon="-0.30117">
        <ele>204.9</ele>
        <time>2010-12-12T12:00:31Z</time>
      </trkpt>
      <trkpt lat="43.25745" lon="-0.30124">
        <ele>205.4</ele>
        <time>2010-12-12T12:00:33Z</time>
      </trkpt>
      <trkpt lat="43.25757" lon="-0.30139">
        <ele>206</ele>
        <time>2010-12-12T12:00:35Z</time>
      </trkpt>
      <trkpt lat="43.25767" lon="-0.30153">
        <ele>205.7</ele>
        <time>2010-12-12T12:00:37Z</time>
      </trkpt>
      <trkpt lat="43.25776" lon="-0.30166">
        <ele>205.3</ele>
        <time>2010-12-12T12:00:38Z</time>
      </trkpt>
      <trkpt lat="43.25782" lon="-0.30172">
        <ele>205.4</ele>
        <time>2010-12-12T12:00:40Z</time>
      </trkpt>
      <trkpt lat="43.25793" lon="-0.30187">
        <ele>204.8</ele>
        <time>2010-12-12T12:00:42Z</time>
      </trkpt>
      <trkpt lat="43.25803" lon="-0.302">
        <ele>204.6</ele>
        <time>2010-12-12T12:00:44Z</time>
      </trkpt>
      <trkpt lat="43.25814" lon="-0.30214">
        <ele>205.2</ele>
        <time>2010-12-12T12:00:45Z</time>
      </trkpt>
      <trkpt lat="43.25819" lon="-0.30221">
        <ele>204.7</ele>
        <time>2010-12-12T12:00:47Z</time>
      </trkpt>
      <trkpt lat="43.25829" lon="-0.30235">
        <ele>204.4</ele>
        <time>2010-12-12T12:00:49Z</time>
      </trkpt>
      <trkpt lat="43.25838" lon="-0.30247">
        <ele>203.9</ele>
        <time>2010-12-12T12:00:51Z</time>
      </trkpt>
      <trkpt lat="43.25843" lon="-0.30252">
        <ele>204</ele>
        <time>2010-12-12T12:00:52Z</time>
      </trkpt>
      <trkpt lat="43.25852" lon="-0.30264">
        <ele>203.6</ele>
        <time>2010-12-12T12:00:54Z</time>
      </trkpt>
      <trkpt lat="43.25859" lon="-0.30275">
        <ele>203.3</ele>
        <time>2010-12-12T12:00:56Z</time>
      </trkpt>
      <trkpt lat="43.25863" lon="-0.30288">
        <ele>203.2</ele>
        <time>2010-12-12T12:00:58Z</time>
      </trkpt>
      <trkpt lat="43.25861" lon="-0.30296">
        <ele>203</ele>
        <time>2010-12-12T12:00:59Z</time>
      </trkpt>
      <trkpt lat="43.25853" lon="-0.30309">
        <ele>203.5</ele>
        <time>2010-12-12T12:01:01Z</time>
      </trkpt>
      <trkpt lat="43.25844" lon="-0.30323">
        <ele>203.6</ele>
        <time>2010-12-12T12:01:03Z</time>
      </trkpt>
      <trkpt lat="43.25836" lon="-0.30337">
        <ele>203.8</ele>
        <time>2010-12-12T12:01:05Z</time>
      </trkpt>
      <trkpt lat="43.25831" lon="-0.30344">
        <ele>203.1</ele>
        <time>2010-12-12T12:01:06Z</time>
      </trkpt>
      <trkpt lat="43.25822" lon="-0.30358">
        <ele>204</ele>
        <time>2010-12-12T12:01:08Z</time>
      </trkpt>
      <trkpt lat="43.25815" lon="-0.30371">
        <ele>204.9</ele>
        <time>2010-12-12T12:01:10Z</time>
      </trkpt>
      <trkpt lat="43.25806" lon="-0.30385">
        <ele>205.1</ele>
        <time>2010-12-12T12:01:12Z</time>
      </trkpt>
      <trkpt lat="43.25802" lon="-0.30393">
        <ele>205.1</ele>
        <time>2010-12-12T12:01:13Z</time>
      </trkpt>
      <trkpt lat="43.25792" lon="-0.30408">
        <ele>204.9</ele>
        <time>2010-12-12T12:01:15Z</time>
      </trkpt>
      <trkpt lat="43.25785" lon="-0.30423">
        <ele>205.3</ele>
        <time>2010-12-12T12:01:17Z</time>
      </trkpt>
      <trkpt lat="43.25776" lon="-0.30439">
        <ele>204.8</ele>
        <time>2010-12-12T12:01:18Z</time>
      </trkpt>
      <trkpt lat="43.25772" lon="-0.30446">
        <ele>204.9</ele>
        <time>2010-12-12T12:01:20Z</time>
      </trkpt>
      <trkpt lat="43.25761" lon="-0.3046">
        <ele>203.9</ele>
        <time>2010-12-12T12:01:22Z</time>
      </trkpt>
      <trkpt lat="43.25751" lon="-0.30474">
        <ele>204.4</ele>
        <time>2010-12-12T12:01:24Z</time>
      </trkpt>
      <trkpt lat="43.25744" lon="-0.30489">
        <ele>204.6</ele>
        <time>2010-12-12T12:01:25Z</time>
      </trkpt>
      <trkpt lat="43.2574" lon="-0.30495">
        <ele>204.5</ele>
        <time>2010-12-12T12:01:27Z</time>
      </trkpt>
      <trkpt lat="43.25731" lon="-0.30508">
        <ele>204.3</ele>
        <time>2010-12-12T12:01:29Z</time>
      </trkpt>
      <trkpt lat="43.25723" lon="-0.30521">
        <ele>203.6</ele>
        <time>2010-12-12T12:01:31Z</time>
      </trkpt>
      <trkpt lat="43.25715" lon="-0.30533">
        <ele>204</ele>
        <time>2010-12-12T12:01:32Z</time>
      </trkpt>
      <trkpt lat="43.25712" lon="-0.3054">
        <ele>204.1</ele>
        <time>2010-12-12T12:01:34Z</time>
      </trkpt>
      <trkpt lat="43.25707" lon="-0.30552">
        <ele>204.7</ele>
        <time>2010-12-12T12:01:36Z</time>
      </trkpt>
      <trkpt lat="43.25701" lon="-0.30559">
        <ele>204.6</ele>
        <time>2010-12-12T12:01:38Z</time>
      </trkpt>
      <trkpt lat="43.25695" lon="-0.30561">
        <ele>204.3</ele>
        <time>2010-12-12T12:01:39Z</time>
      </trkpt>
      <trkpt lat="43.25691" lon="-0.3056">
        <ele>205</ele>
        <time>2010-12-12T12:01:41Z</time>
      </trkpt>
      <trkpt lat="43.25688" lon="-0.30556">
        <ele>204.7</ele>
        <time>2010-12-12T12:01:43Z</time>
      </trkpt>
      <trkpt lat="43.25683" lon="-0.3055">
        <ele>204.7</ele>
        <time>2010-12-12T12:01:46Z</time>
      </trkpt>
      <trkpt lat="43.25681" lon="-0.30542">
        <ele>204.5</ele>
        <time>2010-12-12T12:01:48Z</time>
      </trkpt>
      <trkpt lat="43.25682" lon="-0.30536">
        <ele>204.6</ele>
        <time>2010-12-12T12:01:50Z</time>
      </trkpt>
      <trkpt lat="43.25685" lon="-0.30532">
        <ele>205.6</ele>
        <time>2010-12-12T12:01:52Z</time>
      </trkpt>
      <trkpt lat="43.25689" lon="-0.30526">
        <ele>205.2</ele>
        <time>2010-12-12T12:01:53Z</time>
      </trkpt>
      <trkpt lat="43.25693" lon="-0.30522">
        <ele>205.9</ele>
        <time>2010-12-12T12:01:55Z</time>
      </trkpt>
      <trkpt lat="43.25697" lon="-0.30518">
        <ele>205.2</ele>
        <time>2010-12-12T12:01:57Z</time>
      </trkpt>
      <trkpt lat="43.25699" lon="-0.30517">
        <ele>203.3</ele>
        <time>2010-12-12T12:02:09Z</time>
      </trkpt>
      <trkpt lat="43.25703" lon="-0.30511">
        <ele>201.7</ele>
        <time>2010-12-12T12:02:40Z</time>
      </trkpt>
      <trkpt lat="43.25701" lon="-0.30511">
        <ele>201.6</ele>
        <time>2010-12-12T12:03:00Z</time>
      </trkpt>
      <trkpt lat="43.25704" lon="-0.30513">
        <ele>199.8</ele>
        <time>2010-12-12T12:03:22Z</time>
      </trkpt>
    </trkseg>
  </trk>
</gpx>